<?xml version="1.0" encoding="UTF-8" standalone="no" ?>
<gpx xmlns="http://www.topografix.com/GPX/1/1" xmlns:xsi="http://www.w3.org/2001/XMLSchema-instance" xsi:schemaLocation="http://www.topografix.com/GPX/1/1 http://www.topografix.com/GPX/1/1/gpx.xsd" version="1.1" creator="VisuGPX - https://www.visugpx.com">
  <metadata>
    <name>2018-01-07 Bike ride-Val d-Azergues O</name>
    <desc><![CDATA[2018-01-07 Bike ride-Val d-Azergues O. 9C Very Cloudy]]></desc>
  </metadata>
  <wpt lat="45.92461" lon="4.73707">
    <ele>174</ele>
    <name><![CDATA[2018-01-07 10:21 (Start)]]></name>
  </wpt>
  <wpt lat="45.92462" lon="4.73713">
    <ele>174</ele>
    <name><![CDATA[2018-01-07 10:21 (End)]]></name>
    <desc><![CDATA[Created by Google My Tracks on Android  Name: 2018-01-07 10:21 Activity type: biking Description: - Total distance: 31.40 km (19.5 mi) Total time: 1:46:22 Moving time: 1:44:54 Average speed: 17.71 km/h (11.0 mi/h) Average moving speed: 17.96 km/h (11.2 mi/h) Max speed: 35.46 km/h (22.0 mi/h) Average pace: 3:23 min/km (5:27 min/mi) Average moving pace: 3:20 min/km (5:23 min/mi) Fastest pace: 1:42 min/km (2:43 min/mi) Max elevation: 293 m (961 ft) Min elevation: 209 m (686 ft) Elevation gain: 327 m (1074 ft) Max grade: 23 % Min grade: -16 % Recorded: 07/01/2018 10:21]]></desc>
  </wpt>
  <trk>
    <name><![CDATA[2018-01-07 10:21]]></name>
    <trkseg>
      <trkpt lat="45.92461" lon="4.73707">
        <ele>174</ele>
        <time>2018-01-07T09:21:53.254Z</time>
      </trkpt>
      <trkpt lat="45.9246" lon="4.73712">
        <ele>174</ele>
        <time>2018-01-07T09:21:53.315Z</time>
      </trkpt>
      <trkpt lat="45.92464" lon="4.73708">
        <ele>174</ele>
        <time>2018-01-07T09:21:54.315Z</time>
      </trkpt>
      <trkpt lat="45.92465" lon="4.73709">
        <ele>174</ele>
        <time>2018-01-07T09:21:55.315Z</time>
      </trkpt>
      <trkpt lat="45.92456" lon="4.73708">
        <ele>174</ele>
        <time>2018-01-07T09:21:56.312Z</time>
      </trkpt>
      <trkpt lat="45.92423" lon="4.73703">
        <ele>174</ele>
        <time>2018-01-07T09:21:57Z</time>
      </trkpt>
      <trkpt lat="45.92426" lon="4.73704">
        <ele>174</ele>
        <time>2018-01-07T09:22:01Z</time>
      </trkpt>
      <trkpt lat="45.92468" lon="4.73701">
        <ele>174</ele>
        <time>2018-01-07T09:22:02Z</time>
      </trkpt>
      <trkpt lat="45.92466" lon="4.73703">
        <ele>174</ele>
        <time>2018-01-07T09:22:03Z</time>
      </trkpt>
      <trkpt lat="45.92464" lon="4.73705">
        <ele>174</ele>
        <time>2018-01-07T09:22:04Z</time>
      </trkpt>
      <trkpt lat="45.92462" lon="4.73705">
        <ele>174</ele>
        <time>2018-01-07T09:22:05Z</time>
      </trkpt>
      <trkpt lat="45.92461" lon="4.73706">
        <ele>174</ele>
        <time>2018-01-07T09:22:06Z</time>
      </trkpt>
      <trkpt lat="45.92466" lon="4.73697">
        <ele>174</ele>
        <time>2018-01-07T09:22:16Z</time>
      </trkpt>
      <trkpt lat="45.92467" lon="4.73695">
        <ele>174</ele>
        <time>2018-01-07T09:22:17Z</time>
      </trkpt>
      <trkpt lat="45.92468" lon="4.73682">
        <ele>174</ele>
        <time>2018-01-07T09:22:21Z</time>
      </trkpt>
      <trkpt lat="45.92468" lon="4.73679">
        <ele>174</ele>
        <time>2018-01-07T09:22:22Z</time>
      </trkpt>
      <trkpt lat="45.9247" lon="4.73668">
        <ele>174</ele>
        <time>2018-01-07T09:22:25Z</time>
      </trkpt>
      <trkpt lat="45.92471" lon="4.73664">
        <ele>174</ele>
        <time>2018-01-07T09:22:26Z</time>
      </trkpt>
      <trkpt lat="45.92471" lon="4.73652">
        <ele>174</ele>
        <time>2018-01-07T09:22:29Z</time>
      </trkpt>
      <trkpt lat="45.92472" lon="4.73648">
        <ele>174</ele>
        <time>2018-01-07T09:22:30Z</time>
      </trkpt>
      <trkpt lat="45.9248" lon="4.73641">
        <ele>174</ele>
        <time>2018-01-07T09:22:33Z</time>
      </trkpt>
      <trkpt lat="45.92483" lon="4.73641">
        <ele>174</ele>
        <time>2018-01-07T09:22:34Z</time>
      </trkpt>
      <trkpt lat="45.92491" lon="4.73642">
        <ele>174</ele>
        <time>2018-01-07T09:22:36Z</time>
      </trkpt>
      <trkpt lat="45.92495" lon="4.73642">
        <ele>174</ele>
        <time>2018-01-07T09:22:37Z</time>
      </trkpt>
      <trkpt lat="45.92503" lon="4.73642">
        <ele>174</ele>
        <time>2018-01-07T09:22:39Z</time>
      </trkpt>
      <trkpt lat="45.92507" lon="4.73642">
        <ele>174</ele>
        <time>2018-01-07T09:22:40Z</time>
      </trkpt>
      <trkpt lat="45.92515" lon="4.73642">
        <ele>174</ele>
        <time>2018-01-07T09:22:42Z</time>
      </trkpt>
      <trkpt lat="45.92519" lon="4.73642">
        <ele>173</ele>
        <time>2018-01-07T09:22:43Z</time>
      </trkpt>
      <trkpt lat="45.92528" lon="4.73643">
        <ele>173</ele>
        <time>2018-01-07T09:22:45Z</time>
      </trkpt>
      <trkpt lat="45.92532" lon="4.73642">
        <ele>173</ele>
        <time>2018-01-07T09:22:46Z</time>
      </trkpt>
      <trkpt lat="45.9254" lon="4.73641">
        <ele>173</ele>
        <time>2018-01-07T09:22:48Z</time>
      </trkpt>
      <trkpt lat="45.92544" lon="4.7364">
        <ele>173</ele>
        <time>2018-01-07T09:22:49Z</time>
      </trkpt>
      <trkpt lat="45.92552" lon="4.73638">
        <ele>173</ele>
        <time>2018-01-07T09:22:51Z</time>
      </trkpt>
      <trkpt lat="45.92557" lon="4.73637">
        <ele>173</ele>
        <time>2018-01-07T09:22:52Z</time>
      </trkpt>
      <trkpt lat="45.92561" lon="4.73636">
        <ele>173</ele>
        <time>2018-01-07T09:22:53Z</time>
      </trkpt>
      <trkpt lat="45.92566" lon="4.73634">
        <ele>173</ele>
        <time>2018-01-07T09:22:54Z</time>
      </trkpt>
      <trkpt lat="45.92571" lon="4.73633">
        <ele>173</ele>
        <time>2018-01-07T09:22:55Z</time>
      </trkpt>
      <trkpt lat="45.92576" lon="4.73631">
        <ele>173</ele>
        <time>2018-01-07T09:22:56Z</time>
      </trkpt>
      <trkpt lat="45.9258" lon="4.73631">
        <ele>173</ele>
        <time>2018-01-07T09:22:57Z</time>
      </trkpt>
      <trkpt lat="45.92585" lon="4.7363">
        <ele>172</ele>
        <time>2018-01-07T09:22:58Z</time>
      </trkpt>
      <trkpt lat="45.9259" lon="4.73629">
        <ele>172</ele>
        <time>2018-01-07T09:22:59Z</time>
      </trkpt>
      <trkpt lat="45.92595" lon="4.73628">
        <ele>172</ele>
        <time>2018-01-07T09:23:00Z</time>
      </trkpt>
      <trkpt lat="45.926" lon="4.73628">
        <ele>173</ele>
        <time>2018-01-07T09:23:01Z</time>
      </trkpt>
      <trkpt lat="45.92605" lon="4.73628">
        <ele>173</ele>
        <time>2018-01-07T09:23:02Z</time>
      </trkpt>
      <trkpt lat="45.92614" lon="4.73631">
        <ele>173</ele>
        <time>2018-01-07T09:23:04Z</time>
      </trkpt>
      <trkpt lat="45.92617" lon="4.73634">
        <ele>173</ele>
        <time>2018-01-07T09:23:05Z</time>
      </trkpt>
      <trkpt lat="45.92621" lon="4.73639">
        <ele>173</ele>
        <time>2018-01-07T09:23:06Z</time>
      </trkpt>
      <trkpt lat="45.92624" lon="4.73645">
        <ele>173</ele>
        <time>2018-01-07T09:23:07Z</time>
      </trkpt>
      <trkpt lat="45.92626" lon="4.73651">
        <ele>173</ele>
        <time>2018-01-07T09:23:08Z</time>
      </trkpt>
      <trkpt lat="45.9263" lon="4.73657">
        <ele>173</ele>
        <time>2018-01-07T09:23:09Z</time>
      </trkpt>
      <trkpt lat="45.92633" lon="4.73663">
        <ele>173</ele>
        <time>2018-01-07T09:23:10Z</time>
      </trkpt>
      <trkpt lat="45.92638" lon="4.73669">
        <ele>173</ele>
        <time>2018-01-07T09:23:11Z</time>
      </trkpt>
      <trkpt lat="45.92642" lon="4.73675">
        <ele>173</ele>
        <time>2018-01-07T09:23:12Z</time>
      </trkpt>
      <trkpt lat="45.92646" lon="4.7368">
        <ele>173</ele>
        <time>2018-01-07T09:23:13Z</time>
      </trkpt>
      <trkpt lat="45.9265" lon="4.73686">
        <ele>173</ele>
        <time>2018-01-07T09:23:14Z</time>
      </trkpt>
      <trkpt lat="45.92654" lon="4.73691">
        <ele>173</ele>
        <time>2018-01-07T09:23:15Z</time>
      </trkpt>
      <trkpt lat="45.92659" lon="4.73695">
        <ele>173</ele>
        <time>2018-01-07T09:23:16Z</time>
      </trkpt>
      <trkpt lat="45.92664" lon="4.73699">
        <ele>173</ele>
        <time>2018-01-07T09:23:17Z</time>
      </trkpt>
      <trkpt lat="45.92668" lon="4.737">
        <ele>174</ele>
        <time>2018-01-07T09:23:18Z</time>
      </trkpt>
      <trkpt lat="45.92674" lon="4.73705">
        <ele>174</ele>
        <time>2018-01-07T09:23:19Z</time>
      </trkpt>
      <trkpt lat="45.92678" lon="4.73707">
        <ele>173</ele>
        <time>2018-01-07T09:23:20Z</time>
      </trkpt>
      <trkpt lat="45.92684" lon="4.73709">
        <ele>173</ele>
        <time>2018-01-07T09:23:21Z</time>
      </trkpt>
      <trkpt lat="45.92689" lon="4.7371">
        <ele>173</ele>
        <time>2018-01-07T09:23:22Z</time>
      </trkpt>
      <trkpt lat="45.92694" lon="4.73711">
        <ele>173</ele>
        <time>2018-01-07T09:23:23Z</time>
      </trkpt>
      <trkpt lat="45.92699" lon="4.73711">
        <ele>173</ele>
        <time>2018-01-07T09:23:24Z</time>
      </trkpt>
      <trkpt lat="45.92704" lon="4.73713">
        <ele>173</ele>
        <time>2018-01-07T09:23:25Z</time>
      </trkpt>
      <trkpt lat="45.92709" lon="4.73715">
        <ele>173</ele>
        <time>2018-01-07T09:23:26Z</time>
      </trkpt>
      <trkpt lat="45.92715" lon="4.73715">
        <ele>173</ele>
        <time>2018-01-07T09:23:27Z</time>
      </trkpt>
      <trkpt lat="45.9272" lon="4.73718">
        <ele>173</ele>
        <time>2018-01-07T09:23:28Z</time>
      </trkpt>
      <trkpt lat="45.92725" lon="4.73719">
        <ele>173</ele>
        <time>2018-01-07T09:23:29Z</time>
      </trkpt>
      <trkpt lat="45.92729" lon="4.7372">
        <ele>173</ele>
        <time>2018-01-07T09:23:30Z</time>
      </trkpt>
      <trkpt lat="45.92735" lon="4.73721">
        <ele>173</ele>
        <time>2018-01-07T09:23:31Z</time>
      </trkpt>
      <trkpt lat="45.9274" lon="4.73721">
        <ele>173</ele>
        <time>2018-01-07T09:23:32Z</time>
      </trkpt>
      <trkpt lat="45.92746" lon="4.73723">
        <ele>173</ele>
        <time>2018-01-07T09:23:33Z</time>
      </trkpt>
      <trkpt lat="45.92751" lon="4.73724">
        <ele>172</ele>
        <time>2018-01-07T09:23:34Z</time>
      </trkpt>
      <trkpt lat="45.92756" lon="4.73725">
        <ele>172</ele>
        <time>2018-01-07T09:23:35Z</time>
      </trkpt>
      <trkpt lat="45.92762" lon="4.73726">
        <ele>172</ele>
        <time>2018-01-07T09:23:36Z</time>
      </trkpt>
      <trkpt lat="45.92765" lon="4.73729">
        <ele>172</ele>
        <time>2018-01-07T09:23:37Z</time>
      </trkpt>
      <trkpt lat="45.92771" lon="4.73731">
        <ele>172</ele>
        <time>2018-01-07T09:23:38Z</time>
      </trkpt>
      <trkpt lat="45.92775" lon="4.73734">
        <ele>172</ele>
        <time>2018-01-07T09:23:39Z</time>
      </trkpt>
      <trkpt lat="45.92782" lon="4.73739">
        <ele>172</ele>
        <time>2018-01-07T09:23:41Z</time>
      </trkpt>
      <trkpt lat="45.92784" lon="4.73742">
        <ele>172</ele>
        <time>2018-01-07T09:23:42Z</time>
      </trkpt>
      <trkpt lat="45.92789" lon="4.73751">
        <ele>173</ele>
        <time>2018-01-07T09:23:45Z</time>
      </trkpt>
      <trkpt lat="45.92792" lon="4.73755">
        <ele>173</ele>
        <time>2018-01-07T09:23:46Z</time>
      </trkpt>
      <trkpt lat="45.92801" lon="4.73759">
        <ele>173</ele>
        <time>2018-01-07T09:23:48Z</time>
      </trkpt>
      <trkpt lat="45.92805" lon="4.73761">
        <ele>173</ele>
        <time>2018-01-07T09:23:49Z</time>
      </trkpt>
      <trkpt lat="45.92809" lon="4.73762">
        <ele>173</ele>
        <time>2018-01-07T09:23:50Z</time>
      </trkpt>
      <trkpt lat="45.92814" lon="4.73765">
        <ele>173</ele>
        <time>2018-01-07T09:23:51Z</time>
      </trkpt>
      <trkpt lat="45.92819" lon="4.73767">
        <ele>173</ele>
        <time>2018-01-07T09:23:52Z</time>
      </trkpt>
      <trkpt lat="45.92823" lon="4.73772">
        <ele>173</ele>
        <time>2018-01-07T09:23:53Z</time>
      </trkpt>
      <trkpt lat="45.92827" lon="4.73777">
        <ele>173</ele>
        <time>2018-01-07T09:23:54Z</time>
      </trkpt>
      <trkpt lat="45.92832" lon="4.7378">
        <ele>173</ele>
        <time>2018-01-07T09:23:55Z</time>
      </trkpt>
      <trkpt lat="45.92837" lon="4.73785">
        <ele>173</ele>
        <time>2018-01-07T09:23:56Z</time>
      </trkpt>
      <trkpt lat="45.92842" lon="4.73789">
        <ele>173</ele>
        <time>2018-01-07T09:23:57Z</time>
      </trkpt>
      <trkpt lat="45.92847" lon="4.73793">
        <ele>173</ele>
        <time>2018-01-07T09:23:58Z</time>
      </trkpt>
      <trkpt lat="45.92852" lon="4.73798">
        <ele>173</ele>
        <time>2018-01-07T09:23:59Z</time>
      </trkpt>
      <trkpt lat="45.92856" lon="4.73803">
        <ele>173</ele>
        <time>2018-01-07T09:24:00Z</time>
      </trkpt>
      <trkpt lat="45.92859" lon="4.73808">
        <ele>173</ele>
        <time>2018-01-07T09:24:01Z</time>
      </trkpt>
      <trkpt lat="45.9286" lon="4.73816">
        <ele>173</ele>
        <time>2018-01-07T09:24:02Z</time>
      </trkpt>
      <trkpt lat="45.92862" lon="4.73823">
        <ele>173</ele>
        <time>2018-01-07T09:24:03Z</time>
      </trkpt>
      <trkpt lat="45.92864" lon="4.7383">
        <ele>173</ele>
        <time>2018-01-07T09:24:04Z</time>
      </trkpt>
      <trkpt lat="45.92865" lon="4.73836">
        <ele>173</ele>
        <time>2018-01-07T09:24:05Z</time>
      </trkpt>
      <trkpt lat="45.92867" lon="4.73843">
        <ele>173</ele>
        <time>2018-01-07T09:24:06Z</time>
      </trkpt>
      <trkpt lat="45.92869" lon="4.7385">
        <ele>173</ele>
        <time>2018-01-07T09:24:07Z</time>
      </trkpt>
      <trkpt lat="45.9287" lon="4.73857">
        <ele>173</ele>
        <time>2018-01-07T09:24:08Z</time>
      </trkpt>
      <trkpt lat="45.92872" lon="4.73863">
        <ele>173</ele>
        <time>2018-01-07T09:24:09Z</time>
      </trkpt>
      <trkpt lat="45.92874" lon="4.7387">
        <ele>173</ele>
        <time>2018-01-07T09:24:10Z</time>
      </trkpt>
      <trkpt lat="45.92875" lon="4.73879">
        <ele>173</ele>
        <time>2018-01-07T09:24:11Z</time>
      </trkpt>
      <trkpt lat="45.92876" lon="4.73886">
        <ele>173</ele>
        <time>2018-01-07T09:24:12Z</time>
      </trkpt>
      <trkpt lat="45.9288" lon="4.73891">
        <ele>173</ele>
        <time>2018-01-07T09:24:13Z</time>
      </trkpt>
      <trkpt lat="45.9288" lon="4.739">
        <ele>173</ele>
        <time>2018-01-07T09:24:14Z</time>
      </trkpt>
      <trkpt lat="45.92882" lon="4.73909">
        <ele>173</ele>
        <time>2018-01-07T09:24:15Z</time>
      </trkpt>
      <trkpt lat="45.92883" lon="4.73917">
        <ele>173</ele>
        <time>2018-01-07T09:24:16Z</time>
      </trkpt>
      <trkpt lat="45.92884" lon="4.73924">
        <ele>172</ele>
        <time>2018-01-07T09:24:17Z</time>
      </trkpt>
      <trkpt lat="45.92884" lon="4.73932">
        <ele>172</ele>
        <time>2018-01-07T09:24:18Z</time>
      </trkpt>
      <trkpt lat="45.92883" lon="4.73941">
        <ele>172</ele>
        <time>2018-01-07T09:24:19Z</time>
      </trkpt>
      <trkpt lat="45.92882" lon="4.73949">
        <ele>172</ele>
        <time>2018-01-07T09:24:20Z</time>
      </trkpt>
      <trkpt lat="45.92882" lon="4.73957">
        <ele>172</ele>
        <time>2018-01-07T09:24:21Z</time>
      </trkpt>
      <trkpt lat="45.92883" lon="4.73965">
        <ele>172</ele>
        <time>2018-01-07T09:24:22Z</time>
      </trkpt>
      <trkpt lat="45.92882" lon="4.73973">
        <ele>172</ele>
        <time>2018-01-07T09:24:23Z</time>
      </trkpt>
      <trkpt lat="45.92882" lon="4.73981">
        <ele>172</ele>
        <time>2018-01-07T09:24:24Z</time>
      </trkpt>
      <trkpt lat="45.92881" lon="4.73987">
        <ele>172</ele>
        <time>2018-01-07T09:24:25Z</time>
      </trkpt>
      <trkpt lat="45.92879" lon="4.73995">
        <ele>172</ele>
        <time>2018-01-07T09:24:26Z</time>
      </trkpt>
      <trkpt lat="45.92878" lon="4.74001">
        <ele>172</ele>
        <time>2018-01-07T09:24:27Z</time>
      </trkpt>
      <trkpt lat="45.92876" lon="4.7401">
        <ele>172</ele>
        <time>2018-01-07T09:24:28Z</time>
      </trkpt>
      <trkpt lat="45.92875" lon="4.74018">
        <ele>172</ele>
        <time>2018-01-07T09:24:29Z</time>
      </trkpt>
      <trkpt lat="45.92874" lon="4.74025">
        <ele>172</ele>
        <time>2018-01-07T09:24:30Z</time>
      </trkpt>
      <trkpt lat="45.92872" lon="4.74033">
        <ele>172</ele>
        <time>2018-01-07T09:24:31Z</time>
      </trkpt>
      <trkpt lat="45.92871" lon="4.7404">
        <ele>172</ele>
        <time>2018-01-07T09:24:32Z</time>
      </trkpt>
      <trkpt lat="45.92868" lon="4.74046">
        <ele>172</ele>
        <time>2018-01-07T09:24:33Z</time>
      </trkpt>
      <trkpt lat="45.92863" lon="4.74051">
        <ele>172</ele>
        <time>2018-01-07T09:24:34Z</time>
      </trkpt>
      <trkpt lat="45.9286" lon="4.74057">
        <ele>172</ele>
        <time>2018-01-07T09:24:35Z</time>
      </trkpt>
      <trkpt lat="45.92856" lon="4.74062">
        <ele>172</ele>
        <time>2018-01-07T09:24:36Z</time>
      </trkpt>
      <trkpt lat="45.92853" lon="4.74068">
        <ele>172</ele>
        <time>2018-01-07T09:24:37Z</time>
      </trkpt>
      <trkpt lat="45.92849" lon="4.74073">
        <ele>172</ele>
        <time>2018-01-07T09:24:38Z</time>
      </trkpt>
      <trkpt lat="45.92843" lon="4.74078">
        <ele>171</ele>
        <time>2018-01-07T09:24:39Z</time>
      </trkpt>
      <trkpt lat="45.92839" lon="4.74084">
        <ele>171</ele>
        <time>2018-01-07T09:24:40Z</time>
      </trkpt>
      <trkpt lat="45.92834" lon="4.74089">
        <ele>171</ele>
        <time>2018-01-07T09:24:41Z</time>
      </trkpt>
      <trkpt lat="45.9283" lon="4.74094">
        <ele>171</ele>
        <time>2018-01-07T09:24:42Z</time>
      </trkpt>
      <trkpt lat="45.92825" lon="4.74099">
        <ele>171</ele>
        <time>2018-01-07T09:24:43Z</time>
      </trkpt>
      <trkpt lat="45.92821" lon="4.74105">
        <ele>171</ele>
        <time>2018-01-07T09:24:44Z</time>
      </trkpt>
      <trkpt lat="45.92817" lon="4.74109">
        <ele>172</ele>
        <time>2018-01-07T09:24:45Z</time>
      </trkpt>
      <trkpt lat="45.92812" lon="4.74115">
        <ele>172</ele>
        <time>2018-01-07T09:24:46Z</time>
      </trkpt>
      <trkpt lat="45.92808" lon="4.7412">
        <ele>172</ele>
        <time>2018-01-07T09:24:47Z</time>
      </trkpt>
      <trkpt lat="45.92803" lon="4.74125">
        <ele>172</ele>
        <time>2018-01-07T09:24:48Z</time>
      </trkpt>
      <trkpt lat="45.92799" lon="4.7413">
        <ele>172</ele>
        <time>2018-01-07T09:24:49Z</time>
      </trkpt>
      <trkpt lat="45.92794" lon="4.74135">
        <ele>172</ele>
        <time>2018-01-07T09:24:50Z</time>
      </trkpt>
      <trkpt lat="45.92789" lon="4.74139">
        <ele>172</ele>
        <time>2018-01-07T09:24:51Z</time>
      </trkpt>
      <trkpt lat="45.92785" lon="4.74143">
        <ele>172</ele>
        <time>2018-01-07T09:24:52Z</time>
      </trkpt>
      <trkpt lat="45.9278" lon="4.74147">
        <ele>172</ele>
        <time>2018-01-07T09:24:53Z</time>
      </trkpt>
      <trkpt lat="45.92774" lon="4.74152">
        <ele>172</ele>
        <time>2018-01-07T09:24:54Z</time>
      </trkpt>
      <trkpt lat="45.9277" lon="4.74158">
        <ele>172</ele>
        <time>2018-01-07T09:24:55Z</time>
      </trkpt>
      <trkpt lat="45.92765" lon="4.74164">
        <ele>172</ele>
        <time>2018-01-07T09:24:56Z</time>
      </trkpt>
      <trkpt lat="45.9276" lon="4.74168">
        <ele>172</ele>
        <time>2018-01-07T09:24:57Z</time>
      </trkpt>
      <trkpt lat="45.92755" lon="4.74173">
        <ele>172</ele>
        <time>2018-01-07T09:24:58Z</time>
      </trkpt>
      <trkpt lat="45.92751" lon="4.74177">
        <ele>172</ele>
        <time>2018-01-07T09:24:59Z</time>
      </trkpt>
      <trkpt lat="45.92746" lon="4.74182">
        <ele>172</ele>
        <time>2018-01-07T09:25:00Z</time>
      </trkpt>
      <trkpt lat="45.92743" lon="4.74188">
        <ele>172</ele>
        <time>2018-01-07T09:25:01Z</time>
      </trkpt>
      <trkpt lat="45.92739" lon="4.74193">
        <ele>171</ele>
        <time>2018-01-07T09:25:02Z</time>
      </trkpt>
      <trkpt lat="45.92735" lon="4.74197">
        <ele>171</ele>
        <time>2018-01-07T09:25:03Z</time>
      </trkpt>
      <trkpt lat="45.92732" lon="4.74202">
        <ele>171</ele>
        <time>2018-01-07T09:25:04Z</time>
      </trkpt>
      <trkpt lat="45.92728" lon="4.74207">
        <ele>171</ele>
        <time>2018-01-07T09:25:05Z</time>
      </trkpt>
      <trkpt lat="45.92724" lon="4.74212">
        <ele>171</ele>
        <time>2018-01-07T09:25:06Z</time>
      </trkpt>
      <trkpt lat="45.92719" lon="4.74217">
        <ele>171</ele>
        <time>2018-01-07T09:25:07Z</time>
      </trkpt>
      <trkpt lat="45.92716" lon="4.74223">
        <ele>171</ele>
        <time>2018-01-07T09:25:08Z</time>
      </trkpt>
      <trkpt lat="45.92712" lon="4.74228">
        <ele>171</ele>
        <time>2018-01-07T09:25:09Z</time>
      </trkpt>
      <trkpt lat="45.92708" lon="4.74234">
        <ele>171</ele>
        <time>2018-01-07T09:25:10Z</time>
      </trkpt>
      <trkpt lat="45.92704" lon="4.7424">
        <ele>171</ele>
        <time>2018-01-07T09:25:11Z</time>
      </trkpt>
      <trkpt lat="45.927" lon="4.74246">
        <ele>171</ele>
        <time>2018-01-07T09:25:12Z</time>
      </trkpt>
      <trkpt lat="45.92696" lon="4.74252">
        <ele>171</ele>
        <time>2018-01-07T09:25:13Z</time>
      </trkpt>
      <trkpt lat="45.92693" lon="4.74258">
        <ele>171</ele>
        <time>2018-01-07T09:25:14Z</time>
      </trkpt>
      <trkpt lat="45.92689" lon="4.74264">
        <ele>171</ele>
        <time>2018-01-07T09:25:15Z</time>
      </trkpt>
      <trkpt lat="45.92686" lon="4.7427">
        <ele>171</ele>
        <time>2018-01-07T09:25:16Z</time>
      </trkpt>
      <trkpt lat="45.92682" lon="4.74278">
        <ele>171</ele>
        <time>2018-01-07T09:25:17Z</time>
      </trkpt>
      <trkpt lat="45.92678" lon="4.74284">
        <ele>171</ele>
        <time>2018-01-07T09:25:18Z</time>
      </trkpt>
      <trkpt lat="45.92673" lon="4.74289">
        <ele>171</ele>
        <time>2018-01-07T09:25:19Z</time>
      </trkpt>
      <trkpt lat="45.92669" lon="4.74297">
        <ele>171</ele>
        <time>2018-01-07T09:25:20Z</time>
      </trkpt>
      <trkpt lat="45.92666" lon="4.74304">
        <ele>171</ele>
        <time>2018-01-07T09:25:21Z</time>
      </trkpt>
      <trkpt lat="45.92661" lon="4.74311">
        <ele>171</ele>
        <time>2018-01-07T09:25:22Z</time>
      </trkpt>
      <trkpt lat="45.92658" lon="4.74318">
        <ele>171</ele>
        <time>2018-01-07T09:25:23Z</time>
      </trkpt>
      <trkpt lat="45.92653" lon="4.74326">
        <ele>171</ele>
        <time>2018-01-07T09:25:24Z</time>
      </trkpt>
      <trkpt lat="45.92649" lon="4.74332">
        <ele>171</ele>
        <time>2018-01-07T09:25:25Z</time>
      </trkpt>
      <trkpt lat="45.92646" lon="4.74339">
        <ele>171</ele>
        <time>2018-01-07T09:25:26Z</time>
      </trkpt>
      <trkpt lat="45.92642" lon="4.74345">
        <ele>171</ele>
        <time>2018-01-07T09:25:27Z</time>
      </trkpt>
      <trkpt lat="45.92639" lon="4.74351">
        <ele>171</ele>
        <time>2018-01-07T09:25:28Z</time>
      </trkpt>
      <trkpt lat="45.92636" lon="4.74358">
        <ele>171</ele>
        <time>2018-01-07T09:25:29Z</time>
      </trkpt>
      <trkpt lat="45.92632" lon="4.74364">
        <ele>171</ele>
        <time>2018-01-07T09:25:30Z</time>
      </trkpt>
      <trkpt lat="45.92628" lon="4.74371">
        <ele>171</ele>
        <time>2018-01-07T09:25:31Z</time>
      </trkpt>
      <trkpt lat="45.92625" lon="4.74379">
        <ele>170</ele>
        <time>2018-01-07T09:25:32Z</time>
      </trkpt>
      <trkpt lat="45.92621" lon="4.74385">
        <ele>170</ele>
        <time>2018-01-07T09:25:33Z</time>
      </trkpt>
      <trkpt lat="45.92617" lon="4.74392">
        <ele>170</ele>
        <time>2018-01-07T09:25:34Z</time>
      </trkpt>
      <trkpt lat="45.92614" lon="4.744">
        <ele>170</ele>
        <time>2018-01-07T09:25:35Z</time>
      </trkpt>
      <trkpt lat="45.9261" lon="4.74407">
        <ele>170</ele>
        <time>2018-01-07T09:25:36Z</time>
      </trkpt>
      <trkpt lat="45.92605" lon="4.74414">
        <ele>170</ele>
        <time>2018-01-07T09:25:37Z</time>
      </trkpt>
      <trkpt lat="45.92602" lon="4.74422">
        <ele>170</ele>
        <time>2018-01-07T09:25:38Z</time>
      </trkpt>
      <trkpt lat="45.92598" lon="4.74428">
        <ele>170</ele>
        <time>2018-01-07T09:25:39Z</time>
      </trkpt>
      <trkpt lat="45.92594" lon="4.74435">
        <ele>170</ele>
        <time>2018-01-07T09:25:40Z</time>
      </trkpt>
      <trkpt lat="45.92591" lon="4.74441">
        <ele>170</ele>
        <time>2018-01-07T09:25:41Z</time>
      </trkpt>
      <trkpt lat="45.92587" lon="4.74448">
        <ele>170</ele>
        <time>2018-01-07T09:25:42Z</time>
      </trkpt>
      <trkpt lat="45.92584" lon="4.74455">
        <ele>170</ele>
        <time>2018-01-07T09:25:43Z</time>
      </trkpt>
      <trkpt lat="45.9258" lon="4.74461">
        <ele>170</ele>
        <time>2018-01-07T09:25:44Z</time>
      </trkpt>
      <trkpt lat="45.92577" lon="4.74467">
        <ele>170</ele>
        <time>2018-01-07T09:25:45Z</time>
      </trkpt>
      <trkpt lat="45.92574" lon="4.74474">
        <ele>170</ele>
        <time>2018-01-07T09:25:46Z</time>
      </trkpt>
      <trkpt lat="45.92571" lon="4.7448">
        <ele>170</ele>
        <time>2018-01-07T09:25:47Z</time>
      </trkpt>
      <trkpt lat="45.92566" lon="4.74488">
        <ele>170</ele>
        <time>2018-01-07T09:25:48Z</time>
      </trkpt>
      <trkpt lat="45.92562" lon="4.74494">
        <ele>170</ele>
        <time>2018-01-07T09:25:49Z</time>
      </trkpt>
      <trkpt lat="45.92558" lon="4.74499">
        <ele>170</ele>
        <time>2018-01-07T09:25:50Z</time>
      </trkpt>
      <trkpt lat="45.92554" lon="4.74506">
        <ele>170</ele>
        <time>2018-01-07T09:25:51Z</time>
      </trkpt>
      <trkpt lat="45.92551" lon="4.74513">
        <ele>170</ele>
        <time>2018-01-07T09:25:52Z</time>
      </trkpt>
      <trkpt lat="45.92547" lon="4.7452">
        <ele>170</ele>
        <time>2018-01-07T09:25:53Z</time>
      </trkpt>
      <trkpt lat="45.92544" lon="4.74527">
        <ele>170</ele>
        <time>2018-01-07T09:25:54Z</time>
      </trkpt>
      <trkpt lat="45.92541" lon="4.74533">
        <ele>171</ele>
        <time>2018-01-07T09:25:55Z</time>
      </trkpt>
      <trkpt lat="45.92537" lon="4.74539">
        <ele>171</ele>
        <time>2018-01-07T09:25:56Z</time>
      </trkpt>
      <trkpt lat="45.92532" lon="4.74546">
        <ele>171</ele>
        <time>2018-01-07T09:25:57Z</time>
      </trkpt>
      <trkpt lat="45.92528" lon="4.74552">
        <ele>171</ele>
        <time>2018-01-07T09:25:58Z</time>
      </trkpt>
      <trkpt lat="45.92524" lon="4.7456">
        <ele>171</ele>
        <time>2018-01-07T09:25:59Z</time>
      </trkpt>
      <trkpt lat="45.9252" lon="4.74565">
        <ele>171</ele>
        <time>2018-01-07T09:26:00Z</time>
      </trkpt>
      <trkpt lat="45.92516" lon="4.7457">
        <ele>171</ele>
        <time>2018-01-07T09:26:01Z</time>
      </trkpt>
      <trkpt lat="45.92511" lon="4.74575">
        <ele>171</ele>
        <time>2018-01-07T09:26:02Z</time>
      </trkpt>
      <trkpt lat="45.92507" lon="4.7458">
        <ele>171</ele>
        <time>2018-01-07T09:26:03Z</time>
      </trkpt>
      <trkpt lat="45.92503" lon="4.74585">
        <ele>171</ele>
        <time>2018-01-07T09:26:04Z</time>
      </trkpt>
      <trkpt lat="45.92498" lon="4.7459">
        <ele>171</ele>
        <time>2018-01-07T09:26:05Z</time>
      </trkpt>
      <trkpt lat="45.92494" lon="4.74595">
        <ele>171</ele>
        <time>2018-01-07T09:26:06Z</time>
      </trkpt>
      <trkpt lat="45.9249" lon="4.74599">
        <ele>171</ele>
        <time>2018-01-07T09:26:07Z</time>
      </trkpt>
      <trkpt lat="45.92486" lon="4.74605">
        <ele>171</ele>
        <time>2018-01-07T09:26:08Z</time>
      </trkpt>
      <trkpt lat="45.92482" lon="4.74611">
        <ele>171</ele>
        <time>2018-01-07T09:26:09Z</time>
      </trkpt>
      <trkpt lat="45.92478" lon="4.74616">
        <ele>171</ele>
        <time>2018-01-07T09:26:10Z</time>
      </trkpt>
      <trkpt lat="45.92475" lon="4.74622">
        <ele>171</ele>
        <time>2018-01-07T09:26:11Z</time>
      </trkpt>
      <trkpt lat="45.92471" lon="4.74629">
        <ele>171</ele>
        <time>2018-01-07T09:26:12Z</time>
      </trkpt>
      <trkpt lat="45.92468" lon="4.74635">
        <ele>171</ele>
        <time>2018-01-07T09:26:13Z</time>
      </trkpt>
      <trkpt lat="45.92464" lon="4.74641">
        <ele>171</ele>
        <time>2018-01-07T09:26:14Z</time>
      </trkpt>
      <trkpt lat="45.92461" lon="4.74647">
        <ele>171</ele>
        <time>2018-01-07T09:26:15Z</time>
      </trkpt>
      <trkpt lat="45.92458" lon="4.74653">
        <ele>171</ele>
        <time>2018-01-07T09:26:16Z</time>
      </trkpt>
      <trkpt lat="45.92454" lon="4.74659">
        <ele>171</ele>
        <time>2018-01-07T09:26:17Z</time>
      </trkpt>
      <trkpt lat="45.92449" lon="4.74665">
        <ele>171</ele>
        <time>2018-01-07T09:26:18Z</time>
      </trkpt>
      <trkpt lat="45.92447" lon="4.74671">
        <ele>171</ele>
        <time>2018-01-07T09:26:19Z</time>
      </trkpt>
      <trkpt lat="45.92443" lon="4.74678">
        <ele>171</ele>
        <time>2018-01-07T09:26:20Z</time>
      </trkpt>
      <trkpt lat="45.92441" lon="4.74684">
        <ele>171</ele>
        <time>2018-01-07T09:26:21Z</time>
      </trkpt>
      <trkpt lat="45.92439" lon="4.7469">
        <ele>171</ele>
        <time>2018-01-07T09:26:22Z</time>
      </trkpt>
      <trkpt lat="45.92436" lon="4.74696">
        <ele>171</ele>
        <time>2018-01-07T09:26:23Z</time>
      </trkpt>
      <trkpt lat="45.92434" lon="4.74704">
        <ele>171</ele>
        <time>2018-01-07T09:26:24Z</time>
      </trkpt>
      <trkpt lat="45.92429" lon="4.74711">
        <ele>171</ele>
        <time>2018-01-07T09:26:25Z</time>
      </trkpt>
      <trkpt lat="45.92427" lon="4.74719">
        <ele>171</ele>
        <time>2018-01-07T09:26:26Z</time>
      </trkpt>
      <trkpt lat="45.92423" lon="4.74726">
        <ele>171</ele>
        <time>2018-01-07T09:26:27Z</time>
      </trkpt>
      <trkpt lat="45.92421" lon="4.74733">
        <ele>171</ele>
        <time>2018-01-07T09:26:28Z</time>
      </trkpt>
      <trkpt lat="45.92419" lon="4.74742">
        <ele>172</ele>
        <time>2018-01-07T09:26:29Z</time>
      </trkpt>
      <trkpt lat="45.92417" lon="4.7475">
        <ele>172</ele>
        <time>2018-01-07T09:26:30Z</time>
      </trkpt>
      <trkpt lat="45.92414" lon="4.74759">
        <ele>172</ele>
        <time>2018-01-07T09:26:31Z</time>
      </trkpt>
      <trkpt lat="45.92412" lon="4.74766">
        <ele>172</ele>
        <time>2018-01-07T09:26:32Z</time>
      </trkpt>
      <trkpt lat="45.9241" lon="4.74773">
        <ele>171</ele>
        <time>2018-01-07T09:26:33Z</time>
      </trkpt>
      <trkpt lat="45.92408" lon="4.74782">
        <ele>171</ele>
        <time>2018-01-07T09:26:34Z</time>
      </trkpt>
      <trkpt lat="45.92407" lon="4.7479">
        <ele>171</ele>
        <time>2018-01-07T09:26:35Z</time>
      </trkpt>
      <trkpt lat="45.92405" lon="4.748">
        <ele>171</ele>
        <time>2018-01-07T09:26:36Z</time>
      </trkpt>
      <trkpt lat="45.92403" lon="4.74809">
        <ele>171</ele>
        <time>2018-01-07T09:26:37Z</time>
      </trkpt>
      <trkpt lat="45.92401" lon="4.74816">
        <ele>171</ele>
        <time>2018-01-07T09:26:38Z</time>
      </trkpt>
      <trkpt lat="45.92399" lon="4.74825">
        <ele>171</ele>
        <time>2018-01-07T09:26:39Z</time>
      </trkpt>
      <trkpt lat="45.92397" lon="4.74833">
        <ele>171</ele>
        <time>2018-01-07T09:26:40Z</time>
      </trkpt>
      <trkpt lat="45.92394" lon="4.74842">
        <ele>171</ele>
        <time>2018-01-07T09:26:41Z</time>
      </trkpt>
      <trkpt lat="45.92392" lon="4.7485">
        <ele>171</ele>
        <time>2018-01-07T09:26:42Z</time>
      </trkpt>
      <trkpt lat="45.9239" lon="4.74857">
        <ele>171</ele>
        <time>2018-01-07T09:26:43Z</time>
      </trkpt>
      <trkpt lat="45.92387" lon="4.74866">
        <ele>171</ele>
        <time>2018-01-07T09:26:44Z</time>
      </trkpt>
      <trkpt lat="45.92384" lon="4.74876">
        <ele>171</ele>
        <time>2018-01-07T09:26:45Z</time>
      </trkpt>
      <trkpt lat="45.92381" lon="4.74883">
        <ele>171</ele>
        <time>2018-01-07T09:26:46Z</time>
      </trkpt>
      <trkpt lat="45.92378" lon="4.7489">
        <ele>171</ele>
        <time>2018-01-07T09:26:47Z</time>
      </trkpt>
      <trkpt lat="45.92375" lon="4.74898">
        <ele>171</ele>
        <time>2018-01-07T09:26:48Z</time>
      </trkpt>
      <trkpt lat="45.92373" lon="4.74905">
        <ele>171</ele>
        <time>2018-01-07T09:26:49Z</time>
      </trkpt>
      <trkpt lat="45.92371" lon="4.74914">
        <ele>171</ele>
        <time>2018-01-07T09:26:50Z</time>
      </trkpt>
      <trkpt lat="45.92368" lon="4.74921">
        <ele>170</ele>
        <time>2018-01-07T09:26:51Z</time>
      </trkpt>
      <trkpt lat="45.92366" lon="4.74928">
        <ele>170</ele>
        <time>2018-01-07T09:26:52Z</time>
      </trkpt>
      <trkpt lat="45.92363" lon="4.74935">
        <ele>170</ele>
        <time>2018-01-07T09:26:53Z</time>
      </trkpt>
      <trkpt lat="45.9236" lon="4.74942">
        <ele>170</ele>
        <time>2018-01-07T09:26:54Z</time>
      </trkpt>
      <trkpt lat="45.92357" lon="4.7495">
        <ele>170</ele>
        <time>2018-01-07T09:26:55Z</time>
      </trkpt>
      <trkpt lat="45.92354" lon="4.74957">
        <ele>170</ele>
        <time>2018-01-07T09:26:56Z</time>
      </trkpt>
      <trkpt lat="45.92351" lon="4.74964">
        <ele>170</ele>
        <time>2018-01-07T09:26:57Z</time>
      </trkpt>
      <trkpt lat="45.9235" lon="4.74971">
        <ele>170</ele>
        <time>2018-01-07T09:26:58Z</time>
      </trkpt>
      <trkpt lat="45.92347" lon="4.74978">
        <ele>170</ele>
        <time>2018-01-07T09:26:59Z</time>
      </trkpt>
      <trkpt lat="45.92344" lon="4.74985">
        <ele>170</ele>
        <time>2018-01-07T09:27:00Z</time>
      </trkpt>
      <trkpt lat="45.92341" lon="4.74993">
        <ele>170</ele>
        <time>2018-01-07T09:27:01Z</time>
      </trkpt>
      <trkpt lat="45.92338" lon="4.75">
        <ele>170</ele>
        <time>2018-01-07T09:27:02Z</time>
      </trkpt>
      <trkpt lat="45.92335" lon="4.75007">
        <ele>170</ele>
        <time>2018-01-07T09:27:03Z</time>
      </trkpt>
      <trkpt lat="45.92332" lon="4.75013">
        <ele>171</ele>
        <time>2018-01-07T09:27:04Z</time>
      </trkpt>
      <trkpt lat="45.92329" lon="4.75019">
        <ele>171</ele>
        <time>2018-01-07T09:27:05Z</time>
      </trkpt>
      <trkpt lat="45.92325" lon="4.75026">
        <ele>171</ele>
        <time>2018-01-07T09:27:06Z</time>
      </trkpt>
      <trkpt lat="45.92321" lon="4.75033">
        <ele>171</ele>
        <time>2018-01-07T09:27:07Z</time>
      </trkpt>
      <trkpt lat="45.92318" lon="4.75039">
        <ele>171</ele>
        <time>2018-01-07T09:27:08Z</time>
      </trkpt>
      <trkpt lat="45.92314" lon="4.75045">
        <ele>172</ele>
        <time>2018-01-07T09:27:09Z</time>
      </trkpt>
      <trkpt lat="45.9231" lon="4.75051">
        <ele>172</ele>
        <time>2018-01-07T09:27:10Z</time>
      </trkpt>
      <trkpt lat="45.92306" lon="4.75056">
        <ele>172</ele>
        <time>2018-01-07T09:27:11Z</time>
      </trkpt>
      <trkpt lat="45.92302" lon="4.75061">
        <ele>172</ele>
        <time>2018-01-07T09:27:12Z</time>
      </trkpt>
      <trkpt lat="45.92298" lon="4.75066">
        <ele>172</ele>
        <time>2018-01-07T09:27:13Z</time>
      </trkpt>
      <trkpt lat="45.92294" lon="4.75071">
        <ele>172</ele>
        <time>2018-01-07T09:27:14Z</time>
      </trkpt>
      <trkpt lat="45.9229" lon="4.75075">
        <ele>172</ele>
        <time>2018-01-07T09:27:15Z</time>
      </trkpt>
      <trkpt lat="45.92285" lon="4.75081">
        <ele>172</ele>
        <time>2018-01-07T09:27:16Z</time>
      </trkpt>
      <trkpt lat="45.92281" lon="4.75085">
        <ele>173</ele>
        <time>2018-01-07T09:27:17Z</time>
      </trkpt>
      <trkpt lat="45.92276" lon="4.75092">
        <ele>173</ele>
        <time>2018-01-07T09:27:18Z</time>
      </trkpt>
      <trkpt lat="45.92272" lon="4.75097">
        <ele>173</ele>
        <time>2018-01-07T09:27:19Z</time>
      </trkpt>
      <trkpt lat="45.92268" lon="4.75101">
        <ele>173</ele>
        <time>2018-01-07T09:27:20Z</time>
      </trkpt>
      <trkpt lat="45.92263" lon="4.75106">
        <ele>174</ele>
        <time>2018-01-07T09:27:21Z</time>
      </trkpt>
      <trkpt lat="45.92259" lon="4.75111">
        <ele>174</ele>
        <time>2018-01-07T09:27:22Z</time>
      </trkpt>
      <trkpt lat="45.92255" lon="4.75116">
        <ele>174</ele>
        <time>2018-01-07T09:27:23Z</time>
      </trkpt>
      <trkpt lat="45.9225" lon="4.7512">
        <ele>174</ele>
        <time>2018-01-07T09:27:24Z</time>
      </trkpt>
      <trkpt lat="45.92247" lon="4.75126">
        <ele>174</ele>
        <time>2018-01-07T09:27:25Z</time>
      </trkpt>
      <trkpt lat="45.92244" lon="4.75132">
        <ele>174</ele>
        <time>2018-01-07T09:27:26Z</time>
      </trkpt>
      <trkpt lat="45.92239" lon="4.75137">
        <ele>174</ele>
        <time>2018-01-07T09:27:27Z</time>
      </trkpt>
      <trkpt lat="45.92235" lon="4.75145">
        <ele>174</ele>
        <time>2018-01-07T09:27:28Z</time>
      </trkpt>
      <trkpt lat="45.92231" lon="4.75151">
        <ele>174</ele>
        <time>2018-01-07T09:27:29Z</time>
      </trkpt>
      <trkpt lat="45.92228" lon="4.75157">
        <ele>174</ele>
        <time>2018-01-07T09:27:30Z</time>
      </trkpt>
      <trkpt lat="45.92225" lon="4.75163">
        <ele>174</ele>
        <time>2018-01-07T09:27:31Z</time>
      </trkpt>
      <trkpt lat="45.92222" lon="4.75169">
        <ele>175</ele>
        <time>2018-01-07T09:27:32Z</time>
      </trkpt>
      <trkpt lat="45.9222" lon="4.75176">
        <ele>175</ele>
        <time>2018-01-07T09:27:33Z</time>
      </trkpt>
      <trkpt lat="45.92218" lon="4.75183">
        <ele>175</ele>
        <time>2018-01-07T09:27:34Z</time>
      </trkpt>
      <trkpt lat="45.92216" lon="4.75191">
        <ele>175</ele>
        <time>2018-01-07T09:27:35Z</time>
      </trkpt>
      <trkpt lat="45.92215" lon="4.75199">
        <ele>175</ele>
        <time>2018-01-07T09:27:36Z</time>
      </trkpt>
      <trkpt lat="45.92214" lon="4.75206">
        <ele>175</ele>
        <time>2018-01-07T09:27:37Z</time>
      </trkpt>
      <trkpt lat="45.92213" lon="4.75214">
        <ele>175</ele>
        <time>2018-01-07T09:27:38Z</time>
      </trkpt>
      <trkpt lat="45.92212" lon="4.75222">
        <ele>175</ele>
        <time>2018-01-07T09:27:39Z</time>
      </trkpt>
      <trkpt lat="45.92212" lon="4.7523">
        <ele>175</ele>
        <time>2018-01-07T09:27:40Z</time>
      </trkpt>
      <trkpt lat="45.92211" lon="4.75238">
        <ele>175</ele>
        <time>2018-01-07T09:27:41Z</time>
      </trkpt>
      <trkpt lat="45.92211" lon="4.75246">
        <ele>175</ele>
        <time>2018-01-07T09:27:42Z</time>
      </trkpt>
      <trkpt lat="45.92211" lon="4.75255">
        <ele>175</ele>
        <time>2018-01-07T09:27:43Z</time>
      </trkpt>
      <trkpt lat="45.92211" lon="4.75263">
        <ele>176</ele>
        <time>2018-01-07T09:27:44Z</time>
      </trkpt>
      <trkpt lat="45.92211" lon="4.7527">
        <ele>176</ele>
        <time>2018-01-07T09:27:45Z</time>
      </trkpt>
      <trkpt lat="45.92211" lon="4.75278">
        <ele>176</ele>
        <time>2018-01-07T09:27:46Z</time>
      </trkpt>
      <trkpt lat="45.92211" lon="4.75286">
        <ele>176</ele>
        <time>2018-01-07T09:27:47Z</time>
      </trkpt>
      <trkpt lat="45.9221" lon="4.75294">
        <ele>176</ele>
        <time>2018-01-07T09:27:48Z</time>
      </trkpt>
      <trkpt lat="45.9221" lon="4.75304">
        <ele>176</ele>
        <time>2018-01-07T09:27:49Z</time>
      </trkpt>
      <trkpt lat="45.92209" lon="4.75312">
        <ele>176</ele>
        <time>2018-01-07T09:27:50Z</time>
      </trkpt>
      <trkpt lat="45.92208" lon="4.7532">
        <ele>176</ele>
        <time>2018-01-07T09:27:51Z</time>
      </trkpt>
      <trkpt lat="45.92208" lon="4.75328">
        <ele>176</ele>
        <time>2018-01-07T09:27:52Z</time>
      </trkpt>
      <trkpt lat="45.92206" lon="4.75335">
        <ele>177</ele>
        <time>2018-01-07T09:27:53Z</time>
      </trkpt>
      <trkpt lat="45.92204" lon="4.75341">
        <ele>177</ele>
        <time>2018-01-07T09:27:54Z</time>
      </trkpt>
      <trkpt lat="45.92203" lon="4.7535">
        <ele>177</ele>
        <time>2018-01-07T09:27:55Z</time>
      </trkpt>
      <trkpt lat="45.922" lon="4.75356">
        <ele>177</ele>
        <time>2018-01-07T09:27:56Z</time>
      </trkpt>
      <trkpt lat="45.92198" lon="4.75364">
        <ele>177</ele>
        <time>2018-01-07T09:27:57Z</time>
      </trkpt>
      <trkpt lat="45.92196" lon="4.75371">
        <ele>177</ele>
        <time>2018-01-07T09:27:58Z</time>
      </trkpt>
      <trkpt lat="45.92193" lon="4.75378">
        <ele>177</ele>
        <time>2018-01-07T09:27:59Z</time>
      </trkpt>
      <trkpt lat="45.92189" lon="4.75386">
        <ele>177</ele>
        <time>2018-01-07T09:28:00Z</time>
      </trkpt>
      <trkpt lat="45.92187" lon="4.75393">
        <ele>177</ele>
        <time>2018-01-07T09:28:01Z</time>
      </trkpt>
      <trkpt lat="45.92185" lon="4.75401">
        <ele>177</ele>
        <time>2018-01-07T09:28:02Z</time>
      </trkpt>
      <trkpt lat="45.92182" lon="4.75408">
        <ele>177</ele>
        <time>2018-01-07T09:28:03Z</time>
      </trkpt>
      <trkpt lat="45.92179" lon="4.75415">
        <ele>177</ele>
        <time>2018-01-07T09:28:04Z</time>
      </trkpt>
      <trkpt lat="45.92177" lon="4.75423">
        <ele>177</ele>
        <time>2018-01-07T09:28:05Z</time>
      </trkpt>
      <trkpt lat="45.92173" lon="4.75429">
        <ele>177</ele>
        <time>2018-01-07T09:28:06Z</time>
      </trkpt>
      <trkpt lat="45.92171" lon="4.75437">
        <ele>177</ele>
        <time>2018-01-07T09:28:07Z</time>
      </trkpt>
      <trkpt lat="45.92168" lon="4.75444">
        <ele>176</ele>
        <time>2018-01-07T09:28:08Z</time>
      </trkpt>
      <trkpt lat="45.92165" lon="4.75452">
        <ele>176</ele>
        <time>2018-01-07T09:28:09Z</time>
      </trkpt>
      <trkpt lat="45.92162" lon="4.75459">
        <ele>176</ele>
        <time>2018-01-07T09:28:10Z</time>
      </trkpt>
      <trkpt lat="45.92158" lon="4.75467">
        <ele>176</ele>
        <time>2018-01-07T09:28:11Z</time>
      </trkpt>
      <trkpt lat="45.92154" lon="4.75475">
        <ele>176</ele>
        <time>2018-01-07T09:28:12Z</time>
      </trkpt>
      <trkpt lat="45.9215" lon="4.75483">
        <ele>176</ele>
        <time>2018-01-07T09:28:13Z</time>
      </trkpt>
      <trkpt lat="45.92147" lon="4.75491">
        <ele>176</ele>
        <time>2018-01-07T09:28:14Z</time>
      </trkpt>
      <trkpt lat="45.9214" lon="4.75498">
        <ele>175</ele>
        <time>2018-01-07T09:28:15Z</time>
      </trkpt>
      <trkpt lat="45.92137" lon="4.75505">
        <ele>174</ele>
        <time>2018-01-07T09:28:16Z</time>
      </trkpt>
      <trkpt lat="45.92133" lon="4.75512">
        <ele>174</ele>
        <time>2018-01-07T09:28:17Z</time>
      </trkpt>
      <trkpt lat="45.9213" lon="4.75518">
        <ele>174</ele>
        <time>2018-01-07T09:28:18Z</time>
      </trkpt>
      <trkpt lat="45.92127" lon="4.75524">
        <ele>174</ele>
        <time>2018-01-07T09:28:19Z</time>
      </trkpt>
      <trkpt lat="45.92123" lon="4.7553">
        <ele>174</ele>
        <time>2018-01-07T09:28:20Z</time>
      </trkpt>
      <trkpt lat="45.92119" lon="4.75537">
        <ele>174</ele>
        <time>2018-01-07T09:28:21Z</time>
      </trkpt>
      <trkpt lat="45.92116" lon="4.75544">
        <ele>174</ele>
        <time>2018-01-07T09:28:22Z</time>
      </trkpt>
      <trkpt lat="45.92113" lon="4.7555">
        <ele>174</ele>
        <time>2018-01-07T09:28:23Z</time>
      </trkpt>
      <trkpt lat="45.92109" lon="4.75557">
        <ele>174</ele>
        <time>2018-01-07T09:28:24Z</time>
      </trkpt>
      <trkpt lat="45.92105" lon="4.75564">
        <ele>174</ele>
        <time>2018-01-07T09:28:25Z</time>
      </trkpt>
      <trkpt lat="45.92102" lon="4.75571">
        <ele>174</ele>
        <time>2018-01-07T09:28:26Z</time>
      </trkpt>
      <trkpt lat="45.92098" lon="4.75577">
        <ele>174</ele>
        <time>2018-01-07T09:28:27Z</time>
      </trkpt>
      <trkpt lat="45.92095" lon="4.75583">
        <ele>174</ele>
        <time>2018-01-07T09:28:28Z</time>
      </trkpt>
      <trkpt lat="45.92091" lon="4.75591">
        <ele>174</ele>
        <time>2018-01-07T09:28:29Z</time>
      </trkpt>
      <trkpt lat="45.92088" lon="4.75598">
        <ele>174</ele>
        <time>2018-01-07T09:28:30Z</time>
      </trkpt>
      <trkpt lat="45.92084" lon="4.75604">
        <ele>174</ele>
        <time>2018-01-07T09:28:31Z</time>
      </trkpt>
      <trkpt lat="45.92081" lon="4.75611">
        <ele>175</ele>
        <time>2018-01-07T09:28:32Z</time>
      </trkpt>
      <trkpt lat="45.92078" lon="4.75616">
        <ele>175</ele>
        <time>2018-01-07T09:28:33Z</time>
      </trkpt>
      <trkpt lat="45.92075" lon="4.75622">
        <ele>175</ele>
        <time>2018-01-07T09:28:34Z</time>
      </trkpt>
      <trkpt lat="45.92071" lon="4.75628">
        <ele>175</ele>
        <time>2018-01-07T09:28:35Z</time>
      </trkpt>
      <trkpt lat="45.92068" lon="4.75635">
        <ele>175</ele>
        <time>2018-01-07T09:28:36Z</time>
      </trkpt>
      <trkpt lat="45.92065" lon="4.75641">
        <ele>175</ele>
        <time>2018-01-07T09:28:37Z</time>
      </trkpt>
      <trkpt lat="45.92062" lon="4.75648">
        <ele>175</ele>
        <time>2018-01-07T09:28:38Z</time>
      </trkpt>
      <trkpt lat="45.92058" lon="4.75654">
        <ele>175</ele>
        <time>2018-01-07T09:28:39Z</time>
      </trkpt>
      <trkpt lat="45.92054" lon="4.75662">
        <ele>175</ele>
        <time>2018-01-07T09:28:40Z</time>
      </trkpt>
      <trkpt lat="45.92051" lon="4.75669">
        <ele>175</ele>
        <time>2018-01-07T09:28:41Z</time>
      </trkpt>
      <trkpt lat="45.92048" lon="4.75676">
        <ele>175</ele>
        <time>2018-01-07T09:28:42Z</time>
      </trkpt>
      <trkpt lat="45.92045" lon="4.75682">
        <ele>175</ele>
        <time>2018-01-07T09:28:43Z</time>
      </trkpt>
      <trkpt lat="45.92041" lon="4.75689">
        <ele>175</ele>
        <time>2018-01-07T09:28:44Z</time>
      </trkpt>
      <trkpt lat="45.92037" lon="4.75695">
        <ele>175</ele>
        <time>2018-01-07T09:28:45Z</time>
      </trkpt>
      <trkpt lat="45.92033" lon="4.75702">
        <ele>175</ele>
        <time>2018-01-07T09:28:46Z</time>
      </trkpt>
      <trkpt lat="45.9203" lon="4.75709">
        <ele>175</ele>
        <time>2018-01-07T09:28:47Z</time>
      </trkpt>
      <trkpt lat="45.92026" lon="4.75716">
        <ele>175</ele>
        <time>2018-01-07T09:28:48Z</time>
      </trkpt>
      <trkpt lat="45.92022" lon="4.75722">
        <ele>175</ele>
        <time>2018-01-07T09:28:49Z</time>
      </trkpt>
      <trkpt lat="45.92017" lon="4.7573">
        <ele>175</ele>
        <time>2018-01-07T09:28:50Z</time>
      </trkpt>
      <trkpt lat="45.92013" lon="4.75736">
        <ele>174</ele>
        <time>2018-01-07T09:28:51Z</time>
      </trkpt>
      <trkpt lat="45.92009" lon="4.75745">
        <ele>174</ele>
        <time>2018-01-07T09:28:52Z</time>
      </trkpt>
      <trkpt lat="45.92005" lon="4.75751">
        <ele>174</ele>
        <time>2018-01-07T09:28:53Z</time>
      </trkpt>
      <trkpt lat="45.92001" lon="4.75758">
        <ele>174</ele>
        <time>2018-01-07T09:28:54Z</time>
      </trkpt>
      <trkpt lat="45.91997" lon="4.75764">
        <ele>174</ele>
        <time>2018-01-07T09:28:55Z</time>
      </trkpt>
      <trkpt lat="45.91994" lon="4.7577">
        <ele>174</ele>
        <time>2018-01-07T09:28:56Z</time>
      </trkpt>
      <trkpt lat="45.91989" lon="4.75776">
        <ele>174</ele>
        <time>2018-01-07T09:28:57Z</time>
      </trkpt>
      <trkpt lat="45.91985" lon="4.75782">
        <ele>173</ele>
        <time>2018-01-07T09:28:58Z</time>
      </trkpt>
      <trkpt lat="45.91983" lon="4.75789">
        <ele>173</ele>
        <time>2018-01-07T09:28:59Z</time>
      </trkpt>
      <trkpt lat="45.91979" lon="4.75795">
        <ele>173</ele>
        <time>2018-01-07T09:29:00Z</time>
      </trkpt>
      <trkpt lat="45.91976" lon="4.75802">
        <ele>173</ele>
        <time>2018-01-07T09:29:01Z</time>
      </trkpt>
      <trkpt lat="45.91972" lon="4.75809">
        <ele>173</ele>
        <time>2018-01-07T09:29:02Z</time>
      </trkpt>
      <trkpt lat="45.91968" lon="4.75815">
        <ele>173</ele>
        <time>2018-01-07T09:29:03Z</time>
      </trkpt>
      <trkpt lat="45.91964" lon="4.75822">
        <ele>173</ele>
        <time>2018-01-07T09:29:04Z</time>
      </trkpt>
      <trkpt lat="45.91961" lon="4.75828">
        <ele>173</ele>
        <time>2018-01-07T09:29:05Z</time>
      </trkpt>
      <trkpt lat="45.91957" lon="4.75835">
        <ele>172</ele>
        <time>2018-01-07T09:29:06Z</time>
      </trkpt>
      <trkpt lat="45.91953" lon="4.75841">
        <ele>172</ele>
        <time>2018-01-07T09:29:07Z</time>
      </trkpt>
      <trkpt lat="45.91949" lon="4.75848">
        <ele>172</ele>
        <time>2018-01-07T09:29:08Z</time>
      </trkpt>
      <trkpt lat="45.91945" lon="4.75855">
        <ele>172</ele>
        <time>2018-01-07T09:29:09Z</time>
      </trkpt>
      <trkpt lat="45.91942" lon="4.75862">
        <ele>172</ele>
        <time>2018-01-07T09:29:10Z</time>
      </trkpt>
      <trkpt lat="45.91938" lon="4.7587">
        <ele>172</ele>
        <time>2018-01-07T09:29:11Z</time>
      </trkpt>
      <trkpt lat="45.91935" lon="4.75878">
        <ele>172</ele>
        <time>2018-01-07T09:29:12Z</time>
      </trkpt>
      <trkpt lat="45.91932" lon="4.75886">
        <ele>172</ele>
        <time>2018-01-07T09:29:13Z</time>
      </trkpt>
      <trkpt lat="45.91929" lon="4.75893">
        <ele>172</ele>
        <time>2018-01-07T09:29:14Z</time>
      </trkpt>
      <trkpt lat="45.91927" lon="4.75901">
        <ele>172</ele>
        <time>2018-01-07T09:29:15Z</time>
      </trkpt>
      <trkpt lat="45.91925" lon="4.7591">
        <ele>172</ele>
        <time>2018-01-07T09:29:16Z</time>
      </trkpt>
      <trkpt lat="45.91922" lon="4.75917">
        <ele>172</ele>
        <time>2018-01-07T09:29:17Z</time>
      </trkpt>
      <trkpt lat="45.9192" lon="4.75925">
        <ele>172</ele>
        <time>2018-01-07T09:29:18Z</time>
      </trkpt>
      <trkpt lat="45.91918" lon="4.75932">
        <ele>172</ele>
        <time>2018-01-07T09:29:19Z</time>
      </trkpt>
      <trkpt lat="45.91916" lon="4.75939">
        <ele>173</ele>
        <time>2018-01-07T09:29:20Z</time>
      </trkpt>
      <trkpt lat="45.91914" lon="4.75947">
        <ele>173</ele>
        <time>2018-01-07T09:29:21Z</time>
      </trkpt>
      <trkpt lat="45.91912" lon="4.75954">
        <ele>173</ele>
        <time>2018-01-07T09:29:22Z</time>
      </trkpt>
      <trkpt lat="45.91908" lon="4.75962">
        <ele>173</ele>
        <time>2018-01-07T09:29:23Z</time>
      </trkpt>
      <trkpt lat="45.91907" lon="4.7597">
        <ele>173</ele>
        <time>2018-01-07T09:29:24Z</time>
      </trkpt>
      <trkpt lat="45.91905" lon="4.75977">
        <ele>173</ele>
        <time>2018-01-07T09:29:25Z</time>
      </trkpt>
      <trkpt lat="45.91903" lon="4.75985">
        <ele>173</ele>
        <time>2018-01-07T09:29:26Z</time>
      </trkpt>
      <trkpt lat="45.91901" lon="4.75992">
        <ele>173</ele>
        <time>2018-01-07T09:29:27Z</time>
      </trkpt>
      <trkpt lat="45.91899" lon="4.75998">
        <ele>173</ele>
        <time>2018-01-07T09:29:28Z</time>
      </trkpt>
      <trkpt lat="45.91898" lon="4.76005">
        <ele>173</ele>
        <time>2018-01-07T09:29:29Z</time>
      </trkpt>
      <trkpt lat="45.91896" lon="4.76012">
        <ele>173</ele>
        <time>2018-01-07T09:29:30Z</time>
      </trkpt>
      <trkpt lat="45.91894" lon="4.7602">
        <ele>173</ele>
        <time>2018-01-07T09:29:31Z</time>
      </trkpt>
      <trkpt lat="45.91892" lon="4.76029">
        <ele>173</ele>
        <time>2018-01-07T09:29:32Z</time>
      </trkpt>
      <trkpt lat="45.9189" lon="4.76036">
        <ele>173</ele>
        <time>2018-01-07T09:29:33Z</time>
      </trkpt>
      <trkpt lat="45.91888" lon="4.76044">
        <ele>173</ele>
        <time>2018-01-07T09:29:34Z</time>
      </trkpt>
      <trkpt lat="45.91886" lon="4.76052">
        <ele>173</ele>
        <time>2018-01-07T09:29:35Z</time>
      </trkpt>
      <trkpt lat="45.91884" lon="4.7606">
        <ele>173</ele>
        <time>2018-01-07T09:29:36Z</time>
      </trkpt>
      <trkpt lat="45.91883" lon="4.7607">
        <ele>173</ele>
        <time>2018-01-07T09:29:37Z</time>
      </trkpt>
      <trkpt lat="45.9188" lon="4.76077">
        <ele>173</ele>
        <time>2018-01-07T09:29:38Z</time>
      </trkpt>
      <trkpt lat="45.91878" lon="4.76086">
        <ele>173</ele>
        <time>2018-01-07T09:29:39Z</time>
      </trkpt>
      <trkpt lat="45.91876" lon="4.76093">
        <ele>173</ele>
        <time>2018-01-07T09:29:40Z</time>
      </trkpt>
      <trkpt lat="45.91874" lon="4.76101">
        <ele>173</ele>
        <time>2018-01-07T09:29:41Z</time>
      </trkpt>
      <trkpt lat="45.91873" lon="4.76109">
        <ele>173</ele>
        <time>2018-01-07T09:29:42Z</time>
      </trkpt>
      <trkpt lat="45.91871" lon="4.76116">
        <ele>173</ele>
        <time>2018-01-07T09:29:43Z</time>
      </trkpt>
      <trkpt lat="45.91869" lon="4.76124">
        <ele>173</ele>
        <time>2018-01-07T09:29:44Z</time>
      </trkpt>
      <trkpt lat="45.91867" lon="4.76132">
        <ele>173</ele>
        <time>2018-01-07T09:29:45Z</time>
      </trkpt>
      <trkpt lat="45.91865" lon="4.76138">
        <ele>173</ele>
        <time>2018-01-07T09:29:46Z</time>
      </trkpt>
      <trkpt lat="45.91863" lon="4.76147">
        <ele>173</ele>
        <time>2018-01-07T09:29:47Z</time>
      </trkpt>
      <trkpt lat="45.91862" lon="4.76153">
        <ele>173</ele>
        <time>2018-01-07T09:29:48Z</time>
      </trkpt>
      <trkpt lat="45.9186" lon="4.76159">
        <ele>173</ele>
        <time>2018-01-07T09:29:49Z</time>
      </trkpt>
      <trkpt lat="45.91858" lon="4.76166">
        <ele>173</ele>
        <time>2018-01-07T09:29:50Z</time>
      </trkpt>
      <trkpt lat="45.91857" lon="4.76174">
        <ele>172</ele>
        <time>2018-01-07T09:29:51Z</time>
      </trkpt>
      <trkpt lat="45.91855" lon="4.76181">
        <ele>172</ele>
        <time>2018-01-07T09:29:52Z</time>
      </trkpt>
      <trkpt lat="45.91852" lon="4.76189">
        <ele>172</ele>
        <time>2018-01-07T09:29:53Z</time>
      </trkpt>
      <trkpt lat="45.9185" lon="4.76196">
        <ele>172</ele>
        <time>2018-01-07T09:29:54Z</time>
      </trkpt>
      <trkpt lat="45.91848" lon="4.76203">
        <ele>172</ele>
        <time>2018-01-07T09:29:55Z</time>
      </trkpt>
      <trkpt lat="45.91846" lon="4.7621">
        <ele>172</ele>
        <time>2018-01-07T09:29:56Z</time>
      </trkpt>
      <trkpt lat="45.91844" lon="4.76218">
        <ele>172</ele>
        <time>2018-01-07T09:29:57Z</time>
      </trkpt>
      <trkpt lat="45.91842" lon="4.76226">
        <ele>172</ele>
        <time>2018-01-07T09:29:58Z</time>
      </trkpt>
      <trkpt lat="45.91839" lon="4.76234">
        <ele>173</ele>
        <time>2018-01-07T09:29:59Z</time>
      </trkpt>
      <trkpt lat="45.91837" lon="4.76242">
        <ele>173</ele>
        <time>2018-01-07T09:30:00Z</time>
      </trkpt>
      <trkpt lat="45.91834" lon="4.76249">
        <ele>173</ele>
        <time>2018-01-07T09:30:01Z</time>
      </trkpt>
      <trkpt lat="45.91833" lon="4.76257">
        <ele>173</ele>
        <time>2018-01-07T09:30:02Z</time>
      </trkpt>
      <trkpt lat="45.91832" lon="4.76264">
        <ele>174</ele>
        <time>2018-01-07T09:30:03Z</time>
      </trkpt>
      <trkpt lat="45.91829" lon="4.76271">
        <ele>174</ele>
        <time>2018-01-07T09:30:04Z</time>
      </trkpt>
      <trkpt lat="45.91827" lon="4.76279">
        <ele>174</ele>
        <time>2018-01-07T09:30:05Z</time>
      </trkpt>
      <trkpt lat="45.91825" lon="4.76286">
        <ele>174</ele>
        <time>2018-01-07T09:30:06Z</time>
      </trkpt>
      <trkpt lat="45.91823" lon="4.76294">
        <ele>174</ele>
        <time>2018-01-07T09:30:07Z</time>
      </trkpt>
      <trkpt lat="45.91822" lon="4.76302">
        <ele>174</ele>
        <time>2018-01-07T09:30:08Z</time>
      </trkpt>
      <trkpt lat="45.91821" lon="4.76309">
        <ele>174</ele>
        <time>2018-01-07T09:30:09Z</time>
      </trkpt>
      <trkpt lat="45.91819" lon="4.76317">
        <ele>174</ele>
        <time>2018-01-07T09:30:10Z</time>
      </trkpt>
      <trkpt lat="45.91818" lon="4.76324">
        <ele>174</ele>
        <time>2018-01-07T09:30:11Z</time>
      </trkpt>
      <trkpt lat="45.91816" lon="4.76333">
        <ele>174</ele>
        <time>2018-01-07T09:30:12Z</time>
      </trkpt>
      <trkpt lat="45.91815" lon="4.76339">
        <ele>174</ele>
        <time>2018-01-07T09:30:13Z</time>
      </trkpt>
      <trkpt lat="45.91815" lon="4.76351">
        <ele>174</ele>
        <time>2018-01-07T09:30:15Z</time>
      </trkpt>
      <trkpt lat="45.91814" lon="4.7636">
        <ele>174</ele>
        <time>2018-01-07T09:30:16Z</time>
      </trkpt>
      <trkpt lat="45.91814" lon="4.76369">
        <ele>174</ele>
        <time>2018-01-07T09:30:17Z</time>
      </trkpt>
      <trkpt lat="45.91813" lon="4.76379">
        <ele>174</ele>
        <time>2018-01-07T09:30:18Z</time>
      </trkpt>
      <trkpt lat="45.91812" lon="4.76385">
        <ele>174</ele>
        <time>2018-01-07T09:30:19Z</time>
      </trkpt>
      <trkpt lat="45.91812" lon="4.76392">
        <ele>173</ele>
        <time>2018-01-07T09:30:20Z</time>
      </trkpt>
      <trkpt lat="45.91811" lon="4.76401">
        <ele>173</ele>
        <time>2018-01-07T09:30:21Z</time>
      </trkpt>
      <trkpt lat="45.91811" lon="4.76408">
        <ele>173</ele>
        <time>2018-01-07T09:30:22Z</time>
      </trkpt>
      <trkpt lat="45.9181" lon="4.76417">
        <ele>173</ele>
        <time>2018-01-07T09:30:23Z</time>
      </trkpt>
      <trkpt lat="45.91809" lon="4.76426">
        <ele>173</ele>
        <time>2018-01-07T09:30:24Z</time>
      </trkpt>
      <trkpt lat="45.91809" lon="4.76435">
        <ele>173</ele>
        <time>2018-01-07T09:30:25Z</time>
      </trkpt>
      <trkpt lat="45.91808" lon="4.76443">
        <ele>173</ele>
        <time>2018-01-07T09:30:26Z</time>
      </trkpt>
      <trkpt lat="45.91808" lon="4.76451">
        <ele>173</ele>
        <time>2018-01-07T09:30:27Z</time>
      </trkpt>
      <trkpt lat="45.91808" lon="4.76458">
        <ele>173</ele>
        <time>2018-01-07T09:30:28Z</time>
      </trkpt>
      <trkpt lat="45.91808" lon="4.76466">
        <ele>173</ele>
        <time>2018-01-07T09:30:29Z</time>
      </trkpt>
      <trkpt lat="45.91808" lon="4.76474">
        <ele>173</ele>
        <time>2018-01-07T09:30:30Z</time>
      </trkpt>
      <trkpt lat="45.91807" lon="4.76482">
        <ele>173</ele>
        <time>2018-01-07T09:30:31Z</time>
      </trkpt>
      <trkpt lat="45.91807" lon="4.76493">
        <ele>173</ele>
        <time>2018-01-07T09:30:32Z</time>
      </trkpt>
      <trkpt lat="45.91805" lon="4.76502">
        <ele>173</ele>
        <time>2018-01-07T09:30:33Z</time>
      </trkpt>
      <trkpt lat="45.91804" lon="4.7651">
        <ele>173</ele>
        <time>2018-01-07T09:30:34Z</time>
      </trkpt>
      <trkpt lat="45.91802" lon="4.76522">
        <ele>173</ele>
        <time>2018-01-07T09:30:35Z</time>
      </trkpt>
      <trkpt lat="45.91801" lon="4.76531">
        <ele>173</ele>
        <time>2018-01-07T09:30:36Z</time>
      </trkpt>
      <trkpt lat="45.918" lon="4.76539">
        <ele>173</ele>
        <time>2018-01-07T09:30:37Z</time>
      </trkpt>
      <trkpt lat="45.91799" lon="4.76548">
        <ele>173</ele>
        <time>2018-01-07T09:30:38Z</time>
      </trkpt>
      <trkpt lat="45.91798" lon="4.76558">
        <ele>173</ele>
        <time>2018-01-07T09:30:39Z</time>
      </trkpt>
      <trkpt lat="45.91798" lon="4.76566">
        <ele>173</ele>
        <time>2018-01-07T09:30:40Z</time>
      </trkpt>
      <trkpt lat="45.91797" lon="4.76574">
        <ele>173</ele>
        <time>2018-01-07T09:30:41Z</time>
      </trkpt>
      <trkpt lat="45.91796" lon="4.76582">
        <ele>173</ele>
        <time>2018-01-07T09:30:42Z</time>
      </trkpt>
      <trkpt lat="45.91795" lon="4.76591">
        <ele>173</ele>
        <time>2018-01-07T09:30:43Z</time>
      </trkpt>
      <trkpt lat="45.91794" lon="4.76599">
        <ele>173</ele>
        <time>2018-01-07T09:30:44Z</time>
      </trkpt>
      <trkpt lat="45.91794" lon="4.76607">
        <ele>173</ele>
        <time>2018-01-07T09:30:45Z</time>
      </trkpt>
      <trkpt lat="45.91793" lon="4.76614">
        <ele>173</ele>
        <time>2018-01-07T09:30:46Z</time>
      </trkpt>
      <trkpt lat="45.91792" lon="4.76621">
        <ele>173</ele>
        <time>2018-01-07T09:30:47Z</time>
      </trkpt>
      <trkpt lat="45.91791" lon="4.76629">
        <ele>173</ele>
        <time>2018-01-07T09:30:48Z</time>
      </trkpt>
      <trkpt lat="45.9179" lon="4.76638">
        <ele>173</ele>
        <time>2018-01-07T09:30:49Z</time>
      </trkpt>
      <trkpt lat="45.91789" lon="4.76646">
        <ele>173</ele>
        <time>2018-01-07T09:30:50Z</time>
      </trkpt>
      <trkpt lat="45.91788" lon="4.76654">
        <ele>173</ele>
        <time>2018-01-07T09:30:51Z</time>
      </trkpt>
      <trkpt lat="45.91786" lon="4.76663">
        <ele>173</ele>
        <time>2018-01-07T09:30:52Z</time>
      </trkpt>
      <trkpt lat="45.91785" lon="4.76672">
        <ele>172</ele>
        <time>2018-01-07T09:30:53Z</time>
      </trkpt>
      <trkpt lat="45.91784" lon="4.76681">
        <ele>172</ele>
        <time>2018-01-07T09:30:54Z</time>
      </trkpt>
      <trkpt lat="45.91783" lon="4.76689">
        <ele>172</ele>
        <time>2018-01-07T09:30:55Z</time>
      </trkpt>
      <trkpt lat="45.91783" lon="4.76699">
        <ele>172</ele>
        <time>2018-01-07T09:30:56Z</time>
      </trkpt>
      <trkpt lat="45.91781" lon="4.76708">
        <ele>172</ele>
        <time>2018-01-07T09:30:57Z</time>
      </trkpt>
      <trkpt lat="45.9178" lon="4.76717">
        <ele>172</ele>
        <time>2018-01-07T09:30:58Z</time>
      </trkpt>
      <trkpt lat="45.9178" lon="4.76727">
        <ele>172</ele>
        <time>2018-01-07T09:30:59Z</time>
      </trkpt>
      <trkpt lat="45.91779" lon="4.76735">
        <ele>172</ele>
        <time>2018-01-07T09:31:00Z</time>
      </trkpt>
      <trkpt lat="45.91779" lon="4.76743">
        <ele>172</ele>
        <time>2018-01-07T09:31:01Z</time>
      </trkpt>
      <trkpt lat="45.91778" lon="4.76753">
        <ele>171</ele>
        <time>2018-01-07T09:31:02Z</time>
      </trkpt>
      <trkpt lat="45.91778" lon="4.76761">
        <ele>171</ele>
        <time>2018-01-07T09:31:03Z</time>
      </trkpt>
      <trkpt lat="45.91778" lon="4.76771">
        <ele>171</ele>
        <time>2018-01-07T09:31:04Z</time>
      </trkpt>
      <trkpt lat="45.91778" lon="4.76779">
        <ele>171</ele>
        <time>2018-01-07T09:31:05Z</time>
      </trkpt>
      <trkpt lat="45.91777" lon="4.76787">
        <ele>171</ele>
        <time>2018-01-07T09:31:06Z</time>
      </trkpt>
      <trkpt lat="45.91777" lon="4.76794">
        <ele>171</ele>
        <time>2018-01-07T09:31:07Z</time>
      </trkpt>
      <trkpt lat="45.91777" lon="4.76804">
        <ele>171</ele>
        <time>2018-01-07T09:31:08Z</time>
      </trkpt>
      <trkpt lat="45.91776" lon="4.76811">
        <ele>171</ele>
        <time>2018-01-07T09:31:09Z</time>
      </trkpt>
      <trkpt lat="45.91777" lon="4.76819">
        <ele>171</ele>
        <time>2018-01-07T09:31:10Z</time>
      </trkpt>
      <trkpt lat="45.91777" lon="4.76827">
        <ele>171</ele>
        <time>2018-01-07T09:31:11Z</time>
      </trkpt>
      <trkpt lat="45.91777" lon="4.76836">
        <ele>171</ele>
        <time>2018-01-07T09:31:12Z</time>
      </trkpt>
      <trkpt lat="45.91777" lon="4.76844">
        <ele>170</ele>
        <time>2018-01-07T09:31:13Z</time>
      </trkpt>
      <trkpt lat="45.91777" lon="4.76852">
        <ele>170</ele>
        <time>2018-01-07T09:31:14Z</time>
      </trkpt>
      <trkpt lat="45.91776" lon="4.76861">
        <ele>170</ele>
        <time>2018-01-07T09:31:15Z</time>
      </trkpt>
      <trkpt lat="45.91776" lon="4.76871">
        <ele>170</ele>
        <time>2018-01-07T09:31:16Z</time>
      </trkpt>
      <trkpt lat="45.91775" lon="4.7688">
        <ele>170</ele>
        <time>2018-01-07T09:31:17Z</time>
      </trkpt>
      <trkpt lat="45.91775" lon="4.76889">
        <ele>170</ele>
        <time>2018-01-07T09:31:18Z</time>
      </trkpt>
      <trkpt lat="45.91774" lon="4.76898">
        <ele>170</ele>
        <time>2018-01-07T09:31:19Z</time>
      </trkpt>
      <trkpt lat="45.91774" lon="4.76907">
        <ele>170</ele>
        <time>2018-01-07T09:31:20Z</time>
      </trkpt>
      <trkpt lat="45.91773" lon="4.76916">
        <ele>170</ele>
        <time>2018-01-07T09:31:21Z</time>
      </trkpt>
      <trkpt lat="45.91772" lon="4.76924">
        <ele>170</ele>
        <time>2018-01-07T09:31:22Z</time>
      </trkpt>
      <trkpt lat="45.91771" lon="4.76932">
        <ele>170</ele>
        <time>2018-01-07T09:31:23Z</time>
      </trkpt>
      <trkpt lat="45.91771" lon="4.7694">
        <ele>169</ele>
        <time>2018-01-07T09:31:24Z</time>
      </trkpt>
      <trkpt lat="45.9177" lon="4.76948">
        <ele>169</ele>
        <time>2018-01-07T09:31:25Z</time>
      </trkpt>
      <trkpt lat="45.91769" lon="4.76957">
        <ele>169</ele>
        <time>2018-01-07T09:31:26Z</time>
      </trkpt>
      <trkpt lat="45.91768" lon="4.76966">
        <ele>169</ele>
        <time>2018-01-07T09:31:27Z</time>
      </trkpt>
      <trkpt lat="45.91767" lon="4.76974">
        <ele>169</ele>
        <time>2018-01-07T09:31:28Z</time>
      </trkpt>
      <trkpt lat="45.91766" lon="4.76983">
        <ele>169</ele>
        <time>2018-01-07T09:31:29Z</time>
      </trkpt>
      <trkpt lat="45.91765" lon="4.76992">
        <ele>169</ele>
        <time>2018-01-07T09:31:30Z</time>
      </trkpt>
      <trkpt lat="45.91763" lon="4.77">
        <ele>169</ele>
        <time>2018-01-07T09:31:31Z</time>
      </trkpt>
      <trkpt lat="45.91762" lon="4.77009">
        <ele>169</ele>
        <time>2018-01-07T09:31:32Z</time>
      </trkpt>
      <trkpt lat="45.91762" lon="4.77018">
        <ele>169</ele>
        <time>2018-01-07T09:31:33Z</time>
      </trkpt>
      <trkpt lat="45.9176" lon="4.77026">
        <ele>169</ele>
        <time>2018-01-07T09:31:34Z</time>
      </trkpt>
      <trkpt lat="45.9176" lon="4.77033">
        <ele>169</ele>
        <time>2018-01-07T09:31:35Z</time>
      </trkpt>
      <trkpt lat="45.91758" lon="4.77042">
        <ele>169</ele>
        <time>2018-01-07T09:31:36Z</time>
      </trkpt>
      <trkpt lat="45.91757" lon="4.77049">
        <ele>169</ele>
        <time>2018-01-07T09:31:37Z</time>
      </trkpt>
      <trkpt lat="45.91757" lon="4.77057">
        <ele>169</ele>
        <time>2018-01-07T09:31:38Z</time>
      </trkpt>
      <trkpt lat="45.91756" lon="4.77064">
        <ele>169</ele>
        <time>2018-01-07T09:31:39Z</time>
      </trkpt>
      <trkpt lat="45.91755" lon="4.77073">
        <ele>169</ele>
        <time>2018-01-07T09:31:40Z</time>
      </trkpt>
      <trkpt lat="45.91753" lon="4.7708">
        <ele>169</ele>
        <time>2018-01-07T09:31:41Z</time>
      </trkpt>
      <trkpt lat="45.91752" lon="4.77087">
        <ele>169</ele>
        <time>2018-01-07T09:31:42Z</time>
      </trkpt>
      <trkpt lat="45.91751" lon="4.77095">
        <ele>169</ele>
        <time>2018-01-07T09:31:43Z</time>
      </trkpt>
      <trkpt lat="45.9175" lon="4.77104">
        <ele>169</ele>
        <time>2018-01-07T09:31:44Z</time>
      </trkpt>
      <trkpt lat="45.91749" lon="4.77112">
        <ele>170</ele>
        <time>2018-01-07T09:31:45Z</time>
      </trkpt>
      <trkpt lat="45.91748" lon="4.77121">
        <ele>170</ele>
        <time>2018-01-07T09:31:46Z</time>
      </trkpt>
      <trkpt lat="45.91747" lon="4.77129">
        <ele>170</ele>
        <time>2018-01-07T09:31:47Z</time>
      </trkpt>
      <trkpt lat="45.91746" lon="4.7714">
        <ele>170</ele>
        <time>2018-01-07T09:31:48Z</time>
      </trkpt>
      <trkpt lat="45.91745" lon="4.77148">
        <ele>170</ele>
        <time>2018-01-07T09:31:49Z</time>
      </trkpt>
      <trkpt lat="45.91743" lon="4.77156">
        <ele>170</ele>
        <time>2018-01-07T09:31:50Z</time>
      </trkpt>
      <trkpt lat="45.91742" lon="4.77163">
        <ele>170</ele>
        <time>2018-01-07T09:31:51Z</time>
      </trkpt>
      <trkpt lat="45.91739" lon="4.77169">
        <ele>170</ele>
        <time>2018-01-07T09:31:52Z</time>
      </trkpt>
      <trkpt lat="45.91735" lon="4.77174">
        <ele>170</ele>
        <time>2018-01-07T09:31:53Z</time>
      </trkpt>
      <trkpt lat="45.91732" lon="4.77179">
        <ele>170</ele>
        <time>2018-01-07T09:31:54Z</time>
      </trkpt>
      <trkpt lat="45.9173" lon="4.77186">
        <ele>170</ele>
        <time>2018-01-07T09:31:55Z</time>
      </trkpt>
      <trkpt lat="45.91728" lon="4.77193">
        <ele>170</ele>
        <time>2018-01-07T09:31:56Z</time>
      </trkpt>
      <trkpt lat="45.91726" lon="4.772">
        <ele>170</ele>
        <time>2018-01-07T09:31:57Z</time>
      </trkpt>
      <trkpt lat="45.91723" lon="4.77209">
        <ele>170</ele>
        <time>2018-01-07T09:31:58Z</time>
      </trkpt>
      <trkpt lat="45.91719" lon="4.77216">
        <ele>170</ele>
        <time>2018-01-07T09:31:59Z</time>
      </trkpt>
      <trkpt lat="45.91715" lon="4.77222">
        <ele>170</ele>
        <time>2018-01-07T09:32:00Z</time>
      </trkpt>
      <trkpt lat="45.91713" lon="4.77228">
        <ele>170</ele>
        <time>2018-01-07T09:32:01Z</time>
      </trkpt>
      <trkpt lat="45.9171" lon="4.77235">
        <ele>170</ele>
        <time>2018-01-07T09:32:02Z</time>
      </trkpt>
      <trkpt lat="45.91706" lon="4.77242">
        <ele>170</ele>
        <time>2018-01-07T09:32:03Z</time>
      </trkpt>
      <trkpt lat="45.91702" lon="4.77249">
        <ele>170</ele>
        <time>2018-01-07T09:32:04Z</time>
      </trkpt>
      <trkpt lat="45.91699" lon="4.77256">
        <ele>170</ele>
        <time>2018-01-07T09:32:05Z</time>
      </trkpt>
      <trkpt lat="45.91696" lon="4.77264">
        <ele>170</ele>
        <time>2018-01-07T09:32:06Z</time>
      </trkpt>
      <trkpt lat="45.91694" lon="4.77272">
        <ele>170</ele>
        <time>2018-01-07T09:32:07Z</time>
      </trkpt>
      <trkpt lat="45.91692" lon="4.77281">
        <ele>170</ele>
        <time>2018-01-07T09:32:08Z</time>
      </trkpt>
      <trkpt lat="45.91689" lon="4.77287">
        <ele>170</ele>
        <time>2018-01-07T09:32:09Z</time>
      </trkpt>
      <trkpt lat="45.91687" lon="4.77293">
        <ele>170</ele>
        <time>2018-01-07T09:32:10Z</time>
      </trkpt>
      <trkpt lat="45.91685" lon="4.77301">
        <ele>170</ele>
        <time>2018-01-07T09:32:11Z</time>
      </trkpt>
      <trkpt lat="45.91683" lon="4.77307">
        <ele>171</ele>
        <time>2018-01-07T09:32:12Z</time>
      </trkpt>
      <trkpt lat="45.91681" lon="4.77314">
        <ele>171</ele>
        <time>2018-01-07T09:32:13Z</time>
      </trkpt>
      <trkpt lat="45.9168" lon="4.77321">
        <ele>171</ele>
        <time>2018-01-07T09:32:14Z</time>
      </trkpt>
      <trkpt lat="45.91678" lon="4.77328">
        <ele>171</ele>
        <time>2018-01-07T09:32:15Z</time>
      </trkpt>
      <trkpt lat="45.91676" lon="4.77334">
        <ele>172</ele>
        <time>2018-01-07T09:32:16Z</time>
      </trkpt>
      <trkpt lat="45.91674" lon="4.77341">
        <ele>172</ele>
        <time>2018-01-07T09:32:17Z</time>
      </trkpt>
      <trkpt lat="45.91671" lon="4.77347">
        <ele>171</ele>
        <time>2018-01-07T09:32:18Z</time>
      </trkpt>
      <trkpt lat="45.91668" lon="4.77352">
        <ele>171</ele>
        <time>2018-01-07T09:32:19Z</time>
      </trkpt>
      <trkpt lat="45.91666" lon="4.77359">
        <ele>172</ele>
        <time>2018-01-07T09:32:20Z</time>
      </trkpt>
      <trkpt lat="45.91664" lon="4.77365">
        <ele>172</ele>
        <time>2018-01-07T09:32:21Z</time>
      </trkpt>
      <trkpt lat="45.91662" lon="4.77373">
        <ele>172</ele>
        <time>2018-01-07T09:32:22Z</time>
      </trkpt>
      <trkpt lat="45.9166" lon="4.7738">
        <ele>172</ele>
        <time>2018-01-07T09:32:23Z</time>
      </trkpt>
      <trkpt lat="45.91657" lon="4.77389">
        <ele>172</ele>
        <time>2018-01-07T09:32:24Z</time>
      </trkpt>
      <trkpt lat="45.91655" lon="4.77396">
        <ele>172</ele>
        <time>2018-01-07T09:32:25Z</time>
      </trkpt>
      <trkpt lat="45.91653" lon="4.77403">
        <ele>172</ele>
        <time>2018-01-07T09:32:26Z</time>
      </trkpt>
      <trkpt lat="45.91651" lon="4.7741">
        <ele>172</ele>
        <time>2018-01-07T09:32:27Z</time>
      </trkpt>
      <trkpt lat="45.91649" lon="4.77418">
        <ele>172</ele>
        <time>2018-01-07T09:32:28Z</time>
      </trkpt>
      <trkpt lat="45.91647" lon="4.77424">
        <ele>172</ele>
        <time>2018-01-07T09:32:29Z</time>
      </trkpt>
      <trkpt lat="45.91646" lon="4.77432">
        <ele>172</ele>
        <time>2018-01-07T09:32:30Z</time>
      </trkpt>
      <trkpt lat="45.91643" lon="4.77439">
        <ele>172</ele>
        <time>2018-01-07T09:32:31Z</time>
      </trkpt>
      <trkpt lat="45.91641" lon="4.77445">
        <ele>172</ele>
        <time>2018-01-07T09:32:32Z</time>
      </trkpt>
      <trkpt lat="45.91639" lon="4.77451">
        <ele>171</ele>
        <time>2018-01-07T09:32:33Z</time>
      </trkpt>
      <trkpt lat="45.91636" lon="4.77458">
        <ele>171</ele>
        <time>2018-01-07T09:32:34Z</time>
      </trkpt>
      <trkpt lat="45.91633" lon="4.77469">
        <ele>171</ele>
        <time>2018-01-07T09:32:36Z</time>
      </trkpt>
      <trkpt lat="45.91631" lon="4.77474">
        <ele>171</ele>
        <time>2018-01-07T09:32:37Z</time>
      </trkpt>
      <trkpt lat="45.9163" lon="4.77482">
        <ele>171</ele>
        <time>2018-01-07T09:32:38Z</time>
      </trkpt>
      <trkpt lat="45.91629" lon="4.77487">
        <ele>171</ele>
        <time>2018-01-07T09:32:39Z</time>
      </trkpt>
      <trkpt lat="45.91629" lon="4.77499">
        <ele>171</ele>
        <time>2018-01-07T09:32:41Z</time>
      </trkpt>
      <trkpt lat="45.91629" lon="4.77504">
        <ele>171</ele>
        <time>2018-01-07T09:32:42Z</time>
      </trkpt>
      <trkpt lat="45.91626" lon="4.77511">
        <ele>171</ele>
        <time>2018-01-07T09:32:43Z</time>
      </trkpt>
      <trkpt lat="45.91623" lon="4.77516">
        <ele>171</ele>
        <time>2018-01-07T09:32:44Z</time>
      </trkpt>
      <trkpt lat="45.9162" lon="4.77521">
        <ele>171</ele>
        <time>2018-01-07T09:32:45Z</time>
      </trkpt>
      <trkpt lat="45.91617" lon="4.77526">
        <ele>171</ele>
        <time>2018-01-07T09:32:46Z</time>
      </trkpt>
      <trkpt lat="45.91614" lon="4.77532">
        <ele>171</ele>
        <time>2018-01-07T09:32:47Z</time>
      </trkpt>
      <trkpt lat="45.91611" lon="4.77538">
        <ele>171</ele>
        <time>2018-01-07T09:32:48Z</time>
      </trkpt>
      <trkpt lat="45.91607" lon="4.77543">
        <ele>171</ele>
        <time>2018-01-07T09:32:49Z</time>
      </trkpt>
      <trkpt lat="45.91604" lon="4.77549">
        <ele>171</ele>
        <time>2018-01-07T09:32:50Z</time>
      </trkpt>
      <trkpt lat="45.91599" lon="4.7756">
        <ele>172</ele>
        <time>2018-01-07T09:32:52Z</time>
      </trkpt>
      <trkpt lat="45.91596" lon="4.77565">
        <ele>172</ele>
        <time>2018-01-07T09:32:53Z</time>
      </trkpt>
      <trkpt lat="45.91593" lon="4.7757">
        <ele>172</ele>
        <time>2018-01-07T09:32:54Z</time>
      </trkpt>
      <trkpt lat="45.9159" lon="4.77576">
        <ele>172</ele>
        <time>2018-01-07T09:32:55Z</time>
      </trkpt>
      <trkpt lat="45.91587" lon="4.77582">
        <ele>173</ele>
        <time>2018-01-07T09:32:56Z</time>
      </trkpt>
      <trkpt lat="45.91584" lon="4.77586">
        <ele>173</ele>
        <time>2018-01-07T09:32:57Z</time>
      </trkpt>
      <trkpt lat="45.91581" lon="4.77591">
        <ele>173</ele>
        <time>2018-01-07T09:32:58Z</time>
      </trkpt>
      <trkpt lat="45.91578" lon="4.77596">
        <ele>173</ele>
        <time>2018-01-07T09:32:59Z</time>
      </trkpt>
      <trkpt lat="45.91575" lon="4.77602">
        <ele>173</ele>
        <time>2018-01-07T09:33:00Z</time>
      </trkpt>
      <trkpt lat="45.91572" lon="4.77607">
        <ele>174</ele>
        <time>2018-01-07T09:33:01Z</time>
      </trkpt>
      <trkpt lat="45.91569" lon="4.77612">
        <ele>174</ele>
        <time>2018-01-07T09:33:02Z</time>
      </trkpt>
      <trkpt lat="45.91566" lon="4.77617">
        <ele>174</ele>
        <time>2018-01-07T09:33:03Z</time>
      </trkpt>
      <trkpt lat="45.91562" lon="4.77621">
        <ele>174</ele>
        <time>2018-01-07T09:33:04Z</time>
      </trkpt>
      <trkpt lat="45.91558" lon="4.77625">
        <ele>174</ele>
        <time>2018-01-07T09:33:05Z</time>
      </trkpt>
      <trkpt lat="45.91555" lon="4.7763">
        <ele>174</ele>
        <time>2018-01-07T09:33:06Z</time>
      </trkpt>
      <trkpt lat="45.91552" lon="4.77635">
        <ele>174</ele>
        <time>2018-01-07T09:33:07Z</time>
      </trkpt>
      <trkpt lat="45.91547" lon="4.77642">
        <ele>174</ele>
        <time>2018-01-07T09:33:09Z</time>
      </trkpt>
      <trkpt lat="45.91544" lon="4.77647">
        <ele>174</ele>
        <time>2018-01-07T09:33:10Z</time>
      </trkpt>
      <trkpt lat="45.91538" lon="4.77657">
        <ele>174</ele>
        <time>2018-01-07T09:33:12Z</time>
      </trkpt>
      <trkpt lat="45.91535" lon="4.77661">
        <ele>174</ele>
        <time>2018-01-07T09:33:13Z</time>
      </trkpt>
      <trkpt lat="45.91532" lon="4.77666">
        <ele>174</ele>
        <time>2018-01-07T09:33:14Z</time>
      </trkpt>
      <trkpt lat="45.91529" lon="4.77671">
        <ele>175</ele>
        <time>2018-01-07T09:33:15Z</time>
      </trkpt>
      <trkpt lat="45.91524" lon="4.77679">
        <ele>175</ele>
        <time>2018-01-07T09:33:17Z</time>
      </trkpt>
      <trkpt lat="45.91522" lon="4.77683">
        <ele>175</ele>
        <time>2018-01-07T09:33:18Z</time>
      </trkpt>
      <trkpt lat="45.91516" lon="4.77689">
        <ele>176</ele>
        <time>2018-01-07T09:33:21Z</time>
      </trkpt>
      <trkpt lat="45.91513" lon="4.77689">
        <ele>176</ele>
        <time>2018-01-07T09:33:22Z</time>
      </trkpt>
      <trkpt lat="45.91504" lon="4.77688">
        <ele>176</ele>
        <time>2018-01-07T09:33:25Z</time>
      </trkpt>
      <trkpt lat="45.915" lon="4.77689">
        <ele>176</ele>
        <time>2018-01-07T09:33:26Z</time>
      </trkpt>
      <trkpt lat="45.91492" lon="4.77691">
        <ele>177</ele>
        <time>2018-01-07T09:33:28Z</time>
      </trkpt>
      <trkpt lat="45.91489" lon="4.77692">
        <ele>177</ele>
        <time>2018-01-07T09:33:29Z</time>
      </trkpt>
      <trkpt lat="45.91482" lon="4.77692">
        <ele>177</ele>
        <time>2018-01-07T09:33:31Z</time>
      </trkpt>
      <trkpt lat="45.91478" lon="4.77694">
        <ele>177</ele>
        <time>2018-01-07T09:33:32Z</time>
      </trkpt>
      <trkpt lat="45.9147" lon="4.77696">
        <ele>177</ele>
        <time>2018-01-07T09:33:33Z</time>
      </trkpt>
      <trkpt lat="45.91464" lon="4.77696">
        <ele>177</ele>
        <time>2018-01-07T09:33:34Z</time>
      </trkpt>
      <trkpt lat="45.9146" lon="4.77697">
        <ele>177</ele>
        <time>2018-01-07T09:33:35Z</time>
      </trkpt>
      <trkpt lat="45.91453" lon="4.77699">
        <ele>177</ele>
        <time>2018-01-07T09:33:36Z</time>
      </trkpt>
      <trkpt lat="45.91446" lon="4.77703">
        <ele>177</ele>
        <time>2018-01-07T09:33:38Z</time>
      </trkpt>
      <trkpt lat="45.91443" lon="4.77703">
        <ele>177</ele>
        <time>2018-01-07T09:33:39Z</time>
      </trkpt>
      <trkpt lat="45.91436" lon="4.77706">
        <ele>177</ele>
        <time>2018-01-07T09:33:41Z</time>
      </trkpt>
      <trkpt lat="45.91432" lon="4.77706">
        <ele>177</ele>
        <time>2018-01-07T09:33:42Z</time>
      </trkpt>
      <trkpt lat="45.91426" lon="4.77708">
        <ele>177</ele>
        <time>2018-01-07T09:33:43Z</time>
      </trkpt>
      <trkpt lat="45.91423" lon="4.77708">
        <ele>177</ele>
        <time>2018-01-07T09:33:44Z</time>
      </trkpt>
      <trkpt lat="45.91417" lon="4.7771">
        <ele>177</ele>
        <time>2018-01-07T09:33:45Z</time>
      </trkpt>
      <trkpt lat="45.91411" lon="4.77709">
        <ele>177</ele>
        <time>2018-01-07T09:33:46Z</time>
      </trkpt>
      <trkpt lat="45.91406" lon="4.77709">
        <ele>177</ele>
        <time>2018-01-07T09:33:47Z</time>
      </trkpt>
      <trkpt lat="45.91401" lon="4.77709">
        <ele>176</ele>
        <time>2018-01-07T09:33:48Z</time>
      </trkpt>
      <trkpt lat="45.91394" lon="4.77712">
        <ele>176</ele>
        <time>2018-01-07T09:33:49Z</time>
      </trkpt>
      <trkpt lat="45.91389" lon="4.77713">
        <ele>176</ele>
        <time>2018-01-07T09:33:50Z</time>
      </trkpt>
      <trkpt lat="45.91385" lon="4.77714">
        <ele>176</ele>
        <time>2018-01-07T09:33:51Z</time>
      </trkpt>
      <trkpt lat="45.9138" lon="4.77714">
        <ele>176</ele>
        <time>2018-01-07T09:33:52Z</time>
      </trkpt>
      <trkpt lat="45.91374" lon="4.77716">
        <ele>176</ele>
        <time>2018-01-07T09:33:53Z</time>
      </trkpt>
      <trkpt lat="45.9137" lon="4.77716">
        <ele>176</ele>
        <time>2018-01-07T09:33:54Z</time>
      </trkpt>
      <trkpt lat="45.91365" lon="4.77717">
        <ele>176</ele>
        <time>2018-01-07T09:33:55Z</time>
      </trkpt>
      <trkpt lat="45.9136" lon="4.77717">
        <ele>176</ele>
        <time>2018-01-07T09:33:56Z</time>
      </trkpt>
      <trkpt lat="45.91353" lon="4.77716">
        <ele>176</ele>
        <time>2018-01-07T09:33:57Z</time>
      </trkpt>
      <trkpt lat="45.91347" lon="4.77716">
        <ele>176</ele>
        <time>2018-01-07T09:33:58Z</time>
      </trkpt>
      <trkpt lat="45.91341" lon="4.77715">
        <ele>176</ele>
        <time>2018-01-07T09:33:59Z</time>
      </trkpt>
      <trkpt lat="45.91336" lon="4.77714">
        <ele>176</ele>
        <time>2018-01-07T09:34:00Z</time>
      </trkpt>
      <trkpt lat="45.9133" lon="4.77712">
        <ele>176</ele>
        <time>2018-01-07T09:34:01Z</time>
      </trkpt>
      <trkpt lat="45.91324" lon="4.77712">
        <ele>176</ele>
        <time>2018-01-07T09:34:02Z</time>
      </trkpt>
      <trkpt lat="45.91318" lon="4.7771">
        <ele>176</ele>
        <time>2018-01-07T09:34:03Z</time>
      </trkpt>
      <trkpt lat="45.91313" lon="4.77708">
        <ele>176</ele>
        <time>2018-01-07T09:34:04Z</time>
      </trkpt>
      <trkpt lat="45.9131" lon="4.77706">
        <ele>176</ele>
        <time>2018-01-07T09:34:05Z</time>
      </trkpt>
      <trkpt lat="45.91304" lon="4.777">
        <ele>176</ele>
        <time>2018-01-07T09:34:06Z</time>
      </trkpt>
      <trkpt lat="45.91299" lon="4.77698">
        <ele>176</ele>
        <time>2018-01-07T09:34:07Z</time>
      </trkpt>
      <trkpt lat="45.91294" lon="4.77695">
        <ele>176</ele>
        <time>2018-01-07T09:34:08Z</time>
      </trkpt>
      <trkpt lat="45.91288" lon="4.77692">
        <ele>176</ele>
        <time>2018-01-07T09:34:09Z</time>
      </trkpt>
      <trkpt lat="45.91283" lon="4.77689">
        <ele>176</ele>
        <time>2018-01-07T09:34:10Z</time>
      </trkpt>
      <trkpt lat="45.91277" lon="4.77685">
        <ele>176</ele>
        <time>2018-01-07T09:34:11Z</time>
      </trkpt>
      <trkpt lat="45.91272" lon="4.77681">
        <ele>176</ele>
        <time>2018-01-07T09:34:12Z</time>
      </trkpt>
      <trkpt lat="45.91263" lon="4.77677">
        <ele>175</ele>
        <time>2018-01-07T09:34:14Z</time>
      </trkpt>
      <trkpt lat="45.91258" lon="4.77676">
        <ele>175</ele>
        <time>2018-01-07T09:34:15Z</time>
      </trkpt>
      <trkpt lat="45.91253" lon="4.77675">
        <ele>175</ele>
        <time>2018-01-07T09:34:16Z</time>
      </trkpt>
      <trkpt lat="45.91247" lon="4.77675">
        <ele>175</ele>
        <time>2018-01-07T09:34:17Z</time>
      </trkpt>
      <trkpt lat="45.91242" lon="4.77678">
        <ele>176</ele>
        <time>2018-01-07T09:34:18Z</time>
      </trkpt>
      <trkpt lat="45.91236" lon="4.77679">
        <ele>176</ele>
        <time>2018-01-07T09:34:19Z</time>
      </trkpt>
      <trkpt lat="45.9123" lon="4.77682">
        <ele>176</ele>
        <time>2018-01-07T09:34:20Z</time>
      </trkpt>
      <trkpt lat="45.91225" lon="4.77684">
        <ele>176</ele>
        <time>2018-01-07T09:34:21Z</time>
      </trkpt>
      <trkpt lat="45.91221" lon="4.77686">
        <ele>176</ele>
        <time>2018-01-07T09:34:22Z</time>
      </trkpt>
      <trkpt lat="45.91216" lon="4.77687">
        <ele>176</ele>
        <time>2018-01-07T09:34:23Z</time>
      </trkpt>
      <trkpt lat="45.91211" lon="4.7769">
        <ele>176</ele>
        <time>2018-01-07T09:34:24Z</time>
      </trkpt>
      <trkpt lat="45.91205" lon="4.77692">
        <ele>176</ele>
        <time>2018-01-07T09:34:25Z</time>
      </trkpt>
      <trkpt lat="45.912" lon="4.77694">
        <ele>176</ele>
        <time>2018-01-07T09:34:26Z</time>
      </trkpt>
      <trkpt lat="45.91195" lon="4.77696">
        <ele>176</ele>
        <time>2018-01-07T09:34:27Z</time>
      </trkpt>
      <trkpt lat="45.9119" lon="4.77698">
        <ele>176</ele>
        <time>2018-01-07T09:34:28Z</time>
      </trkpt>
      <trkpt lat="45.91184" lon="4.777">
        <ele>176</ele>
        <time>2018-01-07T09:34:29Z</time>
      </trkpt>
      <trkpt lat="45.91177" lon="4.77703">
        <ele>176</ele>
        <time>2018-01-07T09:34:31Z</time>
      </trkpt>
      <trkpt lat="45.91172" lon="4.77704">
        <ele>176</ele>
        <time>2018-01-07T09:34:32Z</time>
      </trkpt>
      <trkpt lat="45.91164" lon="4.77709">
        <ele>177</ele>
        <time>2018-01-07T09:34:35Z</time>
      </trkpt>
      <trkpt lat="45.91161" lon="4.77709">
        <ele>177</ele>
        <time>2018-01-07T09:34:36Z</time>
      </trkpt>
      <trkpt lat="45.91153" lon="4.7771">
        <ele>177</ele>
        <time>2018-01-07T09:34:38Z</time>
      </trkpt>
      <trkpt lat="45.91149" lon="4.77712">
        <ele>177</ele>
        <time>2018-01-07T09:34:39Z</time>
      </trkpt>
      <trkpt lat="45.91142" lon="4.77714">
        <ele>177</ele>
        <time>2018-01-07T09:34:41Z</time>
      </trkpt>
      <trkpt lat="45.91137" lon="4.77716">
        <ele>177</ele>
        <time>2018-01-07T09:34:42Z</time>
      </trkpt>
      <trkpt lat="45.91129" lon="4.77721">
        <ele>177</ele>
        <time>2018-01-07T09:34:44Z</time>
      </trkpt>
      <trkpt lat="45.91125" lon="4.77722">
        <ele>177</ele>
        <time>2018-01-07T09:34:45Z</time>
      </trkpt>
      <trkpt lat="45.9112" lon="4.77725">
        <ele>178</ele>
        <time>2018-01-07T09:34:46Z</time>
      </trkpt>
      <trkpt lat="45.91116" lon="4.77728">
        <ele>178</ele>
        <time>2018-01-07T09:34:47Z</time>
      </trkpt>
      <trkpt lat="45.91112" lon="4.77732">
        <ele>178</ele>
        <time>2018-01-07T09:34:48Z</time>
      </trkpt>
      <trkpt lat="45.91106" lon="4.77734">
        <ele>178</ele>
        <time>2018-01-07T09:34:49Z</time>
      </trkpt>
      <trkpt lat="45.91101" lon="4.77736">
        <ele>178</ele>
        <time>2018-01-07T09:34:50Z</time>
      </trkpt>
      <trkpt lat="45.91096" lon="4.77738">
        <ele>178</ele>
        <time>2018-01-07T09:34:51Z</time>
      </trkpt>
      <trkpt lat="45.91091" lon="4.77741">
        <ele>178</ele>
        <time>2018-01-07T09:34:52Z</time>
      </trkpt>
      <trkpt lat="45.91087" lon="4.77744">
        <ele>179</ele>
        <time>2018-01-07T09:34:53Z</time>
      </trkpt>
      <trkpt lat="45.91079" lon="4.77749">
        <ele>179</ele>
        <time>2018-01-07T09:34:55Z</time>
      </trkpt>
      <trkpt lat="45.91073" lon="4.77751">
        <ele>179</ele>
        <time>2018-01-07T09:34:56Z</time>
      </trkpt>
      <trkpt lat="45.91069" lon="4.77755">
        <ele>179</ele>
        <time>2018-01-07T09:34:57Z</time>
      </trkpt>
      <trkpt lat="45.91064" lon="4.77758">
        <ele>178</ele>
        <time>2018-01-07T09:34:58Z</time>
      </trkpt>
      <trkpt lat="45.91059" lon="4.77761">
        <ele>178</ele>
        <time>2018-01-07T09:34:59Z</time>
      </trkpt>
      <trkpt lat="45.91053" lon="4.77763">
        <ele>178</ele>
        <time>2018-01-07T09:35:00Z</time>
      </trkpt>
      <trkpt lat="45.91048" lon="4.77767">
        <ele>178</ele>
        <time>2018-01-07T09:35:01Z</time>
      </trkpt>
      <trkpt lat="45.91043" lon="4.77769">
        <ele>178</ele>
        <time>2018-01-07T09:35:02Z</time>
      </trkpt>
      <trkpt lat="45.91037" lon="4.77772">
        <ele>178</ele>
        <time>2018-01-07T09:35:03Z</time>
      </trkpt>
      <trkpt lat="45.91033" lon="4.77774">
        <ele>178</ele>
        <time>2018-01-07T09:35:04Z</time>
      </trkpt>
      <trkpt lat="45.91027" lon="4.77775">
        <ele>178</ele>
        <time>2018-01-07T09:35:05Z</time>
      </trkpt>
      <trkpt lat="45.91022" lon="4.77777">
        <ele>178</ele>
        <time>2018-01-07T09:35:06Z</time>
      </trkpt>
      <trkpt lat="45.91017" lon="4.77778">
        <ele>178</ele>
        <time>2018-01-07T09:35:07Z</time>
      </trkpt>
      <trkpt lat="45.91012" lon="4.7778">
        <ele>178</ele>
        <time>2018-01-07T09:35:08Z</time>
      </trkpt>
      <trkpt lat="45.91004" lon="4.77782">
        <ele>178</ele>
        <time>2018-01-07T09:35:10Z</time>
      </trkpt>
      <trkpt lat="45.91" lon="4.77783">
        <ele>177</ele>
        <time>2018-01-07T09:35:11Z</time>
      </trkpt>
      <trkpt lat="45.90994" lon="4.77784">
        <ele>177</ele>
        <time>2018-01-07T09:35:12Z</time>
      </trkpt>
      <trkpt lat="45.9099" lon="4.77785">
        <ele>177</ele>
        <time>2018-01-07T09:35:13Z</time>
      </trkpt>
      <trkpt lat="45.90984" lon="4.77786">
        <ele>177</ele>
        <time>2018-01-07T09:35:14Z</time>
      </trkpt>
      <trkpt lat="45.90979" lon="4.77787">
        <ele>177</ele>
        <time>2018-01-07T09:35:15Z</time>
      </trkpt>
      <trkpt lat="45.90974" lon="4.77788">
        <ele>177</ele>
        <time>2018-01-07T09:35:16Z</time>
      </trkpt>
      <trkpt lat="45.90969" lon="4.77788">
        <ele>177</ele>
        <time>2018-01-07T09:35:17Z</time>
      </trkpt>
      <trkpt lat="45.90964" lon="4.77786">
        <ele>177</ele>
        <time>2018-01-07T09:35:18Z</time>
      </trkpt>
      <trkpt lat="45.90959" lon="4.77783">
        <ele>177</ele>
        <time>2018-01-07T09:35:19Z</time>
      </trkpt>
      <trkpt lat="45.90952" lon="4.77779">
        <ele>177</ele>
        <time>2018-01-07T09:35:21Z</time>
      </trkpt>
      <trkpt lat="45.90949" lon="4.77777">
        <ele>177</ele>
        <time>2018-01-07T09:35:22Z</time>
      </trkpt>
      <trkpt lat="45.90941" lon="4.77772">
        <ele>177</ele>
        <time>2018-01-07T09:35:24Z</time>
      </trkpt>
      <trkpt lat="45.90937" lon="4.77772">
        <ele>177</ele>
        <time>2018-01-07T09:35:25Z</time>
      </trkpt>
      <trkpt lat="45.90928" lon="4.77769">
        <ele>177</ele>
        <time>2018-01-07T09:35:27Z</time>
      </trkpt>
      <trkpt lat="45.90924" lon="4.77764">
        <ele>177</ele>
        <time>2018-01-07T09:35:28Z</time>
      </trkpt>
      <trkpt lat="45.90918" lon="4.77755">
        <ele>176</ele>
        <time>2018-01-07T09:35:30Z</time>
      </trkpt>
      <trkpt lat="45.90916" lon="4.77751">
        <ele>176</ele>
        <time>2018-01-07T09:35:31Z</time>
      </trkpt>
      <trkpt lat="45.9091" lon="4.77743">
        <ele>177</ele>
        <time>2018-01-07T09:35:33Z</time>
      </trkpt>
      <trkpt lat="45.90906" lon="4.77739">
        <ele>177</ele>
        <time>2018-01-07T09:35:34Z</time>
      </trkpt>
      <trkpt lat="45.90901" lon="4.77729">
        <ele>177</ele>
        <time>2018-01-07T09:35:36Z</time>
      </trkpt>
      <trkpt lat="45.90898" lon="4.77724">
        <ele>177</ele>
        <time>2018-01-07T09:35:37Z</time>
      </trkpt>
      <trkpt lat="45.90892" lon="4.77716">
        <ele>177</ele>
        <time>2018-01-07T09:35:39Z</time>
      </trkpt>
      <trkpt lat="45.90889" lon="4.77713">
        <ele>177</ele>
        <time>2018-01-07T09:35:40Z</time>
      </trkpt>
      <trkpt lat="45.90883" lon="4.77708">
        <ele>177</ele>
        <time>2018-01-07T09:35:42Z</time>
      </trkpt>
      <trkpt lat="45.9088" lon="4.77706">
        <ele>177</ele>
        <time>2018-01-07T09:35:43Z</time>
      </trkpt>
      <trkpt lat="45.90875" lon="4.777">
        <ele>178</ele>
        <time>2018-01-07T09:35:45Z</time>
      </trkpt>
      <trkpt lat="45.90873" lon="4.77698">
        <ele>178</ele>
        <time>2018-01-07T09:35:46Z</time>
      </trkpt>
      <trkpt lat="45.90865" lon="4.77691">
        <ele>178</ele>
        <time>2018-01-07T09:35:49Z</time>
      </trkpt>
      <trkpt lat="45.90863" lon="4.77689">
        <ele>178</ele>
        <time>2018-01-07T09:35:50Z</time>
      </trkpt>
      <trkpt lat="45.90855" lon="4.77683">
        <ele>178</ele>
        <time>2018-01-07T09:35:53Z</time>
      </trkpt>
      <trkpt lat="45.90853" lon="4.77681">
        <ele>178</ele>
        <time>2018-01-07T09:35:54Z</time>
      </trkpt>
      <trkpt lat="45.90845" lon="4.77676">
        <ele>178</ele>
        <time>2018-01-07T09:36:00Z</time>
      </trkpt>
      <trkpt lat="45.90841" lon="4.77674">
        <ele>178</ele>
        <time>2018-01-07T09:36:01Z</time>
      </trkpt>
      <trkpt lat="45.90834" lon="4.77672">
        <ele>179</ele>
        <time>2018-01-07T09:36:03Z</time>
      </trkpt>
      <trkpt lat="45.90831" lon="4.77671">
        <ele>179</ele>
        <time>2018-01-07T09:36:04Z</time>
      </trkpt>
      <trkpt lat="45.90824" lon="4.77668">
        <ele>179</ele>
        <time>2018-01-07T09:36:06Z</time>
      </trkpt>
      <trkpt lat="45.9082" lon="4.77667">
        <ele>179</ele>
        <time>2018-01-07T09:36:07Z</time>
      </trkpt>
      <trkpt lat="45.90813" lon="4.77664">
        <ele>179</ele>
        <time>2018-01-07T09:36:09Z</time>
      </trkpt>
      <trkpt lat="45.9081" lon="4.77664">
        <ele>179</ele>
        <time>2018-01-07T09:36:10Z</time>
      </trkpt>
      <trkpt lat="45.90801" lon="4.77663">
        <ele>179</ele>
        <time>2018-01-07T09:36:12Z</time>
      </trkpt>
      <trkpt lat="45.90796" lon="4.77662">
        <ele>179</ele>
        <time>2018-01-07T09:36:13Z</time>
      </trkpt>
      <trkpt lat="45.90788" lon="4.77659">
        <ele>179</ele>
        <time>2018-01-07T09:36:15Z</time>
      </trkpt>
      <trkpt lat="45.90784" lon="4.77658">
        <ele>179</ele>
        <time>2018-01-07T09:36:16Z</time>
      </trkpt>
      <trkpt lat="45.90775" lon="4.77655">
        <ele>180</ele>
        <time>2018-01-07T09:36:18Z</time>
      </trkpt>
      <trkpt lat="45.90771" lon="4.77652">
        <ele>180</ele>
        <time>2018-01-07T09:36:19Z</time>
      </trkpt>
      <trkpt lat="45.90763" lon="4.77647">
        <ele>180</ele>
        <time>2018-01-07T09:36:21Z</time>
      </trkpt>
      <trkpt lat="45.90758" lon="4.77644">
        <ele>180</ele>
        <time>2018-01-07T09:36:22Z</time>
      </trkpt>
      <trkpt lat="45.90752" lon="4.77642">
        <ele>180</ele>
        <time>2018-01-07T09:36:23Z</time>
      </trkpt>
      <trkpt lat="45.90748" lon="4.77643">
        <ele>180</ele>
        <time>2018-01-07T09:36:24Z</time>
      </trkpt>
      <trkpt lat="45.90742" lon="4.77643">
        <ele>180</ele>
        <time>2018-01-07T09:36:25Z</time>
      </trkpt>
      <trkpt lat="45.90736" lon="4.77642">
        <ele>180</ele>
        <time>2018-01-07T09:36:26Z</time>
      </trkpt>
      <trkpt lat="45.90731" lon="4.7764">
        <ele>180</ele>
        <time>2018-01-07T09:36:27Z</time>
      </trkpt>
      <trkpt lat="45.90726" lon="4.77639">
        <ele>180</ele>
        <time>2018-01-07T09:36:28Z</time>
      </trkpt>
      <trkpt lat="45.90721" lon="4.77638">
        <ele>180</ele>
        <time>2018-01-07T09:36:29Z</time>
      </trkpt>
      <trkpt lat="45.90715" lon="4.77635">
        <ele>179</ele>
        <time>2018-01-07T09:36:30Z</time>
      </trkpt>
      <trkpt lat="45.90711" lon="4.77633">
        <ele>179</ele>
        <time>2018-01-07T09:36:31Z</time>
      </trkpt>
      <trkpt lat="45.90705" lon="4.77631">
        <ele>179</ele>
        <time>2018-01-07T09:36:32Z</time>
      </trkpt>
      <trkpt lat="45.90698" lon="4.7763">
        <ele>179</ele>
        <time>2018-01-07T09:36:33Z</time>
      </trkpt>
      <trkpt lat="45.90692" lon="4.77629">
        <ele>179</ele>
        <time>2018-01-07T09:36:34Z</time>
      </trkpt>
      <trkpt lat="45.90687" lon="4.77629">
        <ele>179</ele>
        <time>2018-01-07T09:36:35Z</time>
      </trkpt>
      <trkpt lat="45.90681" lon="4.77627">
        <ele>179</ele>
        <time>2018-01-07T09:36:36Z</time>
      </trkpt>
      <trkpt lat="45.90675" lon="4.77626">
        <ele>179</ele>
        <time>2018-01-07T09:36:37Z</time>
      </trkpt>
      <trkpt lat="45.90668" lon="4.77624">
        <ele>179</ele>
        <time>2018-01-07T09:36:38Z</time>
      </trkpt>
      <trkpt lat="45.90662" lon="4.77623">
        <ele>179</ele>
        <time>2018-01-07T09:36:39Z</time>
      </trkpt>
      <trkpt lat="45.90656" lon="4.77621">
        <ele>179</ele>
        <time>2018-01-07T09:36:40Z</time>
      </trkpt>
      <trkpt lat="45.9065" lon="4.77622">
        <ele>179</ele>
        <time>2018-01-07T09:36:41Z</time>
      </trkpt>
      <trkpt lat="45.90644" lon="4.77623">
        <ele>179</ele>
        <time>2018-01-07T09:36:42Z</time>
      </trkpt>
      <trkpt lat="45.90638" lon="4.77623">
        <ele>179</ele>
        <time>2018-01-07T09:36:43Z</time>
      </trkpt>
      <trkpt lat="45.90633" lon="4.77623">
        <ele>179</ele>
        <time>2018-01-07T09:36:44Z</time>
      </trkpt>
      <trkpt lat="45.90626" lon="4.77624">
        <ele>179</ele>
        <time>2018-01-07T09:36:45Z</time>
      </trkpt>
      <trkpt lat="45.9062" lon="4.77624">
        <ele>179</ele>
        <time>2018-01-07T09:36:46Z</time>
      </trkpt>
      <trkpt lat="45.90613" lon="4.77626">
        <ele>179</ele>
        <time>2018-01-07T09:36:47Z</time>
      </trkpt>
      <trkpt lat="45.90607" lon="4.77627">
        <ele>179</ele>
        <time>2018-01-07T09:36:48Z</time>
      </trkpt>
      <trkpt lat="45.90601" lon="4.77626">
        <ele>179</ele>
        <time>2018-01-07T09:36:49Z</time>
      </trkpt>
      <trkpt lat="45.90595" lon="4.77627">
        <ele>179</ele>
        <time>2018-01-07T09:36:50Z</time>
      </trkpt>
      <trkpt lat="45.90589" lon="4.77629">
        <ele>179</ele>
        <time>2018-01-07T09:36:51Z</time>
      </trkpt>
      <trkpt lat="45.90583" lon="4.77629">
        <ele>178</ele>
        <time>2018-01-07T09:36:52Z</time>
      </trkpt>
      <trkpt lat="45.90577" lon="4.77631">
        <ele>178</ele>
        <time>2018-01-07T09:36:53Z</time>
      </trkpt>
      <trkpt lat="45.90571" lon="4.77632">
        <ele>178</ele>
        <time>2018-01-07T09:36:54Z</time>
      </trkpt>
      <trkpt lat="45.90565" lon="4.77633">
        <ele>178</ele>
        <time>2018-01-07T09:36:55Z</time>
      </trkpt>
      <trkpt lat="45.90559" lon="4.77634">
        <ele>178</ele>
        <time>2018-01-07T09:36:56Z</time>
      </trkpt>
      <trkpt lat="45.90553" lon="4.77635">
        <ele>178</ele>
        <time>2018-01-07T09:36:57Z</time>
      </trkpt>
      <trkpt lat="45.90546" lon="4.77636">
        <ele>178</ele>
        <time>2018-01-07T09:36:58Z</time>
      </trkpt>
      <trkpt lat="45.9054" lon="4.77636">
        <ele>178</ele>
        <time>2018-01-07T09:36:59Z</time>
      </trkpt>
      <trkpt lat="45.90534" lon="4.77637">
        <ele>178</ele>
        <time>2018-01-07T09:37:00Z</time>
      </trkpt>
      <trkpt lat="45.90528" lon="4.77637">
        <ele>178</ele>
        <time>2018-01-07T09:37:01Z</time>
      </trkpt>
      <trkpt lat="45.90522" lon="4.77639">
        <ele>178</ele>
        <time>2018-01-07T09:37:02Z</time>
      </trkpt>
      <trkpt lat="45.90515" lon="4.77639">
        <ele>178</ele>
        <time>2018-01-07T09:37:03Z</time>
      </trkpt>
      <trkpt lat="45.90509" lon="4.7764">
        <ele>178</ele>
        <time>2018-01-07T09:37:04Z</time>
      </trkpt>
      <trkpt lat="45.90501" lon="4.77642">
        <ele>178</ele>
        <time>2018-01-07T09:37:05Z</time>
      </trkpt>
      <trkpt lat="45.90496" lon="4.77642">
        <ele>179</ele>
        <time>2018-01-07T09:37:06Z</time>
      </trkpt>
      <trkpt lat="45.9049" lon="4.77642">
        <ele>179</ele>
        <time>2018-01-07T09:37:07Z</time>
      </trkpt>
      <trkpt lat="45.90484" lon="4.77642">
        <ele>179</ele>
        <time>2018-01-07T09:37:08Z</time>
      </trkpt>
      <trkpt lat="45.90479" lon="4.77643">
        <ele>179</ele>
        <time>2018-01-07T09:37:09Z</time>
      </trkpt>
      <trkpt lat="45.90475" lon="4.77645">
        <ele>179</ele>
        <time>2018-01-07T09:37:10Z</time>
      </trkpt>
      <trkpt lat="45.90469" lon="4.77646">
        <ele>179</ele>
        <time>2018-01-07T09:37:11Z</time>
      </trkpt>
      <trkpt lat="45.90464" lon="4.77647">
        <ele>179</ele>
        <time>2018-01-07T09:37:12Z</time>
      </trkpt>
      <trkpt lat="45.90459" lon="4.77647">
        <ele>179</ele>
        <time>2018-01-07T09:37:13Z</time>
      </trkpt>
      <trkpt lat="45.90453" lon="4.77648">
        <ele>179</ele>
        <time>2018-01-07T09:37:14Z</time>
      </trkpt>
      <trkpt lat="45.90448" lon="4.77649">
        <ele>179</ele>
        <time>2018-01-07T09:37:15Z</time>
      </trkpt>
      <trkpt lat="45.90443" lon="4.77649">
        <ele>179</ele>
        <time>2018-01-07T09:37:16Z</time>
      </trkpt>
      <trkpt lat="45.90437" lon="4.77649">
        <ele>180</ele>
        <time>2018-01-07T09:37:17Z</time>
      </trkpt>
      <trkpt lat="45.90432" lon="4.7765">
        <ele>180</ele>
        <time>2018-01-07T09:37:18Z</time>
      </trkpt>
      <trkpt lat="45.90426" lon="4.77651">
        <ele>180</ele>
        <time>2018-01-07T09:37:19Z</time>
      </trkpt>
      <trkpt lat="45.90421" lon="4.77651">
        <ele>180</ele>
        <time>2018-01-07T09:37:20Z</time>
      </trkpt>
      <trkpt lat="45.90415" lon="4.77651">
        <ele>181</ele>
        <time>2018-01-07T09:37:21Z</time>
      </trkpt>
      <trkpt lat="45.90409" lon="4.77652">
        <ele>181</ele>
        <time>2018-01-07T09:37:22Z</time>
      </trkpt>
      <trkpt lat="45.90404" lon="4.77653">
        <ele>181</ele>
        <time>2018-01-07T09:37:23Z</time>
      </trkpt>
      <trkpt lat="45.904" lon="4.77654">
        <ele>181</ele>
        <time>2018-01-07T09:37:24Z</time>
      </trkpt>
      <trkpt lat="45.90391" lon="4.77655">
        <ele>181</ele>
        <time>2018-01-07T09:37:26Z</time>
      </trkpt>
      <trkpt lat="45.90387" lon="4.77656">
        <ele>181</ele>
        <time>2018-01-07T09:37:27Z</time>
      </trkpt>
      <trkpt lat="45.90379" lon="4.77657">
        <ele>181</ele>
        <time>2018-01-07T09:37:29Z</time>
      </trkpt>
      <trkpt lat="45.90374" lon="4.77657">
        <ele>181</ele>
        <time>2018-01-07T09:37:30Z</time>
      </trkpt>
      <trkpt lat="45.90365" lon="4.77658">
        <ele>181</ele>
        <time>2018-01-07T09:37:32Z</time>
      </trkpt>
      <trkpt lat="45.9036" lon="4.77659">
        <ele>181</ele>
        <time>2018-01-07T09:37:33Z</time>
      </trkpt>
      <trkpt lat="45.90356" lon="4.77661">
        <ele>181</ele>
        <time>2018-01-07T09:37:34Z</time>
      </trkpt>
      <trkpt lat="45.90351" lon="4.77662">
        <ele>181</ele>
        <time>2018-01-07T09:37:35Z</time>
      </trkpt>
      <trkpt lat="45.90346" lon="4.77663">
        <ele>181</ele>
        <time>2018-01-07T09:37:36Z</time>
      </trkpt>
      <trkpt lat="45.90342" lon="4.77664">
        <ele>182</ele>
        <time>2018-01-07T09:37:37Z</time>
      </trkpt>
      <trkpt lat="45.90337" lon="4.77665">
        <ele>182</ele>
        <time>2018-01-07T09:37:38Z</time>
      </trkpt>
      <trkpt lat="45.90331" lon="4.77665">
        <ele>182</ele>
        <time>2018-01-07T09:37:39Z</time>
      </trkpt>
      <trkpt lat="45.90324" lon="4.77666">
        <ele>182</ele>
        <time>2018-01-07T09:37:41Z</time>
      </trkpt>
      <trkpt lat="45.9032" lon="4.77666">
        <ele>182</ele>
        <time>2018-01-07T09:37:42Z</time>
      </trkpt>
      <trkpt lat="45.90311" lon="4.77667">
        <ele>182</ele>
        <time>2018-01-07T09:37:44Z</time>
      </trkpt>
      <trkpt lat="45.90306" lon="4.77668">
        <ele>182</ele>
        <time>2018-01-07T09:37:45Z</time>
      </trkpt>
      <trkpt lat="45.90298" lon="4.77668">
        <ele>182</ele>
        <time>2018-01-07T09:37:47Z</time>
      </trkpt>
      <trkpt lat="45.90292" lon="4.7767">
        <ele>182</ele>
        <time>2018-01-07T09:37:48Z</time>
      </trkpt>
      <trkpt lat="45.90287" lon="4.7767">
        <ele>182</ele>
        <time>2018-01-07T09:37:49Z</time>
      </trkpt>
      <trkpt lat="45.90281" lon="4.77669">
        <ele>182</ele>
        <time>2018-01-07T09:37:50Z</time>
      </trkpt>
      <trkpt lat="45.90276" lon="4.7767">
        <ele>182</ele>
        <time>2018-01-07T09:37:51Z</time>
      </trkpt>
      <trkpt lat="45.90271" lon="4.77671">
        <ele>182</ele>
        <time>2018-01-07T09:37:52Z</time>
      </trkpt>
      <trkpt lat="45.90263" lon="4.77671">
        <ele>182</ele>
        <time>2018-01-07T09:37:54Z</time>
      </trkpt>
      <trkpt lat="45.90258" lon="4.77672">
        <ele>182</ele>
        <time>2018-01-07T09:37:55Z</time>
      </trkpt>
      <trkpt lat="45.90253" lon="4.77672">
        <ele>182</ele>
        <time>2018-01-07T09:37:56Z</time>
      </trkpt>
      <trkpt lat="45.90248" lon="4.77673">
        <ele>183</ele>
        <time>2018-01-07T09:37:57Z</time>
      </trkpt>
      <trkpt lat="45.90243" lon="4.77672">
        <ele>183</ele>
        <time>2018-01-07T09:37:58Z</time>
      </trkpt>
      <trkpt lat="45.90239" lon="4.77672">
        <ele>183</ele>
        <time>2018-01-07T09:37:59Z</time>
      </trkpt>
      <trkpt lat="45.90235" lon="4.77672">
        <ele>183</ele>
        <time>2018-01-07T09:38:00Z</time>
      </trkpt>
      <trkpt lat="45.9023" lon="4.77671">
        <ele>183</ele>
        <time>2018-01-07T09:38:01Z</time>
      </trkpt>
      <trkpt lat="45.90221" lon="4.77672">
        <ele>184</ele>
        <time>2018-01-07T09:38:03Z</time>
      </trkpt>
      <trkpt lat="45.90217" lon="4.77671">
        <ele>184</ele>
        <time>2018-01-07T09:38:04Z</time>
      </trkpt>
      <trkpt lat="45.90208" lon="4.7767">
        <ele>184</ele>
        <time>2018-01-07T09:38:06Z</time>
      </trkpt>
      <trkpt lat="45.90204" lon="4.7767">
        <ele>184</ele>
        <time>2018-01-07T09:38:07Z</time>
      </trkpt>
      <trkpt lat="45.90198" lon="4.77671">
        <ele>184</ele>
        <time>2018-01-07T09:38:08Z</time>
      </trkpt>
      <trkpt lat="45.90194" lon="4.77671">
        <ele>184</ele>
        <time>2018-01-07T09:38:09Z</time>
      </trkpt>
      <trkpt lat="45.90188" lon="4.7767">
        <ele>185</ele>
        <time>2018-01-07T09:38:10Z</time>
      </trkpt>
      <trkpt lat="45.90184" lon="4.77669">
        <ele>185</ele>
        <time>2018-01-07T09:38:11Z</time>
      </trkpt>
      <trkpt lat="45.90179" lon="4.77669">
        <ele>185</ele>
        <time>2018-01-07T09:38:12Z</time>
      </trkpt>
      <trkpt lat="45.90174" lon="4.77669">
        <ele>185</ele>
        <time>2018-01-07T09:38:13Z</time>
      </trkpt>
      <trkpt lat="45.90165" lon="4.77669">
        <ele>185</ele>
        <time>2018-01-07T09:38:15Z</time>
      </trkpt>
      <trkpt lat="45.90161" lon="4.7767">
        <ele>185</ele>
        <time>2018-01-07T09:38:16Z</time>
      </trkpt>
      <trkpt lat="45.90156" lon="4.77671">
        <ele>185</ele>
        <time>2018-01-07T09:38:17Z</time>
      </trkpt>
      <trkpt lat="45.90151" lon="4.77671">
        <ele>185</ele>
        <time>2018-01-07T09:38:18Z</time>
      </trkpt>
      <trkpt lat="45.90142" lon="4.77671">
        <ele>185</ele>
        <time>2018-01-07T09:38:20Z</time>
      </trkpt>
      <trkpt lat="45.90138" lon="4.77671">
        <ele>185</ele>
        <time>2018-01-07T09:38:21Z</time>
      </trkpt>
      <trkpt lat="45.90133" lon="4.77672">
        <ele>185</ele>
        <time>2018-01-07T09:38:22Z</time>
      </trkpt>
      <trkpt lat="45.90128" lon="4.77672">
        <ele>185</ele>
        <time>2018-01-07T09:38:23Z</time>
      </trkpt>
      <trkpt lat="45.90122" lon="4.77672">
        <ele>184</ele>
        <time>2018-01-07T09:38:24Z</time>
      </trkpt>
      <trkpt lat="45.90118" lon="4.77671">
        <ele>184</ele>
        <time>2018-01-07T09:38:25Z</time>
      </trkpt>
      <trkpt lat="45.9011" lon="4.7767">
        <ele>184</ele>
        <time>2018-01-07T09:38:27Z</time>
      </trkpt>
      <trkpt lat="45.90105" lon="4.7767">
        <ele>184</ele>
        <time>2018-01-07T09:38:28Z</time>
      </trkpt>
      <trkpt lat="45.90096" lon="4.77671">
        <ele>184</ele>
        <time>2018-01-07T09:38:30Z</time>
      </trkpt>
      <trkpt lat="45.90092" lon="4.77671">
        <ele>184</ele>
        <time>2018-01-07T09:38:31Z</time>
      </trkpt>
      <trkpt lat="45.90086" lon="4.7767">
        <ele>183</ele>
        <time>2018-01-07T09:38:32Z</time>
      </trkpt>
      <trkpt lat="45.90082" lon="4.77669">
        <ele>183</ele>
        <time>2018-01-07T09:38:33Z</time>
      </trkpt>
      <trkpt lat="45.90078" lon="4.77669">
        <ele>183</ele>
        <time>2018-01-07T09:38:34Z</time>
      </trkpt>
      <trkpt lat="45.90073" lon="4.77668">
        <ele>184</ele>
        <time>2018-01-07T09:38:35Z</time>
      </trkpt>
      <trkpt lat="45.90068" lon="4.77668">
        <ele>184</ele>
        <time>2018-01-07T09:38:36Z</time>
      </trkpt>
      <trkpt lat="45.90063" lon="4.77667">
        <ele>184</ele>
        <time>2018-01-07T09:38:37Z</time>
      </trkpt>
      <trkpt lat="45.90058" lon="4.77666">
        <ele>183</ele>
        <time>2018-01-07T09:38:38Z</time>
      </trkpt>
      <trkpt lat="45.90053" lon="4.77666">
        <ele>183</ele>
        <time>2018-01-07T09:38:39Z</time>
      </trkpt>
      <trkpt lat="45.90048" lon="4.77666">
        <ele>184</ele>
        <time>2018-01-07T09:38:40Z</time>
      </trkpt>
      <trkpt lat="45.90043" lon="4.77666">
        <ele>184</ele>
        <time>2018-01-07T09:38:41Z</time>
      </trkpt>
      <trkpt lat="45.90038" lon="4.77666">
        <ele>184</ele>
        <time>2018-01-07T09:38:42Z</time>
      </trkpt>
      <trkpt lat="45.90033" lon="4.77666">
        <ele>184</ele>
        <time>2018-01-07T09:38:43Z</time>
      </trkpt>
      <trkpt lat="45.90028" lon="4.77666">
        <ele>184</ele>
        <time>2018-01-07T09:38:44Z</time>
      </trkpt>
      <trkpt lat="45.90023" lon="4.77665">
        <ele>184</ele>
        <time>2018-01-07T09:38:45Z</time>
      </trkpt>
      <trkpt lat="45.90018" lon="4.77665">
        <ele>185</ele>
        <time>2018-01-07T09:38:46Z</time>
      </trkpt>
      <trkpt lat="45.90014" lon="4.77664">
        <ele>185</ele>
        <time>2018-01-07T09:38:47Z</time>
      </trkpt>
      <trkpt lat="45.90009" lon="4.77663">
        <ele>185</ele>
        <time>2018-01-07T09:38:48Z</time>
      </trkpt>
      <trkpt lat="45.90005" lon="4.77663">
        <ele>185</ele>
        <time>2018-01-07T09:38:49Z</time>
      </trkpt>
      <trkpt lat="45.89996" lon="4.77662">
        <ele>186</ele>
        <time>2018-01-07T09:38:51Z</time>
      </trkpt>
      <trkpt lat="45.89993" lon="4.77663">
        <ele>186</ele>
        <time>2018-01-07T09:38:52Z</time>
      </trkpt>
      <trkpt lat="45.89989" lon="4.77664">
        <ele>185</ele>
        <time>2018-01-07T09:38:53Z</time>
      </trkpt>
      <trkpt lat="45.89984" lon="4.77663">
        <ele>185</ele>
        <time>2018-01-07T09:38:54Z</time>
      </trkpt>
      <trkpt lat="45.89978" lon="4.77663">
        <ele>185</ele>
        <time>2018-01-07T09:38:55Z</time>
      </trkpt>
      <trkpt lat="45.89974" lon="4.77664">
        <ele>185</ele>
        <time>2018-01-07T09:38:56Z</time>
      </trkpt>
      <trkpt lat="45.89968" lon="4.77664">
        <ele>185</ele>
        <time>2018-01-07T09:38:57Z</time>
      </trkpt>
      <trkpt lat="45.89963" lon="4.77663">
        <ele>185</ele>
        <time>2018-01-07T09:38:58Z</time>
      </trkpt>
      <trkpt lat="45.89955" lon="4.77665">
        <ele>185</ele>
        <time>2018-01-07T09:39:00Z</time>
      </trkpt>
      <trkpt lat="45.89947" lon="4.77662">
        <ele>185</ele>
        <time>2018-01-07T09:39:01Z</time>
      </trkpt>
      <trkpt lat="45.89942" lon="4.77663">
        <ele>186</ele>
        <time>2018-01-07T09:39:02Z</time>
      </trkpt>
      <trkpt lat="45.89937" lon="4.77663">
        <ele>186</ele>
        <time>2018-01-07T09:39:03Z</time>
      </trkpt>
      <trkpt lat="45.89933" lon="4.77662">
        <ele>186</ele>
        <time>2018-01-07T09:39:04Z</time>
      </trkpt>
      <trkpt lat="45.89928" lon="4.77661">
        <ele>186</ele>
        <time>2018-01-07T09:39:05Z</time>
      </trkpt>
      <trkpt lat="45.8992" lon="4.7766">
        <ele>186</ele>
        <time>2018-01-07T09:39:07Z</time>
      </trkpt>
      <trkpt lat="45.89916" lon="4.7766">
        <ele>187</ele>
        <time>2018-01-07T09:39:08Z</time>
      </trkpt>
      <trkpt lat="45.89909" lon="4.77661">
        <ele>186</ele>
        <time>2018-01-07T09:39:09Z</time>
      </trkpt>
      <trkpt lat="45.89905" lon="4.77661">
        <ele>186</ele>
        <time>2018-01-07T09:39:10Z</time>
      </trkpt>
      <trkpt lat="45.89896" lon="4.77662">
        <ele>186</ele>
        <time>2018-01-07T09:39:12Z</time>
      </trkpt>
      <trkpt lat="45.89892" lon="4.77662">
        <ele>186</ele>
        <time>2018-01-07T09:39:13Z</time>
      </trkpt>
      <trkpt lat="45.89883" lon="4.77661">
        <ele>186</ele>
        <time>2018-01-07T09:39:15Z</time>
      </trkpt>
      <trkpt lat="45.89879" lon="4.77662">
        <ele>186</ele>
        <time>2018-01-07T09:39:16Z</time>
      </trkpt>
      <trkpt lat="45.89875" lon="4.77661">
        <ele>186</ele>
        <time>2018-01-07T09:39:17Z</time>
      </trkpt>
      <trkpt lat="45.8987" lon="4.77662">
        <ele>186</ele>
        <time>2018-01-07T09:39:18Z</time>
      </trkpt>
      <trkpt lat="45.89861" lon="4.77664">
        <ele>187</ele>
        <time>2018-01-07T09:39:20Z</time>
      </trkpt>
      <trkpt lat="45.89857" lon="4.77663">
        <ele>187</ele>
        <time>2018-01-07T09:39:21Z</time>
      </trkpt>
      <trkpt lat="45.89849" lon="4.77661">
        <ele>187</ele>
        <time>2018-01-07T09:39:23Z</time>
      </trkpt>
      <trkpt lat="45.89844" lon="4.7766">
        <ele>188</ele>
        <time>2018-01-07T09:39:24Z</time>
      </trkpt>
      <trkpt lat="45.89835" lon="4.77662">
        <ele>188</ele>
        <time>2018-01-07T09:39:26Z</time>
      </trkpt>
      <trkpt lat="45.8983" lon="4.77662">
        <ele>189</ele>
        <time>2018-01-07T09:39:27Z</time>
      </trkpt>
      <trkpt lat="45.89823" lon="4.77662">
        <ele>189</ele>
        <time>2018-01-07T09:39:29Z</time>
      </trkpt>
      <trkpt lat="45.89819" lon="4.77662">
        <ele>188</ele>
        <time>2018-01-07T09:39:30Z</time>
      </trkpt>
      <trkpt lat="45.89812" lon="4.77662">
        <ele>188</ele>
        <time>2018-01-07T09:39:32Z</time>
      </trkpt>
      <trkpt lat="45.89807" lon="4.77661">
        <ele>188</ele>
        <time>2018-01-07T09:39:33Z</time>
      </trkpt>
      <trkpt lat="45.89799" lon="4.7766">
        <ele>189</ele>
        <time>2018-01-07T09:39:35Z</time>
      </trkpt>
      <trkpt lat="45.89796" lon="4.7766">
        <ele>189</ele>
        <time>2018-01-07T09:39:36Z</time>
      </trkpt>
      <trkpt lat="45.89788" lon="4.7766">
        <ele>189</ele>
        <time>2018-01-07T09:39:38Z</time>
      </trkpt>
      <trkpt lat="45.89784" lon="4.77659">
        <ele>189</ele>
        <time>2018-01-07T09:39:39Z</time>
      </trkpt>
      <trkpt lat="45.89778" lon="4.77659">
        <ele>189</ele>
        <time>2018-01-07T09:39:41Z</time>
      </trkpt>
      <trkpt lat="45.89775" lon="4.77659">
        <ele>189</ele>
        <time>2018-01-07T09:39:42Z</time>
      </trkpt>
      <trkpt lat="45.89769" lon="4.77659">
        <ele>190</ele>
        <time>2018-01-07T09:39:44Z</time>
      </trkpt>
      <trkpt lat="45.89765" lon="4.77658">
        <ele>190</ele>
        <time>2018-01-07T09:39:45Z</time>
      </trkpt>
      <trkpt lat="45.89758" lon="4.77657">
        <ele>190</ele>
        <time>2018-01-07T09:39:47Z</time>
      </trkpt>
      <trkpt lat="45.89753" lon="4.77656">
        <ele>190</ele>
        <time>2018-01-07T09:39:48Z</time>
      </trkpt>
      <trkpt lat="45.89745" lon="4.77654">
        <ele>191</ele>
        <time>2018-01-07T09:39:50Z</time>
      </trkpt>
      <trkpt lat="45.8974" lon="4.77653">
        <ele>191</ele>
        <time>2018-01-07T09:39:51Z</time>
      </trkpt>
      <trkpt lat="45.89737" lon="4.77652">
        <ele>191</ele>
        <time>2018-01-07T09:39:52Z</time>
      </trkpt>
      <trkpt lat="45.89731" lon="4.77651">
        <ele>191</ele>
        <time>2018-01-07T09:39:53Z</time>
      </trkpt>
      <trkpt lat="45.89722" lon="4.77649">
        <ele>190</ele>
        <time>2018-01-07T09:39:55Z</time>
      </trkpt>
      <trkpt lat="45.89719" lon="4.77648">
        <ele>190</ele>
        <time>2018-01-07T09:39:56Z</time>
      </trkpt>
      <trkpt lat="45.89711" lon="4.77648">
        <ele>190</ele>
        <time>2018-01-07T09:39:58Z</time>
      </trkpt>
      <trkpt lat="45.89705" lon="4.77646">
        <ele>190</ele>
        <time>2018-01-07T09:39:59Z</time>
      </trkpt>
      <trkpt lat="45.89698" lon="4.77644">
        <ele>190</ele>
        <time>2018-01-07T09:40:01Z</time>
      </trkpt>
      <trkpt lat="45.89692" lon="4.77644">
        <ele>190</ele>
        <time>2018-01-07T09:40:02Z</time>
      </trkpt>
      <trkpt lat="45.89688" lon="4.77643">
        <ele>190</ele>
        <time>2018-01-07T09:40:03Z</time>
      </trkpt>
      <trkpt lat="45.89683" lon="4.77641">
        <ele>190</ele>
        <time>2018-01-07T09:40:04Z</time>
      </trkpt>
      <trkpt lat="45.89679" lon="4.77641">
        <ele>190</ele>
        <time>2018-01-07T09:40:05Z</time>
      </trkpt>
      <trkpt lat="45.89674" lon="4.77641">
        <ele>190</ele>
        <time>2018-01-07T09:40:06Z</time>
      </trkpt>
      <trkpt lat="45.89668" lon="4.77641">
        <ele>190</ele>
        <time>2018-01-07T09:40:07Z</time>
      </trkpt>
      <trkpt lat="45.89663" lon="4.77641">
        <ele>190</ele>
        <time>2018-01-07T09:40:08Z</time>
      </trkpt>
      <trkpt lat="45.89654" lon="4.77639">
        <ele>190</ele>
        <time>2018-01-07T09:40:10Z</time>
      </trkpt>
      <trkpt lat="45.8965" lon="4.77639">
        <ele>190</ele>
        <time>2018-01-07T09:40:11Z</time>
      </trkpt>
      <trkpt lat="45.89641" lon="4.77637">
        <ele>190</ele>
        <time>2018-01-07T09:40:13Z</time>
      </trkpt>
      <trkpt lat="45.89637" lon="4.77636">
        <ele>190</ele>
        <time>2018-01-07T09:40:14Z</time>
      </trkpt>
      <trkpt lat="45.89632" lon="4.77635">
        <ele>190</ele>
        <time>2018-01-07T09:40:15Z</time>
      </trkpt>
      <trkpt lat="45.89627" lon="4.77635">
        <ele>191</ele>
        <time>2018-01-07T09:40:16Z</time>
      </trkpt>
      <trkpt lat="45.89623" lon="4.77633">
        <ele>191</ele>
        <time>2018-01-07T09:40:17Z</time>
      </trkpt>
      <trkpt lat="45.89618" lon="4.77633">
        <ele>191</ele>
        <time>2018-01-07T09:40:18Z</time>
      </trkpt>
      <trkpt lat="45.89614" lon="4.77633">
        <ele>191</ele>
        <time>2018-01-07T09:40:19Z</time>
      </trkpt>
      <trkpt lat="45.89609" lon="4.77631">
        <ele>191</ele>
        <time>2018-01-07T09:40:20Z</time>
      </trkpt>
      <trkpt lat="45.89604" lon="4.77631">
        <ele>191</ele>
        <time>2018-01-07T09:40:21Z</time>
      </trkpt>
      <trkpt lat="45.89599" lon="4.77631">
        <ele>191</ele>
        <time>2018-01-07T09:40:22Z</time>
      </trkpt>
      <trkpt lat="45.89594" lon="4.7763">
        <ele>191</ele>
        <time>2018-01-07T09:40:23Z</time>
      </trkpt>
      <trkpt lat="45.8959" lon="4.77629">
        <ele>191</ele>
        <time>2018-01-07T09:40:24Z</time>
      </trkpt>
      <trkpt lat="45.89585" lon="4.77628">
        <ele>191</ele>
        <time>2018-01-07T09:40:25Z</time>
      </trkpt>
      <trkpt lat="45.8958" lon="4.77628">
        <ele>192</ele>
        <time>2018-01-07T09:40:26Z</time>
      </trkpt>
      <trkpt lat="45.89572" lon="4.77627">
        <ele>192</ele>
        <time>2018-01-07T09:40:28Z</time>
      </trkpt>
      <trkpt lat="45.89567" lon="4.77626">
        <ele>192</ele>
        <time>2018-01-07T09:40:29Z</time>
      </trkpt>
      <trkpt lat="45.89562" lon="4.77627">
        <ele>192</ele>
        <time>2018-01-07T09:40:30Z</time>
      </trkpt>
      <trkpt lat="45.89558" lon="4.77625">
        <ele>192</ele>
        <time>2018-01-07T09:40:31Z</time>
      </trkpt>
      <trkpt lat="45.89553" lon="4.77624">
        <ele>192</ele>
        <time>2018-01-07T09:40:32Z</time>
      </trkpt>
      <trkpt lat="45.89548" lon="4.77623">
        <ele>192</ele>
        <time>2018-01-07T09:40:33Z</time>
      </trkpt>
      <trkpt lat="45.89543" lon="4.77623">
        <ele>192</ele>
        <time>2018-01-07T09:40:34Z</time>
      </trkpt>
      <trkpt lat="45.89538" lon="4.77622">
        <ele>192</ele>
        <time>2018-01-07T09:40:35Z</time>
      </trkpt>
      <trkpt lat="45.89534" lon="4.77621">
        <ele>192</ele>
        <time>2018-01-07T09:40:36Z</time>
      </trkpt>
      <trkpt lat="45.89529" lon="4.7762">
        <ele>192</ele>
        <time>2018-01-07T09:40:37Z</time>
      </trkpt>
      <trkpt lat="45.8952" lon="4.77617">
        <ele>192</ele>
        <time>2018-01-07T09:40:39Z</time>
      </trkpt>
      <trkpt lat="45.89515" lon="4.77616">
        <ele>192</ele>
        <time>2018-01-07T09:40:40Z</time>
      </trkpt>
      <trkpt lat="45.89509" lon="4.77614">
        <ele>192</ele>
        <time>2018-01-07T09:40:41Z</time>
      </trkpt>
      <trkpt lat="45.89504" lon="4.77613">
        <ele>192</ele>
        <time>2018-01-07T09:40:42Z</time>
      </trkpt>
      <trkpt lat="45.89499" lon="4.77612">
        <ele>193</ele>
        <time>2018-01-07T09:40:43Z</time>
      </trkpt>
      <trkpt lat="45.89494" lon="4.7761">
        <ele>193</ele>
        <time>2018-01-07T09:40:44Z</time>
      </trkpt>
      <trkpt lat="45.89488" lon="4.77608">
        <ele>193</ele>
        <time>2018-01-07T09:40:45Z</time>
      </trkpt>
      <trkpt lat="45.89484" lon="4.77607">
        <ele>193</ele>
        <time>2018-01-07T09:40:46Z</time>
      </trkpt>
      <trkpt lat="45.8948" lon="4.77605">
        <ele>193</ele>
        <time>2018-01-07T09:40:47Z</time>
      </trkpt>
      <trkpt lat="45.89475" lon="4.77604">
        <ele>193</ele>
        <time>2018-01-07T09:40:48Z</time>
      </trkpt>
      <trkpt lat="45.8947" lon="4.77601">
        <ele>193</ele>
        <time>2018-01-07T09:40:49Z</time>
      </trkpt>
      <trkpt lat="45.89465" lon="4.77599">
        <ele>193</ele>
        <time>2018-01-07T09:40:50Z</time>
      </trkpt>
      <trkpt lat="45.8946" lon="4.77597">
        <ele>193</ele>
        <time>2018-01-07T09:40:51Z</time>
      </trkpt>
      <trkpt lat="45.89456" lon="4.77595">
        <ele>193</ele>
        <time>2018-01-07T09:40:52Z</time>
      </trkpt>
      <trkpt lat="45.89451" lon="4.77594">
        <ele>193</ele>
        <time>2018-01-07T09:40:53Z</time>
      </trkpt>
      <trkpt lat="45.89446" lon="4.77593">
        <ele>193</ele>
        <time>2018-01-07T09:40:54Z</time>
      </trkpt>
      <trkpt lat="45.8944" lon="4.77591">
        <ele>193</ele>
        <time>2018-01-07T09:40:55Z</time>
      </trkpt>
      <trkpt lat="45.89435" lon="4.77589">
        <ele>193</ele>
        <time>2018-01-07T09:40:56Z</time>
      </trkpt>
      <trkpt lat="45.8943" lon="4.77587">
        <ele>194</ele>
        <time>2018-01-07T09:40:57Z</time>
      </trkpt>
      <trkpt lat="45.89424" lon="4.77585">
        <ele>194</ele>
        <time>2018-01-07T09:40:58Z</time>
      </trkpt>
      <trkpt lat="45.8942" lon="4.77584">
        <ele>194</ele>
        <time>2018-01-07T09:40:59Z</time>
      </trkpt>
      <trkpt lat="45.89415" lon="4.77582">
        <ele>194</ele>
        <time>2018-01-07T09:41:00Z</time>
      </trkpt>
      <trkpt lat="45.8941" lon="4.7758">
        <ele>194</ele>
        <time>2018-01-07T09:41:01Z</time>
      </trkpt>
      <trkpt lat="45.89405" lon="4.77577">
        <ele>194</ele>
        <time>2018-01-07T09:41:02Z</time>
      </trkpt>
      <trkpt lat="45.894" lon="4.77576">
        <ele>194</ele>
        <time>2018-01-07T09:41:03Z</time>
      </trkpt>
      <trkpt lat="45.89395" lon="4.77574">
        <ele>194</ele>
        <time>2018-01-07T09:41:04Z</time>
      </trkpt>
      <trkpt lat="45.89389" lon="4.77572">
        <ele>194</ele>
        <time>2018-01-07T09:41:05Z</time>
      </trkpt>
      <trkpt lat="45.89384" lon="4.7757">
        <ele>194</ele>
        <time>2018-01-07T09:41:06Z</time>
      </trkpt>
      <trkpt lat="45.89377" lon="4.77567">
        <ele>194</ele>
        <time>2018-01-07T09:41:07Z</time>
      </trkpt>
      <trkpt lat="45.89372" lon="4.77564">
        <ele>194</ele>
        <time>2018-01-07T09:41:08Z</time>
      </trkpt>
      <trkpt lat="45.89366" lon="4.77563">
        <ele>194</ele>
        <time>2018-01-07T09:41:09Z</time>
      </trkpt>
      <trkpt lat="45.89361" lon="4.7756">
        <ele>194</ele>
        <time>2018-01-07T09:41:10Z</time>
      </trkpt>
      <trkpt lat="45.89355" lon="4.77558">
        <ele>194</ele>
        <time>2018-01-07T09:41:11Z</time>
      </trkpt>
      <trkpt lat="45.8935" lon="4.77556">
        <ele>194</ele>
        <time>2018-01-07T09:41:12Z</time>
      </trkpt>
      <trkpt lat="45.89344" lon="4.77554">
        <ele>194</ele>
        <time>2018-01-07T09:41:13Z</time>
      </trkpt>
      <trkpt lat="45.89339" lon="4.77552">
        <ele>194</ele>
        <time>2018-01-07T09:41:14Z</time>
      </trkpt>
      <trkpt lat="45.89335" lon="4.77549">
        <ele>194</ele>
        <time>2018-01-07T09:41:15Z</time>
      </trkpt>
      <trkpt lat="45.8933" lon="4.77548">
        <ele>194</ele>
        <time>2018-01-07T09:41:16Z</time>
      </trkpt>
      <trkpt lat="45.89322" lon="4.77544">
        <ele>194</ele>
        <time>2018-01-07T09:41:18Z</time>
      </trkpt>
      <trkpt lat="45.89318" lon="4.77543">
        <ele>194</ele>
        <time>2018-01-07T09:41:19Z</time>
      </trkpt>
      <trkpt lat="45.89314" lon="4.77541">
        <ele>194</ele>
        <time>2018-01-07T09:41:20Z</time>
      </trkpt>
      <trkpt lat="45.89309" lon="4.77539">
        <ele>194</ele>
        <time>2018-01-07T09:41:21Z</time>
      </trkpt>
      <trkpt lat="45.89304" lon="4.77538">
        <ele>194</ele>
        <time>2018-01-07T09:41:22Z</time>
      </trkpt>
      <trkpt lat="45.89299" lon="4.77536">
        <ele>194</ele>
        <time>2018-01-07T09:41:23Z</time>
      </trkpt>
      <trkpt lat="45.89295" lon="4.77535">
        <ele>194</ele>
        <time>2018-01-07T09:41:24Z</time>
      </trkpt>
      <trkpt lat="45.89289" lon="4.77534">
        <ele>193</ele>
        <time>2018-01-07T09:41:25Z</time>
      </trkpt>
      <trkpt lat="45.89284" lon="4.77532">
        <ele>193</ele>
        <time>2018-01-07T09:41:26Z</time>
      </trkpt>
      <trkpt lat="45.89279" lon="4.7753">
        <ele>193</ele>
        <time>2018-01-07T09:41:27Z</time>
      </trkpt>
      <trkpt lat="45.89273" lon="4.77528">
        <ele>193</ele>
        <time>2018-01-07T09:41:28Z</time>
      </trkpt>
      <trkpt lat="45.89268" lon="4.77528">
        <ele>193</ele>
        <time>2018-01-07T09:41:29Z</time>
      </trkpt>
      <trkpt lat="45.89262" lon="4.77527">
        <ele>193</ele>
        <time>2018-01-07T09:41:30Z</time>
      </trkpt>
      <trkpt lat="45.89257" lon="4.77527">
        <ele>193</ele>
        <time>2018-01-07T09:41:31Z</time>
      </trkpt>
      <trkpt lat="45.89251" lon="4.77527">
        <ele>193</ele>
        <time>2018-01-07T09:41:32Z</time>
      </trkpt>
      <trkpt lat="45.89246" lon="4.77528">
        <ele>193</ele>
        <time>2018-01-07T09:41:33Z</time>
      </trkpt>
      <trkpt lat="45.89241" lon="4.77529">
        <ele>193</ele>
        <time>2018-01-07T09:41:34Z</time>
      </trkpt>
      <trkpt lat="45.89237" lon="4.7753">
        <ele>193</ele>
        <time>2018-01-07T09:41:35Z</time>
      </trkpt>
      <trkpt lat="45.89232" lon="4.7753">
        <ele>194</ele>
        <time>2018-01-07T09:41:36Z</time>
      </trkpt>
      <trkpt lat="45.89227" lon="4.77532">
        <ele>194</ele>
        <time>2018-01-07T09:41:37Z</time>
      </trkpt>
      <trkpt lat="45.8922" lon="4.77534">
        <ele>194</ele>
        <time>2018-01-07T09:41:39Z</time>
      </trkpt>
      <trkpt lat="45.89216" lon="4.77535">
        <ele>194</ele>
        <time>2018-01-07T09:41:40Z</time>
      </trkpt>
      <trkpt lat="45.89208" lon="4.77536">
        <ele>194</ele>
        <time>2018-01-07T09:41:42Z</time>
      </trkpt>
      <trkpt lat="45.89203" lon="4.77537">
        <ele>194</ele>
        <time>2018-01-07T09:41:43Z</time>
      </trkpt>
      <trkpt lat="45.89199" lon="4.77538">
        <ele>194</ele>
        <time>2018-01-07T09:41:44Z</time>
      </trkpt>
      <trkpt lat="45.89194" lon="4.77539">
        <ele>194</ele>
        <time>2018-01-07T09:41:45Z</time>
      </trkpt>
      <trkpt lat="45.89189" lon="4.77541">
        <ele>194</ele>
        <time>2018-01-07T09:41:46Z</time>
      </trkpt>
      <trkpt lat="45.89184" lon="4.77542">
        <ele>194</ele>
        <time>2018-01-07T09:41:47Z</time>
      </trkpt>
      <trkpt lat="45.8918" lon="4.77542">
        <ele>194</ele>
        <time>2018-01-07T09:41:48Z</time>
      </trkpt>
      <trkpt lat="45.89175" lon="4.77542">
        <ele>194</ele>
        <time>2018-01-07T09:41:49Z</time>
      </trkpt>
      <trkpt lat="45.8917" lon="4.77544">
        <ele>194</ele>
        <time>2018-01-07T09:41:50Z</time>
      </trkpt>
      <trkpt lat="45.89166" lon="4.77546">
        <ele>195</ele>
        <time>2018-01-07T09:41:51Z</time>
      </trkpt>
      <trkpt lat="45.8916" lon="4.77549">
        <ele>195</ele>
        <time>2018-01-07T09:41:52Z</time>
      </trkpt>
      <trkpt lat="45.89156" lon="4.7755">
        <ele>195</ele>
        <time>2018-01-07T09:41:53Z</time>
      </trkpt>
      <trkpt lat="45.89151" lon="4.77552">
        <ele>195</ele>
        <time>2018-01-07T09:41:54Z</time>
      </trkpt>
      <trkpt lat="45.89144" lon="4.77552">
        <ele>195</ele>
        <time>2018-01-07T09:41:55Z</time>
      </trkpt>
      <trkpt lat="45.89135" lon="4.77554">
        <ele>195</ele>
        <time>2018-01-07T09:41:57Z</time>
      </trkpt>
      <trkpt lat="45.89131" lon="4.77555">
        <ele>195</ele>
        <time>2018-01-07T09:41:58Z</time>
      </trkpt>
      <trkpt lat="45.89126" lon="4.77558">
        <ele>195</ele>
        <time>2018-01-07T09:41:59Z</time>
      </trkpt>
      <trkpt lat="45.89122" lon="4.77559">
        <ele>195</ele>
        <time>2018-01-07T09:42:00Z</time>
      </trkpt>
      <trkpt lat="45.89117" lon="4.77561">
        <ele>195</ele>
        <time>2018-01-07T09:42:01Z</time>
      </trkpt>
      <trkpt lat="45.89111" lon="4.77563">
        <ele>195</ele>
        <time>2018-01-07T09:42:02Z</time>
      </trkpt>
      <trkpt lat="45.89106" lon="4.77566">
        <ele>195</ele>
        <time>2018-01-07T09:42:03Z</time>
      </trkpt>
      <trkpt lat="45.89102" lon="4.77569">
        <ele>196</ele>
        <time>2018-01-07T09:42:04Z</time>
      </trkpt>
      <trkpt lat="45.89097" lon="4.77571">
        <ele>196</ele>
        <time>2018-01-07T09:42:05Z</time>
      </trkpt>
      <trkpt lat="45.89093" lon="4.77575">
        <ele>196</ele>
        <time>2018-01-07T09:42:06Z</time>
      </trkpt>
      <trkpt lat="45.89087" lon="4.77578">
        <ele>196</ele>
        <time>2018-01-07T09:42:07Z</time>
      </trkpt>
      <trkpt lat="45.89083" lon="4.77583">
        <ele>196</ele>
        <time>2018-01-07T09:42:08Z</time>
      </trkpt>
      <trkpt lat="45.89079" lon="4.77587">
        <ele>196</ele>
        <time>2018-01-07T09:42:09Z</time>
      </trkpt>
      <trkpt lat="45.89074" lon="4.77589">
        <ele>196</ele>
        <time>2018-01-07T09:42:10Z</time>
      </trkpt>
      <trkpt lat="45.8907" lon="4.77592">
        <ele>196</ele>
        <time>2018-01-07T09:42:11Z</time>
      </trkpt>
      <trkpt lat="45.89066" lon="4.77596">
        <ele>196</ele>
        <time>2018-01-07T09:42:12Z</time>
      </trkpt>
      <trkpt lat="45.89062" lon="4.776">
        <ele>197</ele>
        <time>2018-01-07T09:42:13Z</time>
      </trkpt>
      <trkpt lat="45.89058" lon="4.77603">
        <ele>197</ele>
        <time>2018-01-07T09:42:14Z</time>
      </trkpt>
      <trkpt lat="45.89054" lon="4.77606">
        <ele>197</ele>
        <time>2018-01-07T09:42:15Z</time>
      </trkpt>
      <trkpt lat="45.8905" lon="4.77609">
        <ele>197</ele>
        <time>2018-01-07T09:42:16Z</time>
      </trkpt>
      <trkpt lat="45.89046" lon="4.77613">
        <ele>197</ele>
        <time>2018-01-07T09:42:17Z</time>
      </trkpt>
      <trkpt lat="45.89042" lon="4.77616">
        <ele>197</ele>
        <time>2018-01-07T09:42:18Z</time>
      </trkpt>
      <trkpt lat="45.89038" lon="4.77619">
        <ele>197</ele>
        <time>2018-01-07T09:42:19Z</time>
      </trkpt>
      <trkpt lat="45.89033" lon="4.77623">
        <ele>197</ele>
        <time>2018-01-07T09:42:20Z</time>
      </trkpt>
      <trkpt lat="45.89029" lon="4.77627">
        <ele>197</ele>
        <time>2018-01-07T09:42:21Z</time>
      </trkpt>
      <trkpt lat="45.89025" lon="4.7763">
        <ele>197</ele>
        <time>2018-01-07T09:42:22Z</time>
      </trkpt>
      <trkpt lat="45.89021" lon="4.77633">
        <ele>197</ele>
        <time>2018-01-07T09:42:23Z</time>
      </trkpt>
      <trkpt lat="45.89018" lon="4.77637">
        <ele>197</ele>
        <time>2018-01-07T09:42:24Z</time>
      </trkpt>
      <trkpt lat="45.89011" lon="4.77644">
        <ele>197</ele>
        <time>2018-01-07T09:42:26Z</time>
      </trkpt>
      <trkpt lat="45.89007" lon="4.77646">
        <ele>197</ele>
        <time>2018-01-07T09:42:27Z</time>
      </trkpt>
      <trkpt lat="45.89" lon="4.77651">
        <ele>197</ele>
        <time>2018-01-07T09:42:29Z</time>
      </trkpt>
      <trkpt lat="45.88997" lon="4.77654">
        <ele>197</ele>
        <time>2018-01-07T09:42:30Z</time>
      </trkpt>
      <trkpt lat="45.88993" lon="4.77657">
        <ele>197</ele>
        <time>2018-01-07T09:42:31Z</time>
      </trkpt>
      <trkpt lat="45.88989" lon="4.77662">
        <ele>198</ele>
        <time>2018-01-07T09:42:32Z</time>
      </trkpt>
      <trkpt lat="45.88985" lon="4.77666">
        <ele>198</ele>
        <time>2018-01-07T09:42:33Z</time>
      </trkpt>
      <trkpt lat="45.88981" lon="4.77669">
        <ele>198</ele>
        <time>2018-01-07T09:42:34Z</time>
      </trkpt>
      <trkpt lat="45.88976" lon="4.77671">
        <ele>198</ele>
        <time>2018-01-07T09:42:35Z</time>
      </trkpt>
      <trkpt lat="45.88971" lon="4.77674">
        <ele>198</ele>
        <time>2018-01-07T09:42:36Z</time>
      </trkpt>
      <trkpt lat="45.88966" lon="4.77678">
        <ele>198</ele>
        <time>2018-01-07T09:42:37Z</time>
      </trkpt>
      <trkpt lat="45.88961" lon="4.77681">
        <ele>198</ele>
        <time>2018-01-07T09:42:38Z</time>
      </trkpt>
      <trkpt lat="45.88953" lon="4.77687">
        <ele>199</ele>
        <time>2018-01-07T09:42:40Z</time>
      </trkpt>
      <trkpt lat="45.88949" lon="4.77689">
        <ele>199</ele>
        <time>2018-01-07T09:42:41Z</time>
      </trkpt>
      <trkpt lat="45.88945" lon="4.7769">
        <ele>199</ele>
        <time>2018-01-07T09:42:42Z</time>
      </trkpt>
      <trkpt lat="45.88938" lon="4.7769">
        <ele>199</ele>
        <time>2018-01-07T09:42:43Z</time>
      </trkpt>
      <trkpt lat="45.8893" lon="4.77693">
        <ele>199</ele>
        <time>2018-01-07T09:42:45Z</time>
      </trkpt>
      <trkpt lat="45.88926" lon="4.77695">
        <ele>199</ele>
        <time>2018-01-07T09:42:46Z</time>
      </trkpt>
      <trkpt lat="45.88919" lon="4.77697">
        <ele>199</ele>
        <time>2018-01-07T09:42:48Z</time>
      </trkpt>
      <trkpt lat="45.88915" lon="4.77697">
        <ele>200</ele>
        <time>2018-01-07T09:42:49Z</time>
      </trkpt>
      <trkpt lat="45.88907" lon="4.77699">
        <ele>200</ele>
        <time>2018-01-07T09:42:51Z</time>
      </trkpt>
      <trkpt lat="45.88903" lon="4.77701">
        <ele>200</ele>
        <time>2018-01-07T09:42:52Z</time>
      </trkpt>
      <trkpt lat="45.88895" lon="4.77701">
        <ele>200</ele>
        <time>2018-01-07T09:42:54Z</time>
      </trkpt>
      <trkpt lat="45.88891" lon="4.77702">
        <ele>200</ele>
        <time>2018-01-07T09:42:55Z</time>
      </trkpt>
      <trkpt lat="45.88883" lon="4.77704">
        <ele>200</ele>
        <time>2018-01-07T09:42:57Z</time>
      </trkpt>
      <trkpt lat="45.88878" lon="4.77704">
        <ele>200</ele>
        <time>2018-01-07T09:42:58Z</time>
      </trkpt>
      <trkpt lat="45.88874" lon="4.77706">
        <ele>201</ele>
        <time>2018-01-07T09:42:59Z</time>
      </trkpt>
      <trkpt lat="45.88869" lon="4.77705">
        <ele>201</ele>
        <time>2018-01-07T09:43:00Z</time>
      </trkpt>
      <trkpt lat="45.88865" lon="4.77705">
        <ele>201</ele>
        <time>2018-01-07T09:43:01Z</time>
      </trkpt>
      <trkpt lat="45.88859" lon="4.77704">
        <ele>201</ele>
        <time>2018-01-07T09:43:02Z</time>
      </trkpt>
      <trkpt lat="45.88854" lon="4.77705">
        <ele>201</ele>
        <time>2018-01-07T09:43:03Z</time>
      </trkpt>
      <trkpt lat="45.8885" lon="4.77706">
        <ele>201</ele>
        <time>2018-01-07T09:43:04Z</time>
      </trkpt>
      <trkpt lat="45.88841" lon="4.77708">
        <ele>201</ele>
        <time>2018-01-07T09:43:06Z</time>
      </trkpt>
      <trkpt lat="45.88837" lon="4.77708">
        <ele>201</ele>
        <time>2018-01-07T09:43:07Z</time>
      </trkpt>
      <trkpt lat="45.88829" lon="4.77708">
        <ele>201</ele>
        <time>2018-01-07T09:43:09Z</time>
      </trkpt>
      <trkpt lat="45.88824" lon="4.77707">
        <ele>202</ele>
        <time>2018-01-07T09:43:10Z</time>
      </trkpt>
      <trkpt lat="45.88819" lon="4.77708">
        <ele>202</ele>
        <time>2018-01-07T09:43:11Z</time>
      </trkpt>
      <trkpt lat="45.88814" lon="4.77708">
        <ele>202</ele>
        <time>2018-01-07T09:43:12Z</time>
      </trkpt>
      <trkpt lat="45.8881" lon="4.77708">
        <ele>202</ele>
        <time>2018-01-07T09:43:13Z</time>
      </trkpt>
      <trkpt lat="45.88804" lon="4.77708">
        <ele>202</ele>
        <time>2018-01-07T09:43:14Z</time>
      </trkpt>
      <trkpt lat="45.88799" lon="4.77708">
        <ele>202</ele>
        <time>2018-01-07T09:43:15Z</time>
      </trkpt>
      <trkpt lat="45.88793" lon="4.77708">
        <ele>202</ele>
        <time>2018-01-07T09:43:16Z</time>
      </trkpt>
      <trkpt lat="45.88788" lon="4.77708">
        <ele>202</ele>
        <time>2018-01-07T09:43:17Z</time>
      </trkpt>
      <trkpt lat="45.88782" lon="4.77709">
        <ele>202</ele>
        <time>2018-01-07T09:43:18Z</time>
      </trkpt>
      <trkpt lat="45.88777" lon="4.77707">
        <ele>202</ele>
        <time>2018-01-07T09:43:19Z</time>
      </trkpt>
      <trkpt lat="45.8877" lon="4.77709">
        <ele>202</ele>
        <time>2018-01-07T09:43:20Z</time>
      </trkpt>
      <trkpt lat="45.88765" lon="4.77709">
        <ele>202</ele>
        <time>2018-01-07T09:43:21Z</time>
      </trkpt>
      <trkpt lat="45.88761" lon="4.77711">
        <ele>202</ele>
        <time>2018-01-07T09:43:22Z</time>
      </trkpt>
      <trkpt lat="45.88756" lon="4.77711">
        <ele>202</ele>
        <time>2018-01-07T09:43:23Z</time>
      </trkpt>
      <trkpt lat="45.88751" lon="4.77712">
        <ele>202</ele>
        <time>2018-01-07T09:43:24Z</time>
      </trkpt>
      <trkpt lat="45.88746" lon="4.77711">
        <ele>203</ele>
        <time>2018-01-07T09:43:25Z</time>
      </trkpt>
      <trkpt lat="45.88741" lon="4.77711">
        <ele>203</ele>
        <time>2018-01-07T09:43:26Z</time>
      </trkpt>
      <trkpt lat="45.88736" lon="4.77711">
        <ele>203</ele>
        <time>2018-01-07T09:43:27Z</time>
      </trkpt>
      <trkpt lat="45.88731" lon="4.77712">
        <ele>203</ele>
        <time>2018-01-07T09:43:28Z</time>
      </trkpt>
      <trkpt lat="45.88726" lon="4.77712">
        <ele>203</ele>
        <time>2018-01-07T09:43:29Z</time>
      </trkpt>
      <trkpt lat="45.88721" lon="4.77713">
        <ele>203</ele>
        <time>2018-01-07T09:43:30Z</time>
      </trkpt>
      <trkpt lat="45.88713" lon="4.77713">
        <ele>203</ele>
        <time>2018-01-07T09:43:32Z</time>
      </trkpt>
      <trkpt lat="45.88709" lon="4.77714">
        <ele>203</ele>
        <time>2018-01-07T09:43:33Z</time>
      </trkpt>
      <trkpt lat="45.887" lon="4.77715">
        <ele>203</ele>
        <time>2018-01-07T09:43:35Z</time>
      </trkpt>
      <trkpt lat="45.88695" lon="4.77715">
        <ele>203</ele>
        <time>2018-01-07T09:43:36Z</time>
      </trkpt>
      <trkpt lat="45.88687" lon="4.77714">
        <ele>203</ele>
        <time>2018-01-07T09:43:38Z</time>
      </trkpt>
      <trkpt lat="45.88682" lon="4.77714">
        <ele>203</ele>
        <time>2018-01-07T09:43:39Z</time>
      </trkpt>
      <trkpt lat="45.88674" lon="4.77715">
        <ele>203</ele>
        <time>2018-01-07T09:43:41Z</time>
      </trkpt>
      <trkpt lat="45.88669" lon="4.77715">
        <ele>203</ele>
        <time>2018-01-07T09:43:42Z</time>
      </trkpt>
      <trkpt lat="45.88664" lon="4.77712">
        <ele>203</ele>
        <time>2018-01-07T09:43:43Z</time>
      </trkpt>
      <trkpt lat="45.8866" lon="4.77711">
        <ele>203</ele>
        <time>2018-01-07T09:43:44Z</time>
      </trkpt>
      <trkpt lat="45.88651" lon="4.77711">
        <ele>203</ele>
        <time>2018-01-07T09:43:46Z</time>
      </trkpt>
      <trkpt lat="45.88646" lon="4.7771">
        <ele>203</ele>
        <time>2018-01-07T09:43:47Z</time>
      </trkpt>
      <trkpt lat="45.88638" lon="4.77709">
        <ele>203</ele>
        <time>2018-01-07T09:43:49Z</time>
      </trkpt>
      <trkpt lat="45.88634" lon="4.77708">
        <ele>203</ele>
        <time>2018-01-07T09:43:50Z</time>
      </trkpt>
      <trkpt lat="45.88626" lon="4.77707">
        <ele>203</ele>
        <time>2018-01-07T09:43:52Z</time>
      </trkpt>
      <trkpt lat="45.88621" lon="4.77706">
        <ele>203</ele>
        <time>2018-01-07T09:43:53Z</time>
      </trkpt>
      <trkpt lat="45.88613" lon="4.77704">
        <ele>203</ele>
        <time>2018-01-07T09:43:55Z</time>
      </trkpt>
      <trkpt lat="45.88608" lon="4.77704">
        <ele>203</ele>
        <time>2018-01-07T09:43:56Z</time>
      </trkpt>
      <trkpt lat="45.886" lon="4.77702">
        <ele>203</ele>
        <time>2018-01-07T09:43:58Z</time>
      </trkpt>
      <trkpt lat="45.88595" lon="4.77701">
        <ele>203</ele>
        <time>2018-01-07T09:43:59Z</time>
      </trkpt>
      <trkpt lat="45.8859" lon="4.777">
        <ele>203</ele>
        <time>2018-01-07T09:44:00Z</time>
      </trkpt>
      <trkpt lat="45.88585" lon="4.777">
        <ele>203</ele>
        <time>2018-01-07T09:44:01Z</time>
      </trkpt>
      <trkpt lat="45.88578" lon="4.77696">
        <ele>204</ele>
        <time>2018-01-07T09:44:03Z</time>
      </trkpt>
      <trkpt lat="45.88575" lon="4.77695">
        <ele>204</ele>
        <time>2018-01-07T09:44:04Z</time>
      </trkpt>
      <trkpt lat="45.88567" lon="4.77694">
        <ele>204</ele>
        <time>2018-01-07T09:44:06Z</time>
      </trkpt>
      <trkpt lat="45.88563" lon="4.77693">
        <ele>204</ele>
        <time>2018-01-07T09:44:07Z</time>
      </trkpt>
      <trkpt lat="45.88555" lon="4.7769">
        <ele>204</ele>
        <time>2018-01-07T09:44:09Z</time>
      </trkpt>
      <trkpt lat="45.88551" lon="4.7769">
        <ele>204</ele>
        <time>2018-01-07T09:44:10Z</time>
      </trkpt>
      <trkpt lat="45.88543" lon="4.77688">
        <ele>204</ele>
        <time>2018-01-07T09:44:12Z</time>
      </trkpt>
      <trkpt lat="45.88539" lon="4.77687">
        <ele>204</ele>
        <time>2018-01-07T09:44:13Z</time>
      </trkpt>
      <trkpt lat="45.88531" lon="4.77685">
        <ele>204</ele>
        <time>2018-01-07T09:44:15Z</time>
      </trkpt>
      <trkpt lat="45.88527" lon="4.77685">
        <ele>204</ele>
        <time>2018-01-07T09:44:16Z</time>
      </trkpt>
      <trkpt lat="45.88522" lon="4.77684">
        <ele>204</ele>
        <time>2018-01-07T09:44:17Z</time>
      </trkpt>
      <trkpt lat="45.88517" lon="4.77684">
        <ele>205</ele>
        <time>2018-01-07T09:44:18Z</time>
      </trkpt>
      <trkpt lat="45.88509" lon="4.77682">
        <ele>205</ele>
        <time>2018-01-07T09:44:20Z</time>
      </trkpt>
      <trkpt lat="45.88505" lon="4.77681">
        <ele>205</ele>
        <time>2018-01-07T09:44:21Z</time>
      </trkpt>
      <trkpt lat="45.88497" lon="4.77681">
        <ele>205</ele>
        <time>2018-01-07T09:44:23Z</time>
      </trkpt>
      <trkpt lat="45.88493" lon="4.77679">
        <ele>205</ele>
        <time>2018-01-07T09:44:24Z</time>
      </trkpt>
      <trkpt lat="45.88487" lon="4.77678">
        <ele>205</ele>
        <time>2018-01-07T09:44:26Z</time>
      </trkpt>
      <trkpt lat="45.88482" lon="4.77677">
        <ele>206</ele>
        <time>2018-01-07T09:44:27Z</time>
      </trkpt>
      <trkpt lat="45.88473" lon="4.77675">
        <ele>206</ele>
        <time>2018-01-07T09:44:29Z</time>
      </trkpt>
      <trkpt lat="45.88469" lon="4.77675">
        <ele>206</ele>
        <time>2018-01-07T09:44:30Z</time>
      </trkpt>
      <trkpt lat="45.88465" lon="4.77674">
        <ele>206</ele>
        <time>2018-01-07T09:44:31Z</time>
      </trkpt>
      <trkpt lat="45.8846" lon="4.77674">
        <ele>206</ele>
        <time>2018-01-07T09:44:32Z</time>
      </trkpt>
      <trkpt lat="45.88455" lon="4.77673">
        <ele>206</ele>
        <time>2018-01-07T09:44:33Z</time>
      </trkpt>
      <trkpt lat="45.88449" lon="4.77669">
        <ele>206</ele>
        <time>2018-01-07T09:44:34Z</time>
      </trkpt>
      <trkpt lat="45.88441" lon="4.77668">
        <ele>206</ele>
        <time>2018-01-07T09:44:36Z</time>
      </trkpt>
      <trkpt lat="45.88436" lon="4.77667">
        <ele>206</ele>
        <time>2018-01-07T09:44:37Z</time>
      </trkpt>
      <trkpt lat="45.88428" lon="4.77666">
        <ele>206</ele>
        <time>2018-01-07T09:44:39Z</time>
      </trkpt>
      <trkpt lat="45.88423" lon="4.77665">
        <ele>206</ele>
        <time>2018-01-07T09:44:40Z</time>
      </trkpt>
      <trkpt lat="45.88414" lon="4.77665">
        <ele>206</ele>
        <time>2018-01-07T09:44:42Z</time>
      </trkpt>
      <trkpt lat="45.8841" lon="4.77665">
        <ele>206</ele>
        <time>2018-01-07T09:44:43Z</time>
      </trkpt>
      <trkpt lat="45.88401" lon="4.77665">
        <ele>207</ele>
        <time>2018-01-07T09:44:45Z</time>
      </trkpt>
      <trkpt lat="45.88397" lon="4.77663">
        <ele>207</ele>
        <time>2018-01-07T09:44:46Z</time>
      </trkpt>
      <trkpt lat="45.88389" lon="4.77662">
        <ele>207</ele>
        <time>2018-01-07T09:44:48Z</time>
      </trkpt>
      <trkpt lat="45.88385" lon="4.77661">
        <ele>207</ele>
        <time>2018-01-07T09:44:49Z</time>
      </trkpt>
      <trkpt lat="45.88377" lon="4.77659">
        <ele>207</ele>
        <time>2018-01-07T09:44:51Z</time>
      </trkpt>
      <trkpt lat="45.88373" lon="4.77659">
        <ele>207</ele>
        <time>2018-01-07T09:44:52Z</time>
      </trkpt>
      <trkpt lat="45.88369" lon="4.77658">
        <ele>207</ele>
        <time>2018-01-07T09:44:53Z</time>
      </trkpt>
      <trkpt lat="45.88364" lon="4.77658">
        <ele>207</ele>
        <time>2018-01-07T09:44:54Z</time>
      </trkpt>
      <trkpt lat="45.88359" lon="4.77658">
        <ele>208</ele>
        <time>2018-01-07T09:44:55Z</time>
      </trkpt>
      <trkpt lat="45.88354" lon="4.77658">
        <ele>208</ele>
        <time>2018-01-07T09:44:56Z</time>
      </trkpt>
      <trkpt lat="45.88349" lon="4.77657">
        <ele>208</ele>
        <time>2018-01-07T09:44:57Z</time>
      </trkpt>
      <trkpt lat="45.88345" lon="4.77657">
        <ele>208</ele>
        <time>2018-01-07T09:44:58Z</time>
      </trkpt>
      <trkpt lat="45.88336" lon="4.77658">
        <ele>208</ele>
        <time>2018-01-07T09:45:00Z</time>
      </trkpt>
      <trkpt lat="45.88333" lon="4.77658">
        <ele>208</ele>
        <time>2018-01-07T09:45:01Z</time>
      </trkpt>
      <trkpt lat="45.88326" lon="4.7766">
        <ele>208</ele>
        <time>2018-01-07T09:45:03Z</time>
      </trkpt>
      <trkpt lat="45.88322" lon="4.77659">
        <ele>209</ele>
        <time>2018-01-07T09:45:04Z</time>
      </trkpt>
      <trkpt lat="45.88314" lon="4.77659">
        <ele>209</ele>
        <time>2018-01-07T09:45:06Z</time>
      </trkpt>
      <trkpt lat="45.8831" lon="4.77659">
        <ele>209</ele>
        <time>2018-01-07T09:45:07Z</time>
      </trkpt>
      <trkpt lat="45.88303" lon="4.7766">
        <ele>209</ele>
        <time>2018-01-07T09:45:09Z</time>
      </trkpt>
      <trkpt lat="45.88299" lon="4.7766">
        <ele>209</ele>
        <time>2018-01-07T09:45:10Z</time>
      </trkpt>
      <trkpt lat="45.88291" lon="4.7766">
        <ele>209</ele>
        <time>2018-01-07T09:45:12Z</time>
      </trkpt>
      <trkpt lat="45.88287" lon="4.7766">
        <ele>209</ele>
        <time>2018-01-07T09:45:13Z</time>
      </trkpt>
      <trkpt lat="45.88279" lon="4.77658">
        <ele>210</ele>
        <time>2018-01-07T09:45:15Z</time>
      </trkpt>
      <trkpt lat="45.88275" lon="4.77658">
        <ele>210</ele>
        <time>2018-01-07T09:45:16Z</time>
      </trkpt>
      <trkpt lat="45.88267" lon="4.77659">
        <ele>210</ele>
        <time>2018-01-07T09:45:18Z</time>
      </trkpt>
      <trkpt lat="45.88263" lon="4.77659">
        <ele>210</ele>
        <time>2018-01-07T09:45:19Z</time>
      </trkpt>
      <trkpt lat="45.88255" lon="4.77659">
        <ele>210</ele>
        <time>2018-01-07T09:45:21Z</time>
      </trkpt>
      <trkpt lat="45.88251" lon="4.77659">
        <ele>211</ele>
        <time>2018-01-07T09:45:22Z</time>
      </trkpt>
      <trkpt lat="45.88243" lon="4.77659">
        <ele>211</ele>
        <time>2018-01-07T09:45:24Z</time>
      </trkpt>
      <trkpt lat="45.88238" lon="4.77659">
        <ele>211</ele>
        <time>2018-01-07T09:45:25Z</time>
      </trkpt>
      <trkpt lat="45.8823" lon="4.77659">
        <ele>211</ele>
        <time>2018-01-07T09:45:27Z</time>
      </trkpt>
      <trkpt lat="45.88226" lon="4.7766">
        <ele>211</ele>
        <time>2018-01-07T09:45:28Z</time>
      </trkpt>
      <trkpt lat="45.88218" lon="4.7766">
        <ele>211</ele>
        <time>2018-01-07T09:45:30Z</time>
      </trkpt>
      <trkpt lat="45.88215" lon="4.7766">
        <ele>211</ele>
        <time>2018-01-07T09:45:31Z</time>
      </trkpt>
      <trkpt lat="45.88207" lon="4.7766">
        <ele>211</ele>
        <time>2018-01-07T09:45:33Z</time>
      </trkpt>
      <trkpt lat="45.88203" lon="4.77661">
        <ele>211</ele>
        <time>2018-01-07T09:45:34Z</time>
      </trkpt>
      <trkpt lat="45.88195" lon="4.77662">
        <ele>211</ele>
        <time>2018-01-07T09:45:36Z</time>
      </trkpt>
      <trkpt lat="45.88191" lon="4.77663">
        <ele>212</ele>
        <time>2018-01-07T09:45:37Z</time>
      </trkpt>
      <trkpt lat="45.88184" lon="4.77664">
        <ele>212</ele>
        <time>2018-01-07T09:45:39Z</time>
      </trkpt>
      <trkpt lat="45.8818" lon="4.77664">
        <ele>212</ele>
        <time>2018-01-07T09:45:40Z</time>
      </trkpt>
      <trkpt lat="45.88173" lon="4.77665">
        <ele>212</ele>
        <time>2018-01-07T09:45:42Z</time>
      </trkpt>
      <trkpt lat="45.88169" lon="4.77666">
        <ele>212</ele>
        <time>2018-01-07T09:45:43Z</time>
      </trkpt>
      <trkpt lat="45.88161" lon="4.77668">
        <ele>212</ele>
        <time>2018-01-07T09:45:45Z</time>
      </trkpt>
      <trkpt lat="45.88157" lon="4.77669">
        <ele>213</ele>
        <time>2018-01-07T09:45:46Z</time>
      </trkpt>
      <trkpt lat="45.88149" lon="4.77671">
        <ele>213</ele>
        <time>2018-01-07T09:45:48Z</time>
      </trkpt>
      <trkpt lat="45.88145" lon="4.77672">
        <ele>213</ele>
        <time>2018-01-07T09:45:49Z</time>
      </trkpt>
      <trkpt lat="45.88136" lon="4.77672">
        <ele>213</ele>
        <time>2018-01-07T09:45:51Z</time>
      </trkpt>
      <trkpt lat="45.88133" lon="4.77671">
        <ele>213</ele>
        <time>2018-01-07T09:45:52Z</time>
      </trkpt>
      <trkpt lat="45.88126" lon="4.77677">
        <ele>214</ele>
        <time>2018-01-07T09:45:54Z</time>
      </trkpt>
      <trkpt lat="45.88121" lon="4.77676">
        <ele>214</ele>
        <time>2018-01-07T09:45:55Z</time>
      </trkpt>
      <trkpt lat="45.88115" lon="4.77678">
        <ele>214</ele>
        <time>2018-01-07T09:45:57Z</time>
      </trkpt>
      <trkpt lat="45.88112" lon="4.77679">
        <ele>214</ele>
        <time>2018-01-07T09:45:58Z</time>
      </trkpt>
      <trkpt lat="45.88106" lon="4.77681">
        <ele>214</ele>
        <time>2018-01-07T09:46:00Z</time>
      </trkpt>
      <trkpt lat="45.88102" lon="4.77682">
        <ele>214</ele>
        <time>2018-01-07T09:46:01Z</time>
      </trkpt>
      <trkpt lat="45.88094" lon="4.77683">
        <ele>214</ele>
        <time>2018-01-07T09:46:03Z</time>
      </trkpt>
      <trkpt lat="45.88091" lon="4.77684">
        <ele>214</ele>
        <time>2018-01-07T09:46:04Z</time>
      </trkpt>
      <trkpt lat="45.88083" lon="4.77685">
        <ele>215</ele>
        <time>2018-01-07T09:46:06Z</time>
      </trkpt>
      <trkpt lat="45.88079" lon="4.77686">
        <ele>215</ele>
        <time>2018-01-07T09:46:07Z</time>
      </trkpt>
      <trkpt lat="45.88072" lon="4.77686">
        <ele>215</ele>
        <time>2018-01-07T09:46:09Z</time>
      </trkpt>
      <trkpt lat="45.88068" lon="4.77685">
        <ele>215</ele>
        <time>2018-01-07T09:46:10Z</time>
      </trkpt>
      <trkpt lat="45.8806" lon="4.77687">
        <ele>216</ele>
        <time>2018-01-07T09:46:12Z</time>
      </trkpt>
      <trkpt lat="45.88057" lon="4.77688">
        <ele>216</ele>
        <time>2018-01-07T09:46:13Z</time>
      </trkpt>
      <trkpt lat="45.88049" lon="4.77689">
        <ele>216</ele>
        <time>2018-01-07T09:46:15Z</time>
      </trkpt>
      <trkpt lat="45.88045" lon="4.77689">
        <ele>216</ele>
        <time>2018-01-07T09:46:16Z</time>
      </trkpt>
      <trkpt lat="45.88037" lon="4.77691">
        <ele>216</ele>
        <time>2018-01-07T09:46:18Z</time>
      </trkpt>
      <trkpt lat="45.88033" lon="4.77691">
        <ele>216</ele>
        <time>2018-01-07T09:46:19Z</time>
      </trkpt>
      <trkpt lat="45.88025" lon="4.77693">
        <ele>216</ele>
        <time>2018-01-07T09:46:21Z</time>
      </trkpt>
      <trkpt lat="45.88021" lon="4.77692">
        <ele>216</ele>
        <time>2018-01-07T09:46:22Z</time>
      </trkpt>
      <trkpt lat="45.88012" lon="4.77692">
        <ele>216</ele>
        <time>2018-01-07T09:46:24Z</time>
      </trkpt>
      <trkpt lat="45.88009" lon="4.77691">
        <ele>216</ele>
        <time>2018-01-07T09:46:25Z</time>
      </trkpt>
      <trkpt lat="45.88001" lon="4.7769">
        <ele>216</ele>
        <time>2018-01-07T09:46:27Z</time>
      </trkpt>
      <trkpt lat="45.87998" lon="4.77689">
        <ele>217</ele>
        <time>2018-01-07T09:46:28Z</time>
      </trkpt>
      <trkpt lat="45.87991" lon="4.77687">
        <ele>217</ele>
        <time>2018-01-07T09:46:30Z</time>
      </trkpt>
      <trkpt lat="45.87986" lon="4.77685">
        <ele>217</ele>
        <time>2018-01-07T09:46:31Z</time>
      </trkpt>
      <trkpt lat="45.87979" lon="4.77681">
        <ele>217</ele>
        <time>2018-01-07T09:46:33Z</time>
      </trkpt>
      <trkpt lat="45.87975" lon="4.77678">
        <ele>218</ele>
        <time>2018-01-07T09:46:34Z</time>
      </trkpt>
      <trkpt lat="45.8797" lon="4.77672">
        <ele>218</ele>
        <time>2018-01-07T09:46:36Z</time>
      </trkpt>
      <trkpt lat="45.87968" lon="4.77669">
        <ele>218</ele>
        <time>2018-01-07T09:46:37Z</time>
      </trkpt>
      <trkpt lat="45.87961" lon="4.77664">
        <ele>218</ele>
        <time>2018-01-07T09:46:39Z</time>
      </trkpt>
      <trkpt lat="45.87958" lon="4.77662">
        <ele>218</ele>
        <time>2018-01-07T09:46:40Z</time>
      </trkpt>
      <trkpt lat="45.87953" lon="4.77659">
        <ele>218</ele>
        <time>2018-01-07T09:46:41Z</time>
      </trkpt>
      <trkpt lat="45.87949" lon="4.77656">
        <ele>218</ele>
        <time>2018-01-07T09:46:42Z</time>
      </trkpt>
      <trkpt lat="45.87942" lon="4.77649">
        <ele>218</ele>
        <time>2018-01-07T09:46:44Z</time>
      </trkpt>
      <trkpt lat="45.87938" lon="4.77646">
        <ele>219</ele>
        <time>2018-01-07T09:46:45Z</time>
      </trkpt>
      <trkpt lat="45.8793" lon="4.77638">
        <ele>219</ele>
        <time>2018-01-07T09:46:47Z</time>
      </trkpt>
      <trkpt lat="45.87926" lon="4.77634">
        <ele>219</ele>
        <time>2018-01-07T09:46:48Z</time>
      </trkpt>
      <trkpt lat="45.87918" lon="4.77628">
        <ele>219</ele>
        <time>2018-01-07T09:46:50Z</time>
      </trkpt>
      <trkpt lat="45.87914" lon="4.77624">
        <ele>220</ele>
        <time>2018-01-07T09:46:51Z</time>
      </trkpt>
      <trkpt lat="45.87907" lon="4.77619">
        <ele>220</ele>
        <time>2018-01-07T09:46:53Z</time>
      </trkpt>
      <trkpt lat="45.87902" lon="4.77616">
        <ele>220</ele>
        <time>2018-01-07T09:46:54Z</time>
      </trkpt>
      <trkpt lat="45.87898" lon="4.77613">
        <ele>220</ele>
        <time>2018-01-07T09:46:55Z</time>
      </trkpt>
      <trkpt lat="45.87894" lon="4.77609">
        <ele>221</ele>
        <time>2018-01-07T09:46:56Z</time>
      </trkpt>
      <trkpt lat="45.87887" lon="4.77601">
        <ele>221</ele>
        <time>2018-01-07T09:46:58Z</time>
      </trkpt>
      <trkpt lat="45.87883" lon="4.77599">
        <ele>221</ele>
        <time>2018-01-07T09:46:59Z</time>
      </trkpt>
      <trkpt lat="45.87876" lon="4.77593">
        <ele>221</ele>
        <time>2018-01-07T09:47:01Z</time>
      </trkpt>
      <trkpt lat="45.87871" lon="4.7759">
        <ele>221</ele>
        <time>2018-01-07T09:47:02Z</time>
      </trkpt>
      <trkpt lat="45.87867" lon="4.77587">
        <ele>221</ele>
        <time>2018-01-07T09:47:03Z</time>
      </trkpt>
      <trkpt lat="45.87863" lon="4.77584">
        <ele>221</ele>
        <time>2018-01-07T09:47:04Z</time>
      </trkpt>
      <trkpt lat="45.87856" lon="4.77577">
        <ele>221</ele>
        <time>2018-01-07T09:47:06Z</time>
      </trkpt>
      <trkpt lat="45.87853" lon="4.77573">
        <ele>221</ele>
        <time>2018-01-07T09:47:07Z</time>
      </trkpt>
      <trkpt lat="45.87849" lon="4.77569">
        <ele>221</ele>
        <time>2018-01-07T09:47:08Z</time>
      </trkpt>
      <trkpt lat="45.87845" lon="4.77566">
        <ele>221</ele>
        <time>2018-01-07T09:47:09Z</time>
      </trkpt>
      <trkpt lat="45.87836" lon="4.77563">
        <ele>221</ele>
        <time>2018-01-07T09:47:11Z</time>
      </trkpt>
      <trkpt lat="45.87833" lon="4.77559">
        <ele>222</ele>
        <time>2018-01-07T09:47:12Z</time>
      </trkpt>
      <trkpt lat="45.87829" lon="4.77556">
        <ele>223</ele>
        <time>2018-01-07T09:47:13Z</time>
      </trkpt>
      <trkpt lat="45.87825" lon="4.77553">
        <ele>223</ele>
        <time>2018-01-07T09:47:14Z</time>
      </trkpt>
      <trkpt lat="45.87817" lon="4.77547">
        <ele>223</ele>
        <time>2018-01-07T09:47:16Z</time>
      </trkpt>
      <trkpt lat="45.87813" lon="4.77544">
        <ele>223</ele>
        <time>2018-01-07T09:47:17Z</time>
      </trkpt>
      <trkpt lat="45.87809" lon="4.7754">
        <ele>223</ele>
        <time>2018-01-07T09:47:18Z</time>
      </trkpt>
      <trkpt lat="45.87805" lon="4.77536">
        <ele>223</ele>
        <time>2018-01-07T09:47:19Z</time>
      </trkpt>
      <trkpt lat="45.87797" lon="4.7753">
        <ele>223</ele>
        <time>2018-01-07T09:47:21Z</time>
      </trkpt>
      <trkpt lat="45.87793" lon="4.77528">
        <ele>223</ele>
        <time>2018-01-07T09:47:22Z</time>
      </trkpt>
      <trkpt lat="45.87786" lon="4.77523">
        <ele>223</ele>
        <time>2018-01-07T09:47:24Z</time>
      </trkpt>
      <trkpt lat="45.87782" lon="4.77522">
        <ele>223</ele>
        <time>2018-01-07T09:47:25Z</time>
      </trkpt>
      <trkpt lat="45.87776" lon="4.77517">
        <ele>223</ele>
        <time>2018-01-07T09:47:27Z</time>
      </trkpt>
      <trkpt lat="45.87772" lon="4.77515">
        <ele>223</ele>
        <time>2018-01-07T09:47:28Z</time>
      </trkpt>
      <trkpt lat="45.87765" lon="4.77511">
        <ele>223</ele>
        <time>2018-01-07T09:47:30Z</time>
      </trkpt>
      <trkpt lat="45.87762" lon="4.77511">
        <ele>224</ele>
        <time>2018-01-07T09:47:31Z</time>
      </trkpt>
      <trkpt lat="45.87754" lon="4.77507">
        <ele>224</ele>
        <time>2018-01-07T09:47:34Z</time>
      </trkpt>
      <trkpt lat="45.8775" lon="4.77505">
        <ele>224</ele>
        <time>2018-01-07T09:47:35Z</time>
      </trkpt>
      <trkpt lat="45.87743" lon="4.77502">
        <ele>225</ele>
        <time>2018-01-07T09:47:37Z</time>
      </trkpt>
      <trkpt lat="45.87739" lon="4.775">
        <ele>225</ele>
        <time>2018-01-07T09:47:38Z</time>
      </trkpt>
      <trkpt lat="45.87732" lon="4.77497">
        <ele>225</ele>
        <time>2018-01-07T09:47:40Z</time>
      </trkpt>
      <trkpt lat="45.87729" lon="4.77495">
        <ele>225</ele>
        <time>2018-01-07T09:47:41Z</time>
      </trkpt>
      <trkpt lat="45.87722" lon="4.77493">
        <ele>226</ele>
        <time>2018-01-07T09:47:43Z</time>
      </trkpt>
      <trkpt lat="45.87719" lon="4.77492">
        <ele>226</ele>
        <time>2018-01-07T09:47:44Z</time>
      </trkpt>
      <trkpt lat="45.87713" lon="4.7749">
        <ele>226</ele>
        <time>2018-01-07T09:47:46Z</time>
      </trkpt>
      <trkpt lat="45.8771" lon="4.77489">
        <ele>226</ele>
        <time>2018-01-07T09:47:47Z</time>
      </trkpt>
      <trkpt lat="45.87703" lon="4.77489">
        <ele>227</ele>
        <time>2018-01-07T09:47:49Z</time>
      </trkpt>
      <trkpt lat="45.877" lon="4.77489">
        <ele>227</ele>
        <time>2018-01-07T09:47:50Z</time>
      </trkpt>
      <trkpt lat="45.87693" lon="4.77489">
        <ele>227</ele>
        <time>2018-01-07T09:47:52Z</time>
      </trkpt>
      <trkpt lat="45.8769" lon="4.7749">
        <ele>227</ele>
        <time>2018-01-07T09:47:53Z</time>
      </trkpt>
      <trkpt lat="45.87681" lon="4.7749">
        <ele>228</ele>
        <time>2018-01-07T09:47:56Z</time>
      </trkpt>
      <trkpt lat="45.87678" lon="4.77491">
        <ele>228</ele>
        <time>2018-01-07T09:47:57Z</time>
      </trkpt>
      <trkpt lat="45.87671" lon="4.77491">
        <ele>228</ele>
        <time>2018-01-07T09:47:59Z</time>
      </trkpt>
      <trkpt lat="45.87668" lon="4.77491">
        <ele>228</ele>
        <time>2018-01-07T09:48:00Z</time>
      </trkpt>
      <trkpt lat="45.87661" lon="4.77492">
        <ele>230</ele>
        <time>2018-01-07T09:48:02Z</time>
      </trkpt>
      <trkpt lat="45.87657" lon="4.77493">
        <ele>230</ele>
        <time>2018-01-07T09:48:03Z</time>
      </trkpt>
      <trkpt lat="45.8765" lon="4.77494">
        <ele>230</ele>
        <time>2018-01-07T09:48:05Z</time>
      </trkpt>
      <trkpt lat="45.87647" lon="4.77494">
        <ele>230</ele>
        <time>2018-01-07T09:48:06Z</time>
      </trkpt>
      <trkpt lat="45.8764" lon="4.77496">
        <ele>230</ele>
        <time>2018-01-07T09:48:08Z</time>
      </trkpt>
      <trkpt lat="45.87636" lon="4.77497">
        <ele>230</ele>
        <time>2018-01-07T09:48:09Z</time>
      </trkpt>
      <trkpt lat="45.87629" lon="4.77499">
        <ele>231</ele>
        <time>2018-01-07T09:48:11Z</time>
      </trkpt>
      <trkpt lat="45.87625" lon="4.775">
        <ele>231</ele>
        <time>2018-01-07T09:48:12Z</time>
      </trkpt>
      <trkpt lat="45.87618" lon="4.775">
        <ele>230</ele>
        <time>2018-01-07T09:48:14Z</time>
      </trkpt>
      <trkpt lat="45.87615" lon="4.77501">
        <ele>230</ele>
        <time>2018-01-07T09:48:15Z</time>
      </trkpt>
      <trkpt lat="45.87607" lon="4.77503">
        <ele>231</ele>
        <time>2018-01-07T09:48:18Z</time>
      </trkpt>
      <trkpt lat="45.87604" lon="4.77503">
        <ele>231</ele>
        <time>2018-01-07T09:48:19Z</time>
      </trkpt>
      <trkpt lat="45.87595" lon="4.77503">
        <ele>231</ele>
        <time>2018-01-07T09:48:22Z</time>
      </trkpt>
      <trkpt lat="45.87593" lon="4.77504">
        <ele>231</ele>
        <time>2018-01-07T09:48:23Z</time>
      </trkpt>
      <trkpt lat="45.87585" lon="4.77504">
        <ele>232</ele>
        <time>2018-01-07T09:48:26Z</time>
      </trkpt>
      <trkpt lat="45.87583" lon="4.77504">
        <ele>232</ele>
        <time>2018-01-07T09:48:27Z</time>
      </trkpt>
      <trkpt lat="45.87576" lon="4.77503">
        <ele>232</ele>
        <time>2018-01-07T09:48:30Z</time>
      </trkpt>
      <trkpt lat="45.87574" lon="4.77502">
        <ele>232</ele>
        <time>2018-01-07T09:48:31Z</time>
      </trkpt>
      <trkpt lat="45.87567" lon="4.77497">
        <ele>233</ele>
        <time>2018-01-07T09:48:33Z</time>
      </trkpt>
      <trkpt lat="45.87565" lon="4.77495">
        <ele>233</ele>
        <time>2018-01-07T09:48:34Z</time>
      </trkpt>
      <trkpt lat="45.8756" lon="4.77486">
        <ele>233</ele>
        <time>2018-01-07T09:48:37Z</time>
      </trkpt>
      <trkpt lat="45.87559" lon="4.77483">
        <ele>233</ele>
        <time>2018-01-07T09:48:38Z</time>
      </trkpt>
      <trkpt lat="45.87554" lon="4.77475">
        <ele>233</ele>
        <time>2018-01-07T09:48:40Z</time>
      </trkpt>
      <trkpt lat="45.87552" lon="4.77471">
        <ele>233</ele>
        <time>2018-01-07T09:48:41Z</time>
      </trkpt>
      <trkpt lat="45.87547" lon="4.77464">
        <ele>233</ele>
        <time>2018-01-07T09:48:43Z</time>
      </trkpt>
      <trkpt lat="45.87544" lon="4.7746">
        <ele>233</ele>
        <time>2018-01-07T09:48:44Z</time>
      </trkpt>
      <trkpt lat="45.87539" lon="4.77454">
        <ele>234</ele>
        <time>2018-01-07T09:48:46Z</time>
      </trkpt>
      <trkpt lat="45.87535" lon="4.77451">
        <ele>234</ele>
        <time>2018-01-07T09:48:47Z</time>
      </trkpt>
      <trkpt lat="45.8753" lon="4.77443">
        <ele>234</ele>
        <time>2018-01-07T09:48:49Z</time>
      </trkpt>
      <trkpt lat="45.87527" lon="4.77438">
        <ele>234</ele>
        <time>2018-01-07T09:48:50Z</time>
      </trkpt>
      <trkpt lat="45.87522" lon="4.77431">
        <ele>233</ele>
        <time>2018-01-07T09:48:52Z</time>
      </trkpt>
      <trkpt lat="45.87519" lon="4.77427">
        <ele>233</ele>
        <time>2018-01-07T09:48:53Z</time>
      </trkpt>
      <trkpt lat="45.87513" lon="4.77418">
        <ele>233</ele>
        <time>2018-01-07T09:48:55Z</time>
      </trkpt>
      <trkpt lat="45.8751" lon="4.77414">
        <ele>233</ele>
        <time>2018-01-07T09:48:56Z</time>
      </trkpt>
      <trkpt lat="45.87504" lon="4.77406">
        <ele>233</ele>
        <time>2018-01-07T09:48:58Z</time>
      </trkpt>
      <trkpt lat="45.87501" lon="4.77402">
        <ele>233</ele>
        <time>2018-01-07T09:48:59Z</time>
      </trkpt>
      <trkpt lat="45.87496" lon="4.77396">
        <ele>234</ele>
        <time>2018-01-07T09:49:01Z</time>
      </trkpt>
      <trkpt lat="45.87494" lon="4.77391">
        <ele>235</ele>
        <time>2018-01-07T09:49:02Z</time>
      </trkpt>
      <trkpt lat="45.87492" lon="4.77384">
        <ele>235</ele>
        <time>2018-01-07T09:49:04Z</time>
      </trkpt>
      <trkpt lat="45.87491" lon="4.77379">
        <ele>235</ele>
        <time>2018-01-07T09:49:05Z</time>
      </trkpt>
      <trkpt lat="45.87488" lon="4.77368">
        <ele>235</ele>
        <time>2018-01-07T09:49:07Z</time>
      </trkpt>
      <trkpt lat="45.87487" lon="4.77362">
        <ele>235</ele>
        <time>2018-01-07T09:49:08Z</time>
      </trkpt>
      <trkpt lat="45.87485" lon="4.77352">
        <ele>235</ele>
        <time>2018-01-07T09:49:10Z</time>
      </trkpt>
      <trkpt lat="45.87484" lon="4.77347">
        <ele>235</ele>
        <time>2018-01-07T09:49:11Z</time>
      </trkpt>
      <trkpt lat="45.87482" lon="4.77338">
        <ele>235</ele>
        <time>2018-01-07T09:49:13Z</time>
      </trkpt>
      <trkpt lat="45.8748" lon="4.77333">
        <ele>234</ele>
        <time>2018-01-07T09:49:14Z</time>
      </trkpt>
      <trkpt lat="45.87478" lon="4.77323">
        <ele>235</ele>
        <time>2018-01-07T09:49:16Z</time>
      </trkpt>
      <trkpt lat="45.87476" lon="4.77318">
        <ele>235</ele>
        <time>2018-01-07T09:49:17Z</time>
      </trkpt>
      <trkpt lat="45.87474" lon="4.77307">
        <ele>235</ele>
        <time>2018-01-07T09:49:19Z</time>
      </trkpt>
      <trkpt lat="45.87473" lon="4.77301">
        <ele>235</ele>
        <time>2018-01-07T09:49:20Z</time>
      </trkpt>
      <trkpt lat="45.87472" lon="4.77295">
        <ele>235</ele>
        <time>2018-01-07T09:49:21Z</time>
      </trkpt>
      <trkpt lat="45.87469" lon="4.77289">
        <ele>235</ele>
        <time>2018-01-07T09:49:22Z</time>
      </trkpt>
      <trkpt lat="45.87466" lon="4.77278">
        <ele>235</ele>
        <time>2018-01-07T09:49:24Z</time>
      </trkpt>
      <trkpt lat="45.87465" lon="4.77274">
        <ele>235</ele>
        <time>2018-01-07T09:49:25Z</time>
      </trkpt>
      <trkpt lat="45.87462" lon="4.77265">
        <ele>235</ele>
        <time>2018-01-07T09:49:27Z</time>
      </trkpt>
      <trkpt lat="45.87459" lon="4.77261">
        <ele>235</ele>
        <time>2018-01-07T09:49:28Z</time>
      </trkpt>
      <trkpt lat="45.87454" lon="4.77253">
        <ele>235</ele>
        <time>2018-01-07T09:49:30Z</time>
      </trkpt>
      <trkpt lat="45.87451" lon="4.7725">
        <ele>235</ele>
        <time>2018-01-07T09:49:31Z</time>
      </trkpt>
      <trkpt lat="45.87445" lon="4.77241">
        <ele>235</ele>
        <time>2018-01-07T09:49:33Z</time>
      </trkpt>
      <trkpt lat="45.87442" lon="4.77238">
        <ele>235</ele>
        <time>2018-01-07T09:49:34Z</time>
      </trkpt>
      <trkpt lat="45.87435" lon="4.77232">
        <ele>235</ele>
        <time>2018-01-07T09:49:36Z</time>
      </trkpt>
      <trkpt lat="45.87432" lon="4.77229">
        <ele>235</ele>
        <time>2018-01-07T09:49:37Z</time>
      </trkpt>
      <trkpt lat="45.87425" lon="4.77225">
        <ele>235</ele>
        <time>2018-01-07T09:49:39Z</time>
      </trkpt>
      <trkpt lat="45.87418" lon="4.77224">
        <ele>235</ele>
        <time>2018-01-07T09:49:40Z</time>
      </trkpt>
      <trkpt lat="45.87411" lon="4.77222">
        <ele>238</ele>
        <time>2018-01-07T09:49:42Z</time>
      </trkpt>
      <trkpt lat="45.87407" lon="4.77221">
        <ele>238</ele>
        <time>2018-01-07T09:49:43Z</time>
      </trkpt>
      <trkpt lat="45.874" lon="4.7722">
        <ele>238</ele>
        <time>2018-01-07T09:49:45Z</time>
      </trkpt>
      <trkpt lat="45.87397" lon="4.7722">
        <ele>238</ele>
        <time>2018-01-07T09:49:46Z</time>
      </trkpt>
      <trkpt lat="45.87392" lon="4.77217">
        <ele>239</ele>
        <time>2018-01-07T09:49:47Z</time>
      </trkpt>
      <trkpt lat="45.87386" lon="4.77217">
        <ele>239</ele>
        <time>2018-01-07T09:49:48Z</time>
      </trkpt>
      <trkpt lat="45.87379" lon="4.77217">
        <ele>239</ele>
        <time>2018-01-07T09:49:50Z</time>
      </trkpt>
      <trkpt lat="45.87374" lon="4.77217">
        <ele>239</ele>
        <time>2018-01-07T09:49:51Z</time>
      </trkpt>
      <trkpt lat="45.87366" lon="4.77218">
        <ele>240</ele>
        <time>2018-01-07T09:49:52Z</time>
      </trkpt>
      <trkpt lat="45.87361" lon="4.77219">
        <ele>240</ele>
        <time>2018-01-07T09:49:53Z</time>
      </trkpt>
      <trkpt lat="45.87354" lon="4.7722">
        <ele>240</ele>
        <time>2018-01-07T09:49:55Z</time>
      </trkpt>
      <trkpt lat="45.87351" lon="4.77221">
        <ele>240</ele>
        <time>2018-01-07T09:49:56Z</time>
      </trkpt>
      <trkpt lat="45.87343" lon="4.77225">
        <ele>241</ele>
        <time>2018-01-07T09:49:59Z</time>
      </trkpt>
      <trkpt lat="45.8734" lon="4.77227">
        <ele>241</ele>
        <time>2018-01-07T09:50:00Z</time>
      </trkpt>
      <trkpt lat="45.87332" lon="4.77229">
        <ele>243</ele>
        <time>2018-01-07T09:50:02Z</time>
      </trkpt>
      <trkpt lat="45.87328" lon="4.77229">
        <ele>243</ele>
        <time>2018-01-07T09:50:03Z</time>
      </trkpt>
      <trkpt lat="45.87321" lon="4.77228">
        <ele>244</ele>
        <time>2018-01-07T09:50:05Z</time>
      </trkpt>
      <trkpt lat="45.87318" lon="4.77227">
        <ele>244</ele>
        <time>2018-01-07T09:50:06Z</time>
      </trkpt>
      <trkpt lat="45.87313" lon="4.77223">
        <ele>244</ele>
        <time>2018-01-07T09:50:08Z</time>
      </trkpt>
      <trkpt lat="45.87308" lon="4.77221">
        <ele>244</ele>
        <time>2018-01-07T09:50:09Z</time>
      </trkpt>
      <trkpt lat="45.87304" lon="4.7722">
        <ele>244</ele>
        <time>2018-01-07T09:50:10Z</time>
      </trkpt>
      <trkpt lat="45.87298" lon="4.77216">
        <ele>244</ele>
        <time>2018-01-07T09:50:11Z</time>
      </trkpt>
      <trkpt lat="45.87292" lon="4.77211">
        <ele>244</ele>
        <time>2018-01-07T09:50:13Z</time>
      </trkpt>
      <trkpt lat="45.87288" lon="4.77208">
        <ele>244</ele>
        <time>2018-01-07T09:50:14Z</time>
      </trkpt>
      <trkpt lat="45.87287" lon="4.772">
        <ele>244</ele>
        <time>2018-01-07T09:50:16Z</time>
      </trkpt>
      <trkpt lat="45.87285" lon="4.77194">
        <ele>244</ele>
        <time>2018-01-07T09:50:17Z</time>
      </trkpt>
      <trkpt lat="45.87283" lon="4.77184">
        <ele>244</ele>
        <time>2018-01-07T09:50:19Z</time>
      </trkpt>
      <trkpt lat="45.87282" lon="4.77179">
        <ele>244</ele>
        <time>2018-01-07T09:50:20Z</time>
      </trkpt>
      <trkpt lat="45.8728" lon="4.77171">
        <ele>244</ele>
        <time>2018-01-07T09:50:21Z</time>
      </trkpt>
      <trkpt lat="45.87279" lon="4.77165">
        <ele>242</ele>
        <time>2018-01-07T09:50:22Z</time>
      </trkpt>
      <trkpt lat="45.87278" lon="4.77154">
        <ele>241</ele>
        <time>2018-01-07T09:50:24Z</time>
      </trkpt>
      <trkpt lat="45.87277" lon="4.77149">
        <ele>241</ele>
        <time>2018-01-07T09:50:25Z</time>
      </trkpt>
      <trkpt lat="45.87277" lon="4.77138">
        <ele>241</ele>
        <time>2018-01-07T09:50:27Z</time>
      </trkpt>
      <trkpt lat="45.87276" lon="4.77133">
        <ele>241</ele>
        <time>2018-01-07T09:50:28Z</time>
      </trkpt>
      <trkpt lat="45.87276" lon="4.7712">
        <ele>240</ele>
        <time>2018-01-07T09:50:30Z</time>
      </trkpt>
      <trkpt lat="45.87276" lon="4.77116">
        <ele>240</ele>
        <time>2018-01-07T09:50:31Z</time>
      </trkpt>
      <trkpt lat="45.87275" lon="4.77105">
        <ele>240</ele>
        <time>2018-01-07T09:50:33Z</time>
      </trkpt>
      <trkpt lat="45.87274" lon="4.77099">
        <ele>240</ele>
        <time>2018-01-07T09:50:34Z</time>
      </trkpt>
      <trkpt lat="45.87273" lon="4.77087">
        <ele>240</ele>
        <time>2018-01-07T09:50:36Z</time>
      </trkpt>
      <trkpt lat="45.87272" lon="4.7708">
        <ele>239</ele>
        <time>2018-01-07T09:50:37Z</time>
      </trkpt>
      <trkpt lat="45.87272" lon="4.77073">
        <ele>239</ele>
        <time>2018-01-07T09:50:38Z</time>
      </trkpt>
      <trkpt lat="45.87271" lon="4.77065">
        <ele>239</ele>
        <time>2018-01-07T09:50:39Z</time>
      </trkpt>
      <trkpt lat="45.87271" lon="4.77058">
        <ele>239</ele>
        <time>2018-01-07T09:50:40Z</time>
      </trkpt>
      <trkpt lat="45.8727" lon="4.7705">
        <ele>239</ele>
        <time>2018-01-07T09:50:41Z</time>
      </trkpt>
      <trkpt lat="45.8727" lon="4.77042">
        <ele>239</ele>
        <time>2018-01-07T09:50:42Z</time>
      </trkpt>
      <trkpt lat="45.8727" lon="4.77034">
        <ele>239</ele>
        <time>2018-01-07T09:50:43Z</time>
      </trkpt>
      <trkpt lat="45.8727" lon="4.77027">
        <ele>239</ele>
        <time>2018-01-07T09:50:44Z</time>
      </trkpt>
      <trkpt lat="45.8727" lon="4.7702">
        <ele>239</ele>
        <time>2018-01-07T09:50:45Z</time>
      </trkpt>
      <trkpt lat="45.8727" lon="4.77013">
        <ele>239</ele>
        <time>2018-01-07T09:50:46Z</time>
      </trkpt>
      <trkpt lat="45.87269" lon="4.77007">
        <ele>239</ele>
        <time>2018-01-07T09:50:47Z</time>
      </trkpt>
      <trkpt lat="45.8727" lon="4.76994">
        <ele>240</ele>
        <time>2018-01-07T09:50:49Z</time>
      </trkpt>
      <trkpt lat="45.8727" lon="4.76988">
        <ele>240</ele>
        <time>2018-01-07T09:50:50Z</time>
      </trkpt>
      <trkpt lat="45.87268" lon="4.76975">
        <ele>240</ele>
        <time>2018-01-07T09:50:52Z</time>
      </trkpt>
      <trkpt lat="45.87267" lon="4.76969">
        <ele>240</ele>
        <time>2018-01-07T09:50:53Z</time>
      </trkpt>
      <trkpt lat="45.87267" lon="4.76961">
        <ele>240</ele>
        <time>2018-01-07T09:50:54Z</time>
      </trkpt>
      <trkpt lat="45.87266" lon="4.76954">
        <ele>240</ele>
        <time>2018-01-07T09:50:55Z</time>
      </trkpt>
      <trkpt lat="45.87266" lon="4.76946">
        <ele>240</ele>
        <time>2018-01-07T09:50:56Z</time>
      </trkpt>
      <trkpt lat="45.87267" lon="4.76939">
        <ele>241</ele>
        <time>2018-01-07T09:50:57Z</time>
      </trkpt>
      <trkpt lat="45.87267" lon="4.76932">
        <ele>241</ele>
        <time>2018-01-07T09:50:58Z</time>
      </trkpt>
      <trkpt lat="45.87266" lon="4.76924">
        <ele>241</ele>
        <time>2018-01-07T09:50:59Z</time>
      </trkpt>
      <trkpt lat="45.87267" lon="4.76916">
        <ele>241</ele>
        <time>2018-01-07T09:51:00Z</time>
      </trkpt>
      <trkpt lat="45.87266" lon="4.76906">
        <ele>241</ele>
        <time>2018-01-07T09:51:01Z</time>
      </trkpt>
      <trkpt lat="45.87267" lon="4.76898">
        <ele>240</ele>
        <time>2018-01-07T09:51:02Z</time>
      </trkpt>
      <trkpt lat="45.87267" lon="4.7689">
        <ele>240</ele>
        <time>2018-01-07T09:51:03Z</time>
      </trkpt>
      <trkpt lat="45.87266" lon="4.76881">
        <ele>240</ele>
        <time>2018-01-07T09:51:04Z</time>
      </trkpt>
      <trkpt lat="45.87266" lon="4.76874">
        <ele>240</ele>
        <time>2018-01-07T09:51:05Z</time>
      </trkpt>
      <trkpt lat="45.87265" lon="4.76866">
        <ele>239</ele>
        <time>2018-01-07T09:51:06Z</time>
      </trkpt>
      <trkpt lat="45.87265" lon="4.76857">
        <ele>239</ele>
        <time>2018-01-07T09:51:07Z</time>
      </trkpt>
      <trkpt lat="45.87266" lon="4.76848">
        <ele>239</ele>
        <time>2018-01-07T09:51:08Z</time>
      </trkpt>
      <trkpt lat="45.87266" lon="4.76839">
        <ele>239</ele>
        <time>2018-01-07T09:51:09Z</time>
      </trkpt>
      <trkpt lat="45.87265" lon="4.76831">
        <ele>237</ele>
        <time>2018-01-07T09:51:10Z</time>
      </trkpt>
      <trkpt lat="45.87266" lon="4.76822">
        <ele>237</ele>
        <time>2018-01-07T09:51:11Z</time>
      </trkpt>
      <trkpt lat="45.87266" lon="4.76812">
        <ele>237</ele>
        <time>2018-01-07T09:51:12Z</time>
      </trkpt>
      <trkpt lat="45.87267" lon="4.76804">
        <ele>237</ele>
        <time>2018-01-07T09:51:13Z</time>
      </trkpt>
      <trkpt lat="45.87266" lon="4.76795">
        <ele>236</ele>
        <time>2018-01-07T09:51:14Z</time>
      </trkpt>
      <trkpt lat="45.87266" lon="4.76787">
        <ele>236</ele>
        <time>2018-01-07T09:51:15Z</time>
      </trkpt>
      <trkpt lat="45.87266" lon="4.76778">
        <ele>236</ele>
        <time>2018-01-07T09:51:16Z</time>
      </trkpt>
      <trkpt lat="45.87266" lon="4.7677">
        <ele>236</ele>
        <time>2018-01-07T09:51:17Z</time>
      </trkpt>
      <trkpt lat="45.87265" lon="4.76762">
        <ele>236</ele>
        <time>2018-01-07T09:51:18Z</time>
      </trkpt>
      <trkpt lat="45.87264" lon="4.76754">
        <ele>236</ele>
        <time>2018-01-07T09:51:19Z</time>
      </trkpt>
      <trkpt lat="45.87263" lon="4.76747">
        <ele>235</ele>
        <time>2018-01-07T09:51:20Z</time>
      </trkpt>
      <trkpt lat="45.87263" lon="4.7674">
        <ele>235</ele>
        <time>2018-01-07T09:51:21Z</time>
      </trkpt>
      <trkpt lat="45.87263" lon="4.76733">
        <ele>235</ele>
        <time>2018-01-07T09:51:22Z</time>
      </trkpt>
      <trkpt lat="45.87264" lon="4.76725">
        <ele>234</ele>
        <time>2018-01-07T09:51:23Z</time>
      </trkpt>
      <trkpt lat="45.87263" lon="4.76717">
        <ele>234</ele>
        <time>2018-01-07T09:51:24Z</time>
      </trkpt>
      <trkpt lat="45.87263" lon="4.76708">
        <ele>234</ele>
        <time>2018-01-07T09:51:25Z</time>
      </trkpt>
      <trkpt lat="45.87264" lon="4.76699">
        <ele>234</ele>
        <time>2018-01-07T09:51:26Z</time>
      </trkpt>
      <trkpt lat="45.87263" lon="4.76692">
        <ele>234</ele>
        <time>2018-01-07T09:51:27Z</time>
      </trkpt>
      <trkpt lat="45.87262" lon="4.76683">
        <ele>234</ele>
        <time>2018-01-07T09:51:28Z</time>
      </trkpt>
      <trkpt lat="45.87262" lon="4.76674">
        <ele>234</ele>
        <time>2018-01-07T09:51:29Z</time>
      </trkpt>
      <trkpt lat="45.87261" lon="4.76666">
        <ele>235</ele>
        <time>2018-01-07T09:51:30Z</time>
      </trkpt>
      <trkpt lat="45.8726" lon="4.76657">
        <ele>234</ele>
        <time>2018-01-07T09:51:31Z</time>
      </trkpt>
      <trkpt lat="45.8726" lon="4.76648">
        <ele>234</ele>
        <time>2018-01-07T09:51:32Z</time>
      </trkpt>
      <trkpt lat="45.8726" lon="4.76639">
        <ele>234</ele>
        <time>2018-01-07T09:51:33Z</time>
      </trkpt>
      <trkpt lat="45.87259" lon="4.76631">
        <ele>234</ele>
        <time>2018-01-07T09:51:34Z</time>
      </trkpt>
      <trkpt lat="45.87259" lon="4.76622">
        <ele>234</ele>
        <time>2018-01-07T09:51:35Z</time>
      </trkpt>
      <trkpt lat="45.87259" lon="4.76615">
        <ele>234</ele>
        <time>2018-01-07T09:51:36Z</time>
      </trkpt>
      <trkpt lat="45.87258" lon="4.76609">
        <ele>235</ele>
        <time>2018-01-07T09:51:37Z</time>
      </trkpt>
      <trkpt lat="45.87258" lon="4.76596">
        <ele>235</ele>
        <time>2018-01-07T09:51:39Z</time>
      </trkpt>
      <trkpt lat="45.87257" lon="4.7659">
        <ele>235</ele>
        <time>2018-01-07T09:51:40Z</time>
      </trkpt>
      <trkpt lat="45.87257" lon="4.76577">
        <ele>236</ele>
        <time>2018-01-07T09:51:42Z</time>
      </trkpt>
      <trkpt lat="45.87255" lon="4.76568">
        <ele>236</ele>
        <time>2018-01-07T09:51:43Z</time>
      </trkpt>
      <trkpt lat="45.87256" lon="4.76563">
        <ele>236</ele>
        <time>2018-01-07T09:51:44Z</time>
      </trkpt>
      <trkpt lat="45.87255" lon="4.76554">
        <ele>235</ele>
        <time>2018-01-07T09:51:45Z</time>
      </trkpt>
      <trkpt lat="45.87255" lon="4.76546">
        <ele>236</ele>
        <time>2018-01-07T09:51:46Z</time>
      </trkpt>
      <trkpt lat="45.87257" lon="4.76538">
        <ele>236</ele>
        <time>2018-01-07T09:51:47Z</time>
      </trkpt>
      <trkpt lat="45.87257" lon="4.76531">
        <ele>236</ele>
        <time>2018-01-07T09:51:48Z</time>
      </trkpt>
      <trkpt lat="45.87256" lon="4.76524">
        <ele>236</ele>
        <time>2018-01-07T09:51:49Z</time>
      </trkpt>
      <trkpt lat="45.87256" lon="4.76518">
        <ele>236</ele>
        <time>2018-01-07T09:51:50Z</time>
      </trkpt>
      <trkpt lat="45.87256" lon="4.76511">
        <ele>236</ele>
        <time>2018-01-07T09:51:51Z</time>
      </trkpt>
      <trkpt lat="45.87257" lon="4.76504">
        <ele>236</ele>
        <time>2018-01-07T09:51:52Z</time>
      </trkpt>
      <trkpt lat="45.87257" lon="4.76498">
        <ele>236</ele>
        <time>2018-01-07T09:51:53Z</time>
      </trkpt>
      <trkpt lat="45.87256" lon="4.76492">
        <ele>236</ele>
        <time>2018-01-07T09:51:54Z</time>
      </trkpt>
      <trkpt lat="45.87257" lon="4.76484">
        <ele>236</ele>
        <time>2018-01-07T09:51:55Z</time>
      </trkpt>
      <trkpt lat="45.87256" lon="4.76476">
        <ele>236</ele>
        <time>2018-01-07T09:51:56Z</time>
      </trkpt>
      <trkpt lat="45.87257" lon="4.76467">
        <ele>235</ele>
        <time>2018-01-07T09:51:57Z</time>
      </trkpt>
      <trkpt lat="45.87257" lon="4.76459">
        <ele>235</ele>
        <time>2018-01-07T09:51:58Z</time>
      </trkpt>
      <trkpt lat="45.87258" lon="4.76448">
        <ele>235</ele>
        <time>2018-01-07T09:51:59Z</time>
      </trkpt>
      <trkpt lat="45.87257" lon="4.7644">
        <ele>235</ele>
        <time>2018-01-07T09:52:00Z</time>
      </trkpt>
      <trkpt lat="45.87258" lon="4.76433">
        <ele>235</ele>
        <time>2018-01-07T09:52:01Z</time>
      </trkpt>
      <trkpt lat="45.87256" lon="4.76426">
        <ele>236</ele>
        <time>2018-01-07T09:52:02Z</time>
      </trkpt>
      <trkpt lat="45.87255" lon="4.7642">
        <ele>236</ele>
        <time>2018-01-07T09:52:03Z</time>
      </trkpt>
      <trkpt lat="45.87256" lon="4.76408">
        <ele>235</ele>
        <time>2018-01-07T09:52:04Z</time>
      </trkpt>
      <trkpt lat="45.87256" lon="4.76402">
        <ele>235</ele>
        <time>2018-01-07T09:52:05Z</time>
      </trkpt>
      <trkpt lat="45.87254" lon="4.76394">
        <ele>234</ele>
        <time>2018-01-07T09:52:06Z</time>
      </trkpt>
      <trkpt lat="45.87254" lon="4.76387">
        <ele>234</ele>
        <time>2018-01-07T09:52:07Z</time>
      </trkpt>
      <trkpt lat="45.87255" lon="4.7638">
        <ele>234</ele>
        <time>2018-01-07T09:52:08Z</time>
      </trkpt>
      <trkpt lat="45.87254" lon="4.76373">
        <ele>234</ele>
        <time>2018-01-07T09:52:09Z</time>
      </trkpt>
      <trkpt lat="45.87254" lon="4.76366">
        <ele>234</ele>
        <time>2018-01-07T09:52:10Z</time>
      </trkpt>
      <trkpt lat="45.87254" lon="4.76359">
        <ele>234</ele>
        <time>2018-01-07T09:52:11Z</time>
      </trkpt>
      <trkpt lat="45.87253" lon="4.76353">
        <ele>234</ele>
        <time>2018-01-07T09:52:12Z</time>
      </trkpt>
      <trkpt lat="45.87252" lon="4.76345">
        <ele>234</ele>
        <time>2018-01-07T09:52:13Z</time>
      </trkpt>
      <trkpt lat="45.87253" lon="4.76338">
        <ele>234</ele>
        <time>2018-01-07T09:52:14Z</time>
      </trkpt>
      <trkpt lat="45.87253" lon="4.76331">
        <ele>234</ele>
        <time>2018-01-07T09:52:15Z</time>
      </trkpt>
      <trkpt lat="45.87252" lon="4.76324">
        <ele>233</ele>
        <time>2018-01-07T09:52:16Z</time>
      </trkpt>
      <trkpt lat="45.87252" lon="4.76316">
        <ele>233</ele>
        <time>2018-01-07T09:52:17Z</time>
      </trkpt>
      <trkpt lat="45.87251" lon="4.76309">
        <ele>233</ele>
        <time>2018-01-07T09:52:18Z</time>
      </trkpt>
      <trkpt lat="45.87251" lon="4.763">
        <ele>233</ele>
        <time>2018-01-07T09:52:19Z</time>
      </trkpt>
      <trkpt lat="45.87251" lon="4.76292">
        <ele>233</ele>
        <time>2018-01-07T09:52:20Z</time>
      </trkpt>
      <trkpt lat="45.8725" lon="4.76283">
        <ele>233</ele>
        <time>2018-01-07T09:52:21Z</time>
      </trkpt>
      <trkpt lat="45.8725" lon="4.76274">
        <ele>236</ele>
        <time>2018-01-07T09:52:22Z</time>
      </trkpt>
      <trkpt lat="45.8725" lon="4.76266">
        <ele>236</ele>
        <time>2018-01-07T09:52:23Z</time>
      </trkpt>
      <trkpt lat="45.87248" lon="4.76258">
        <ele>235</ele>
        <time>2018-01-07T09:52:24Z</time>
      </trkpt>
      <trkpt lat="45.87248" lon="4.76249">
        <ele>235</ele>
        <time>2018-01-07T09:52:25Z</time>
      </trkpt>
      <trkpt lat="45.87247" lon="4.76241">
        <ele>235</ele>
        <time>2018-01-07T09:52:26Z</time>
      </trkpt>
      <trkpt lat="45.87247" lon="4.76232">
        <ele>235</ele>
        <time>2018-01-07T09:52:27Z</time>
      </trkpt>
      <trkpt lat="45.87248" lon="4.76223">
        <ele>235</ele>
        <time>2018-01-07T09:52:28Z</time>
      </trkpt>
      <trkpt lat="45.87248" lon="4.76215">
        <ele>234</ele>
        <time>2018-01-07T09:52:29Z</time>
      </trkpt>
      <trkpt lat="45.87248" lon="4.76207">
        <ele>234</ele>
        <time>2018-01-07T09:52:30Z</time>
      </trkpt>
      <trkpt lat="45.87248" lon="4.76199">
        <ele>234</ele>
        <time>2018-01-07T09:52:31Z</time>
      </trkpt>
      <trkpt lat="45.87248" lon="4.76192">
        <ele>234</ele>
        <time>2018-01-07T09:52:32Z</time>
      </trkpt>
      <trkpt lat="45.87247" lon="4.76185">
        <ele>233</ele>
        <time>2018-01-07T09:52:33Z</time>
      </trkpt>
      <trkpt lat="45.87247" lon="4.76177">
        <ele>233</ele>
        <time>2018-01-07T09:52:34Z</time>
      </trkpt>
      <trkpt lat="45.87247" lon="4.76169">
        <ele>232</ele>
        <time>2018-01-07T09:52:35Z</time>
      </trkpt>
      <trkpt lat="45.87246" lon="4.76162">
        <ele>232</ele>
        <time>2018-01-07T09:52:36Z</time>
      </trkpt>
      <trkpt lat="45.87246" lon="4.76153">
        <ele>232</ele>
        <time>2018-01-07T09:52:37Z</time>
      </trkpt>
      <trkpt lat="45.87244" lon="4.76144">
        <ele>232</ele>
        <time>2018-01-07T09:52:38Z</time>
      </trkpt>
      <trkpt lat="45.87246" lon="4.76131">
        <ele>232</ele>
        <time>2018-01-07T09:52:39Z</time>
      </trkpt>
      <trkpt lat="45.87246" lon="4.76123">
        <ele>232</ele>
        <time>2018-01-07T09:52:40Z</time>
      </trkpt>
      <trkpt lat="45.87246" lon="4.76114">
        <ele>232</ele>
        <time>2018-01-07T09:52:41Z</time>
      </trkpt>
      <trkpt lat="45.87246" lon="4.76104">
        <ele>231</ele>
        <time>2018-01-07T09:52:42Z</time>
      </trkpt>
      <trkpt lat="45.87246" lon="4.76095">
        <ele>231</ele>
        <time>2018-01-07T09:52:43Z</time>
      </trkpt>
      <trkpt lat="45.87246" lon="4.76086">
        <ele>230</ele>
        <time>2018-01-07T09:52:44Z</time>
      </trkpt>
      <trkpt lat="45.87245" lon="4.76077">
        <ele>230</ele>
        <time>2018-01-07T09:52:45Z</time>
      </trkpt>
      <trkpt lat="45.87244" lon="4.76067">
        <ele>230</ele>
        <time>2018-01-07T09:52:46Z</time>
      </trkpt>
      <trkpt lat="45.87244" lon="4.76058">
        <ele>230</ele>
        <time>2018-01-07T09:52:47Z</time>
      </trkpt>
      <trkpt lat="45.87245" lon="4.76048">
        <ele>230</ele>
        <time>2018-01-07T09:52:48Z</time>
      </trkpt>
      <trkpt lat="45.87245" lon="4.7604">
        <ele>230</ele>
        <time>2018-01-07T09:52:49Z</time>
      </trkpt>
      <trkpt lat="45.87244" lon="4.76032">
        <ele>230</ele>
        <time>2018-01-07T09:52:50Z</time>
      </trkpt>
      <trkpt lat="45.87243" lon="4.76023">
        <ele>230</ele>
        <time>2018-01-07T09:52:51Z</time>
      </trkpt>
      <trkpt lat="45.87242" lon="4.76015">
        <ele>229</ele>
        <time>2018-01-07T09:52:52Z</time>
      </trkpt>
      <trkpt lat="45.8724" lon="4.76006">
        <ele>229</ele>
        <time>2018-01-07T09:52:53Z</time>
      </trkpt>
      <trkpt lat="45.8724" lon="4.75997">
        <ele>228</ele>
        <time>2018-01-07T09:52:54Z</time>
      </trkpt>
      <trkpt lat="45.87239" lon="4.75989">
        <ele>228</ele>
        <time>2018-01-07T09:52:55Z</time>
      </trkpt>
      <trkpt lat="45.87238" lon="4.7598">
        <ele>228</ele>
        <time>2018-01-07T09:52:56Z</time>
      </trkpt>
      <trkpt lat="45.87237" lon="4.75971">
        <ele>228</ele>
        <time>2018-01-07T09:52:57Z</time>
      </trkpt>
      <trkpt lat="45.87236" lon="4.75963">
        <ele>228</ele>
        <time>2018-01-07T09:52:58Z</time>
      </trkpt>
      <trkpt lat="45.87234" lon="4.75954">
        <ele>228</ele>
        <time>2018-01-07T09:52:59Z</time>
      </trkpt>
      <trkpt lat="45.87233" lon="4.75944">
        <ele>228</ele>
        <time>2018-01-07T09:53:00Z</time>
      </trkpt>
      <trkpt lat="45.87232" lon="4.75935">
        <ele>228</ele>
        <time>2018-01-07T09:53:01Z</time>
      </trkpt>
      <trkpt lat="45.87231" lon="4.75925">
        <ele>228</ele>
        <time>2018-01-07T09:53:02Z</time>
      </trkpt>
      <trkpt lat="45.8723" lon="4.75916">
        <ele>227</ele>
        <time>2018-01-07T09:53:03Z</time>
      </trkpt>
      <trkpt lat="45.87229" lon="4.75907">
        <ele>227</ele>
        <time>2018-01-07T09:53:04Z</time>
      </trkpt>
      <trkpt lat="45.87228" lon="4.75897">
        <ele>227</ele>
        <time>2018-01-07T09:53:05Z</time>
      </trkpt>
      <trkpt lat="45.87228" lon="4.75886">
        <ele>226</ele>
        <time>2018-01-07T09:53:06Z</time>
      </trkpt>
      <trkpt lat="45.87227" lon="4.75877">
        <ele>226</ele>
        <time>2018-01-07T09:53:07Z</time>
      </trkpt>
      <trkpt lat="45.87225" lon="4.75868">
        <ele>226</ele>
        <time>2018-01-07T09:53:08Z</time>
      </trkpt>
      <trkpt lat="45.87223" lon="4.75858">
        <ele>226</ele>
        <time>2018-01-07T09:53:09Z</time>
      </trkpt>
      <trkpt lat="45.87221" lon="4.75848">
        <ele>226</ele>
        <time>2018-01-07T09:53:10Z</time>
      </trkpt>
      <trkpt lat="45.87219" lon="4.75839">
        <ele>226</ele>
        <time>2018-01-07T09:53:11Z</time>
      </trkpt>
      <trkpt lat="45.87218" lon="4.75829">
        <ele>224</ele>
        <time>2018-01-07T09:53:12Z</time>
      </trkpt>
      <trkpt lat="45.87216" lon="4.7582">
        <ele>224</ele>
        <time>2018-01-07T09:53:13Z</time>
      </trkpt>
      <trkpt lat="45.87215" lon="4.75809">
        <ele>224</ele>
        <time>2018-01-07T09:53:14Z</time>
      </trkpt>
      <trkpt lat="45.87214" lon="4.75801">
        <ele>224</ele>
        <time>2018-01-07T09:53:15Z</time>
      </trkpt>
      <trkpt lat="45.8721" lon="4.75794">
        <ele>224</ele>
        <time>2018-01-07T09:53:16Z</time>
      </trkpt>
      <trkpt lat="45.87208" lon="4.75784">
        <ele>224</ele>
        <time>2018-01-07T09:53:17Z</time>
      </trkpt>
      <trkpt lat="45.87205" lon="4.75775">
        <ele>224</ele>
        <time>2018-01-07T09:53:18Z</time>
      </trkpt>
      <trkpt lat="45.87202" lon="4.75766">
        <ele>224</ele>
        <time>2018-01-07T09:53:19Z</time>
      </trkpt>
      <trkpt lat="45.872" lon="4.75758">
        <ele>224</ele>
        <time>2018-01-07T09:53:20Z</time>
      </trkpt>
      <trkpt lat="45.87198" lon="4.7575">
        <ele>223</ele>
        <time>2018-01-07T09:53:21Z</time>
      </trkpt>
      <trkpt lat="45.87195" lon="4.75742">
        <ele>223</ele>
        <time>2018-01-07T09:53:22Z</time>
      </trkpt>
      <trkpt lat="45.87193" lon="4.75734">
        <ele>223</ele>
        <time>2018-01-07T09:53:23Z</time>
      </trkpt>
      <trkpt lat="45.87192" lon="4.75726">
        <ele>223</ele>
        <time>2018-01-07T09:53:24Z</time>
      </trkpt>
      <trkpt lat="45.87191" lon="4.75719">
        <ele>223</ele>
        <time>2018-01-07T09:53:25Z</time>
      </trkpt>
      <trkpt lat="45.87189" lon="4.75711">
        <ele>223</ele>
        <time>2018-01-07T09:53:26Z</time>
      </trkpt>
      <trkpt lat="45.87188" lon="4.75705">
        <ele>223</ele>
        <time>2018-01-07T09:53:27Z</time>
      </trkpt>
      <trkpt lat="45.87186" lon="4.75698">
        <ele>223</ele>
        <time>2018-01-07T09:53:28Z</time>
      </trkpt>
      <trkpt lat="45.87184" lon="4.75691">
        <ele>223</ele>
        <time>2018-01-07T09:53:29Z</time>
      </trkpt>
      <trkpt lat="45.87182" lon="4.75684">
        <ele>223</ele>
        <time>2018-01-07T09:53:30Z</time>
      </trkpt>
      <trkpt lat="45.87181" lon="4.75677">
        <ele>223</ele>
        <time>2018-01-07T09:53:31Z</time>
      </trkpt>
      <trkpt lat="45.8718" lon="4.75665">
        <ele>222</ele>
        <time>2018-01-07T09:53:33Z</time>
      </trkpt>
      <trkpt lat="45.8718" lon="4.75658">
        <ele>222</ele>
        <time>2018-01-07T09:53:34Z</time>
      </trkpt>
      <trkpt lat="45.87181" lon="4.75652">
        <ele>222</ele>
        <time>2018-01-07T09:53:35Z</time>
      </trkpt>
      <trkpt lat="45.8718" lon="4.75644">
        <ele>222</ele>
        <time>2018-01-07T09:53:36Z</time>
      </trkpt>
      <trkpt lat="45.87179" lon="4.75637">
        <ele>222</ele>
        <time>2018-01-07T09:53:37Z</time>
      </trkpt>
      <trkpt lat="45.87179" lon="4.75629">
        <ele>222</ele>
        <time>2018-01-07T09:53:38Z</time>
      </trkpt>
      <trkpt lat="45.8718" lon="4.75621">
        <ele>222</ele>
        <time>2018-01-07T09:53:39Z</time>
      </trkpt>
      <trkpt lat="45.87181" lon="4.75611">
        <ele>222</ele>
        <time>2018-01-07T09:53:40Z</time>
      </trkpt>
      <trkpt lat="45.87181" lon="4.75603">
        <ele>222</ele>
        <time>2018-01-07T09:53:41Z</time>
      </trkpt>
      <trkpt lat="45.87182" lon="4.75594">
        <ele>222</ele>
        <time>2018-01-07T09:53:42Z</time>
      </trkpt>
      <trkpt lat="45.87181" lon="4.75585">
        <ele>222</ele>
        <time>2018-01-07T09:53:43Z</time>
      </trkpt>
      <trkpt lat="45.87181" lon="4.75576">
        <ele>222</ele>
        <time>2018-01-07T09:53:44Z</time>
      </trkpt>
      <trkpt lat="45.87181" lon="4.75566">
        <ele>222</ele>
        <time>2018-01-07T09:53:45Z</time>
      </trkpt>
      <trkpt lat="45.87181" lon="4.75556">
        <ele>222</ele>
        <time>2018-01-07T09:53:46Z</time>
      </trkpt>
      <trkpt lat="45.87181" lon="4.75545">
        <ele>222</ele>
        <time>2018-01-07T09:53:47Z</time>
      </trkpt>
      <trkpt lat="45.87181" lon="4.75535">
        <ele>222</ele>
        <time>2018-01-07T09:53:48Z</time>
      </trkpt>
      <trkpt lat="45.87181" lon="4.75525">
        <ele>222</ele>
        <time>2018-01-07T09:53:49Z</time>
      </trkpt>
      <trkpt lat="45.87182" lon="4.75515">
        <ele>222</ele>
        <time>2018-01-07T09:53:50Z</time>
      </trkpt>
      <trkpt lat="45.87182" lon="4.75505">
        <ele>222</ele>
        <time>2018-01-07T09:53:51Z</time>
      </trkpt>
      <trkpt lat="45.87181" lon="4.75492">
        <ele>223</ele>
        <time>2018-01-07T09:53:52Z</time>
      </trkpt>
      <trkpt lat="45.87181" lon="4.75483">
        <ele>222</ele>
        <time>2018-01-07T09:53:53Z</time>
      </trkpt>
      <trkpt lat="45.87181" lon="4.75474">
        <ele>222</ele>
        <time>2018-01-07T09:53:54Z</time>
      </trkpt>
      <trkpt lat="45.87182" lon="4.75465">
        <ele>222</ele>
        <time>2018-01-07T09:53:55Z</time>
      </trkpt>
      <trkpt lat="45.87181" lon="4.75457">
        <ele>222</ele>
        <time>2018-01-07T09:53:56Z</time>
      </trkpt>
      <trkpt lat="45.8718" lon="4.75448">
        <ele>222</ele>
        <time>2018-01-07T09:53:57Z</time>
      </trkpt>
      <trkpt lat="45.8718" lon="4.75441">
        <ele>222</ele>
        <time>2018-01-07T09:53:58Z</time>
      </trkpt>
      <trkpt lat="45.8718" lon="4.75433">
        <ele>222</ele>
        <time>2018-01-07T09:53:59Z</time>
      </trkpt>
      <trkpt lat="45.8718" lon="4.75425">
        <ele>223</ele>
        <time>2018-01-07T09:54:00Z</time>
      </trkpt>
      <trkpt lat="45.8718" lon="4.75417">
        <ele>223</ele>
        <time>2018-01-07T09:54:01Z</time>
      </trkpt>
      <trkpt lat="45.8718" lon="4.75408">
        <ele>223</ele>
        <time>2018-01-07T09:54:02Z</time>
      </trkpt>
      <trkpt lat="45.8718" lon="4.75401">
        <ele>223</ele>
        <time>2018-01-07T09:54:03Z</time>
      </trkpt>
      <trkpt lat="45.87179" lon="4.75392">
        <ele>223</ele>
        <time>2018-01-07T09:54:04Z</time>
      </trkpt>
      <trkpt lat="45.87179" lon="4.75384">
        <ele>223</ele>
        <time>2018-01-07T09:54:05Z</time>
      </trkpt>
      <trkpt lat="45.8718" lon="4.75376">
        <ele>223</ele>
        <time>2018-01-07T09:54:06Z</time>
      </trkpt>
      <trkpt lat="45.87179" lon="4.75367">
        <ele>223</ele>
        <time>2018-01-07T09:54:07Z</time>
      </trkpt>
      <trkpt lat="45.87178" lon="4.75359">
        <ele>223</ele>
        <time>2018-01-07T09:54:08Z</time>
      </trkpt>
      <trkpt lat="45.87177" lon="4.7535">
        <ele>223</ele>
        <time>2018-01-07T09:54:09Z</time>
      </trkpt>
      <trkpt lat="45.87178" lon="4.75341">
        <ele>223</ele>
        <time>2018-01-07T09:54:10Z</time>
      </trkpt>
      <trkpt lat="45.87179" lon="4.75334">
        <ele>223</ele>
        <time>2018-01-07T09:54:11Z</time>
      </trkpt>
      <trkpt lat="45.87178" lon="4.75325">
        <ele>223</ele>
        <time>2018-01-07T09:54:12Z</time>
      </trkpt>
      <trkpt lat="45.87178" lon="4.75317">
        <ele>223</ele>
        <time>2018-01-07T09:54:13Z</time>
      </trkpt>
      <trkpt lat="45.87177" lon="4.7531">
        <ele>223</ele>
        <time>2018-01-07T09:54:14Z</time>
      </trkpt>
      <trkpt lat="45.87176" lon="4.75303">
        <ele>223</ele>
        <time>2018-01-07T09:54:15Z</time>
      </trkpt>
      <trkpt lat="45.87176" lon="4.75295">
        <ele>223</ele>
        <time>2018-01-07T09:54:16Z</time>
      </trkpt>
      <trkpt lat="45.87175" lon="4.75287">
        <ele>223</ele>
        <time>2018-01-07T09:54:17Z</time>
      </trkpt>
      <trkpt lat="45.87174" lon="4.75281">
        <ele>223</ele>
        <time>2018-01-07T09:54:18Z</time>
      </trkpt>
      <trkpt lat="45.87172" lon="4.75273">
        <ele>223</ele>
        <time>2018-01-07T09:54:19Z</time>
      </trkpt>
      <trkpt lat="45.87169" lon="4.75266">
        <ele>223</ele>
        <time>2018-01-07T09:54:20Z</time>
      </trkpt>
      <trkpt lat="45.87168" lon="4.75259">
        <ele>223</ele>
        <time>2018-01-07T09:54:21Z</time>
      </trkpt>
      <trkpt lat="45.87167" lon="4.75252">
        <ele>223</ele>
        <time>2018-01-07T09:54:22Z</time>
      </trkpt>
      <trkpt lat="45.87166" lon="4.75244">
        <ele>223</ele>
        <time>2018-01-07T09:54:23Z</time>
      </trkpt>
      <trkpt lat="45.87165" lon="4.75237">
        <ele>224</ele>
        <time>2018-01-07T09:54:24Z</time>
      </trkpt>
      <trkpt lat="45.87163" lon="4.75229">
        <ele>224</ele>
        <time>2018-01-07T09:54:25Z</time>
      </trkpt>
      <trkpt lat="45.87162" lon="4.75222">
        <ele>224</ele>
        <time>2018-01-07T09:54:26Z</time>
      </trkpt>
      <trkpt lat="45.8716" lon="4.75214">
        <ele>225</ele>
        <time>2018-01-07T09:54:27Z</time>
      </trkpt>
      <trkpt lat="45.87159" lon="4.75207">
        <ele>225</ele>
        <time>2018-01-07T09:54:28Z</time>
      </trkpt>
      <trkpt lat="45.87158" lon="4.752">
        <ele>225</ele>
        <time>2018-01-07T09:54:29Z</time>
      </trkpt>
      <trkpt lat="45.87156" lon="4.75193">
        <ele>225</ele>
        <time>2018-01-07T09:54:30Z</time>
      </trkpt>
      <trkpt lat="45.87154" lon="4.75186">
        <ele>225</ele>
        <time>2018-01-07T09:54:31Z</time>
      </trkpt>
      <trkpt lat="45.87152" lon="4.75178">
        <ele>225</ele>
        <time>2018-01-07T09:54:32Z</time>
      </trkpt>
      <trkpt lat="45.8715" lon="4.75172">
        <ele>225</ele>
        <time>2018-01-07T09:54:33Z</time>
      </trkpt>
      <trkpt lat="45.87147" lon="4.75163">
        <ele>225</ele>
        <time>2018-01-07T09:54:34Z</time>
      </trkpt>
      <trkpt lat="45.87146" lon="4.75156">
        <ele>225</ele>
        <time>2018-01-07T09:54:35Z</time>
      </trkpt>
      <trkpt lat="45.87144" lon="4.7515">
        <ele>225</ele>
        <time>2018-01-07T09:54:36Z</time>
      </trkpt>
      <trkpt lat="45.87144" lon="4.75143">
        <ele>225</ele>
        <time>2018-01-07T09:54:37Z</time>
      </trkpt>
      <trkpt lat="45.87143" lon="4.75137">
        <ele>225</ele>
        <time>2018-01-07T09:54:38Z</time>
      </trkpt>
      <trkpt lat="45.87141" lon="4.75124">
        <ele>225</ele>
        <time>2018-01-07T09:54:40Z</time>
      </trkpt>
      <trkpt lat="45.8714" lon="4.75118">
        <ele>225</ele>
        <time>2018-01-07T09:54:41Z</time>
      </trkpt>
      <trkpt lat="45.87138" lon="4.75111">
        <ele>225</ele>
        <time>2018-01-07T09:54:42Z</time>
      </trkpt>
      <trkpt lat="45.87137" lon="4.75104">
        <ele>225</ele>
        <time>2018-01-07T09:54:43Z</time>
      </trkpt>
      <trkpt lat="45.87136" lon="4.75098">
        <ele>225</ele>
        <time>2018-01-07T09:54:44Z</time>
      </trkpt>
      <trkpt lat="45.87135" lon="4.75091">
        <ele>225</ele>
        <time>2018-01-07T09:54:45Z</time>
      </trkpt>
      <trkpt lat="45.87134" lon="4.75079">
        <ele>225</ele>
        <time>2018-01-07T09:54:47Z</time>
      </trkpt>
      <trkpt lat="45.87134" lon="4.75073">
        <ele>225</ele>
        <time>2018-01-07T09:54:48Z</time>
      </trkpt>
      <trkpt lat="45.87133" lon="4.7506">
        <ele>225</ele>
        <time>2018-01-07T09:54:50Z</time>
      </trkpt>
      <trkpt lat="45.87132" lon="4.75054">
        <ele>225</ele>
        <time>2018-01-07T09:54:51Z</time>
      </trkpt>
      <trkpt lat="45.8713" lon="4.75047">
        <ele>225</ele>
        <time>2018-01-07T09:54:52Z</time>
      </trkpt>
      <trkpt lat="45.87129" lon="4.75042">
        <ele>225</ele>
        <time>2018-01-07T09:54:53Z</time>
      </trkpt>
      <trkpt lat="45.87128" lon="4.75036">
        <ele>225</ele>
        <time>2018-01-07T09:54:54Z</time>
      </trkpt>
      <trkpt lat="45.87129" lon="4.75028">
        <ele>226</ele>
        <time>2018-01-07T09:54:55Z</time>
      </trkpt>
      <trkpt lat="45.87129" lon="4.75016">
        <ele>226</ele>
        <time>2018-01-07T09:54:57Z</time>
      </trkpt>
      <trkpt lat="45.87129" lon="4.75008">
        <ele>226</ele>
        <time>2018-01-07T09:54:58Z</time>
      </trkpt>
      <trkpt lat="45.87129" lon="4.75002">
        <ele>226</ele>
        <time>2018-01-07T09:54:59Z</time>
      </trkpt>
      <trkpt lat="45.87129" lon="4.74995">
        <ele>226</ele>
        <time>2018-01-07T09:55:00Z</time>
      </trkpt>
      <trkpt lat="45.8713" lon="4.74988">
        <ele>226</ele>
        <time>2018-01-07T09:55:01Z</time>
      </trkpt>
      <trkpt lat="45.87131" lon="4.74979">
        <ele>226</ele>
        <time>2018-01-07T09:55:02Z</time>
      </trkpt>
      <trkpt lat="45.87131" lon="4.74972">
        <ele>226</ele>
        <time>2018-01-07T09:55:03Z</time>
      </trkpt>
      <trkpt lat="45.8713" lon="4.74965">
        <ele>226</ele>
        <time>2018-01-07T09:55:04Z</time>
      </trkpt>
      <trkpt lat="45.87131" lon="4.74958">
        <ele>226</ele>
        <time>2018-01-07T09:55:05Z</time>
      </trkpt>
      <trkpt lat="45.87131" lon="4.74951">
        <ele>226</ele>
        <time>2018-01-07T09:55:06Z</time>
      </trkpt>
      <trkpt lat="45.87134" lon="4.74944">
        <ele>226</ele>
        <time>2018-01-07T09:55:07Z</time>
      </trkpt>
      <trkpt lat="45.87137" lon="4.74938">
        <ele>226</ele>
        <time>2018-01-07T09:55:08Z</time>
      </trkpt>
      <trkpt lat="45.8714" lon="4.74932">
        <ele>226</ele>
        <time>2018-01-07T09:55:09Z</time>
      </trkpt>
      <trkpt lat="45.87142" lon="4.74925">
        <ele>226</ele>
        <time>2018-01-07T09:55:10Z</time>
      </trkpt>
      <trkpt lat="45.87142" lon="4.74917">
        <ele>226</ele>
        <time>2018-01-07T09:55:11Z</time>
      </trkpt>
      <trkpt lat="45.87142" lon="4.74909">
        <ele>225</ele>
        <time>2018-01-07T09:55:12Z</time>
      </trkpt>
      <trkpt lat="45.87141" lon="4.74901">
        <ele>225</ele>
        <time>2018-01-07T09:55:13Z</time>
      </trkpt>
      <trkpt lat="45.87138" lon="4.74894">
        <ele>225</ele>
        <time>2018-01-07T09:55:14Z</time>
      </trkpt>
      <trkpt lat="45.87135" lon="4.74886">
        <ele>225</ele>
        <time>2018-01-07T09:55:15Z</time>
      </trkpt>
      <trkpt lat="45.87134" lon="4.74876">
        <ele>225</ele>
        <time>2018-01-07T09:55:16Z</time>
      </trkpt>
      <trkpt lat="45.87133" lon="4.74868">
        <ele>225</ele>
        <time>2018-01-07T09:55:17Z</time>
      </trkpt>
      <trkpt lat="45.87135" lon="4.74859">
        <ele>224</ele>
        <time>2018-01-07T09:55:18Z</time>
      </trkpt>
      <trkpt lat="45.87133" lon="4.7485">
        <ele>224</ele>
        <time>2018-01-07T09:55:19Z</time>
      </trkpt>
      <trkpt lat="45.87134" lon="4.74841">
        <ele>224</ele>
        <time>2018-01-07T09:55:20Z</time>
      </trkpt>
      <trkpt lat="45.87134" lon="4.74832">
        <ele>223</ele>
        <time>2018-01-07T09:55:21Z</time>
      </trkpt>
      <trkpt lat="45.87133" lon="4.74823">
        <ele>223</ele>
        <time>2018-01-07T09:55:22Z</time>
      </trkpt>
      <trkpt lat="45.87132" lon="4.74814">
        <ele>223</ele>
        <time>2018-01-07T09:55:23Z</time>
      </trkpt>
      <trkpt lat="45.87132" lon="4.74805">
        <ele>222</ele>
        <time>2018-01-07T09:55:24Z</time>
      </trkpt>
      <trkpt lat="45.87131" lon="4.74795">
        <ele>222</ele>
        <time>2018-01-07T09:55:25Z</time>
      </trkpt>
      <trkpt lat="45.8713" lon="4.74787">
        <ele>222</ele>
        <time>2018-01-07T09:55:26Z</time>
      </trkpt>
      <trkpt lat="45.87129" lon="4.74778">
        <ele>222</ele>
        <time>2018-01-07T09:55:27Z</time>
      </trkpt>
      <trkpt lat="45.87129" lon="4.74769">
        <ele>222</ele>
        <time>2018-01-07T09:55:28Z</time>
      </trkpt>
      <trkpt lat="45.87128" lon="4.74761">
        <ele>222</ele>
        <time>2018-01-07T09:55:29Z</time>
      </trkpt>
      <trkpt lat="45.87128" lon="4.74751">
        <ele>222</ele>
        <time>2018-01-07T09:55:30Z</time>
      </trkpt>
      <trkpt lat="45.87128" lon="4.74742">
        <ele>221</ele>
        <time>2018-01-07T09:55:31Z</time>
      </trkpt>
      <trkpt lat="45.87127" lon="4.74734">
        <ele>221</ele>
        <time>2018-01-07T09:55:32Z</time>
      </trkpt>
      <trkpt lat="45.87127" lon="4.74725">
        <ele>221</ele>
        <time>2018-01-07T09:55:33Z</time>
      </trkpt>
      <trkpt lat="45.87126" lon="4.74717">
        <ele>221</ele>
        <time>2018-01-07T09:55:34Z</time>
      </trkpt>
      <trkpt lat="45.87126" lon="4.74708">
        <ele>221</ele>
        <time>2018-01-07T09:55:35Z</time>
      </trkpt>
      <trkpt lat="45.87125" lon="4.74699">
        <ele>221</ele>
        <time>2018-01-07T09:55:36Z</time>
      </trkpt>
      <trkpt lat="45.87125" lon="4.7469">
        <ele>221</ele>
        <time>2018-01-07T09:55:37Z</time>
      </trkpt>
      <trkpt lat="45.87125" lon="4.74682">
        <ele>221</ele>
        <time>2018-01-07T09:55:38Z</time>
      </trkpt>
      <trkpt lat="45.87125" lon="4.74674">
        <ele>221</ele>
        <time>2018-01-07T09:55:39Z</time>
      </trkpt>
      <trkpt lat="45.87124" lon="4.74667">
        <ele>221</ele>
        <time>2018-01-07T09:55:40Z</time>
      </trkpt>
      <trkpt lat="45.87123" lon="4.74659">
        <ele>222</ele>
        <time>2018-01-07T09:55:41Z</time>
      </trkpt>
      <trkpt lat="45.87124" lon="4.74651">
        <ele>222</ele>
        <time>2018-01-07T09:55:42Z</time>
      </trkpt>
      <trkpt lat="45.87123" lon="4.74642">
        <ele>222</ele>
        <time>2018-01-07T09:55:43Z</time>
      </trkpt>
      <trkpt lat="45.87122" lon="4.74635">
        <ele>222</ele>
        <time>2018-01-07T09:55:44Z</time>
      </trkpt>
      <trkpt lat="45.87123" lon="4.74627">
        <ele>222</ele>
        <time>2018-01-07T09:55:45Z</time>
      </trkpt>
      <trkpt lat="45.87122" lon="4.74618">
        <ele>222</ele>
        <time>2018-01-07T09:55:46Z</time>
      </trkpt>
      <trkpt lat="45.87121" lon="4.74609">
        <ele>222</ele>
        <time>2018-01-07T09:55:47Z</time>
      </trkpt>
      <trkpt lat="45.87121" lon="4.74601">
        <ele>222</ele>
        <time>2018-01-07T09:55:48Z</time>
      </trkpt>
      <trkpt lat="45.87119" lon="4.74594">
        <ele>222</ele>
        <time>2018-01-07T09:55:49Z</time>
      </trkpt>
      <trkpt lat="45.87117" lon="4.74585">
        <ele>222</ele>
        <time>2018-01-07T09:55:50Z</time>
      </trkpt>
      <trkpt lat="45.87116" lon="4.74577">
        <ele>220</ele>
        <time>2018-01-07T09:55:51Z</time>
      </trkpt>
      <trkpt lat="45.87115" lon="4.74569">
        <ele>220</ele>
        <time>2018-01-07T09:55:52Z</time>
      </trkpt>
      <trkpt lat="45.87113" lon="4.74561">
        <ele>220</ele>
        <time>2018-01-07T09:55:53Z</time>
      </trkpt>
      <trkpt lat="45.87112" lon="4.74555">
        <ele>220</ele>
        <time>2018-01-07T09:55:54Z</time>
      </trkpt>
      <trkpt lat="45.87109" lon="4.74545">
        <ele>220</ele>
        <time>2018-01-07T09:55:56Z</time>
      </trkpt>
      <trkpt lat="45.87108" lon="4.7454">
        <ele>220</ele>
        <time>2018-01-07T09:55:57Z</time>
      </trkpt>
      <trkpt lat="45.87113" lon="4.7453">
        <ele>220</ele>
        <time>2018-01-07T09:56:00Z</time>
      </trkpt>
      <trkpt lat="45.87115" lon="4.74526">
        <ele>220</ele>
        <time>2018-01-07T09:56:01Z</time>
      </trkpt>
      <trkpt lat="45.8712" lon="4.74516">
        <ele>219</ele>
        <time>2018-01-07T09:56:03Z</time>
      </trkpt>
      <trkpt lat="45.87121" lon="4.7451">
        <ele>219</ele>
        <time>2018-01-07T09:56:04Z</time>
      </trkpt>
      <trkpt lat="45.87119" lon="4.74498">
        <ele>218</ele>
        <time>2018-01-07T09:56:06Z</time>
      </trkpt>
      <trkpt lat="45.87118" lon="4.74492">
        <ele>218</ele>
        <time>2018-01-07T09:56:07Z</time>
      </trkpt>
      <trkpt lat="45.87115" lon="4.74486">
        <ele>218</ele>
        <time>2018-01-07T09:56:08Z</time>
      </trkpt>
      <trkpt lat="45.87114" lon="4.74477">
        <ele>218</ele>
        <time>2018-01-07T09:56:09Z</time>
      </trkpt>
      <trkpt lat="45.87113" lon="4.74467">
        <ele>218</ele>
        <time>2018-01-07T09:56:11Z</time>
      </trkpt>
      <trkpt lat="45.87111" lon="4.74462">
        <ele>218</ele>
        <time>2018-01-07T09:56:12Z</time>
      </trkpt>
      <trkpt lat="45.8711" lon="4.74456">
        <ele>218</ele>
        <time>2018-01-07T09:56:13Z</time>
      </trkpt>
      <trkpt lat="45.87108" lon="4.74449">
        <ele>218</ele>
        <time>2018-01-07T09:56:14Z</time>
      </trkpt>
      <trkpt lat="45.87108" lon="4.74443">
        <ele>218</ele>
        <time>2018-01-07T09:56:15Z</time>
      </trkpt>
      <trkpt lat="45.87106" lon="4.74436">
        <ele>218</ele>
        <time>2018-01-07T09:56:16Z</time>
      </trkpt>
      <trkpt lat="45.87103" lon="4.74426">
        <ele>218</ele>
        <time>2018-01-07T09:56:17Z</time>
      </trkpt>
      <trkpt lat="45.87102" lon="4.74418">
        <ele>218</ele>
        <time>2018-01-07T09:56:18Z</time>
      </trkpt>
      <trkpt lat="45.87101" lon="4.74411">
        <ele>218</ele>
        <time>2018-01-07T09:56:19Z</time>
      </trkpt>
      <trkpt lat="45.87099" lon="4.74404">
        <ele>218</ele>
        <time>2018-01-07T09:56:20Z</time>
      </trkpt>
      <trkpt lat="45.87099" lon="4.74396">
        <ele>218</ele>
        <time>2018-01-07T09:56:21Z</time>
      </trkpt>
      <trkpt lat="45.87097" lon="4.74389">
        <ele>218</ele>
        <time>2018-01-07T09:56:22Z</time>
      </trkpt>
      <trkpt lat="45.87096" lon="4.74382">
        <ele>218</ele>
        <time>2018-01-07T09:56:23Z</time>
      </trkpt>
      <trkpt lat="45.87096" lon="4.74376">
        <ele>218</ele>
        <time>2018-01-07T09:56:24Z</time>
      </trkpt>
      <trkpt lat="45.87093" lon="4.74369">
        <ele>218</ele>
        <time>2018-01-07T09:56:25Z</time>
      </trkpt>
      <trkpt lat="45.87092" lon="4.74362">
        <ele>218</ele>
        <time>2018-01-07T09:56:26Z</time>
      </trkpt>
      <trkpt lat="45.8709" lon="4.74355">
        <ele>218</ele>
        <time>2018-01-07T09:56:27Z</time>
      </trkpt>
      <trkpt lat="45.8709" lon="4.74345">
        <ele>218</ele>
        <time>2018-01-07T09:56:28Z</time>
      </trkpt>
      <trkpt lat="45.87088" lon="4.74339">
        <ele>219</ele>
        <time>2018-01-07T09:56:29Z</time>
      </trkpt>
      <trkpt lat="45.87086" lon="4.74332">
        <ele>219</ele>
        <time>2018-01-07T09:56:30Z</time>
      </trkpt>
      <trkpt lat="45.87085" lon="4.74324">
        <ele>218</ele>
        <time>2018-01-07T09:56:31Z</time>
      </trkpt>
      <trkpt lat="45.87083" lon="4.74316">
        <ele>218</ele>
        <time>2018-01-07T09:56:32Z</time>
      </trkpt>
      <trkpt lat="45.87082" lon="4.74307">
        <ele>218</ele>
        <time>2018-01-07T09:56:33Z</time>
      </trkpt>
      <trkpt lat="45.87081" lon="4.74299">
        <ele>218</ele>
        <time>2018-01-07T09:56:34Z</time>
      </trkpt>
      <trkpt lat="45.87081" lon="4.74291">
        <ele>217</ele>
        <time>2018-01-07T09:56:35Z</time>
      </trkpt>
      <trkpt lat="45.8708" lon="4.74282">
        <ele>217</ele>
        <time>2018-01-07T09:56:36Z</time>
      </trkpt>
      <trkpt lat="45.8708" lon="4.74274">
        <ele>216</ele>
        <time>2018-01-07T09:56:37Z</time>
      </trkpt>
      <trkpt lat="45.87079" lon="4.74265">
        <ele>216</ele>
        <time>2018-01-07T09:56:38Z</time>
      </trkpt>
      <trkpt lat="45.87078" lon="4.74256">
        <ele>215</ele>
        <time>2018-01-07T09:56:39Z</time>
      </trkpt>
      <trkpt lat="45.87078" lon="4.74246">
        <ele>214</ele>
        <time>2018-01-07T09:56:40Z</time>
      </trkpt>
      <trkpt lat="45.87077" lon="4.74236">
        <ele>214</ele>
        <time>2018-01-07T09:56:41Z</time>
      </trkpt>
      <trkpt lat="45.87076" lon="4.74226">
        <ele>214</ele>
        <time>2018-01-07T09:56:42Z</time>
      </trkpt>
      <trkpt lat="45.87075" lon="4.74216">
        <ele>214</ele>
        <time>2018-01-07T09:56:43Z</time>
      </trkpt>
      <trkpt lat="45.87076" lon="4.74203">
        <ele>213</ele>
        <time>2018-01-07T09:56:44Z</time>
      </trkpt>
      <trkpt lat="45.87075" lon="4.74193">
        <ele>213</ele>
        <time>2018-01-07T09:56:45Z</time>
      </trkpt>
      <trkpt lat="45.87075" lon="4.74181">
        <ele>212</ele>
        <time>2018-01-07T09:56:46Z</time>
      </trkpt>
      <trkpt lat="45.87074" lon="4.7417">
        <ele>212</ele>
        <time>2018-01-07T09:56:47Z</time>
      </trkpt>
      <trkpt lat="45.87074" lon="4.74161">
        <ele>212</ele>
        <time>2018-01-07T09:56:48Z</time>
      </trkpt>
      <trkpt lat="45.87075" lon="4.74152">
        <ele>212</ele>
        <time>2018-01-07T09:56:49Z</time>
      </trkpt>
      <trkpt lat="45.87076" lon="4.74143">
        <ele>212</ele>
        <time>2018-01-07T09:56:50Z</time>
      </trkpt>
      <trkpt lat="45.87076" lon="4.74135">
        <ele>212</ele>
        <time>2018-01-07T09:56:51Z</time>
      </trkpt>
      <trkpt lat="45.87076" lon="4.74127">
        <ele>212</ele>
        <time>2018-01-07T09:56:52Z</time>
      </trkpt>
      <trkpt lat="45.87076" lon="4.74119">
        <ele>212</ele>
        <time>2018-01-07T09:56:53Z</time>
      </trkpt>
      <trkpt lat="45.87077" lon="4.7411">
        <ele>212</ele>
        <time>2018-01-07T09:56:54Z</time>
      </trkpt>
      <trkpt lat="45.87079" lon="4.74097">
        <ele>212</ele>
        <time>2018-01-07T09:56:55Z</time>
      </trkpt>
      <trkpt lat="45.87079" lon="4.74089">
        <ele>212</ele>
        <time>2018-01-07T09:56:56Z</time>
      </trkpt>
      <trkpt lat="45.87079" lon="4.7408">
        <ele>213</ele>
        <time>2018-01-07T09:56:57Z</time>
      </trkpt>
      <trkpt lat="45.87079" lon="4.74073">
        <ele>213</ele>
        <time>2018-01-07T09:56:58Z</time>
      </trkpt>
      <trkpt lat="45.87078" lon="4.74066">
        <ele>214</ele>
        <time>2018-01-07T09:56:59Z</time>
      </trkpt>
      <trkpt lat="45.87078" lon="4.74058">
        <ele>214</ele>
        <time>2018-01-07T09:57:00Z</time>
      </trkpt>
      <trkpt lat="45.87077" lon="4.74051">
        <ele>214</ele>
        <time>2018-01-07T09:57:01Z</time>
      </trkpt>
      <trkpt lat="45.87077" lon="4.74044">
        <ele>215</ele>
        <time>2018-01-07T09:57:02Z</time>
      </trkpt>
      <trkpt lat="45.87076" lon="4.74037">
        <ele>215</ele>
        <time>2018-01-07T09:57:03Z</time>
      </trkpt>
      <trkpt lat="45.87076" lon="4.74029">
        <ele>215</ele>
        <time>2018-01-07T09:57:04Z</time>
      </trkpt>
      <trkpt lat="45.87076" lon="4.74021">
        <ele>215</ele>
        <time>2018-01-07T09:57:05Z</time>
      </trkpt>
      <trkpt lat="45.87075" lon="4.74014">
        <ele>215</ele>
        <time>2018-01-07T09:57:06Z</time>
      </trkpt>
      <trkpt lat="45.87075" lon="4.74006">
        <ele>216</ele>
        <time>2018-01-07T09:57:07Z</time>
      </trkpt>
      <trkpt lat="45.87075" lon="4.73999">
        <ele>217</ele>
        <time>2018-01-07T09:57:08Z</time>
      </trkpt>
      <trkpt lat="45.87075" lon="4.73991">
        <ele>217</ele>
        <time>2018-01-07T09:57:09Z</time>
      </trkpt>
      <trkpt lat="45.87076" lon="4.73984">
        <ele>217</ele>
        <time>2018-01-07T09:57:10Z</time>
      </trkpt>
      <trkpt lat="45.87075" lon="4.73978">
        <ele>217</ele>
        <time>2018-01-07T09:57:11Z</time>
      </trkpt>
      <trkpt lat="45.87076" lon="4.73965">
        <ele>217</ele>
        <time>2018-01-07T09:57:13Z</time>
      </trkpt>
      <trkpt lat="45.87076" lon="4.73956">
        <ele>218</ele>
        <time>2018-01-07T09:57:14Z</time>
      </trkpt>
      <trkpt lat="45.87076" lon="4.73944">
        <ele>218</ele>
        <time>2018-01-07T09:57:16Z</time>
      </trkpt>
      <trkpt lat="45.87077" lon="4.73938">
        <ele>218</ele>
        <time>2018-01-07T09:57:17Z</time>
      </trkpt>
      <trkpt lat="45.87077" lon="4.73926">
        <ele>218</ele>
        <time>2018-01-07T09:57:19Z</time>
      </trkpt>
      <trkpt lat="45.87076" lon="4.7392">
        <ele>218</ele>
        <time>2018-01-07T09:57:20Z</time>
      </trkpt>
      <trkpt lat="45.87076" lon="4.73913">
        <ele>218</ele>
        <time>2018-01-07T09:57:21Z</time>
      </trkpt>
      <trkpt lat="45.87076" lon="4.73905">
        <ele>218</ele>
        <time>2018-01-07T09:57:22Z</time>
      </trkpt>
      <trkpt lat="45.87076" lon="4.73897">
        <ele>218</ele>
        <time>2018-01-07T09:57:23Z</time>
      </trkpt>
      <trkpt lat="45.87076" lon="4.7389">
        <ele>218</ele>
        <time>2018-01-07T09:57:24Z</time>
      </trkpt>
      <trkpt lat="45.87076" lon="4.73883">
        <ele>218</ele>
        <time>2018-01-07T09:57:25Z</time>
      </trkpt>
      <trkpt lat="45.87077" lon="4.73875">
        <ele>218</ele>
        <time>2018-01-07T09:57:26Z</time>
      </trkpt>
      <trkpt lat="45.87077" lon="4.73868">
        <ele>218</ele>
        <time>2018-01-07T09:57:27Z</time>
      </trkpt>
      <trkpt lat="45.87078" lon="4.7386">
        <ele>218</ele>
        <time>2018-01-07T09:57:28Z</time>
      </trkpt>
      <trkpt lat="45.87078" lon="4.73852">
        <ele>218</ele>
        <time>2018-01-07T09:57:29Z</time>
      </trkpt>
      <trkpt lat="45.87078" lon="4.73845">
        <ele>218</ele>
        <time>2018-01-07T09:57:30Z</time>
      </trkpt>
      <trkpt lat="45.87077" lon="4.73837">
        <ele>217</ele>
        <time>2018-01-07T09:57:31Z</time>
      </trkpt>
      <trkpt lat="45.87077" lon="4.73829">
        <ele>217</ele>
        <time>2018-01-07T09:57:32Z</time>
      </trkpt>
      <trkpt lat="45.87077" lon="4.73821">
        <ele>217</ele>
        <time>2018-01-07T09:57:33Z</time>
      </trkpt>
      <trkpt lat="45.87077" lon="4.73812">
        <ele>217</ele>
        <time>2018-01-07T09:57:34Z</time>
      </trkpt>
      <trkpt lat="45.87076" lon="4.73804">
        <ele>217</ele>
        <time>2018-01-07T09:57:35Z</time>
      </trkpt>
      <trkpt lat="45.87077" lon="4.73796">
        <ele>217</ele>
        <time>2018-01-07T09:57:36Z</time>
      </trkpt>
      <trkpt lat="45.87077" lon="4.73787">
        <ele>217</ele>
        <time>2018-01-07T09:57:37Z</time>
      </trkpt>
      <trkpt lat="45.87078" lon="4.73778">
        <ele>217</ele>
        <time>2018-01-07T09:57:38Z</time>
      </trkpt>
      <trkpt lat="45.87077" lon="4.73769">
        <ele>217</ele>
        <time>2018-01-07T09:57:39Z</time>
      </trkpt>
      <trkpt lat="45.87077" lon="4.73761">
        <ele>216</ele>
        <time>2018-01-07T09:57:40Z</time>
      </trkpt>
      <trkpt lat="45.87078" lon="4.73753">
        <ele>216</ele>
        <time>2018-01-07T09:57:41Z</time>
      </trkpt>
      <trkpt lat="45.87079" lon="4.73744">
        <ele>216</ele>
        <time>2018-01-07T09:57:42Z</time>
      </trkpt>
      <trkpt lat="45.87079" lon="4.73735">
        <ele>216</ele>
        <time>2018-01-07T09:57:43Z</time>
      </trkpt>
      <trkpt lat="45.87079" lon="4.73728">
        <ele>216</ele>
        <time>2018-01-07T09:57:44Z</time>
      </trkpt>
      <trkpt lat="45.8708" lon="4.7372">
        <ele>217</ele>
        <time>2018-01-07T09:57:45Z</time>
      </trkpt>
      <trkpt lat="45.87081" lon="4.73711">
        <ele>217</ele>
        <time>2018-01-07T09:57:46Z</time>
      </trkpt>
      <trkpt lat="45.87082" lon="4.73702">
        <ele>217</ele>
        <time>2018-01-07T09:57:47Z</time>
      </trkpt>
      <trkpt lat="45.87083" lon="4.73694">
        <ele>217</ele>
        <time>2018-01-07T09:57:48Z</time>
      </trkpt>
      <trkpt lat="45.87083" lon="4.73686">
        <ele>215</ele>
        <time>2018-01-07T09:57:49Z</time>
      </trkpt>
      <trkpt lat="45.87085" lon="4.73678">
        <ele>215</ele>
        <time>2018-01-07T09:57:50Z</time>
      </trkpt>
      <trkpt lat="45.87086" lon="4.73669">
        <ele>216</ele>
        <time>2018-01-07T09:57:51Z</time>
      </trkpt>
      <trkpt lat="45.87087" lon="4.7366">
        <ele>215</ele>
        <time>2018-01-07T09:57:52Z</time>
      </trkpt>
      <trkpt lat="45.87088" lon="4.7365">
        <ele>215</ele>
        <time>2018-01-07T09:57:53Z</time>
      </trkpt>
      <trkpt lat="45.8709" lon="4.73641">
        <ele>214</ele>
        <time>2018-01-07T09:57:54Z</time>
      </trkpt>
      <trkpt lat="45.87091" lon="4.73631">
        <ele>214</ele>
        <time>2018-01-07T09:57:55Z</time>
      </trkpt>
      <trkpt lat="45.87093" lon="4.73619">
        <ele>214</ele>
        <time>2018-01-07T09:57:56Z</time>
      </trkpt>
      <trkpt lat="45.87095" lon="4.7361">
        <ele>214</ele>
        <time>2018-01-07T09:57:57Z</time>
      </trkpt>
      <trkpt lat="45.87096" lon="4.736">
        <ele>214</ele>
        <time>2018-01-07T09:57:58Z</time>
      </trkpt>
      <trkpt lat="45.87097" lon="4.7359">
        <ele>214</ele>
        <time>2018-01-07T09:57:59Z</time>
      </trkpt>
      <trkpt lat="45.87099" lon="4.7358">
        <ele>214</ele>
        <time>2018-01-07T09:58:00Z</time>
      </trkpt>
      <trkpt lat="45.871" lon="4.73571">
        <ele>213</ele>
        <time>2018-01-07T09:58:01Z</time>
      </trkpt>
      <trkpt lat="45.87101" lon="4.73561">
        <ele>213</ele>
        <time>2018-01-07T09:58:02Z</time>
      </trkpt>
      <trkpt lat="45.87102" lon="4.73551">
        <ele>213</ele>
        <time>2018-01-07T09:58:03Z</time>
      </trkpt>
      <trkpt lat="45.87103" lon="4.73542">
        <ele>213</ele>
        <time>2018-01-07T09:58:04Z</time>
      </trkpt>
      <trkpt lat="45.87104" lon="4.73532">
        <ele>213</ele>
        <time>2018-01-07T09:58:05Z</time>
      </trkpt>
      <trkpt lat="45.87104" lon="4.73522">
        <ele>213</ele>
        <time>2018-01-07T09:58:06Z</time>
      </trkpt>
      <trkpt lat="45.87104" lon="4.73513">
        <ele>213</ele>
        <time>2018-01-07T09:58:07Z</time>
      </trkpt>
      <trkpt lat="45.87105" lon="4.73504">
        <ele>213</ele>
        <time>2018-01-07T09:58:08Z</time>
      </trkpt>
      <trkpt lat="45.87105" lon="4.73495">
        <ele>212</ele>
        <time>2018-01-07T09:58:09Z</time>
      </trkpt>
      <trkpt lat="45.87105" lon="4.73485">
        <ele>212</ele>
        <time>2018-01-07T09:58:10Z</time>
      </trkpt>
      <trkpt lat="45.87106" lon="4.73474">
        <ele>212</ele>
        <time>2018-01-07T09:58:11Z</time>
      </trkpt>
      <trkpt lat="45.87107" lon="4.73465">
        <ele>212</ele>
        <time>2018-01-07T09:58:12Z</time>
      </trkpt>
      <trkpt lat="45.87107" lon="4.73455">
        <ele>212</ele>
        <time>2018-01-07T09:58:13Z</time>
      </trkpt>
      <trkpt lat="45.87107" lon="4.73446">
        <ele>212</ele>
        <time>2018-01-07T09:58:14Z</time>
      </trkpt>
      <trkpt lat="45.87107" lon="4.73437">
        <ele>212</ele>
        <time>2018-01-07T09:58:15Z</time>
      </trkpt>
      <trkpt lat="45.87108" lon="4.73427">
        <ele>212</ele>
        <time>2018-01-07T09:58:16Z</time>
      </trkpt>
      <trkpt lat="45.87108" lon="4.73418">
        <ele>212</ele>
        <time>2018-01-07T09:58:17Z</time>
      </trkpt>
      <trkpt lat="45.87109" lon="4.73408">
        <ele>211</ele>
        <time>2018-01-07T09:58:18Z</time>
      </trkpt>
      <trkpt lat="45.87109" lon="4.73398">
        <ele>211</ele>
        <time>2018-01-07T09:58:19Z</time>
      </trkpt>
      <trkpt lat="45.87109" lon="4.73389">
        <ele>211</ele>
        <time>2018-01-07T09:58:20Z</time>
      </trkpt>
      <trkpt lat="45.8711" lon="4.73379">
        <ele>211</ele>
        <time>2018-01-07T09:58:21Z</time>
      </trkpt>
      <trkpt lat="45.87111" lon="4.73369">
        <ele>211</ele>
        <time>2018-01-07T09:58:22Z</time>
      </trkpt>
      <trkpt lat="45.87112" lon="4.73359">
        <ele>210</ele>
        <time>2018-01-07T09:58:23Z</time>
      </trkpt>
      <trkpt lat="45.87112" lon="4.73349">
        <ele>210</ele>
        <time>2018-01-07T09:58:24Z</time>
      </trkpt>
      <trkpt lat="45.87114" lon="4.73339">
        <ele>210</ele>
        <time>2018-01-07T09:58:25Z</time>
      </trkpt>
      <trkpt lat="45.87115" lon="4.73328">
        <ele>209</ele>
        <time>2018-01-07T09:58:26Z</time>
      </trkpt>
      <trkpt lat="45.87116" lon="4.73318">
        <ele>209</ele>
        <time>2018-01-07T09:58:27Z</time>
      </trkpt>
      <trkpt lat="45.87117" lon="4.73308">
        <ele>209</ele>
        <time>2018-01-07T09:58:28Z</time>
      </trkpt>
      <trkpt lat="45.87118" lon="4.73299">
        <ele>208</ele>
        <time>2018-01-07T09:58:29Z</time>
      </trkpt>
      <trkpt lat="45.87121" lon="4.73287">
        <ele>208</ele>
        <time>2018-01-07T09:58:30Z</time>
      </trkpt>
      <trkpt lat="45.87123" lon="4.73276">
        <ele>208</ele>
        <time>2018-01-07T09:58:31Z</time>
      </trkpt>
      <trkpt lat="45.87124" lon="4.73266">
        <ele>208</ele>
        <time>2018-01-07T09:58:32Z</time>
      </trkpt>
      <trkpt lat="45.87126" lon="4.73256">
        <ele>208</ele>
        <time>2018-01-07T09:58:33Z</time>
      </trkpt>
      <trkpt lat="45.87129" lon="4.73246">
        <ele>206</ele>
        <time>2018-01-07T09:58:34Z</time>
      </trkpt>
      <trkpt lat="45.87132" lon="4.73236">
        <ele>206</ele>
        <time>2018-01-07T09:58:35Z</time>
      </trkpt>
      <trkpt lat="45.87137" lon="4.73226">
        <ele>206</ele>
        <time>2018-01-07T09:58:36Z</time>
      </trkpt>
      <trkpt lat="45.8714" lon="4.73217">
        <ele>206</ele>
        <time>2018-01-07T09:58:37Z</time>
      </trkpt>
      <trkpt lat="45.87144" lon="4.73208">
        <ele>206</ele>
        <time>2018-01-07T09:58:38Z</time>
      </trkpt>
      <trkpt lat="45.87148" lon="4.73197">
        <ele>205</ele>
        <time>2018-01-07T09:58:39Z</time>
      </trkpt>
      <trkpt lat="45.87151" lon="4.73188">
        <ele>205</ele>
        <time>2018-01-07T09:58:40Z</time>
      </trkpt>
      <trkpt lat="45.87154" lon="4.73178">
        <ele>205</ele>
        <time>2018-01-07T09:58:41Z</time>
      </trkpt>
      <trkpt lat="45.87158" lon="4.73169">
        <ele>204</ele>
        <time>2018-01-07T09:58:42Z</time>
      </trkpt>
      <trkpt lat="45.87161" lon="4.7316">
        <ele>204</ele>
        <time>2018-01-07T09:58:43Z</time>
      </trkpt>
      <trkpt lat="45.87164" lon="4.7315">
        <ele>204</ele>
        <time>2018-01-07T09:58:44Z</time>
      </trkpt>
      <trkpt lat="45.87166" lon="4.7314">
        <ele>204</ele>
        <time>2018-01-07T09:58:45Z</time>
      </trkpt>
      <trkpt lat="45.87167" lon="4.73129">
        <ele>202</ele>
        <time>2018-01-07T09:58:46Z</time>
      </trkpt>
      <trkpt lat="45.87169" lon="4.73119">
        <ele>202</ele>
        <time>2018-01-07T09:58:47Z</time>
      </trkpt>
      <trkpt lat="45.87169" lon="4.73108">
        <ele>202</ele>
        <time>2018-01-07T09:58:48Z</time>
      </trkpt>
      <trkpt lat="45.87169" lon="4.73097">
        <ele>202</ele>
        <time>2018-01-07T09:58:49Z</time>
      </trkpt>
      <trkpt lat="45.8717" lon="4.73086">
        <ele>203</ele>
        <time>2018-01-07T09:58:50Z</time>
      </trkpt>
      <trkpt lat="45.87171" lon="4.73074">
        <ele>202</ele>
        <time>2018-01-07T09:58:51Z</time>
      </trkpt>
      <trkpt lat="45.87171" lon="4.73063">
        <ele>202</ele>
        <time>2018-01-07T09:58:52Z</time>
      </trkpt>
      <trkpt lat="45.87171" lon="4.7305">
        <ele>201</ele>
        <time>2018-01-07T09:58:53Z</time>
      </trkpt>
      <trkpt lat="45.87171" lon="4.73039">
        <ele>201</ele>
        <time>2018-01-07T09:58:54Z</time>
      </trkpt>
      <trkpt lat="45.87172" lon="4.73029">
        <ele>201</ele>
        <time>2018-01-07T09:58:55Z</time>
      </trkpt>
      <trkpt lat="45.87173" lon="4.73019">
        <ele>202</ele>
        <time>2018-01-07T09:58:56Z</time>
      </trkpt>
      <trkpt lat="45.87173" lon="4.7301">
        <ele>202</ele>
        <time>2018-01-07T09:58:57Z</time>
      </trkpt>
      <trkpt lat="45.87173" lon="4.73001">
        <ele>203</ele>
        <time>2018-01-07T09:58:58Z</time>
      </trkpt>
      <trkpt lat="45.87174" lon="4.72991">
        <ele>203</ele>
        <time>2018-01-07T09:58:59Z</time>
      </trkpt>
      <trkpt lat="45.87173" lon="4.72982">
        <ele>202</ele>
        <time>2018-01-07T09:59:00Z</time>
      </trkpt>
      <trkpt lat="45.87173" lon="4.72973">
        <ele>202</ele>
        <time>2018-01-07T09:59:01Z</time>
      </trkpt>
      <trkpt lat="45.87172" lon="4.72964">
        <ele>201</ele>
        <time>2018-01-07T09:59:02Z</time>
      </trkpt>
      <trkpt lat="45.87173" lon="4.72954">
        <ele>201</ele>
        <time>2018-01-07T09:59:03Z</time>
      </trkpt>
      <trkpt lat="45.87173" lon="4.72946">
        <ele>202</ele>
        <time>2018-01-07T09:59:04Z</time>
      </trkpt>
      <trkpt lat="45.87173" lon="4.72937">
        <ele>202</ele>
        <time>2018-01-07T09:59:05Z</time>
      </trkpt>
      <trkpt lat="45.87173" lon="4.72928">
        <ele>202</ele>
        <time>2018-01-07T09:59:06Z</time>
      </trkpt>
      <trkpt lat="45.87173" lon="4.72919">
        <ele>203</ele>
        <time>2018-01-07T09:59:07Z</time>
      </trkpt>
      <trkpt lat="45.87174" lon="4.72909">
        <ele>202</ele>
        <time>2018-01-07T09:59:08Z</time>
      </trkpt>
      <trkpt lat="45.87174" lon="4.72898">
        <ele>201</ele>
        <time>2018-01-07T09:59:09Z</time>
      </trkpt>
      <trkpt lat="45.87173" lon="4.72887">
        <ele>201</ele>
        <time>2018-01-07T09:59:10Z</time>
      </trkpt>
      <trkpt lat="45.87174" lon="4.72876">
        <ele>200</ele>
        <time>2018-01-07T09:59:11Z</time>
      </trkpt>
      <trkpt lat="45.87174" lon="4.72865">
        <ele>200</ele>
        <time>2018-01-07T09:59:12Z</time>
      </trkpt>
      <trkpt lat="45.87173" lon="4.72853">
        <ele>200</ele>
        <time>2018-01-07T09:59:13Z</time>
      </trkpt>
      <trkpt lat="45.87174" lon="4.72842">
        <ele>201</ele>
        <time>2018-01-07T09:59:14Z</time>
      </trkpt>
      <trkpt lat="45.87173" lon="4.7283">
        <ele>201</ele>
        <time>2018-01-07T09:59:15Z</time>
      </trkpt>
      <trkpt lat="45.87173" lon="4.72818">
        <ele>200</ele>
        <time>2018-01-07T09:59:16Z</time>
      </trkpt>
      <trkpt lat="45.87174" lon="4.72806">
        <ele>199</ele>
        <time>2018-01-07T09:59:17Z</time>
      </trkpt>
      <trkpt lat="45.87174" lon="4.72795">
        <ele>199</ele>
        <time>2018-01-07T09:59:18Z</time>
      </trkpt>
      <trkpt lat="45.87174" lon="4.72783">
        <ele>199</ele>
        <time>2018-01-07T09:59:19Z</time>
      </trkpt>
      <trkpt lat="45.87173" lon="4.72772">
        <ele>199</ele>
        <time>2018-01-07T09:59:20Z</time>
      </trkpt>
      <trkpt lat="45.87173" lon="4.7276">
        <ele>200</ele>
        <time>2018-01-07T09:59:21Z</time>
      </trkpt>
      <trkpt lat="45.87173" lon="4.72749">
        <ele>200</ele>
        <time>2018-01-07T09:59:22Z</time>
      </trkpt>
      <trkpt lat="45.87173" lon="4.72742">
        <ele>200</ele>
        <time>2018-01-07T09:59:23Z</time>
      </trkpt>
      <trkpt lat="45.87174" lon="4.7273">
        <ele>199</ele>
        <time>2018-01-07T09:59:24Z</time>
      </trkpt>
      <trkpt lat="45.87177" lon="4.72718">
        <ele>199</ele>
        <time>2018-01-07T09:59:25Z</time>
      </trkpt>
      <trkpt lat="45.87179" lon="4.72706">
        <ele>199</ele>
        <time>2018-01-07T09:59:26Z</time>
      </trkpt>
      <trkpt lat="45.87182" lon="4.72694">
        <ele>199</ele>
        <time>2018-01-07T09:59:27Z</time>
      </trkpt>
      <trkpt lat="45.87185" lon="4.72683">
        <ele>199</ele>
        <time>2018-01-07T09:59:28Z</time>
      </trkpt>
      <trkpt lat="45.87188" lon="4.72672">
        <ele>199</ele>
        <time>2018-01-07T09:59:29Z</time>
      </trkpt>
      <trkpt lat="45.8719" lon="4.72662">
        <ele>199</ele>
        <time>2018-01-07T09:59:30Z</time>
      </trkpt>
      <trkpt lat="45.87193" lon="4.72652">
        <ele>199</ele>
        <time>2018-01-07T09:59:31Z</time>
      </trkpt>
      <trkpt lat="45.87195" lon="4.72642">
        <ele>199</ele>
        <time>2018-01-07T09:59:32Z</time>
      </trkpt>
      <trkpt lat="45.87198" lon="4.72632">
        <ele>199</ele>
        <time>2018-01-07T09:59:33Z</time>
      </trkpt>
      <trkpt lat="45.872" lon="4.72622">
        <ele>199</ele>
        <time>2018-01-07T09:59:34Z</time>
      </trkpt>
      <trkpt lat="45.87202" lon="4.72611">
        <ele>199</ele>
        <time>2018-01-07T09:59:35Z</time>
      </trkpt>
      <trkpt lat="45.87205" lon="4.72601">
        <ele>199</ele>
        <time>2018-01-07T09:59:36Z</time>
      </trkpt>
      <trkpt lat="45.87208" lon="4.72589">
        <ele>199</ele>
        <time>2018-01-07T09:59:37Z</time>
      </trkpt>
      <trkpt lat="45.8721" lon="4.72578">
        <ele>199</ele>
        <time>2018-01-07T09:59:38Z</time>
      </trkpt>
      <trkpt lat="45.87212" lon="4.72569">
        <ele>198</ele>
        <time>2018-01-07T09:59:39Z</time>
      </trkpt>
      <trkpt lat="45.87212" lon="4.72558">
        <ele>198</ele>
        <time>2018-01-07T09:59:40Z</time>
      </trkpt>
      <trkpt lat="45.87212" lon="4.72548">
        <ele>198</ele>
        <time>2018-01-07T09:59:41Z</time>
      </trkpt>
      <trkpt lat="45.87211" lon="4.72538">
        <ele>198</ele>
        <time>2018-01-07T09:59:42Z</time>
      </trkpt>
      <trkpt lat="45.87211" lon="4.72529">
        <ele>198</ele>
        <time>2018-01-07T09:59:43Z</time>
      </trkpt>
      <trkpt lat="45.8721" lon="4.72519">
        <ele>198</ele>
        <time>2018-01-07T09:59:44Z</time>
      </trkpt>
      <trkpt lat="45.8721" lon="4.72509">
        <ele>198</ele>
        <time>2018-01-07T09:59:45Z</time>
      </trkpt>
      <trkpt lat="45.87208" lon="4.72499">
        <ele>195</ele>
        <time>2018-01-07T09:59:46Z</time>
      </trkpt>
      <trkpt lat="45.87206" lon="4.7249">
        <ele>195</ele>
        <time>2018-01-07T09:59:47Z</time>
      </trkpt>
      <trkpt lat="45.87203" lon="4.72481">
        <ele>195</ele>
        <time>2018-01-07T09:59:48Z</time>
      </trkpt>
      <trkpt lat="45.872" lon="4.72473">
        <ele>195</ele>
        <time>2018-01-07T09:59:49Z</time>
      </trkpt>
      <trkpt lat="45.87197" lon="4.72462">
        <ele>195</ele>
        <time>2018-01-07T09:59:50Z</time>
      </trkpt>
      <trkpt lat="45.87194" lon="4.72451">
        <ele>194</ele>
        <time>2018-01-07T09:59:51Z</time>
      </trkpt>
      <trkpt lat="45.87192" lon="4.72442">
        <ele>194</ele>
        <time>2018-01-07T09:59:52Z</time>
      </trkpt>
      <trkpt lat="45.87188" lon="4.72435">
        <ele>194</ele>
        <time>2018-01-07T09:59:53Z</time>
      </trkpt>
      <trkpt lat="45.87185" lon="4.72427">
        <ele>194</ele>
        <time>2018-01-07T09:59:54Z</time>
      </trkpt>
      <trkpt lat="45.87182" lon="4.72419">
        <ele>194</ele>
        <time>2018-01-07T09:59:55Z</time>
      </trkpt>
      <trkpt lat="45.87178" lon="4.72409">
        <ele>192</ele>
        <time>2018-01-07T09:59:56Z</time>
      </trkpt>
      <trkpt lat="45.87175" lon="4.724">
        <ele>191</ele>
        <time>2018-01-07T09:59:57Z</time>
      </trkpt>
      <trkpt lat="45.87171" lon="4.72391">
        <ele>191</ele>
        <time>2018-01-07T09:59:58Z</time>
      </trkpt>
      <trkpt lat="45.87167" lon="4.72382">
        <ele>190</ele>
        <time>2018-01-07T09:59:59Z</time>
      </trkpt>
      <trkpt lat="45.87163" lon="4.72373">
        <ele>196</ele>
        <time>2018-01-07T10:00:00Z</time>
      </trkpt>
      <trkpt lat="45.87159" lon="4.72364">
        <ele>196</ele>
        <time>2018-01-07T10:00:01Z</time>
      </trkpt>
      <trkpt lat="45.87155" lon="4.72355">
        <ele>195</ele>
        <time>2018-01-07T10:00:02Z</time>
      </trkpt>
      <trkpt lat="45.87152" lon="4.72346">
        <ele>195</ele>
        <time>2018-01-07T10:00:03Z</time>
      </trkpt>
      <trkpt lat="45.87148" lon="4.72337">
        <ele>195</ele>
        <time>2018-01-07T10:00:04Z</time>
      </trkpt>
      <trkpt lat="45.87144" lon="4.7233">
        <ele>194</ele>
        <time>2018-01-07T10:00:05Z</time>
      </trkpt>
      <trkpt lat="45.8714" lon="4.72321">
        <ele>195</ele>
        <time>2018-01-07T10:00:06Z</time>
      </trkpt>
      <trkpt lat="45.87139" lon="4.72312">
        <ele>195</ele>
        <time>2018-01-07T10:00:07Z</time>
      </trkpt>
      <trkpt lat="45.87136" lon="4.72304">
        <ele>195</ele>
        <time>2018-01-07T10:00:08Z</time>
      </trkpt>
      <trkpt lat="45.87131" lon="4.72296">
        <ele>196</ele>
        <time>2018-01-07T10:00:09Z</time>
      </trkpt>
      <trkpt lat="45.87128" lon="4.72288">
        <ele>196</ele>
        <time>2018-01-07T10:00:10Z</time>
      </trkpt>
      <trkpt lat="45.87123" lon="4.72281">
        <ele>196</ele>
        <time>2018-01-07T10:00:11Z</time>
      </trkpt>
      <trkpt lat="45.87118" lon="4.72275">
        <ele>196</ele>
        <time>2018-01-07T10:00:12Z</time>
      </trkpt>
      <trkpt lat="45.87113" lon="4.72268">
        <ele>196</ele>
        <time>2018-01-07T10:00:13Z</time>
      </trkpt>
      <trkpt lat="45.87107" lon="4.72262">
        <ele>197</ele>
        <time>2018-01-07T10:00:14Z</time>
      </trkpt>
      <trkpt lat="45.87101" lon="4.72255">
        <ele>197</ele>
        <time>2018-01-07T10:00:15Z</time>
      </trkpt>
      <trkpt lat="45.87095" lon="4.72249">
        <ele>196</ele>
        <time>2018-01-07T10:00:16Z</time>
      </trkpt>
      <trkpt lat="45.87088" lon="4.72242">
        <ele>196</ele>
        <time>2018-01-07T10:00:17Z</time>
      </trkpt>
      <trkpt lat="45.87082" lon="4.72235">
        <ele>200</ele>
        <time>2018-01-07T10:00:18Z</time>
      </trkpt>
      <trkpt lat="45.87076" lon="4.72227">
        <ele>200</ele>
        <time>2018-01-07T10:00:19Z</time>
      </trkpt>
      <trkpt lat="45.87069" lon="4.72221">
        <ele>200</ele>
        <time>2018-01-07T10:00:20Z</time>
      </trkpt>
      <trkpt lat="45.87063" lon="4.72213">
        <ele>199</ele>
        <time>2018-01-07T10:00:21Z</time>
      </trkpt>
      <trkpt lat="45.87056" lon="4.72208">
        <ele>200</ele>
        <time>2018-01-07T10:00:22Z</time>
      </trkpt>
      <trkpt lat="45.87049" lon="4.72203">
        <ele>200</ele>
        <time>2018-01-07T10:00:23Z</time>
      </trkpt>
      <trkpt lat="45.87042" lon="4.72198">
        <ele>200</ele>
        <time>2018-01-07T10:00:24Z</time>
      </trkpt>
      <trkpt lat="45.87034" lon="4.72193">
        <ele>200</ele>
        <time>2018-01-07T10:00:25Z</time>
      </trkpt>
      <trkpt lat="45.87027" lon="4.72188">
        <ele>201</ele>
        <time>2018-01-07T10:00:26Z</time>
      </trkpt>
      <trkpt lat="45.87021" lon="4.72183">
        <ele>201</ele>
        <time>2018-01-07T10:00:27Z</time>
      </trkpt>
      <trkpt lat="45.87013" lon="4.72177">
        <ele>201</ele>
        <time>2018-01-07T10:00:28Z</time>
      </trkpt>
      <trkpt lat="45.87006" lon="4.72173">
        <ele>201</ele>
        <time>2018-01-07T10:00:29Z</time>
      </trkpt>
      <trkpt lat="45.86999" lon="4.72168">
        <ele>202</ele>
        <time>2018-01-07T10:00:30Z</time>
      </trkpt>
      <trkpt lat="45.86993" lon="4.72164">
        <ele>201</ele>
        <time>2018-01-07T10:00:31Z</time>
      </trkpt>
      <trkpt lat="45.86986" lon="4.7216">
        <ele>200</ele>
        <time>2018-01-07T10:00:32Z</time>
      </trkpt>
      <trkpt lat="45.86979" lon="4.72155">
        <ele>200</ele>
        <time>2018-01-07T10:00:33Z</time>
      </trkpt>
      <trkpt lat="45.86973" lon="4.72152">
        <ele>200</ele>
        <time>2018-01-07T10:00:34Z</time>
      </trkpt>
      <trkpt lat="45.86967" lon="4.72147">
        <ele>200</ele>
        <time>2018-01-07T10:00:35Z</time>
      </trkpt>
      <trkpt lat="45.86961" lon="4.72143">
        <ele>200</ele>
        <time>2018-01-07T10:00:36Z</time>
      </trkpt>
      <trkpt lat="45.86954" lon="4.7214">
        <ele>201</ele>
        <time>2018-01-07T10:00:37Z</time>
      </trkpt>
      <trkpt lat="45.86948" lon="4.72137">
        <ele>201</ele>
        <time>2018-01-07T10:00:38Z</time>
      </trkpt>
      <trkpt lat="45.86942" lon="4.72133">
        <ele>200</ele>
        <time>2018-01-07T10:00:39Z</time>
      </trkpt>
      <trkpt lat="45.86935" lon="4.72131">
        <ele>200</ele>
        <time>2018-01-07T10:00:40Z</time>
      </trkpt>
      <trkpt lat="45.86929" lon="4.72128">
        <ele>200</ele>
        <time>2018-01-07T10:00:41Z</time>
      </trkpt>
      <trkpt lat="45.86922" lon="4.72125">
        <ele>200</ele>
        <time>2018-01-07T10:00:42Z</time>
      </trkpt>
      <trkpt lat="45.86916" lon="4.72122">
        <ele>202</ele>
        <time>2018-01-07T10:00:43Z</time>
      </trkpt>
      <trkpt lat="45.86908" lon="4.7212">
        <ele>201</ele>
        <time>2018-01-07T10:00:44Z</time>
      </trkpt>
      <trkpt lat="45.86901" lon="4.72117">
        <ele>201</ele>
        <time>2018-01-07T10:00:45Z</time>
      </trkpt>
      <trkpt lat="45.86894" lon="4.72114">
        <ele>201</ele>
        <time>2018-01-07T10:00:46Z</time>
      </trkpt>
      <trkpt lat="45.86887" lon="4.72111">
        <ele>201</ele>
        <time>2018-01-07T10:00:47Z</time>
      </trkpt>
      <trkpt lat="45.8688" lon="4.7211">
        <ele>201</ele>
        <time>2018-01-07T10:00:48Z</time>
      </trkpt>
      <trkpt lat="45.86875" lon="4.72107">
        <ele>201</ele>
        <time>2018-01-07T10:00:49Z</time>
      </trkpt>
      <trkpt lat="45.8687" lon="4.72104">
        <ele>200</ele>
        <time>2018-01-07T10:00:50Z</time>
      </trkpt>
      <trkpt lat="45.86864" lon="4.72102">
        <ele>200</ele>
        <time>2018-01-07T10:00:51Z</time>
      </trkpt>
      <trkpt lat="45.86858" lon="4.72099">
        <ele>199</ele>
        <time>2018-01-07T10:00:52Z</time>
      </trkpt>
      <trkpt lat="45.86853" lon="4.72096">
        <ele>199</ele>
        <time>2018-01-07T10:00:53Z</time>
      </trkpt>
      <trkpt lat="45.86846" lon="4.72094">
        <ele>198</ele>
        <time>2018-01-07T10:00:54Z</time>
      </trkpt>
      <trkpt lat="45.86839" lon="4.72092">
        <ele>196</ele>
        <time>2018-01-07T10:00:55Z</time>
      </trkpt>
      <trkpt lat="45.86833" lon="4.7209">
        <ele>196</ele>
        <time>2018-01-07T10:00:56Z</time>
      </trkpt>
      <trkpt lat="45.86827" lon="4.72087">
        <ele>196</ele>
        <time>2018-01-07T10:00:57Z</time>
      </trkpt>
      <trkpt lat="45.86821" lon="4.72084">
        <ele>198</ele>
        <time>2018-01-07T10:00:58Z</time>
      </trkpt>
      <trkpt lat="45.86815" lon="4.72082">
        <ele>194</ele>
        <time>2018-01-07T10:00:59Z</time>
      </trkpt>
      <trkpt lat="45.86807" lon="4.72078">
        <ele>194</ele>
        <time>2018-01-07T10:01:00Z</time>
      </trkpt>
      <trkpt lat="45.86802" lon="4.72076">
        <ele>194</ele>
        <time>2018-01-07T10:01:01Z</time>
      </trkpt>
      <trkpt lat="45.86795" lon="4.72072">
        <ele>194</ele>
        <time>2018-01-07T10:01:02Z</time>
      </trkpt>
      <trkpt lat="45.86789" lon="4.7207">
        <ele>194</ele>
        <time>2018-01-07T10:01:03Z</time>
      </trkpt>
      <trkpt lat="45.86783" lon="4.72068">
        <ele>194</ele>
        <time>2018-01-07T10:01:04Z</time>
      </trkpt>
      <trkpt lat="45.86777" lon="4.72066">
        <ele>194</ele>
        <time>2018-01-07T10:01:05Z</time>
      </trkpt>
      <trkpt lat="45.86771" lon="4.72065">
        <ele>195</ele>
        <time>2018-01-07T10:01:06Z</time>
      </trkpt>
      <trkpt lat="45.86764" lon="4.72063">
        <ele>195</ele>
        <time>2018-01-07T10:01:07Z</time>
      </trkpt>
      <trkpt lat="45.86758" lon="4.72061">
        <ele>195</ele>
        <time>2018-01-07T10:01:08Z</time>
      </trkpt>
      <trkpt lat="45.86752" lon="4.72056">
        <ele>195</ele>
        <time>2018-01-07T10:01:09Z</time>
      </trkpt>
      <trkpt lat="45.86746" lon="4.72053">
        <ele>197</ele>
        <time>2018-01-07T10:01:10Z</time>
      </trkpt>
      <trkpt lat="45.8674" lon="4.72049">
        <ele>197</ele>
        <time>2018-01-07T10:01:11Z</time>
      </trkpt>
      <trkpt lat="45.86734" lon="4.72046">
        <ele>197</ele>
        <time>2018-01-07T10:01:12Z</time>
      </trkpt>
      <trkpt lat="45.86728" lon="4.72042">
        <ele>197</ele>
        <time>2018-01-07T10:01:13Z</time>
      </trkpt>
      <trkpt lat="45.86723" lon="4.72039">
        <ele>197</ele>
        <time>2018-01-07T10:01:14Z</time>
      </trkpt>
      <trkpt lat="45.86719" lon="4.72036">
        <ele>197</ele>
        <time>2018-01-07T10:01:15Z</time>
      </trkpt>
      <trkpt lat="45.86717" lon="4.72033">
        <ele>197</ele>
        <time>2018-01-07T10:01:16Z</time>
      </trkpt>
      <trkpt lat="45.86709" lon="4.72029">
        <ele>197</ele>
        <time>2018-01-07T10:01:17Z</time>
      </trkpt>
      <trkpt lat="45.86703" lon="4.72025">
        <ele>197</ele>
        <time>2018-01-07T10:01:18Z</time>
      </trkpt>
      <trkpt lat="45.86697" lon="4.72021">
        <ele>197</ele>
        <time>2018-01-07T10:01:19Z</time>
      </trkpt>
      <trkpt lat="45.86691" lon="4.72018">
        <ele>197</ele>
        <time>2018-01-07T10:01:20Z</time>
      </trkpt>
      <trkpt lat="45.86686" lon="4.72015">
        <ele>196</ele>
        <time>2018-01-07T10:01:21Z</time>
      </trkpt>
      <trkpt lat="45.86681" lon="4.7201">
        <ele>196</ele>
        <time>2018-01-07T10:01:22Z</time>
      </trkpt>
      <trkpt lat="45.86676" lon="4.72005">
        <ele>196</ele>
        <time>2018-01-07T10:01:23Z</time>
      </trkpt>
      <trkpt lat="45.86671" lon="4.72">
        <ele>195</ele>
        <time>2018-01-07T10:01:24Z</time>
      </trkpt>
      <trkpt lat="45.86666" lon="4.71996">
        <ele>195</ele>
        <time>2018-01-07T10:01:25Z</time>
      </trkpt>
      <trkpt lat="45.8666" lon="4.71992">
        <ele>195</ele>
        <time>2018-01-07T10:01:26Z</time>
      </trkpt>
      <trkpt lat="45.86655" lon="4.71987">
        <ele>195</ele>
        <time>2018-01-07T10:01:27Z</time>
      </trkpt>
      <trkpt lat="45.8665" lon="4.71984">
        <ele>195</ele>
        <time>2018-01-07T10:01:28Z</time>
      </trkpt>
      <trkpt lat="45.86644" lon="4.7198">
        <ele>195</ele>
        <time>2018-01-07T10:01:29Z</time>
      </trkpt>
      <trkpt lat="45.86639" lon="4.71974">
        <ele>195</ele>
        <time>2018-01-07T10:01:30Z</time>
      </trkpt>
      <trkpt lat="45.86634" lon="4.71969">
        <ele>195</ele>
        <time>2018-01-07T10:01:31Z</time>
      </trkpt>
      <trkpt lat="45.86627" lon="4.71965">
        <ele>195</ele>
        <time>2018-01-07T10:01:32Z</time>
      </trkpt>
      <trkpt lat="45.86621" lon="4.71961">
        <ele>195</ele>
        <time>2018-01-07T10:01:33Z</time>
      </trkpt>
      <trkpt lat="45.86615" lon="4.71956">
        <ele>194</ele>
        <time>2018-01-07T10:01:34Z</time>
      </trkpt>
      <trkpt lat="45.86609" lon="4.71952">
        <ele>194</ele>
        <time>2018-01-07T10:01:35Z</time>
      </trkpt>
      <trkpt lat="45.86604" lon="4.71947">
        <ele>194</ele>
        <time>2018-01-07T10:01:36Z</time>
      </trkpt>
      <trkpt lat="45.86599" lon="4.71945">
        <ele>194</ele>
        <time>2018-01-07T10:01:37Z</time>
      </trkpt>
      <trkpt lat="45.86594" lon="4.71941">
        <ele>194</ele>
        <time>2018-01-07T10:01:38Z</time>
      </trkpt>
      <trkpt lat="45.86589" lon="4.71937">
        <ele>194</ele>
        <time>2018-01-07T10:01:39Z</time>
      </trkpt>
      <trkpt lat="45.86584" lon="4.71932">
        <ele>194</ele>
        <time>2018-01-07T10:01:40Z</time>
      </trkpt>
      <trkpt lat="45.86578" lon="4.71928">
        <ele>195</ele>
        <time>2018-01-07T10:01:41Z</time>
      </trkpt>
      <trkpt lat="45.86571" lon="4.71925">
        <ele>195</ele>
        <time>2018-01-07T10:01:42Z</time>
      </trkpt>
      <trkpt lat="45.86567" lon="4.71922">
        <ele>195</ele>
        <time>2018-01-07T10:01:43Z</time>
      </trkpt>
      <trkpt lat="45.86562" lon="4.71918">
        <ele>195</ele>
        <time>2018-01-07T10:01:44Z</time>
      </trkpt>
      <trkpt lat="45.86557" lon="4.71913">
        <ele>195</ele>
        <time>2018-01-07T10:01:45Z</time>
      </trkpt>
      <trkpt lat="45.86552" lon="4.71909">
        <ele>195</ele>
        <time>2018-01-07T10:01:46Z</time>
      </trkpt>
      <trkpt lat="45.86548" lon="4.71904">
        <ele>195</ele>
        <time>2018-01-07T10:01:47Z</time>
      </trkpt>
      <trkpt lat="45.86543" lon="4.71901">
        <ele>195</ele>
        <time>2018-01-07T10:01:48Z</time>
      </trkpt>
      <trkpt lat="45.86538" lon="4.71896">
        <ele>195</ele>
        <time>2018-01-07T10:01:49Z</time>
      </trkpt>
      <trkpt lat="45.86534" lon="4.71891">
        <ele>195</ele>
        <time>2018-01-07T10:01:50Z</time>
      </trkpt>
      <trkpt lat="45.86529" lon="4.71887">
        <ele>195</ele>
        <time>2018-01-07T10:01:51Z</time>
      </trkpt>
      <trkpt lat="45.86524" lon="4.71883">
        <ele>195</ele>
        <time>2018-01-07T10:01:52Z</time>
      </trkpt>
      <trkpt lat="45.86521" lon="4.71879">
        <ele>195</ele>
        <time>2018-01-07T10:01:53Z</time>
      </trkpt>
      <trkpt lat="45.8652" lon="4.71875">
        <ele>195</ele>
        <time>2018-01-07T10:01:55Z</time>
      </trkpt>
      <trkpt lat="45.86512" lon="4.71874">
        <ele>195</ele>
        <time>2018-01-07T10:01:56Z</time>
      </trkpt>
      <trkpt lat="45.86508" lon="4.7187">
        <ele>195</ele>
        <time>2018-01-07T10:01:57Z</time>
      </trkpt>
      <trkpt lat="45.86503" lon="4.71866">
        <ele>195</ele>
        <time>2018-01-07T10:01:58Z</time>
      </trkpt>
      <trkpt lat="45.86498" lon="4.71863">
        <ele>198</ele>
        <time>2018-01-07T10:01:59Z</time>
      </trkpt>
      <trkpt lat="45.86493" lon="4.71859">
        <ele>198</ele>
        <time>2018-01-07T10:02:00Z</time>
      </trkpt>
      <trkpt lat="45.86488" lon="4.71855">
        <ele>198</ele>
        <time>2018-01-07T10:02:01Z</time>
      </trkpt>
      <trkpt lat="45.86483" lon="4.7185">
        <ele>198</ele>
        <time>2018-01-07T10:02:02Z</time>
      </trkpt>
      <trkpt lat="45.86478" lon="4.71846">
        <ele>198</ele>
        <time>2018-01-07T10:02:03Z</time>
      </trkpt>
      <trkpt lat="45.86473" lon="4.71843">
        <ele>198</ele>
        <time>2018-01-07T10:02:04Z</time>
      </trkpt>
      <trkpt lat="45.86469" lon="4.7184">
        <ele>199</ele>
        <time>2018-01-07T10:02:05Z</time>
      </trkpt>
      <trkpt lat="45.86463" lon="4.71837">
        <ele>199</ele>
        <time>2018-01-07T10:02:06Z</time>
      </trkpt>
      <trkpt lat="45.86459" lon="4.71832">
        <ele>196</ele>
        <time>2018-01-07T10:02:07Z</time>
      </trkpt>
      <trkpt lat="45.86453" lon="4.71829">
        <ele>197</ele>
        <time>2018-01-07T10:02:08Z</time>
      </trkpt>
      <trkpt lat="45.86448" lon="4.71824">
        <ele>197</ele>
        <time>2018-01-07T10:02:09Z</time>
      </trkpt>
      <trkpt lat="45.86443" lon="4.7182">
        <ele>197</ele>
        <time>2018-01-07T10:02:10Z</time>
      </trkpt>
      <trkpt lat="45.86439" lon="4.71815">
        <ele>197</ele>
        <time>2018-01-07T10:02:11Z</time>
      </trkpt>
      <trkpt lat="45.86434" lon="4.71811">
        <ele>197</ele>
        <time>2018-01-07T10:02:12Z</time>
      </trkpt>
      <trkpt lat="45.86428" lon="4.71806">
        <ele>197</ele>
        <time>2018-01-07T10:02:13Z</time>
      </trkpt>
      <trkpt lat="45.86422" lon="4.71802">
        <ele>197</ele>
        <time>2018-01-07T10:02:14Z</time>
      </trkpt>
      <trkpt lat="45.86417" lon="4.71797">
        <ele>199</ele>
        <time>2018-01-07T10:02:15Z</time>
      </trkpt>
      <trkpt lat="45.8641" lon="4.71792">
        <ele>199</ele>
        <time>2018-01-07T10:02:16Z</time>
      </trkpt>
      <trkpt lat="45.86406" lon="4.71789">
        <ele>198</ele>
        <time>2018-01-07T10:02:17Z</time>
      </trkpt>
      <trkpt lat="45.86401" lon="4.71785">
        <ele>198</ele>
        <time>2018-01-07T10:02:18Z</time>
      </trkpt>
      <trkpt lat="45.86396" lon="4.71781">
        <ele>198</ele>
        <time>2018-01-07T10:02:19Z</time>
      </trkpt>
      <trkpt lat="45.8639" lon="4.71778">
        <ele>198</ele>
        <time>2018-01-07T10:02:20Z</time>
      </trkpt>
      <trkpt lat="45.86385" lon="4.71775">
        <ele>198</ele>
        <time>2018-01-07T10:02:21Z</time>
      </trkpt>
      <trkpt lat="45.86381" lon="4.7177">
        <ele>198</ele>
        <time>2018-01-07T10:02:22Z</time>
      </trkpt>
      <trkpt lat="45.86375" lon="4.71765">
        <ele>198</ele>
        <time>2018-01-07T10:02:23Z</time>
      </trkpt>
      <trkpt lat="45.8637" lon="4.71761">
        <ele>198</ele>
        <time>2018-01-07T10:02:24Z</time>
      </trkpt>
      <trkpt lat="45.86365" lon="4.71758">
        <ele>198</ele>
        <time>2018-01-07T10:02:25Z</time>
      </trkpt>
      <trkpt lat="45.8636" lon="4.71754">
        <ele>198</ele>
        <time>2018-01-07T10:02:26Z</time>
      </trkpt>
      <trkpt lat="45.86355" lon="4.71749">
        <ele>195</ele>
        <time>2018-01-07T10:02:27Z</time>
      </trkpt>
      <trkpt lat="45.8635" lon="4.71746">
        <ele>195</ele>
        <time>2018-01-07T10:02:28Z</time>
      </trkpt>
      <trkpt lat="45.86345" lon="4.71742">
        <ele>195</ele>
        <time>2018-01-07T10:02:29Z</time>
      </trkpt>
      <trkpt lat="45.86341" lon="4.71739">
        <ele>195</ele>
        <time>2018-01-07T10:02:30Z</time>
      </trkpt>
      <trkpt lat="45.86336" lon="4.71735">
        <ele>195</ele>
        <time>2018-01-07T10:02:31Z</time>
      </trkpt>
      <trkpt lat="45.86332" lon="4.71731">
        <ele>196</ele>
        <time>2018-01-07T10:02:32Z</time>
      </trkpt>
      <trkpt lat="45.86327" lon="4.71728">
        <ele>196</ele>
        <time>2018-01-07T10:02:33Z</time>
      </trkpt>
      <trkpt lat="45.86322" lon="4.71723">
        <ele>196</ele>
        <time>2018-01-07T10:02:34Z</time>
      </trkpt>
      <trkpt lat="45.86316" lon="4.71718">
        <ele>196</ele>
        <time>2018-01-07T10:02:35Z</time>
      </trkpt>
      <trkpt lat="45.86311" lon="4.71715">
        <ele>195</ele>
        <time>2018-01-07T10:02:36Z</time>
      </trkpt>
      <trkpt lat="45.86306" lon="4.71711">
        <ele>195</ele>
        <time>2018-01-07T10:02:37Z</time>
      </trkpt>
      <trkpt lat="45.86301" lon="4.71704">
        <ele>195</ele>
        <time>2018-01-07T10:02:38Z</time>
      </trkpt>
      <trkpt lat="45.86296" lon="4.717">
        <ele>195</ele>
        <time>2018-01-07T10:02:39Z</time>
      </trkpt>
      <trkpt lat="45.86291" lon="4.71696">
        <ele>195</ele>
        <time>2018-01-07T10:02:40Z</time>
      </trkpt>
      <trkpt lat="45.86287" lon="4.71693">
        <ele>195</ele>
        <time>2018-01-07T10:02:41Z</time>
      </trkpt>
      <trkpt lat="45.86282" lon="4.71689">
        <ele>195</ele>
        <time>2018-01-07T10:02:42Z</time>
      </trkpt>
      <trkpt lat="45.86276" lon="4.71686">
        <ele>195</ele>
        <time>2018-01-07T10:02:43Z</time>
      </trkpt>
      <trkpt lat="45.86271" lon="4.71683">
        <ele>195</ele>
        <time>2018-01-07T10:02:44Z</time>
      </trkpt>
      <trkpt lat="45.86267" lon="4.71679">
        <ele>195</ele>
        <time>2018-01-07T10:02:45Z</time>
      </trkpt>
      <trkpt lat="45.86262" lon="4.71676">
        <ele>195</ele>
        <time>2018-01-07T10:02:46Z</time>
      </trkpt>
      <trkpt lat="45.86258" lon="4.71673">
        <ele>195</ele>
        <time>2018-01-07T10:02:47Z</time>
      </trkpt>
      <trkpt lat="45.86253" lon="4.71669">
        <ele>195</ele>
        <time>2018-01-07T10:02:48Z</time>
      </trkpt>
      <trkpt lat="45.86248" lon="4.71667">
        <ele>195</ele>
        <time>2018-01-07T10:02:49Z</time>
      </trkpt>
      <trkpt lat="45.86243" lon="4.71663">
        <ele>195</ele>
        <time>2018-01-07T10:02:50Z</time>
      </trkpt>
      <trkpt lat="45.86239" lon="4.71659">
        <ele>195</ele>
        <time>2018-01-07T10:02:51Z</time>
      </trkpt>
      <trkpt lat="45.86233" lon="4.71656">
        <ele>195</ele>
        <time>2018-01-07T10:02:52Z</time>
      </trkpt>
      <trkpt lat="45.8623" lon="4.71653">
        <ele>195</ele>
        <time>2018-01-07T10:02:53Z</time>
      </trkpt>
      <trkpt lat="45.86226" lon="4.71649">
        <ele>195</ele>
        <time>2018-01-07T10:02:54Z</time>
      </trkpt>
      <trkpt lat="45.86219" lon="4.71643">
        <ele>195</ele>
        <time>2018-01-07T10:02:56Z</time>
      </trkpt>
      <trkpt lat="45.86216" lon="4.71639">
        <ele>195</ele>
        <time>2018-01-07T10:02:57Z</time>
      </trkpt>
      <trkpt lat="45.86213" lon="4.71628">
        <ele>195</ele>
        <time>2018-01-07T10:02:59Z</time>
      </trkpt>
      <trkpt lat="45.86212" lon="4.71622">
        <ele>195</ele>
        <time>2018-01-07T10:03:00Z</time>
      </trkpt>
      <trkpt lat="45.86211" lon="4.71616">
        <ele>195</ele>
        <time>2018-01-07T10:03:01Z</time>
      </trkpt>
      <trkpt lat="45.86209" lon="4.7161">
        <ele>195</ele>
        <time>2018-01-07T10:03:02Z</time>
      </trkpt>
      <trkpt lat="45.86206" lon="4.71604">
        <ele>195</ele>
        <time>2018-01-07T10:03:03Z</time>
      </trkpt>
      <trkpt lat="45.86202" lon="4.716">
        <ele>195</ele>
        <time>2018-01-07T10:03:04Z</time>
      </trkpt>
      <trkpt lat="45.86199" lon="4.71594">
        <ele>195</ele>
        <time>2018-01-07T10:03:05Z</time>
      </trkpt>
      <trkpt lat="45.86194" lon="4.71589">
        <ele>195</ele>
        <time>2018-01-07T10:03:06Z</time>
      </trkpt>
      <trkpt lat="45.86188" lon="4.71584">
        <ele>196</ele>
        <time>2018-01-07T10:03:07Z</time>
      </trkpt>
      <trkpt lat="45.86184" lon="4.71579">
        <ele>195</ele>
        <time>2018-01-07T10:03:08Z</time>
      </trkpt>
      <trkpt lat="45.86181" lon="4.71568">
        <ele>195</ele>
        <time>2018-01-07T10:03:10Z</time>
      </trkpt>
      <trkpt lat="45.86177" lon="4.71563">
        <ele>195</ele>
        <time>2018-01-07T10:03:11Z</time>
      </trkpt>
      <trkpt lat="45.86174" lon="4.71557">
        <ele>195</ele>
        <time>2018-01-07T10:03:12Z</time>
      </trkpt>
      <trkpt lat="45.8617" lon="4.71553">
        <ele>195</ele>
        <time>2018-01-07T10:03:13Z</time>
      </trkpt>
      <trkpt lat="45.86165" lon="4.71544">
        <ele>196</ele>
        <time>2018-01-07T10:03:15Z</time>
      </trkpt>
      <trkpt lat="45.86161" lon="4.71539">
        <ele>195</ele>
        <time>2018-01-07T10:03:16Z</time>
      </trkpt>
      <trkpt lat="45.86158" lon="4.71532">
        <ele>195</ele>
        <time>2018-01-07T10:03:17Z</time>
      </trkpt>
      <trkpt lat="45.86154" lon="4.71526">
        <ele>195</ele>
        <time>2018-01-07T10:03:18Z</time>
      </trkpt>
      <trkpt lat="45.86151" lon="4.71521">
        <ele>195</ele>
        <time>2018-01-07T10:03:19Z</time>
      </trkpt>
      <trkpt lat="45.86149" lon="4.71515">
        <ele>195</ele>
        <time>2018-01-07T10:03:20Z</time>
      </trkpt>
      <trkpt lat="45.86147" lon="4.71509">
        <ele>195</ele>
        <time>2018-01-07T10:03:21Z</time>
      </trkpt>
      <trkpt lat="45.86144" lon="4.71503">
        <ele>195</ele>
        <time>2018-01-07T10:03:22Z</time>
      </trkpt>
      <trkpt lat="45.86139" lon="4.71494">
        <ele>195</ele>
        <time>2018-01-07T10:03:24Z</time>
      </trkpt>
      <trkpt lat="45.86136" lon="4.71489">
        <ele>195</ele>
        <time>2018-01-07T10:03:25Z</time>
      </trkpt>
      <trkpt lat="45.86135" lon="4.71483">
        <ele>195</ele>
        <time>2018-01-07T10:03:26Z</time>
      </trkpt>
      <trkpt lat="45.86133" lon="4.71477">
        <ele>195</ele>
        <time>2018-01-07T10:03:27Z</time>
      </trkpt>
      <trkpt lat="45.8613" lon="4.71469">
        <ele>195</ele>
        <time>2018-01-07T10:03:28Z</time>
      </trkpt>
      <trkpt lat="45.86129" lon="4.71463">
        <ele>195</ele>
        <time>2018-01-07T10:03:29Z</time>
      </trkpt>
      <trkpt lat="45.86127" lon="4.71451">
        <ele>195</ele>
        <time>2018-01-07T10:03:31Z</time>
      </trkpt>
      <trkpt lat="45.86124" lon="4.71444">
        <ele>195</ele>
        <time>2018-01-07T10:03:32Z</time>
      </trkpt>
      <trkpt lat="45.86124" lon="4.71436">
        <ele>195</ele>
        <time>2018-01-07T10:03:33Z</time>
      </trkpt>
      <trkpt lat="45.86123" lon="4.7143">
        <ele>195</ele>
        <time>2018-01-07T10:03:34Z</time>
      </trkpt>
      <trkpt lat="45.8612" lon="4.71418">
        <ele>195</ele>
        <time>2018-01-07T10:03:36Z</time>
      </trkpt>
      <trkpt lat="45.86119" lon="4.71412">
        <ele>196</ele>
        <time>2018-01-07T10:03:37Z</time>
      </trkpt>
      <trkpt lat="45.86118" lon="4.71406">
        <ele>196</ele>
        <time>2018-01-07T10:03:38Z</time>
      </trkpt>
      <trkpt lat="45.86118" lon="4.71399">
        <ele>196</ele>
        <time>2018-01-07T10:03:39Z</time>
      </trkpt>
      <trkpt lat="45.86117" lon="4.71387">
        <ele>196</ele>
        <time>2018-01-07T10:03:41Z</time>
      </trkpt>
      <trkpt lat="45.86117" lon="4.71381">
        <ele>196</ele>
        <time>2018-01-07T10:03:42Z</time>
      </trkpt>
      <trkpt lat="45.86116" lon="4.71368">
        <ele>196</ele>
        <time>2018-01-07T10:03:44Z</time>
      </trkpt>
      <trkpt lat="45.86115" lon="4.71362">
        <ele>196</ele>
        <time>2018-01-07T10:03:45Z</time>
      </trkpt>
      <trkpt lat="45.86116" lon="4.71357">
        <ele>196</ele>
        <time>2018-01-07T10:03:46Z</time>
      </trkpt>
      <trkpt lat="45.86116" lon="4.71347">
        <ele>196</ele>
        <time>2018-01-07T10:03:47Z</time>
      </trkpt>
      <trkpt lat="45.86113" lon="4.71336">
        <ele>196</ele>
        <time>2018-01-07T10:03:49Z</time>
      </trkpt>
      <trkpt lat="45.86111" lon="4.71329">
        <ele>196</ele>
        <time>2018-01-07T10:03:50Z</time>
      </trkpt>
      <trkpt lat="45.86108" lon="4.71316">
        <ele>196</ele>
        <time>2018-01-07T10:03:52Z</time>
      </trkpt>
      <trkpt lat="45.86107" lon="4.7131">
        <ele>196</ele>
        <time>2018-01-07T10:03:53Z</time>
      </trkpt>
      <trkpt lat="45.86105" lon="4.71298">
        <ele>197</ele>
        <time>2018-01-07T10:03:55Z</time>
      </trkpt>
      <trkpt lat="45.86104" lon="4.71292">
        <ele>197</ele>
        <time>2018-01-07T10:03:56Z</time>
      </trkpt>
      <trkpt lat="45.86102" lon="4.71281">
        <ele>197</ele>
        <time>2018-01-07T10:03:58Z</time>
      </trkpt>
      <trkpt lat="45.861" lon="4.71276">
        <ele>197</ele>
        <time>2018-01-07T10:03:59Z</time>
      </trkpt>
      <trkpt lat="45.86095" lon="4.71265">
        <ele>197</ele>
        <time>2018-01-07T10:04:01Z</time>
      </trkpt>
      <trkpt lat="45.86092" lon="4.71261">
        <ele>197</ele>
        <time>2018-01-07T10:04:02Z</time>
      </trkpt>
      <trkpt lat="45.86086" lon="4.71253">
        <ele>198</ele>
        <time>2018-01-07T10:04:04Z</time>
      </trkpt>
      <trkpt lat="45.86085" lon="4.71248">
        <ele>198</ele>
        <time>2018-01-07T10:04:05Z</time>
      </trkpt>
      <trkpt lat="45.86084" lon="4.71235">
        <ele>197</ele>
        <time>2018-01-07T10:04:07Z</time>
      </trkpt>
      <trkpt lat="45.86085" lon="4.71228">
        <ele>197</ele>
        <time>2018-01-07T10:04:08Z</time>
      </trkpt>
      <trkpt lat="45.86088" lon="4.71217">
        <ele>197</ele>
        <time>2018-01-07T10:04:10Z</time>
      </trkpt>
      <trkpt lat="45.86089" lon="4.71212">
        <ele>197</ele>
        <time>2018-01-07T10:04:11Z</time>
      </trkpt>
      <trkpt lat="45.86092" lon="4.71202">
        <ele>197</ele>
        <time>2018-01-07T10:04:13Z</time>
      </trkpt>
      <trkpt lat="45.86092" lon="4.71195">
        <ele>197</ele>
        <time>2018-01-07T10:04:14Z</time>
      </trkpt>
      <trkpt lat="45.86093" lon="4.71188">
        <ele>197</ele>
        <time>2018-01-07T10:04:15Z</time>
      </trkpt>
      <trkpt lat="45.86093" lon="4.71182">
        <ele>197</ele>
        <time>2018-01-07T10:04:16Z</time>
      </trkpt>
      <trkpt lat="45.86094" lon="4.71175">
        <ele>197</ele>
        <time>2018-01-07T10:04:17Z</time>
      </trkpt>
      <trkpt lat="45.86095" lon="4.71168">
        <ele>197</ele>
        <time>2018-01-07T10:04:18Z</time>
      </trkpt>
      <trkpt lat="45.86094" lon="4.71162">
        <ele>197</ele>
        <time>2018-01-07T10:04:19Z</time>
      </trkpt>
      <trkpt lat="45.86094" lon="4.71154">
        <ele>197</ele>
        <time>2018-01-07T10:04:20Z</time>
      </trkpt>
      <trkpt lat="45.86091" lon="4.71142">
        <ele>197</ele>
        <time>2018-01-07T10:04:22Z</time>
      </trkpt>
      <trkpt lat="45.86088" lon="4.71139">
        <ele>197</ele>
        <time>2018-01-07T10:04:23Z</time>
      </trkpt>
      <trkpt lat="45.86084" lon="4.71135">
        <ele>197</ele>
        <time>2018-01-07T10:04:24Z</time>
      </trkpt>
      <trkpt lat="45.86079" lon="4.71132">
        <ele>197</ele>
        <time>2018-01-07T10:04:25Z</time>
      </trkpt>
      <trkpt lat="45.86073" lon="4.71129">
        <ele>197</ele>
        <time>2018-01-07T10:04:26Z</time>
      </trkpt>
      <trkpt lat="45.8607" lon="4.71126">
        <ele>197</ele>
        <time>2018-01-07T10:04:27Z</time>
      </trkpt>
      <trkpt lat="45.86063" lon="4.71119">
        <ele>197</ele>
        <time>2018-01-07T10:04:29Z</time>
      </trkpt>
      <trkpt lat="45.86059" lon="4.71114">
        <ele>197</ele>
        <time>2018-01-07T10:04:30Z</time>
      </trkpt>
      <trkpt lat="45.86053" lon="4.71105">
        <ele>197</ele>
        <time>2018-01-07T10:04:32Z</time>
      </trkpt>
      <trkpt lat="45.86051" lon="4.71101">
        <ele>197</ele>
        <time>2018-01-07T10:04:33Z</time>
      </trkpt>
      <trkpt lat="45.86045" lon="4.71091">
        <ele>197</ele>
        <time>2018-01-07T10:04:35Z</time>
      </trkpt>
      <trkpt lat="45.86043" lon="4.71085">
        <ele>197</ele>
        <time>2018-01-07T10:04:36Z</time>
      </trkpt>
      <trkpt lat="45.86041" lon="4.71079">
        <ele>197</ele>
        <time>2018-01-07T10:04:37Z</time>
      </trkpt>
      <trkpt lat="45.86039" lon="4.71073">
        <ele>197</ele>
        <time>2018-01-07T10:04:38Z</time>
      </trkpt>
      <trkpt lat="45.86039" lon="4.7106">
        <ele>197</ele>
        <time>2018-01-07T10:04:40Z</time>
      </trkpt>
      <trkpt lat="45.86039" lon="4.71055">
        <ele>197</ele>
        <time>2018-01-07T10:04:41Z</time>
      </trkpt>
      <trkpt lat="45.86037" lon="4.71049">
        <ele>197</ele>
        <time>2018-01-07T10:04:42Z</time>
      </trkpt>
      <trkpt lat="45.86036" lon="4.71043">
        <ele>197</ele>
        <time>2018-01-07T10:04:43Z</time>
      </trkpt>
      <trkpt lat="45.86031" lon="4.71032">
        <ele>197</ele>
        <time>2018-01-07T10:04:45Z</time>
      </trkpt>
      <trkpt lat="45.8603" lon="4.71027">
        <ele>197</ele>
        <time>2018-01-07T10:04:46Z</time>
      </trkpt>
      <trkpt lat="45.86025" lon="4.71017">
        <ele>197</ele>
        <time>2018-01-07T10:04:48Z</time>
      </trkpt>
      <trkpt lat="45.86022" lon="4.71013">
        <ele>197</ele>
        <time>2018-01-07T10:04:49Z</time>
      </trkpt>
      <trkpt lat="45.86018" lon="4.71007">
        <ele>197</ele>
        <time>2018-01-07T10:04:50Z</time>
      </trkpt>
      <trkpt lat="45.86014" lon="4.71003">
        <ele>197</ele>
        <time>2018-01-07T10:04:51Z</time>
      </trkpt>
      <trkpt lat="45.8601" lon="4.70999">
        <ele>197</ele>
        <time>2018-01-07T10:04:52Z</time>
      </trkpt>
      <trkpt lat="45.86006" lon="4.70995">
        <ele>197</ele>
        <time>2018-01-07T10:04:53Z</time>
      </trkpt>
      <trkpt lat="45.86002" lon="4.70991">
        <ele>197</ele>
        <time>2018-01-07T10:04:54Z</time>
      </trkpt>
      <trkpt lat="45.85998" lon="4.70987">
        <ele>197</ele>
        <time>2018-01-07T10:04:55Z</time>
      </trkpt>
      <trkpt lat="45.85993" lon="4.70983">
        <ele>197</ele>
        <time>2018-01-07T10:04:56Z</time>
      </trkpt>
      <trkpt lat="45.85987" lon="4.7098">
        <ele>197</ele>
        <time>2018-01-07T10:04:57Z</time>
      </trkpt>
      <trkpt lat="45.85983" lon="4.70977">
        <ele>197</ele>
        <time>2018-01-07T10:04:58Z</time>
      </trkpt>
      <trkpt lat="45.85977" lon="4.70974">
        <ele>197</ele>
        <time>2018-01-07T10:04:59Z</time>
      </trkpt>
      <trkpt lat="45.85969" lon="4.7097">
        <ele>197</ele>
        <time>2018-01-07T10:05:01Z</time>
      </trkpt>
      <trkpt lat="45.85965" lon="4.70968">
        <ele>197</ele>
        <time>2018-01-07T10:05:02Z</time>
      </trkpt>
      <trkpt lat="45.85958" lon="4.70969">
        <ele>197</ele>
        <time>2018-01-07T10:05:04Z</time>
      </trkpt>
      <trkpt lat="45.85954" lon="4.70968">
        <ele>197</ele>
        <time>2018-01-07T10:05:05Z</time>
      </trkpt>
      <trkpt lat="45.85947" lon="4.70966">
        <ele>197</ele>
        <time>2018-01-07T10:05:07Z</time>
      </trkpt>
      <trkpt lat="45.85944" lon="4.70964">
        <ele>197</ele>
        <time>2018-01-07T10:05:08Z</time>
      </trkpt>
      <trkpt lat="45.8594" lon="4.70956">
        <ele>197</ele>
        <time>2018-01-07T10:05:10Z</time>
      </trkpt>
      <trkpt lat="45.8594" lon="4.70951">
        <ele>197</ele>
        <time>2018-01-07T10:05:11Z</time>
      </trkpt>
      <trkpt lat="45.85942" lon="4.7094">
        <ele>197</ele>
        <time>2018-01-07T10:05:13Z</time>
      </trkpt>
      <trkpt lat="45.85943" lon="4.70935">
        <ele>197</ele>
        <time>2018-01-07T10:05:14Z</time>
      </trkpt>
      <trkpt lat="45.85945" lon="4.70923">
        <ele>197</ele>
        <time>2018-01-07T10:05:16Z</time>
      </trkpt>
      <trkpt lat="45.85947" lon="4.70917">
        <ele>197</ele>
        <time>2018-01-07T10:05:17Z</time>
      </trkpt>
      <trkpt lat="45.85948" lon="4.70911">
        <ele>197</ele>
        <time>2018-01-07T10:05:18Z</time>
      </trkpt>
      <trkpt lat="45.85949" lon="4.70905">
        <ele>197</ele>
        <time>2018-01-07T10:05:19Z</time>
      </trkpt>
      <trkpt lat="45.85953" lon="4.70893">
        <ele>197</ele>
        <time>2018-01-07T10:05:21Z</time>
      </trkpt>
      <trkpt lat="45.85954" lon="4.70887">
        <ele>197</ele>
        <time>2018-01-07T10:05:22Z</time>
      </trkpt>
      <trkpt lat="45.85955" lon="4.7088">
        <ele>197</ele>
        <time>2018-01-07T10:05:23Z</time>
      </trkpt>
      <trkpt lat="45.85956" lon="4.70873">
        <ele>196</ele>
        <time>2018-01-07T10:05:24Z</time>
      </trkpt>
      <trkpt lat="45.85957" lon="4.70866">
        <ele>196</ele>
        <time>2018-01-07T10:05:25Z</time>
      </trkpt>
      <trkpt lat="45.85959" lon="4.70859">
        <ele>196</ele>
        <time>2018-01-07T10:05:26Z</time>
      </trkpt>
      <trkpt lat="45.8596" lon="4.70852">
        <ele>196</ele>
        <time>2018-01-07T10:05:27Z</time>
      </trkpt>
      <trkpt lat="45.8596" lon="4.70844">
        <ele>196</ele>
        <time>2018-01-07T10:05:28Z</time>
      </trkpt>
      <trkpt lat="45.8596" lon="4.70836">
        <ele>196</ele>
        <time>2018-01-07T10:05:29Z</time>
      </trkpt>
      <trkpt lat="45.8596" lon="4.7083">
        <ele>196</ele>
        <time>2018-01-07T10:05:30Z</time>
      </trkpt>
      <trkpt lat="45.85961" lon="4.70819">
        <ele>195</ele>
        <time>2018-01-07T10:05:31Z</time>
      </trkpt>
      <trkpt lat="45.85962" lon="4.7081">
        <ele>195</ele>
        <time>2018-01-07T10:05:32Z</time>
      </trkpt>
      <trkpt lat="45.85961" lon="4.70804">
        <ele>195</ele>
        <time>2018-01-07T10:05:33Z</time>
      </trkpt>
      <trkpt lat="45.8596" lon="4.70797">
        <ele>195</ele>
        <time>2018-01-07T10:05:34Z</time>
      </trkpt>
      <trkpt lat="45.85958" lon="4.70786">
        <ele>195</ele>
        <time>2018-01-07T10:05:36Z</time>
      </trkpt>
      <trkpt lat="45.85957" lon="4.70781">
        <ele>195</ele>
        <time>2018-01-07T10:05:37Z</time>
      </trkpt>
      <trkpt lat="45.85958" lon="4.70775">
        <ele>195</ele>
        <time>2018-01-07T10:05:38Z</time>
      </trkpt>
      <trkpt lat="45.85958" lon="4.70768">
        <ele>195</ele>
        <time>2018-01-07T10:05:39Z</time>
      </trkpt>
      <trkpt lat="45.85958" lon="4.70758">
        <ele>195</ele>
        <time>2018-01-07T10:05:40Z</time>
      </trkpt>
      <trkpt lat="45.85959" lon="4.70752">
        <ele>195</ele>
        <time>2018-01-07T10:05:41Z</time>
      </trkpt>
      <trkpt lat="45.85959" lon="4.70739">
        <ele>194</ele>
        <time>2018-01-07T10:05:43Z</time>
      </trkpt>
      <trkpt lat="45.85959" lon="4.70734">
        <ele>194</ele>
        <time>2018-01-07T10:05:44Z</time>
      </trkpt>
      <trkpt lat="45.85961" lon="4.70723">
        <ele>194</ele>
        <time>2018-01-07T10:05:46Z</time>
      </trkpt>
      <trkpt lat="45.85962" lon="4.70716">
        <ele>194</ele>
        <time>2018-01-07T10:05:47Z</time>
      </trkpt>
      <trkpt lat="45.85963" lon="4.7071">
        <ele>194</ele>
        <time>2018-01-07T10:05:48Z</time>
      </trkpt>
      <trkpt lat="45.85964" lon="4.70703">
        <ele>194</ele>
        <time>2018-01-07T10:05:49Z</time>
      </trkpt>
      <trkpt lat="45.85965" lon="4.70694">
        <ele>194</ele>
        <time>2018-01-07T10:05:50Z</time>
      </trkpt>
      <trkpt lat="45.85966" lon="4.70689">
        <ele>194</ele>
        <time>2018-01-07T10:05:51Z</time>
      </trkpt>
      <trkpt lat="45.85964" lon="4.70678">
        <ele>194</ele>
        <time>2018-01-07T10:05:53Z</time>
      </trkpt>
      <trkpt lat="45.8596" lon="4.70672">
        <ele>194</ele>
        <time>2018-01-07T10:05:54Z</time>
      </trkpt>
      <trkpt lat="45.85958" lon="4.70666">
        <ele>194</ele>
        <time>2018-01-07T10:05:55Z</time>
      </trkpt>
      <trkpt lat="45.85954" lon="4.70658">
        <ele>194</ele>
        <time>2018-01-07T10:05:56Z</time>
      </trkpt>
      <trkpt lat="45.8595" lon="4.70652">
        <ele>194</ele>
        <time>2018-01-07T10:05:57Z</time>
      </trkpt>
      <trkpt lat="45.85946" lon="4.70645">
        <ele>194</ele>
        <time>2018-01-07T10:05:58Z</time>
      </trkpt>
      <trkpt lat="45.85942" lon="4.70639">
        <ele>194</ele>
        <time>2018-01-07T10:05:59Z</time>
      </trkpt>
      <trkpt lat="45.85938" lon="4.70633">
        <ele>194</ele>
        <time>2018-01-07T10:06:00Z</time>
      </trkpt>
      <trkpt lat="45.85935" lon="4.70628">
        <ele>194</ele>
        <time>2018-01-07T10:06:01Z</time>
      </trkpt>
      <trkpt lat="45.85931" lon="4.70621">
        <ele>194</ele>
        <time>2018-01-07T10:06:02Z</time>
      </trkpt>
      <trkpt lat="45.85928" lon="4.70615">
        <ele>194</ele>
        <time>2018-01-07T10:06:03Z</time>
      </trkpt>
      <trkpt lat="45.85925" lon="4.70609">
        <ele>194</ele>
        <time>2018-01-07T10:06:04Z</time>
      </trkpt>
      <trkpt lat="45.85922" lon="4.70604">
        <ele>194</ele>
        <time>2018-01-07T10:06:05Z</time>
      </trkpt>
      <trkpt lat="45.85919" lon="4.706">
        <ele>194</ele>
        <time>2018-01-07T10:06:06Z</time>
      </trkpt>
      <trkpt lat="45.85916" lon="4.70594">
        <ele>195</ele>
        <time>2018-01-07T10:06:07Z</time>
      </trkpt>
      <trkpt lat="45.85912" lon="4.7059">
        <ele>195</ele>
        <time>2018-01-07T10:06:08Z</time>
      </trkpt>
      <trkpt lat="45.85909" lon="4.70586">
        <ele>195</ele>
        <time>2018-01-07T10:06:09Z</time>
      </trkpt>
      <trkpt lat="45.85905" lon="4.70582">
        <ele>195</ele>
        <time>2018-01-07T10:06:10Z</time>
      </trkpt>
      <trkpt lat="45.85901" lon="4.70578">
        <ele>195</ele>
        <time>2018-01-07T10:06:11Z</time>
      </trkpt>
      <trkpt lat="45.85897" lon="4.70575">
        <ele>195</ele>
        <time>2018-01-07T10:06:12Z</time>
      </trkpt>
      <trkpt lat="45.85891" lon="4.70573">
        <ele>195</ele>
        <time>2018-01-07T10:06:14Z</time>
      </trkpt>
      <trkpt lat="45.85887" lon="4.70573">
        <ele>195</ele>
        <time>2018-01-07T10:06:15Z</time>
      </trkpt>
      <trkpt lat="45.8588" lon="4.70571">
        <ele>195</ele>
        <time>2018-01-07T10:06:17Z</time>
      </trkpt>
      <trkpt lat="45.85875" lon="4.70569">
        <ele>195</ele>
        <time>2018-01-07T10:06:18Z</time>
      </trkpt>
      <trkpt lat="45.85867" lon="4.70566">
        <ele>195</ele>
        <time>2018-01-07T10:06:20Z</time>
      </trkpt>
      <trkpt lat="45.85861" lon="4.70562">
        <ele>195</ele>
        <time>2018-01-07T10:06:21Z</time>
      </trkpt>
      <trkpt lat="45.85856" lon="4.70559">
        <ele>195</ele>
        <time>2018-01-07T10:06:22Z</time>
      </trkpt>
      <trkpt lat="45.85851" lon="4.70559">
        <ele>195</ele>
        <time>2018-01-07T10:06:23Z</time>
      </trkpt>
      <trkpt lat="45.85847" lon="4.70558">
        <ele>195</ele>
        <time>2018-01-07T10:06:24Z</time>
      </trkpt>
      <trkpt lat="45.85841" lon="4.70555">
        <ele>195</ele>
        <time>2018-01-07T10:06:25Z</time>
      </trkpt>
      <trkpt lat="45.85836" lon="4.70554">
        <ele>195</ele>
        <time>2018-01-07T10:06:26Z</time>
      </trkpt>
      <trkpt lat="45.8583" lon="4.70551">
        <ele>195</ele>
        <time>2018-01-07T10:06:27Z</time>
      </trkpt>
      <trkpt lat="45.85824" lon="4.7055">
        <ele>195</ele>
        <time>2018-01-07T10:06:28Z</time>
      </trkpt>
      <trkpt lat="45.85818" lon="4.70547">
        <ele>195</ele>
        <time>2018-01-07T10:06:29Z</time>
      </trkpt>
      <trkpt lat="45.85813" lon="4.70545">
        <ele>195</ele>
        <time>2018-01-07T10:06:30Z</time>
      </trkpt>
      <trkpt lat="45.85809" lon="4.70542">
        <ele>195</ele>
        <time>2018-01-07T10:06:31Z</time>
      </trkpt>
      <trkpt lat="45.858" lon="4.70539">
        <ele>195</ele>
        <time>2018-01-07T10:06:33Z</time>
      </trkpt>
      <trkpt lat="45.85796" lon="4.70537">
        <ele>195</ele>
        <time>2018-01-07T10:06:34Z</time>
      </trkpt>
      <trkpt lat="45.85787" lon="4.70533">
        <ele>196</ele>
        <time>2018-01-07T10:06:36Z</time>
      </trkpt>
      <trkpt lat="45.85784" lon="4.7053">
        <ele>196</ele>
        <time>2018-01-07T10:06:37Z</time>
      </trkpt>
      <trkpt lat="45.85776" lon="4.70524">
        <ele>196</ele>
        <time>2018-01-07T10:06:39Z</time>
      </trkpt>
      <trkpt lat="45.85771" lon="4.7052">
        <ele>196</ele>
        <time>2018-01-07T10:06:40Z</time>
      </trkpt>
      <trkpt lat="45.85766" lon="4.70518">
        <ele>196</ele>
        <time>2018-01-07T10:06:41Z</time>
      </trkpt>
      <trkpt lat="45.85762" lon="4.70515">
        <ele>196</ele>
        <time>2018-01-07T10:06:42Z</time>
      </trkpt>
      <trkpt lat="45.85755" lon="4.70508">
        <ele>196</ele>
        <time>2018-01-07T10:06:44Z</time>
      </trkpt>
      <trkpt lat="45.8575" lon="4.70503">
        <ele>196</ele>
        <time>2018-01-07T10:06:45Z</time>
      </trkpt>
      <trkpt lat="45.85741" lon="4.70502">
        <ele>196</ele>
        <time>2018-01-07T10:06:48Z</time>
      </trkpt>
      <trkpt lat="45.85739" lon="4.70499">
        <ele>196</ele>
        <time>2018-01-07T10:06:49Z</time>
      </trkpt>
      <trkpt lat="45.85736" lon="4.70488">
        <ele>196</ele>
        <time>2018-01-07T10:06:51Z</time>
      </trkpt>
      <trkpt lat="45.85735" lon="4.70482">
        <ele>196</ele>
        <time>2018-01-07T10:06:52Z</time>
      </trkpt>
      <trkpt lat="45.85732" lon="4.70476">
        <ele>196</ele>
        <time>2018-01-07T10:06:53Z</time>
      </trkpt>
      <trkpt lat="45.85729" lon="4.70468">
        <ele>196</ele>
        <time>2018-01-07T10:06:54Z</time>
      </trkpt>
      <trkpt lat="45.85726" lon="4.70464">
        <ele>196</ele>
        <time>2018-01-07T10:06:55Z</time>
      </trkpt>
      <trkpt lat="45.85724" lon="4.70457">
        <ele>196</ele>
        <time>2018-01-07T10:06:56Z</time>
      </trkpt>
      <trkpt lat="45.85723" lon="4.7045">
        <ele>196</ele>
        <time>2018-01-07T10:06:57Z</time>
      </trkpt>
      <trkpt lat="45.85723" lon="4.70444">
        <ele>196</ele>
        <time>2018-01-07T10:06:58Z</time>
      </trkpt>
      <trkpt lat="45.85722" lon="4.70432">
        <ele>196</ele>
        <time>2018-01-07T10:07:00Z</time>
      </trkpt>
      <trkpt lat="45.85721" lon="4.70425">
        <ele>196</ele>
        <time>2018-01-07T10:07:01Z</time>
      </trkpt>
      <trkpt lat="45.85722" lon="4.70418">
        <ele>196</ele>
        <time>2018-01-07T10:07:02Z</time>
      </trkpt>
      <trkpt lat="45.85721" lon="4.70412">
        <ele>196</ele>
        <time>2018-01-07T10:07:03Z</time>
      </trkpt>
      <trkpt lat="45.85719" lon="4.70405">
        <ele>196</ele>
        <time>2018-01-07T10:07:04Z</time>
      </trkpt>
      <trkpt lat="45.8572" lon="4.70396">
        <ele>196</ele>
        <time>2018-01-07T10:07:05Z</time>
      </trkpt>
      <trkpt lat="45.85719" lon="4.70389">
        <ele>196</ele>
        <time>2018-01-07T10:07:06Z</time>
      </trkpt>
      <trkpt lat="45.85719" lon="4.70382">
        <ele>196</ele>
        <time>2018-01-07T10:07:07Z</time>
      </trkpt>
      <trkpt lat="45.85717" lon="4.7037">
        <ele>196</ele>
        <time>2018-01-07T10:07:09Z</time>
      </trkpt>
      <trkpt lat="45.85716" lon="4.70364">
        <ele>196</ele>
        <time>2018-01-07T10:07:10Z</time>
      </trkpt>
      <trkpt lat="45.85715" lon="4.70352">
        <ele>196</ele>
        <time>2018-01-07T10:07:12Z</time>
      </trkpt>
      <trkpt lat="45.85714" lon="4.70346">
        <ele>196</ele>
        <time>2018-01-07T10:07:13Z</time>
      </trkpt>
      <trkpt lat="45.85713" lon="4.70339">
        <ele>196</ele>
        <time>2018-01-07T10:07:14Z</time>
      </trkpt>
      <trkpt lat="45.85712" lon="4.70333">
        <ele>197</ele>
        <time>2018-01-07T10:07:15Z</time>
      </trkpt>
      <trkpt lat="45.85711" lon="4.70326">
        <ele>197</ele>
        <time>2018-01-07T10:07:16Z</time>
      </trkpt>
      <trkpt lat="45.8571" lon="4.70318">
        <ele>197</ele>
        <time>2018-01-07T10:07:17Z</time>
      </trkpt>
      <trkpt lat="45.85708" lon="4.70311">
        <ele>197</ele>
        <time>2018-01-07T10:07:18Z</time>
      </trkpt>
      <trkpt lat="45.85707" lon="4.70304">
        <ele>197</ele>
        <time>2018-01-07T10:07:19Z</time>
      </trkpt>
      <trkpt lat="45.85706" lon="4.70297">
        <ele>197</ele>
        <time>2018-01-07T10:07:20Z</time>
      </trkpt>
      <trkpt lat="45.85705" lon="4.70288">
        <ele>197</ele>
        <time>2018-01-07T10:07:21Z</time>
      </trkpt>
      <trkpt lat="45.85703" lon="4.70281">
        <ele>197</ele>
        <time>2018-01-07T10:07:22Z</time>
      </trkpt>
      <trkpt lat="45.85703" lon="4.70273">
        <ele>197</ele>
        <time>2018-01-07T10:07:23Z</time>
      </trkpt>
      <trkpt lat="45.85701" lon="4.70265">
        <ele>197</ele>
        <time>2018-01-07T10:07:24Z</time>
      </trkpt>
      <trkpt lat="45.85701" lon="4.70257">
        <ele>197</ele>
        <time>2018-01-07T10:07:25Z</time>
      </trkpt>
      <trkpt lat="45.857" lon="4.7025">
        <ele>197</ele>
        <time>2018-01-07T10:07:26Z</time>
      </trkpt>
      <trkpt lat="45.85699" lon="4.70243">
        <ele>197</ele>
        <time>2018-01-07T10:07:27Z</time>
      </trkpt>
      <trkpt lat="45.85696" lon="4.70231">
        <ele>197</ele>
        <time>2018-01-07T10:07:29Z</time>
      </trkpt>
      <trkpt lat="45.85697" lon="4.70225">
        <ele>197</ele>
        <time>2018-01-07T10:07:30Z</time>
      </trkpt>
      <trkpt lat="45.85697" lon="4.70217">
        <ele>197</ele>
        <time>2018-01-07T10:07:31Z</time>
      </trkpt>
      <trkpt lat="45.85696" lon="4.7021">
        <ele>197</ele>
        <time>2018-01-07T10:07:32Z</time>
      </trkpt>
      <trkpt lat="45.85695" lon="4.70203">
        <ele>197</ele>
        <time>2018-01-07T10:07:33Z</time>
      </trkpt>
      <trkpt lat="45.85694" lon="4.70196">
        <ele>197</ele>
        <time>2018-01-07T10:07:34Z</time>
      </trkpt>
      <trkpt lat="45.85694" lon="4.70188">
        <ele>197</ele>
        <time>2018-01-07T10:07:35Z</time>
      </trkpt>
      <trkpt lat="45.85693" lon="4.70181">
        <ele>197</ele>
        <time>2018-01-07T10:07:36Z</time>
      </trkpt>
      <trkpt lat="45.8569" lon="4.70173">
        <ele>197</ele>
        <time>2018-01-07T10:07:37Z</time>
      </trkpt>
      <trkpt lat="45.85688" lon="4.70165">
        <ele>197</ele>
        <time>2018-01-07T10:07:38Z</time>
      </trkpt>
      <trkpt lat="45.85686" lon="4.70158">
        <ele>197</ele>
        <time>2018-01-07T10:07:39Z</time>
      </trkpt>
      <trkpt lat="45.85684" lon="4.70151">
        <ele>197</ele>
        <time>2018-01-07T10:07:40Z</time>
      </trkpt>
      <trkpt lat="45.85684" lon="4.70143">
        <ele>197</ele>
        <time>2018-01-07T10:07:41Z</time>
      </trkpt>
      <trkpt lat="45.85682" lon="4.70134">
        <ele>197</ele>
        <time>2018-01-07T10:07:42Z</time>
      </trkpt>
      <trkpt lat="45.85681" lon="4.70126">
        <ele>197</ele>
        <time>2018-01-07T10:07:43Z</time>
      </trkpt>
      <trkpt lat="45.85681" lon="4.70118">
        <ele>197</ele>
        <time>2018-01-07T10:07:44Z</time>
      </trkpt>
      <trkpt lat="45.8568" lon="4.70109">
        <ele>197</ele>
        <time>2018-01-07T10:07:45Z</time>
      </trkpt>
      <trkpt lat="45.8568" lon="4.701">
        <ele>196</ele>
        <time>2018-01-07T10:07:46Z</time>
      </trkpt>
      <trkpt lat="45.8568" lon="4.70093">
        <ele>196</ele>
        <time>2018-01-07T10:07:47Z</time>
      </trkpt>
      <trkpt lat="45.85681" lon="4.70085">
        <ele>196</ele>
        <time>2018-01-07T10:07:48Z</time>
      </trkpt>
      <trkpt lat="45.85683" lon="4.70077">
        <ele>196</ele>
        <time>2018-01-07T10:07:49Z</time>
      </trkpt>
      <trkpt lat="45.85685" lon="4.70071">
        <ele>196</ele>
        <time>2018-01-07T10:07:50Z</time>
      </trkpt>
      <trkpt lat="45.85685" lon="4.70061">
        <ele>195</ele>
        <time>2018-01-07T10:07:52Z</time>
      </trkpt>
      <trkpt lat="45.85686" lon="4.70055">
        <ele>195</ele>
        <time>2018-01-07T10:07:53Z</time>
      </trkpt>
      <trkpt lat="45.85688" lon="4.70044">
        <ele>195</ele>
        <time>2018-01-07T10:07:55Z</time>
      </trkpt>
      <trkpt lat="45.85688" lon="4.70039">
        <ele>195</ele>
        <time>2018-01-07T10:07:56Z</time>
      </trkpt>
      <trkpt lat="45.8569" lon="4.70031">
        <ele>195</ele>
        <time>2018-01-07T10:07:57Z</time>
      </trkpt>
      <trkpt lat="45.85691" lon="4.70024">
        <ele>195</ele>
        <time>2018-01-07T10:07:58Z</time>
      </trkpt>
      <trkpt lat="45.85692" lon="4.70013">
        <ele>195</ele>
        <time>2018-01-07T10:08:00Z</time>
      </trkpt>
      <trkpt lat="45.85693" lon="4.70005">
        <ele>195</ele>
        <time>2018-01-07T10:08:01Z</time>
      </trkpt>
      <trkpt lat="45.85693" lon="4.69998">
        <ele>195</ele>
        <time>2018-01-07T10:08:02Z</time>
      </trkpt>
      <trkpt lat="45.85692" lon="4.69991">
        <ele>195</ele>
        <time>2018-01-07T10:08:03Z</time>
      </trkpt>
      <trkpt lat="45.85693" lon="4.69985">
        <ele>195</ele>
        <time>2018-01-07T10:08:04Z</time>
      </trkpt>
      <trkpt lat="45.85691" lon="4.69978">
        <ele>195</ele>
        <time>2018-01-07T10:08:05Z</time>
      </trkpt>
      <trkpt lat="45.8569" lon="4.69971">
        <ele>195</ele>
        <time>2018-01-07T10:08:06Z</time>
      </trkpt>
      <trkpt lat="45.85689" lon="4.69963">
        <ele>195</ele>
        <time>2018-01-07T10:08:07Z</time>
      </trkpt>
      <trkpt lat="45.85687" lon="4.69955">
        <ele>195</ele>
        <time>2018-01-07T10:08:08Z</time>
      </trkpt>
      <trkpt lat="45.85685" lon="4.69949">
        <ele>195</ele>
        <time>2018-01-07T10:08:09Z</time>
      </trkpt>
      <trkpt lat="45.85683" lon="4.69942">
        <ele>195</ele>
        <time>2018-01-07T10:08:10Z</time>
      </trkpt>
      <trkpt lat="45.85681" lon="4.69935">
        <ele>195</ele>
        <time>2018-01-07T10:08:11Z</time>
      </trkpt>
      <trkpt lat="45.85679" lon="4.69928">
        <ele>195</ele>
        <time>2018-01-07T10:08:12Z</time>
      </trkpt>
      <trkpt lat="45.85678" lon="4.6992">
        <ele>195</ele>
        <time>2018-01-07T10:08:13Z</time>
      </trkpt>
      <trkpt lat="45.85676" lon="4.69914">
        <ele>195</ele>
        <time>2018-01-07T10:08:14Z</time>
      </trkpt>
      <trkpt lat="45.85674" lon="4.69907">
        <ele>195</ele>
        <time>2018-01-07T10:08:15Z</time>
      </trkpt>
      <trkpt lat="45.85673" lon="4.699">
        <ele>195</ele>
        <time>2018-01-07T10:08:16Z</time>
      </trkpt>
      <trkpt lat="45.85671" lon="4.69892">
        <ele>195</ele>
        <time>2018-01-07T10:08:17Z</time>
      </trkpt>
      <trkpt lat="45.8567" lon="4.69885">
        <ele>195</ele>
        <time>2018-01-07T10:08:18Z</time>
      </trkpt>
      <trkpt lat="45.85668" lon="4.69878">
        <ele>195</ele>
        <time>2018-01-07T10:08:19Z</time>
      </trkpt>
      <trkpt lat="45.85667" lon="4.6987">
        <ele>195</ele>
        <time>2018-01-07T10:08:20Z</time>
      </trkpt>
      <trkpt lat="45.85666" lon="4.69863">
        <ele>195</ele>
        <time>2018-01-07T10:08:21Z</time>
      </trkpt>
      <trkpt lat="45.85664" lon="4.69854">
        <ele>195</ele>
        <time>2018-01-07T10:08:22Z</time>
      </trkpt>
      <trkpt lat="45.85664" lon="4.69845">
        <ele>195</ele>
        <time>2018-01-07T10:08:23Z</time>
      </trkpt>
      <trkpt lat="45.85663" lon="4.69837">
        <ele>195</ele>
        <time>2018-01-07T10:08:24Z</time>
      </trkpt>
      <trkpt lat="45.85661" lon="4.69829">
        <ele>195</ele>
        <time>2018-01-07T10:08:25Z</time>
      </trkpt>
      <trkpt lat="45.8566" lon="4.69817">
        <ele>195</ele>
        <time>2018-01-07T10:08:27Z</time>
      </trkpt>
      <trkpt lat="45.85659" lon="4.69811">
        <ele>195</ele>
        <time>2018-01-07T10:08:28Z</time>
      </trkpt>
      <trkpt lat="45.85658" lon="4.69805">
        <ele>195</ele>
        <time>2018-01-07T10:08:29Z</time>
      </trkpt>
      <trkpt lat="45.85657" lon="4.69797">
        <ele>195</ele>
        <time>2018-01-07T10:08:30Z</time>
      </trkpt>
      <trkpt lat="45.85656" lon="4.6979">
        <ele>195</ele>
        <time>2018-01-07T10:08:31Z</time>
      </trkpt>
      <trkpt lat="45.85654" lon="4.69782">
        <ele>195</ele>
        <time>2018-01-07T10:08:32Z</time>
      </trkpt>
      <trkpt lat="45.85654" lon="4.69775">
        <ele>195</ele>
        <time>2018-01-07T10:08:33Z</time>
      </trkpt>
      <trkpt lat="45.85653" lon="4.69768">
        <ele>195</ele>
        <time>2018-01-07T10:08:34Z</time>
      </trkpt>
      <trkpt lat="45.85653" lon="4.69761">
        <ele>195</ele>
        <time>2018-01-07T10:08:35Z</time>
      </trkpt>
      <trkpt lat="45.85652" lon="4.69754">
        <ele>195</ele>
        <time>2018-01-07T10:08:36Z</time>
      </trkpt>
      <trkpt lat="45.85652" lon="4.69746">
        <ele>195</ele>
        <time>2018-01-07T10:08:37Z</time>
      </trkpt>
      <trkpt lat="45.85651" lon="4.69738">
        <ele>195</ele>
        <time>2018-01-07T10:08:38Z</time>
      </trkpt>
      <trkpt lat="45.8565" lon="4.6973">
        <ele>195</ele>
        <time>2018-01-07T10:08:39Z</time>
      </trkpt>
      <trkpt lat="45.8565" lon="4.69723">
        <ele>195</ele>
        <time>2018-01-07T10:08:40Z</time>
      </trkpt>
      <trkpt lat="45.85649" lon="4.69714">
        <ele>196</ele>
        <time>2018-01-07T10:08:41Z</time>
      </trkpt>
      <trkpt lat="45.85647" lon="4.69707">
        <ele>196</ele>
        <time>2018-01-07T10:08:42Z</time>
      </trkpt>
      <trkpt lat="45.85646" lon="4.69699">
        <ele>196</ele>
        <time>2018-01-07T10:08:43Z</time>
      </trkpt>
      <trkpt lat="45.85646" lon="4.69692">
        <ele>196</ele>
        <time>2018-01-07T10:08:44Z</time>
      </trkpt>
      <trkpt lat="45.85646" lon="4.69685">
        <ele>196</ele>
        <time>2018-01-07T10:08:45Z</time>
      </trkpt>
      <trkpt lat="45.85645" lon="4.69678">
        <ele>196</ele>
        <time>2018-01-07T10:08:46Z</time>
      </trkpt>
      <trkpt lat="45.85645" lon="4.69671">
        <ele>196</ele>
        <time>2018-01-07T10:08:47Z</time>
      </trkpt>
      <trkpt lat="45.85644" lon="4.69664">
        <ele>197</ele>
        <time>2018-01-07T10:08:48Z</time>
      </trkpt>
      <trkpt lat="45.85642" lon="4.69652">
        <ele>197</ele>
        <time>2018-01-07T10:08:50Z</time>
      </trkpt>
      <trkpt lat="45.85642" lon="4.69644">
        <ele>197</ele>
        <time>2018-01-07T10:08:51Z</time>
      </trkpt>
      <trkpt lat="45.85641" lon="4.69638">
        <ele>197</ele>
        <time>2018-01-07T10:08:52Z</time>
      </trkpt>
      <trkpt lat="45.85641" lon="4.6963">
        <ele>197</ele>
        <time>2018-01-07T10:08:53Z</time>
      </trkpt>
      <trkpt lat="45.8564" lon="4.69624">
        <ele>197</ele>
        <time>2018-01-07T10:08:54Z</time>
      </trkpt>
      <trkpt lat="45.85639" lon="4.69617">
        <ele>197</ele>
        <time>2018-01-07T10:08:55Z</time>
      </trkpt>
      <trkpt lat="45.85638" lon="4.69609">
        <ele>197</ele>
        <time>2018-01-07T10:08:56Z</time>
      </trkpt>
      <trkpt lat="45.85638" lon="4.69601">
        <ele>197</ele>
        <time>2018-01-07T10:08:57Z</time>
      </trkpt>
      <trkpt lat="45.85638" lon="4.69595">
        <ele>197</ele>
        <time>2018-01-07T10:08:58Z</time>
      </trkpt>
      <trkpt lat="45.85638" lon="4.69587">
        <ele>197</ele>
        <time>2018-01-07T10:08:59Z</time>
      </trkpt>
      <trkpt lat="45.85638" lon="4.6958">
        <ele>198</ele>
        <time>2018-01-07T10:09:00Z</time>
      </trkpt>
      <trkpt lat="45.85637" lon="4.69574">
        <ele>198</ele>
        <time>2018-01-07T10:09:01Z</time>
      </trkpt>
      <trkpt lat="45.85637" lon="4.69567">
        <ele>198</ele>
        <time>2018-01-07T10:09:02Z</time>
      </trkpt>
      <trkpt lat="45.85638" lon="4.69561">
        <ele>198</ele>
        <time>2018-01-07T10:09:03Z</time>
      </trkpt>
      <trkpt lat="45.85638" lon="4.69552">
        <ele>198</ele>
        <time>2018-01-07T10:09:04Z</time>
      </trkpt>
      <trkpt lat="45.85636" lon="4.69546">
        <ele>198</ele>
        <time>2018-01-07T10:09:05Z</time>
      </trkpt>
      <trkpt lat="45.85636" lon="4.69539">
        <ele>198</ele>
        <time>2018-01-07T10:09:06Z</time>
      </trkpt>
      <trkpt lat="45.85636" lon="4.6953">
        <ele>198</ele>
        <time>2018-01-07T10:09:07Z</time>
      </trkpt>
      <trkpt lat="45.85635" lon="4.69522">
        <ele>198</ele>
        <time>2018-01-07T10:09:08Z</time>
      </trkpt>
      <trkpt lat="45.85634" lon="4.69514">
        <ele>198</ele>
        <time>2018-01-07T10:09:09Z</time>
      </trkpt>
      <trkpt lat="45.85633" lon="4.69506">
        <ele>198</ele>
        <time>2018-01-07T10:09:10Z</time>
      </trkpt>
      <trkpt lat="45.85633" lon="4.69499">
        <ele>198</ele>
        <time>2018-01-07T10:09:11Z</time>
      </trkpt>
      <trkpt lat="45.85632" lon="4.69492">
        <ele>198</ele>
        <time>2018-01-07T10:09:12Z</time>
      </trkpt>
      <trkpt lat="45.85631" lon="4.69485">
        <ele>198</ele>
        <time>2018-01-07T10:09:13Z</time>
      </trkpt>
      <trkpt lat="45.8563" lon="4.69477">
        <ele>198</ele>
        <time>2018-01-07T10:09:14Z</time>
      </trkpt>
      <trkpt lat="45.85629" lon="4.6947">
        <ele>198</ele>
        <time>2018-01-07T10:09:15Z</time>
      </trkpt>
      <trkpt lat="45.85628" lon="4.69462">
        <ele>198</ele>
        <time>2018-01-07T10:09:16Z</time>
      </trkpt>
      <trkpt lat="45.85627" lon="4.69454">
        <ele>198</ele>
        <time>2018-01-07T10:09:17Z</time>
      </trkpt>
      <trkpt lat="45.85626" lon="4.69447">
        <ele>198</ele>
        <time>2018-01-07T10:09:18Z</time>
      </trkpt>
      <trkpt lat="45.85626" lon="4.6944">
        <ele>198</ele>
        <time>2018-01-07T10:09:19Z</time>
      </trkpt>
      <trkpt lat="45.85625" lon="4.69434">
        <ele>198</ele>
        <time>2018-01-07T10:09:20Z</time>
      </trkpt>
      <trkpt lat="45.85624" lon="4.69425">
        <ele>198</ele>
        <time>2018-01-07T10:09:21Z</time>
      </trkpt>
      <trkpt lat="45.85623" lon="4.69418">
        <ele>198</ele>
        <time>2018-01-07T10:09:22Z</time>
      </trkpt>
      <trkpt lat="45.85623" lon="4.69411">
        <ele>198</ele>
        <time>2018-01-07T10:09:23Z</time>
      </trkpt>
      <trkpt lat="45.85622" lon="4.69404">
        <ele>198</ele>
        <time>2018-01-07T10:09:24Z</time>
      </trkpt>
      <trkpt lat="45.85621" lon="4.69398">
        <ele>198</ele>
        <time>2018-01-07T10:09:25Z</time>
      </trkpt>
      <trkpt lat="45.8562" lon="4.69385">
        <ele>198</ele>
        <time>2018-01-07T10:09:27Z</time>
      </trkpt>
      <trkpt lat="45.85619" lon="4.69379">
        <ele>198</ele>
        <time>2018-01-07T10:09:28Z</time>
      </trkpt>
      <trkpt lat="45.85619" lon="4.69372">
        <ele>198</ele>
        <time>2018-01-07T10:09:29Z</time>
      </trkpt>
      <trkpt lat="45.85618" lon="4.69365">
        <ele>198</ele>
        <time>2018-01-07T10:09:30Z</time>
      </trkpt>
      <trkpt lat="45.85618" lon="4.69358">
        <ele>198</ele>
        <time>2018-01-07T10:09:31Z</time>
      </trkpt>
      <trkpt lat="45.85618" lon="4.69352">
        <ele>198</ele>
        <time>2018-01-07T10:09:32Z</time>
      </trkpt>
      <trkpt lat="45.85617" lon="4.6934">
        <ele>198</ele>
        <time>2018-01-07T10:09:34Z</time>
      </trkpt>
      <trkpt lat="45.85616" lon="4.69334">
        <ele>198</ele>
        <time>2018-01-07T10:09:35Z</time>
      </trkpt>
      <trkpt lat="45.85616" lon="4.69321">
        <ele>198</ele>
        <time>2018-01-07T10:09:37Z</time>
      </trkpt>
      <trkpt lat="45.85615" lon="4.69315">
        <ele>198</ele>
        <time>2018-01-07T10:09:38Z</time>
      </trkpt>
      <trkpt lat="45.85613" lon="4.69303">
        <ele>198</ele>
        <time>2018-01-07T10:09:40Z</time>
      </trkpt>
      <trkpt lat="45.85611" lon="4.69298">
        <ele>198</ele>
        <time>2018-01-07T10:09:41Z</time>
      </trkpt>
      <trkpt lat="45.85612" lon="4.69287">
        <ele>198</ele>
        <time>2018-01-07T10:09:43Z</time>
      </trkpt>
      <trkpt lat="45.85612" lon="4.69282">
        <ele>198</ele>
        <time>2018-01-07T10:09:44Z</time>
      </trkpt>
      <trkpt lat="45.85613" lon="4.69271">
        <ele>198</ele>
        <time>2018-01-07T10:09:46Z</time>
      </trkpt>
      <trkpt lat="45.85614" lon="4.69265">
        <ele>198</ele>
        <time>2018-01-07T10:09:47Z</time>
      </trkpt>
      <trkpt lat="45.85611" lon="4.69255">
        <ele>198</ele>
        <time>2018-01-07T10:09:49Z</time>
      </trkpt>
      <trkpt lat="45.85609" lon="4.69249">
        <ele>199</ele>
        <time>2018-01-07T10:09:50Z</time>
      </trkpt>
      <trkpt lat="45.85606" lon="4.69243">
        <ele>199</ele>
        <time>2018-01-07T10:09:51Z</time>
      </trkpt>
      <trkpt lat="45.85604" lon="4.69238">
        <ele>199</ele>
        <time>2018-01-07T10:09:52Z</time>
      </trkpt>
      <trkpt lat="45.85601" lon="4.69227">
        <ele>199</ele>
        <time>2018-01-07T10:09:54Z</time>
      </trkpt>
      <trkpt lat="45.85601" lon="4.69221">
        <ele>199</ele>
        <time>2018-01-07T10:09:55Z</time>
      </trkpt>
      <trkpt lat="45.85601" lon="4.69214">
        <ele>199</ele>
        <time>2018-01-07T10:09:56Z</time>
      </trkpt>
      <trkpt lat="45.85601" lon="4.69208">
        <ele>199</ele>
        <time>2018-01-07T10:09:57Z</time>
      </trkpt>
      <trkpt lat="45.85601" lon="4.69201">
        <ele>199</ele>
        <time>2018-01-07T10:09:58Z</time>
      </trkpt>
      <trkpt lat="45.85602" lon="4.69194">
        <ele>199</ele>
        <time>2018-01-07T10:09:59Z</time>
      </trkpt>
      <trkpt lat="45.85601" lon="4.69184">
        <ele>199</ele>
        <time>2018-01-07T10:10:01Z</time>
      </trkpt>
      <trkpt lat="45.856" lon="4.69177">
        <ele>199</ele>
        <time>2018-01-07T10:10:02Z</time>
      </trkpt>
      <trkpt lat="45.85601" lon="4.69169">
        <ele>199</ele>
        <time>2018-01-07T10:10:03Z</time>
      </trkpt>
      <trkpt lat="45.856" lon="4.69163">
        <ele>199</ele>
        <time>2018-01-07T10:10:04Z</time>
      </trkpt>
      <trkpt lat="45.856" lon="4.69156">
        <ele>199</ele>
        <time>2018-01-07T10:10:05Z</time>
      </trkpt>
      <trkpt lat="45.856" lon="4.69149">
        <ele>199</ele>
        <time>2018-01-07T10:10:06Z</time>
      </trkpt>
      <trkpt lat="45.85599" lon="4.69138">
        <ele>198</ele>
        <time>2018-01-07T10:10:08Z</time>
      </trkpt>
      <trkpt lat="45.85599" lon="4.69132">
        <ele>198</ele>
        <time>2018-01-07T10:10:09Z</time>
      </trkpt>
      <trkpt lat="45.85598" lon="4.69124">
        <ele>198</ele>
        <time>2018-01-07T10:10:10Z</time>
      </trkpt>
      <trkpt lat="45.85597" lon="4.69117">
        <ele>198</ele>
        <time>2018-01-07T10:10:11Z</time>
      </trkpt>
      <trkpt lat="45.85595" lon="4.6911">
        <ele>199</ele>
        <time>2018-01-07T10:10:12Z</time>
      </trkpt>
      <trkpt lat="45.85595" lon="4.69104">
        <ele>199</ele>
        <time>2018-01-07T10:10:13Z</time>
      </trkpt>
      <trkpt lat="45.85594" lon="4.69092">
        <ele>199</ele>
        <time>2018-01-07T10:10:15Z</time>
      </trkpt>
      <trkpt lat="45.85592" lon="4.69087">
        <ele>199</ele>
        <time>2018-01-07T10:10:16Z</time>
      </trkpt>
      <trkpt lat="45.85591" lon="4.69075">
        <ele>199</ele>
        <time>2018-01-07T10:10:18Z</time>
      </trkpt>
      <trkpt lat="45.85591" lon="4.69069">
        <ele>199</ele>
        <time>2018-01-07T10:10:19Z</time>
      </trkpt>
      <trkpt lat="45.85591" lon="4.69057">
        <ele>199</ele>
        <time>2018-01-07T10:10:21Z</time>
      </trkpt>
      <trkpt lat="45.85591" lon="4.69049">
        <ele>199</ele>
        <time>2018-01-07T10:10:22Z</time>
      </trkpt>
      <trkpt lat="45.8559" lon="4.69042">
        <ele>199</ele>
        <time>2018-01-07T10:10:23Z</time>
      </trkpt>
      <trkpt lat="45.85589" lon="4.69035">
        <ele>199</ele>
        <time>2018-01-07T10:10:24Z</time>
      </trkpt>
      <trkpt lat="45.85588" lon="4.69028">
        <ele>199</ele>
        <time>2018-01-07T10:10:25Z</time>
      </trkpt>
      <trkpt lat="45.85587" lon="4.6902">
        <ele>199</ele>
        <time>2018-01-07T10:10:26Z</time>
      </trkpt>
      <trkpt lat="45.85587" lon="4.69012">
        <ele>200</ele>
        <time>2018-01-07T10:10:27Z</time>
      </trkpt>
      <trkpt lat="45.85587" lon="4.69006">
        <ele>200</ele>
        <time>2018-01-07T10:10:28Z</time>
      </trkpt>
      <trkpt lat="45.85586" lon="4.68999">
        <ele>200</ele>
        <time>2018-01-07T10:10:29Z</time>
      </trkpt>
      <trkpt lat="45.85585" lon="4.68992">
        <ele>200</ele>
        <time>2018-01-07T10:10:30Z</time>
      </trkpt>
      <trkpt lat="45.85585" lon="4.6898">
        <ele>200</ele>
        <time>2018-01-07T10:10:32Z</time>
      </trkpt>
      <trkpt lat="45.85584" lon="4.68974">
        <ele>200</ele>
        <time>2018-01-07T10:10:33Z</time>
      </trkpt>
      <trkpt lat="45.85583" lon="4.68968">
        <ele>200</ele>
        <time>2018-01-07T10:10:34Z</time>
      </trkpt>
      <trkpt lat="45.85583" lon="4.6896">
        <ele>200</ele>
        <time>2018-01-07T10:10:35Z</time>
      </trkpt>
      <trkpt lat="45.85582" lon="4.68951">
        <ele>200</ele>
        <time>2018-01-07T10:10:36Z</time>
      </trkpt>
      <trkpt lat="45.85581" lon="4.68942">
        <ele>200</ele>
        <time>2018-01-07T10:10:37Z</time>
      </trkpt>
      <trkpt lat="45.8558" lon="4.68935">
        <ele>200</ele>
        <time>2018-01-07T10:10:38Z</time>
      </trkpt>
      <trkpt lat="45.8558" lon="4.68927">
        <ele>200</ele>
        <time>2018-01-07T10:10:39Z</time>
      </trkpt>
      <trkpt lat="45.85578" lon="4.68918">
        <ele>200</ele>
        <time>2018-01-07T10:10:40Z</time>
      </trkpt>
      <trkpt lat="45.85578" lon="4.68909">
        <ele>200</ele>
        <time>2018-01-07T10:10:41Z</time>
      </trkpt>
      <trkpt lat="45.85577" lon="4.68901">
        <ele>200</ele>
        <time>2018-01-07T10:10:42Z</time>
      </trkpt>
      <trkpt lat="45.85575" lon="4.68893">
        <ele>200</ele>
        <time>2018-01-07T10:10:43Z</time>
      </trkpt>
      <trkpt lat="45.85575" lon="4.68886">
        <ele>200</ele>
        <time>2018-01-07T10:10:44Z</time>
      </trkpt>
      <trkpt lat="45.85574" lon="4.68879">
        <ele>200</ele>
        <time>2018-01-07T10:10:45Z</time>
      </trkpt>
      <trkpt lat="45.85574" lon="4.68872">
        <ele>200</ele>
        <time>2018-01-07T10:10:46Z</time>
      </trkpt>
      <trkpt lat="45.85574" lon="4.68866">
        <ele>200</ele>
        <time>2018-01-07T10:10:47Z</time>
      </trkpt>
      <trkpt lat="45.85574" lon="4.68859">
        <ele>200</ele>
        <time>2018-01-07T10:10:48Z</time>
      </trkpt>
      <trkpt lat="45.85574" lon="4.68852">
        <ele>200</ele>
        <time>2018-01-07T10:10:49Z</time>
      </trkpt>
      <trkpt lat="45.85571" lon="4.6884">
        <ele>200</ele>
        <time>2018-01-07T10:10:51Z</time>
      </trkpt>
      <trkpt lat="45.8557" lon="4.68834">
        <ele>200</ele>
        <time>2018-01-07T10:10:52Z</time>
      </trkpt>
      <trkpt lat="45.85569" lon="4.68823">
        <ele>200</ele>
        <time>2018-01-07T10:10:54Z</time>
      </trkpt>
      <trkpt lat="45.85568" lon="4.68816">
        <ele>200</ele>
        <time>2018-01-07T10:10:55Z</time>
      </trkpt>
      <trkpt lat="45.85568" lon="4.6881">
        <ele>200</ele>
        <time>2018-01-07T10:10:56Z</time>
      </trkpt>
      <trkpt lat="45.85568" lon="4.68803">
        <ele>200</ele>
        <time>2018-01-07T10:10:57Z</time>
      </trkpt>
      <trkpt lat="45.85568" lon="4.68796">
        <ele>200</ele>
        <time>2018-01-07T10:10:58Z</time>
      </trkpt>
      <trkpt lat="45.85567" lon="4.68787">
        <ele>200</ele>
        <time>2018-01-07T10:10:59Z</time>
      </trkpt>
      <trkpt lat="45.85567" lon="4.6878">
        <ele>200</ele>
        <time>2018-01-07T10:11:00Z</time>
      </trkpt>
      <trkpt lat="45.85565" lon="4.68773">
        <ele>200</ele>
        <time>2018-01-07T10:11:01Z</time>
      </trkpt>
      <trkpt lat="45.85566" lon="4.68766">
        <ele>200</ele>
        <time>2018-01-07T10:11:02Z</time>
      </trkpt>
      <trkpt lat="45.85565" lon="4.68759">
        <ele>200</ele>
        <time>2018-01-07T10:11:03Z</time>
      </trkpt>
      <trkpt lat="45.85564" lon="4.68747">
        <ele>200</ele>
        <time>2018-01-07T10:11:05Z</time>
      </trkpt>
      <trkpt lat="45.85562" lon="4.68741">
        <ele>200</ele>
        <time>2018-01-07T10:11:06Z</time>
      </trkpt>
      <trkpt lat="45.85561" lon="4.68735">
        <ele>200</ele>
        <time>2018-01-07T10:11:07Z</time>
      </trkpt>
      <trkpt lat="45.8556" lon="4.68728">
        <ele>200</ele>
        <time>2018-01-07T10:11:08Z</time>
      </trkpt>
      <trkpt lat="45.8556" lon="4.68722">
        <ele>200</ele>
        <time>2018-01-07T10:11:09Z</time>
      </trkpt>
      <trkpt lat="45.85558" lon="4.68714">
        <ele>200</ele>
        <time>2018-01-07T10:11:10Z</time>
      </trkpt>
      <trkpt lat="45.85557" lon="4.68707">
        <ele>200</ele>
        <time>2018-01-07T10:11:11Z</time>
      </trkpt>
      <trkpt lat="45.85557" lon="4.68698">
        <ele>200</ele>
        <time>2018-01-07T10:11:12Z</time>
      </trkpt>
      <trkpt lat="45.85556" lon="4.68691">
        <ele>200</ele>
        <time>2018-01-07T10:11:13Z</time>
      </trkpt>
      <trkpt lat="45.85555" lon="4.68683">
        <ele>200</ele>
        <time>2018-01-07T10:11:14Z</time>
      </trkpt>
      <trkpt lat="45.85554" lon="4.68675">
        <ele>200</ele>
        <time>2018-01-07T10:11:15Z</time>
      </trkpt>
      <trkpt lat="45.85553" lon="4.68668">
        <ele>200</ele>
        <time>2018-01-07T10:11:16Z</time>
      </trkpt>
      <trkpt lat="45.85552" lon="4.68659">
        <ele>200</ele>
        <time>2018-01-07T10:11:17Z</time>
      </trkpt>
      <trkpt lat="45.85551" lon="4.68651">
        <ele>201</ele>
        <time>2018-01-07T10:11:18Z</time>
      </trkpt>
      <trkpt lat="45.8555" lon="4.68643">
        <ele>201</ele>
        <time>2018-01-07T10:11:19Z</time>
      </trkpt>
      <trkpt lat="45.85548" lon="4.68635">
        <ele>201</ele>
        <time>2018-01-07T10:11:20Z</time>
      </trkpt>
      <trkpt lat="45.85548" lon="4.68627">
        <ele>201</ele>
        <time>2018-01-07T10:11:21Z</time>
      </trkpt>
      <trkpt lat="45.85547" lon="4.6862">
        <ele>201</ele>
        <time>2018-01-07T10:11:22Z</time>
      </trkpt>
      <trkpt lat="45.85546" lon="4.68613">
        <ele>201</ele>
        <time>2018-01-07T10:11:23Z</time>
      </trkpt>
      <trkpt lat="45.85545" lon="4.68606">
        <ele>201</ele>
        <time>2018-01-07T10:11:24Z</time>
      </trkpt>
      <trkpt lat="45.85545" lon="4.68594">
        <ele>201</ele>
        <time>2018-01-07T10:11:26Z</time>
      </trkpt>
      <trkpt lat="45.85544" lon="4.68587">
        <ele>201</ele>
        <time>2018-01-07T10:11:27Z</time>
      </trkpt>
      <trkpt lat="45.85543" lon="4.6858">
        <ele>201</ele>
        <time>2018-01-07T10:11:28Z</time>
      </trkpt>
      <trkpt lat="45.85543" lon="4.68572">
        <ele>201</ele>
        <time>2018-01-07T10:11:29Z</time>
      </trkpt>
      <trkpt lat="45.85543" lon="4.68564">
        <ele>201</ele>
        <time>2018-01-07T10:11:30Z</time>
      </trkpt>
      <trkpt lat="45.85542" lon="4.68556">
        <ele>201</ele>
        <time>2018-01-07T10:11:31Z</time>
      </trkpt>
      <trkpt lat="45.85541" lon="4.68546">
        <ele>201</ele>
        <time>2018-01-07T10:11:32Z</time>
      </trkpt>
      <trkpt lat="45.85541" lon="4.68538">
        <ele>201</ele>
        <time>2018-01-07T10:11:33Z</time>
      </trkpt>
      <trkpt lat="45.8554" lon="4.68531">
        <ele>201</ele>
        <time>2018-01-07T10:11:34Z</time>
      </trkpt>
      <trkpt lat="45.85539" lon="4.68523">
        <ele>201</ele>
        <time>2018-01-07T10:11:35Z</time>
      </trkpt>
      <trkpt lat="45.8554" lon="4.68515">
        <ele>201</ele>
        <time>2018-01-07T10:11:36Z</time>
      </trkpt>
      <trkpt lat="45.85539" lon="4.68509">
        <ele>201</ele>
        <time>2018-01-07T10:11:37Z</time>
      </trkpt>
      <trkpt lat="45.85538" lon="4.68497">
        <ele>200</ele>
        <time>2018-01-07T10:11:39Z</time>
      </trkpt>
      <trkpt lat="45.85537" lon="4.68489">
        <ele>200</ele>
        <time>2018-01-07T10:11:40Z</time>
      </trkpt>
      <trkpt lat="45.85536" lon="4.68481">
        <ele>200</ele>
        <time>2018-01-07T10:11:41Z</time>
      </trkpt>
      <trkpt lat="45.85536" lon="4.68473">
        <ele>200</ele>
        <time>2018-01-07T10:11:42Z</time>
      </trkpt>
      <trkpt lat="45.85535" lon="4.68465">
        <ele>200</ele>
        <time>2018-01-07T10:11:43Z</time>
      </trkpt>
      <trkpt lat="45.85534" lon="4.68455">
        <ele>200</ele>
        <time>2018-01-07T10:11:44Z</time>
      </trkpt>
      <trkpt lat="45.85533" lon="4.68446">
        <ele>200</ele>
        <time>2018-01-07T10:11:45Z</time>
      </trkpt>
      <trkpt lat="45.85533" lon="4.68436">
        <ele>200</ele>
        <time>2018-01-07T10:11:46Z</time>
      </trkpt>
      <trkpt lat="45.85532" lon="4.6843">
        <ele>200</ele>
        <time>2018-01-07T10:11:47Z</time>
      </trkpt>
      <trkpt lat="45.85532" lon="4.68422">
        <ele>200</ele>
        <time>2018-01-07T10:11:48Z</time>
      </trkpt>
      <trkpt lat="45.85531" lon="4.68413">
        <ele>200</ele>
        <time>2018-01-07T10:11:49Z</time>
      </trkpt>
      <trkpt lat="45.8553" lon="4.68406">
        <ele>200</ele>
        <time>2018-01-07T10:11:50Z</time>
      </trkpt>
      <trkpt lat="45.85529" lon="4.68398">
        <ele>200</ele>
        <time>2018-01-07T10:11:51Z</time>
      </trkpt>
      <trkpt lat="45.85528" lon="4.68391">
        <ele>200</ele>
        <time>2018-01-07T10:11:52Z</time>
      </trkpt>
      <trkpt lat="45.85527" lon="4.68383">
        <ele>200</ele>
        <time>2018-01-07T10:11:53Z</time>
      </trkpt>
      <trkpt lat="45.85526" lon="4.68376">
        <ele>201</ele>
        <time>2018-01-07T10:11:54Z</time>
      </trkpt>
      <trkpt lat="45.85526" lon="4.6837">
        <ele>201</ele>
        <time>2018-01-07T10:11:55Z</time>
      </trkpt>
      <trkpt lat="45.85525" lon="4.68362">
        <ele>201</ele>
        <time>2018-01-07T10:11:56Z</time>
      </trkpt>
      <trkpt lat="45.85525" lon="4.68354">
        <ele>201</ele>
        <time>2018-01-07T10:11:57Z</time>
      </trkpt>
      <trkpt lat="45.85525" lon="4.68347">
        <ele>201</ele>
        <time>2018-01-07T10:11:58Z</time>
      </trkpt>
      <trkpt lat="45.85525" lon="4.6834">
        <ele>201</ele>
        <time>2018-01-07T10:11:59Z</time>
      </trkpt>
      <trkpt lat="45.85524" lon="4.68333">
        <ele>201</ele>
        <time>2018-01-07T10:12:00Z</time>
      </trkpt>
      <trkpt lat="45.85523" lon="4.68327">
        <ele>202</ele>
        <time>2018-01-07T10:12:01Z</time>
      </trkpt>
      <trkpt lat="45.85521" lon="4.6832">
        <ele>202</ele>
        <time>2018-01-07T10:12:02Z</time>
      </trkpt>
      <trkpt lat="45.8552" lon="4.68311">
        <ele>202</ele>
        <time>2018-01-07T10:12:03Z</time>
      </trkpt>
      <trkpt lat="45.85519" lon="4.68303">
        <ele>202</ele>
        <time>2018-01-07T10:12:04Z</time>
      </trkpt>
      <trkpt lat="45.85519" lon="4.68297">
        <ele>202</ele>
        <time>2018-01-07T10:12:05Z</time>
      </trkpt>
      <trkpt lat="45.85518" lon="4.68289">
        <ele>202</ele>
        <time>2018-01-07T10:12:06Z</time>
      </trkpt>
      <trkpt lat="45.85516" lon="4.68281">
        <ele>202</ele>
        <time>2018-01-07T10:12:07Z</time>
      </trkpt>
      <trkpt lat="45.85515" lon="4.68273">
        <ele>202</ele>
        <time>2018-01-07T10:12:08Z</time>
      </trkpt>
      <trkpt lat="45.85514" lon="4.68265">
        <ele>202</ele>
        <time>2018-01-07T10:12:09Z</time>
      </trkpt>
      <trkpt lat="45.85513" lon="4.68257">
        <ele>203</ele>
        <time>2018-01-07T10:12:10Z</time>
      </trkpt>
      <trkpt lat="45.85513" lon="4.6825">
        <ele>203</ele>
        <time>2018-01-07T10:12:11Z</time>
      </trkpt>
      <trkpt lat="45.85514" lon="4.68244">
        <ele>203</ele>
        <time>2018-01-07T10:12:12Z</time>
      </trkpt>
      <trkpt lat="45.85515" lon="4.68231">
        <ele>203</ele>
        <time>2018-01-07T10:12:14Z</time>
      </trkpt>
      <trkpt lat="45.85515" lon="4.68224">
        <ele>203</ele>
        <time>2018-01-07T10:12:15Z</time>
      </trkpt>
      <trkpt lat="45.85515" lon="4.68212">
        <ele>203</ele>
        <time>2018-01-07T10:12:17Z</time>
      </trkpt>
      <trkpt lat="45.85515" lon="4.68206">
        <ele>203</ele>
        <time>2018-01-07T10:12:18Z</time>
      </trkpt>
      <trkpt lat="45.85515" lon="4.68199">
        <ele>203</ele>
        <time>2018-01-07T10:12:19Z</time>
      </trkpt>
      <trkpt lat="45.85513" lon="4.68192">
        <ele>203</ele>
        <time>2018-01-07T10:12:20Z</time>
      </trkpt>
      <trkpt lat="45.85512" lon="4.6818">
        <ele>203</ele>
        <time>2018-01-07T10:12:22Z</time>
      </trkpt>
      <trkpt lat="45.85511" lon="4.68172">
        <ele>204</ele>
        <time>2018-01-07T10:12:23Z</time>
      </trkpt>
      <trkpt lat="45.85509" lon="4.6816">
        <ele>204</ele>
        <time>2018-01-07T10:12:25Z</time>
      </trkpt>
      <trkpt lat="45.85509" lon="4.68153">
        <ele>203</ele>
        <time>2018-01-07T10:12:26Z</time>
      </trkpt>
      <trkpt lat="45.85511" lon="4.68142">
        <ele>203</ele>
        <time>2018-01-07T10:12:28Z</time>
      </trkpt>
      <trkpt lat="45.85512" lon="4.68136">
        <ele>203</ele>
        <time>2018-01-07T10:12:29Z</time>
      </trkpt>
      <trkpt lat="45.85511" lon="4.68129">
        <ele>203</ele>
        <time>2018-01-07T10:12:30Z</time>
      </trkpt>
      <trkpt lat="45.8551" lon="4.68123">
        <ele>203</ele>
        <time>2018-01-07T10:12:31Z</time>
      </trkpt>
      <trkpt lat="45.85508" lon="4.68112">
        <ele>203</ele>
        <time>2018-01-07T10:12:33Z</time>
      </trkpt>
      <trkpt lat="45.85508" lon="4.68105">
        <ele>203</ele>
        <time>2018-01-07T10:12:34Z</time>
      </trkpt>
      <trkpt lat="45.85506" lon="4.68093">
        <ele>203</ele>
        <time>2018-01-07T10:12:36Z</time>
      </trkpt>
      <trkpt lat="45.85506" lon="4.68088">
        <ele>204</ele>
        <time>2018-01-07T10:12:37Z</time>
      </trkpt>
      <trkpt lat="45.85505" lon="4.68076">
        <ele>204</ele>
        <time>2018-01-07T10:12:39Z</time>
      </trkpt>
      <trkpt lat="45.85505" lon="4.68071">
        <ele>203</ele>
        <time>2018-01-07T10:12:40Z</time>
      </trkpt>
      <trkpt lat="45.85503" lon="4.68059">
        <ele>203</ele>
        <time>2018-01-07T10:12:42Z</time>
      </trkpt>
      <trkpt lat="45.85503" lon="4.68053">
        <ele>203</ele>
        <time>2018-01-07T10:12:43Z</time>
      </trkpt>
      <trkpt lat="45.85503" lon="4.68042">
        <ele>203</ele>
        <time>2018-01-07T10:12:45Z</time>
      </trkpt>
      <trkpt lat="45.85502" lon="4.68037">
        <ele>204</ele>
        <time>2018-01-07T10:12:46Z</time>
      </trkpt>
      <trkpt lat="45.855" lon="4.68027">
        <ele>207</ele>
        <time>2018-01-07T10:12:48Z</time>
      </trkpt>
      <trkpt lat="45.85499" lon="4.68022">
        <ele>207</ele>
        <time>2018-01-07T10:12:49Z</time>
      </trkpt>
      <trkpt lat="45.85499" lon="4.6801">
        <ele>206</ele>
        <time>2018-01-07T10:12:51Z</time>
      </trkpt>
      <trkpt lat="45.855" lon="4.68004">
        <ele>206</ele>
        <time>2018-01-07T10:12:52Z</time>
      </trkpt>
      <trkpt lat="45.85505" lon="4.67994">
        <ele>206</ele>
        <time>2018-01-07T10:12:54Z</time>
      </trkpt>
      <trkpt lat="45.85508" lon="4.6799">
        <ele>206</ele>
        <time>2018-01-07T10:12:55Z</time>
      </trkpt>
      <trkpt lat="45.85515" lon="4.67983">
        <ele>206</ele>
        <time>2018-01-07T10:12:57Z</time>
      </trkpt>
      <trkpt lat="45.85518" lon="4.6798">
        <ele>206</ele>
        <time>2018-01-07T10:12:58Z</time>
      </trkpt>
      <trkpt lat="45.85524" lon="4.67973">
        <ele>206</ele>
        <time>2018-01-07T10:13:00Z</time>
      </trkpt>
      <trkpt lat="45.85527" lon="4.67969">
        <ele>205</ele>
        <time>2018-01-07T10:13:01Z</time>
      </trkpt>
      <trkpt lat="45.85534" lon="4.67963">
        <ele>205</ele>
        <time>2018-01-07T10:13:03Z</time>
      </trkpt>
      <trkpt lat="45.85537" lon="4.67959">
        <ele>205</ele>
        <time>2018-01-07T10:13:04Z</time>
      </trkpt>
      <trkpt lat="45.85543" lon="4.67951">
        <ele>205</ele>
        <time>2018-01-07T10:13:06Z</time>
      </trkpt>
      <trkpt lat="45.85547" lon="4.67947">
        <ele>205</ele>
        <time>2018-01-07T10:13:07Z</time>
      </trkpt>
      <trkpt lat="45.85552" lon="4.67941">
        <ele>205</ele>
        <time>2018-01-07T10:13:09Z</time>
      </trkpt>
      <trkpt lat="45.85555" lon="4.67938">
        <ele>205</ele>
        <time>2018-01-07T10:13:10Z</time>
      </trkpt>
      <trkpt lat="45.85561" lon="4.67932">
        <ele>205</ele>
        <time>2018-01-07T10:13:12Z</time>
      </trkpt>
      <trkpt lat="45.85565" lon="4.67935">
        <ele>205</ele>
        <time>2018-01-07T10:13:13Z</time>
      </trkpt>
      <trkpt lat="45.85572" lon="4.6794">
        <ele>205</ele>
        <time>2018-01-07T10:13:15Z</time>
      </trkpt>
      <trkpt lat="45.85575" lon="4.67945">
        <ele>205</ele>
        <time>2018-01-07T10:13:16Z</time>
      </trkpt>
      <trkpt lat="45.85578" lon="4.67951">
        <ele>204</ele>
        <time>2018-01-07T10:13:17Z</time>
      </trkpt>
      <trkpt lat="45.85581" lon="4.67957">
        <ele>204</ele>
        <time>2018-01-07T10:13:18Z</time>
      </trkpt>
      <trkpt lat="45.85585" lon="4.67964">
        <ele>203</ele>
        <time>2018-01-07T10:13:19Z</time>
      </trkpt>
      <trkpt lat="45.85588" lon="4.6797">
        <ele>203</ele>
        <time>2018-01-07T10:13:20Z</time>
      </trkpt>
      <trkpt lat="45.85591" lon="4.67976">
        <ele>203</ele>
        <time>2018-01-07T10:13:21Z</time>
      </trkpt>
      <trkpt lat="45.85594" lon="4.67983">
        <ele>202</ele>
        <time>2018-01-07T10:13:22Z</time>
      </trkpt>
      <trkpt lat="45.85597" lon="4.6799">
        <ele>202</ele>
        <time>2018-01-07T10:13:23Z</time>
      </trkpt>
      <trkpt lat="45.856" lon="4.67995">
        <ele>202</ele>
        <time>2018-01-07T10:13:24Z</time>
      </trkpt>
      <trkpt lat="45.85604" lon="4.68001">
        <ele>201</ele>
        <time>2018-01-07T10:13:25Z</time>
      </trkpt>
      <trkpt lat="45.85606" lon="4.68007">
        <ele>201</ele>
        <time>2018-01-07T10:13:26Z</time>
      </trkpt>
      <trkpt lat="45.85609" lon="4.68016">
        <ele>201</ele>
        <time>2018-01-07T10:13:28Z</time>
      </trkpt>
      <trkpt lat="45.8561" lon="4.68019">
        <ele>201</ele>
        <time>2018-01-07T10:13:29Z</time>
      </trkpt>
      <trkpt lat="45.85614" lon="4.68029">
        <ele>201</ele>
        <time>2018-01-07T10:13:45Z</time>
      </trkpt>
      <trkpt lat="45.85616" lon="4.6803">
        <ele>201</ele>
        <time>2018-01-07T10:13:46Z</time>
      </trkpt>
      <trkpt lat="45.85619" lon="4.68039">
        <ele>201</ele>
        <time>2018-01-07T10:26:41Z</time>
      </trkpt>
      <trkpt lat="45.8562" lon="4.68042">
        <ele>200</ele>
        <time>2018-01-07T10:26:42Z</time>
      </trkpt>
      <trkpt lat="45.85625" lon="4.68051">
        <ele>200</ele>
        <time>2018-01-07T10:26:45Z</time>
      </trkpt>
      <trkpt lat="45.85627" lon="4.68053">
        <ele>200</ele>
        <time>2018-01-07T10:26:46Z</time>
      </trkpt>
      <trkpt lat="45.85632" lon="4.68059">
        <ele>200</ele>
        <time>2018-01-07T10:26:48Z</time>
      </trkpt>
      <trkpt lat="45.85634" lon="4.68062">
        <ele>200</ele>
        <time>2018-01-07T10:26:49Z</time>
      </trkpt>
      <trkpt lat="45.85639" lon="4.68069">
        <ele>200</ele>
        <time>2018-01-07T10:26:51Z</time>
      </trkpt>
      <trkpt lat="45.85642" lon="4.68073">
        <ele>200</ele>
        <time>2018-01-07T10:26:52Z</time>
      </trkpt>
      <trkpt lat="45.85647" lon="4.68081">
        <ele>200</ele>
        <time>2018-01-07T10:26:54Z</time>
      </trkpt>
      <trkpt lat="45.85649" lon="4.68085">
        <ele>200</ele>
        <time>2018-01-07T10:26:55Z</time>
      </trkpt>
      <trkpt lat="45.85654" lon="4.68093">
        <ele>200</ele>
        <time>2018-01-07T10:26:57Z</time>
      </trkpt>
      <trkpt lat="45.85657" lon="4.68097">
        <ele>200</ele>
        <time>2018-01-07T10:26:58Z</time>
      </trkpt>
      <trkpt lat="45.85662" lon="4.68103">
        <ele>200</ele>
        <time>2018-01-07T10:27:00Z</time>
      </trkpt>
      <trkpt lat="45.85665" lon="4.68107">
        <ele>200</ele>
        <time>2018-01-07T10:27:01Z</time>
      </trkpt>
      <trkpt lat="45.85671" lon="4.68114">
        <ele>200</ele>
        <time>2018-01-07T10:27:03Z</time>
      </trkpt>
      <trkpt lat="45.85674" lon="4.68118">
        <ele>200</ele>
        <time>2018-01-07T10:27:04Z</time>
      </trkpt>
      <trkpt lat="45.85681" lon="4.68126">
        <ele>200</ele>
        <time>2018-01-07T10:27:06Z</time>
      </trkpt>
      <trkpt lat="45.85685" lon="4.6813">
        <ele>200</ele>
        <time>2018-01-07T10:27:07Z</time>
      </trkpt>
      <trkpt lat="45.85689" lon="4.68135">
        <ele>200</ele>
        <time>2018-01-07T10:27:08Z</time>
      </trkpt>
      <trkpt lat="45.85692" lon="4.68139">
        <ele>200</ele>
        <time>2018-01-07T10:27:09Z</time>
      </trkpt>
      <trkpt lat="45.85696" lon="4.68144">
        <ele>200</ele>
        <time>2018-01-07T10:27:10Z</time>
      </trkpt>
      <trkpt lat="45.857" lon="4.68149">
        <ele>200</ele>
        <time>2018-01-07T10:27:11Z</time>
      </trkpt>
      <trkpt lat="45.85704" lon="4.68154">
        <ele>200</ele>
        <time>2018-01-07T10:27:12Z</time>
      </trkpt>
      <trkpt lat="45.85708" lon="4.68159">
        <ele>200</ele>
        <time>2018-01-07T10:27:13Z</time>
      </trkpt>
      <trkpt lat="45.85713" lon="4.68166">
        <ele>200</ele>
        <time>2018-01-07T10:27:14Z</time>
      </trkpt>
      <trkpt lat="45.85717" lon="4.6817">
        <ele>199</ele>
        <time>2018-01-07T10:27:15Z</time>
      </trkpt>
      <trkpt lat="45.85722" lon="4.68176">
        <ele>199</ele>
        <time>2018-01-07T10:27:16Z</time>
      </trkpt>
      <trkpt lat="45.85726" lon="4.68183">
        <ele>199</ele>
        <time>2018-01-07T10:27:17Z</time>
      </trkpt>
      <trkpt lat="45.85731" lon="4.68187">
        <ele>199</ele>
        <time>2018-01-07T10:27:18Z</time>
      </trkpt>
      <trkpt lat="45.85735" lon="4.68192">
        <ele>199</ele>
        <time>2018-01-07T10:27:19Z</time>
      </trkpt>
      <trkpt lat="45.85739" lon="4.68196">
        <ele>199</ele>
        <time>2018-01-07T10:27:20Z</time>
      </trkpt>
      <trkpt lat="45.85743" lon="4.68201">
        <ele>199</ele>
        <time>2018-01-07T10:27:21Z</time>
      </trkpt>
      <trkpt lat="45.85747" lon="4.68204">
        <ele>199</ele>
        <time>2018-01-07T10:27:22Z</time>
      </trkpt>
      <trkpt lat="45.8575" lon="4.68209">
        <ele>202</ele>
        <time>2018-01-07T10:27:23Z</time>
      </trkpt>
      <trkpt lat="45.85754" lon="4.68215">
        <ele>201</ele>
        <time>2018-01-07T10:27:24Z</time>
      </trkpt>
      <trkpt lat="45.85758" lon="4.6822">
        <ele>201</ele>
        <time>2018-01-07T10:27:25Z</time>
      </trkpt>
      <trkpt lat="45.85762" lon="4.68226">
        <ele>201</ele>
        <time>2018-01-07T10:27:26Z</time>
      </trkpt>
      <trkpt lat="45.85766" lon="4.68231">
        <ele>201</ele>
        <time>2018-01-07T10:27:27Z</time>
      </trkpt>
      <trkpt lat="45.85772" lon="4.68237">
        <ele>201</ele>
        <time>2018-01-07T10:27:28Z</time>
      </trkpt>
      <trkpt lat="45.85777" lon="4.68241">
        <ele>201</ele>
        <time>2018-01-07T10:27:29Z</time>
      </trkpt>
      <trkpt lat="45.85781" lon="4.68247">
        <ele>201</ele>
        <time>2018-01-07T10:27:30Z</time>
      </trkpt>
      <trkpt lat="45.85785" lon="4.68252">
        <ele>200</ele>
        <time>2018-01-07T10:27:31Z</time>
      </trkpt>
      <trkpt lat="45.85788" lon="4.68255">
        <ele>200</ele>
        <time>2018-01-07T10:27:32Z</time>
      </trkpt>
      <trkpt lat="45.85792" lon="4.6826">
        <ele>201</ele>
        <time>2018-01-07T10:27:33Z</time>
      </trkpt>
      <trkpt lat="45.85795" lon="4.68264">
        <ele>201</ele>
        <time>2018-01-07T10:27:34Z</time>
      </trkpt>
      <trkpt lat="45.85799" lon="4.6827">
        <ele>201</ele>
        <time>2018-01-07T10:27:35Z</time>
      </trkpt>
      <trkpt lat="45.85803" lon="4.68275">
        <ele>201</ele>
        <time>2018-01-07T10:27:36Z</time>
      </trkpt>
      <trkpt lat="45.85807" lon="4.6828">
        <ele>201</ele>
        <time>2018-01-07T10:27:37Z</time>
      </trkpt>
      <trkpt lat="45.85812" lon="4.68286">
        <ele>201</ele>
        <time>2018-01-07T10:27:38Z</time>
      </trkpt>
      <trkpt lat="45.85816" lon="4.68293">
        <ele>201</ele>
        <time>2018-01-07T10:27:39Z</time>
      </trkpt>
      <trkpt lat="45.8582" lon="4.683">
        <ele>201</ele>
        <time>2018-01-07T10:27:40Z</time>
      </trkpt>
      <trkpt lat="45.85823" lon="4.68306">
        <ele>200</ele>
        <time>2018-01-07T10:27:41Z</time>
      </trkpt>
      <trkpt lat="45.85827" lon="4.68312">
        <ele>200</ele>
        <time>2018-01-07T10:27:42Z</time>
      </trkpt>
      <trkpt lat="45.85831" lon="4.68319">
        <ele>200</ele>
        <time>2018-01-07T10:27:43Z</time>
      </trkpt>
      <trkpt lat="45.85834" lon="4.68326">
        <ele>201</ele>
        <time>2018-01-07T10:27:44Z</time>
      </trkpt>
      <trkpt lat="45.85837" lon="4.68332">
        <ele>201</ele>
        <time>2018-01-07T10:27:45Z</time>
      </trkpt>
      <trkpt lat="45.8584" lon="4.68338">
        <ele>200</ele>
        <time>2018-01-07T10:27:46Z</time>
      </trkpt>
      <trkpt lat="45.85842" lon="4.68344">
        <ele>201</ele>
        <time>2018-01-07T10:27:47Z</time>
      </trkpt>
      <trkpt lat="45.85845" lon="4.6835">
        <ele>201</ele>
        <time>2018-01-07T10:27:48Z</time>
      </trkpt>
      <trkpt lat="45.85847" lon="4.68356">
        <ele>201</ele>
        <time>2018-01-07T10:27:49Z</time>
      </trkpt>
      <trkpt lat="45.85849" lon="4.68362">
        <ele>201</ele>
        <time>2018-01-07T10:27:50Z</time>
      </trkpt>
      <trkpt lat="45.85851" lon="4.6837">
        <ele>201</ele>
        <time>2018-01-07T10:27:51Z</time>
      </trkpt>
      <trkpt lat="45.85854" lon="4.68377">
        <ele>201</ele>
        <time>2018-01-07T10:27:52Z</time>
      </trkpt>
      <trkpt lat="45.85855" lon="4.68384">
        <ele>201</ele>
        <time>2018-01-07T10:27:53Z</time>
      </trkpt>
      <trkpt lat="45.85858" lon="4.68392">
        <ele>201</ele>
        <time>2018-01-07T10:27:54Z</time>
      </trkpt>
      <trkpt lat="45.8586" lon="4.684">
        <ele>201</ele>
        <time>2018-01-07T10:27:55Z</time>
      </trkpt>
      <trkpt lat="45.85863" lon="4.6841">
        <ele>201</ele>
        <time>2018-01-07T10:27:56Z</time>
      </trkpt>
      <trkpt lat="45.85865" lon="4.68417">
        <ele>200</ele>
        <time>2018-01-07T10:27:57Z</time>
      </trkpt>
      <trkpt lat="45.85865" lon="4.68424">
        <ele>200</ele>
        <time>2018-01-07T10:27:58Z</time>
      </trkpt>
      <trkpt lat="45.85867" lon="4.68431">
        <ele>200</ele>
        <time>2018-01-07T10:27:59Z</time>
      </trkpt>
      <trkpt lat="45.85869" lon="4.68437">
        <ele>200</ele>
        <time>2018-01-07T10:28:00Z</time>
      </trkpt>
      <trkpt lat="45.8587" lon="4.68445">
        <ele>200</ele>
        <time>2018-01-07T10:28:01Z</time>
      </trkpt>
      <trkpt lat="45.85871" lon="4.68452">
        <ele>200</ele>
        <time>2018-01-07T10:28:02Z</time>
      </trkpt>
      <trkpt lat="45.85872" lon="4.68458">
        <ele>200</ele>
        <time>2018-01-07T10:28:03Z</time>
      </trkpt>
      <trkpt lat="45.85873" lon="4.68465">
        <ele>200</ele>
        <time>2018-01-07T10:28:04Z</time>
      </trkpt>
      <trkpt lat="45.85875" lon="4.68472">
        <ele>200</ele>
        <time>2018-01-07T10:28:05Z</time>
      </trkpt>
      <trkpt lat="45.85875" lon="4.68481">
        <ele>201</ele>
        <time>2018-01-07T10:28:06Z</time>
      </trkpt>
      <trkpt lat="45.85876" lon="4.68489">
        <ele>201</ele>
        <time>2018-01-07T10:28:07Z</time>
      </trkpt>
      <trkpt lat="45.85876" lon="4.68496">
        <ele>201</ele>
        <time>2018-01-07T10:28:08Z</time>
      </trkpt>
      <trkpt lat="45.85878" lon="4.68504">
        <ele>200</ele>
        <time>2018-01-07T10:28:09Z</time>
      </trkpt>
      <trkpt lat="45.85878" lon="4.68513">
        <ele>200</ele>
        <time>2018-01-07T10:28:10Z</time>
      </trkpt>
      <trkpt lat="45.85879" lon="4.68523">
        <ele>200</ele>
        <time>2018-01-07T10:28:11Z</time>
      </trkpt>
      <trkpt lat="45.8588" lon="4.6853">
        <ele>200</ele>
        <time>2018-01-07T10:28:12Z</time>
      </trkpt>
      <trkpt lat="45.85881" lon="4.6854">
        <ele>200</ele>
        <time>2018-01-07T10:28:13Z</time>
      </trkpt>
      <trkpt lat="45.85883" lon="4.6855">
        <ele>200</ele>
        <time>2018-01-07T10:28:14Z</time>
      </trkpt>
      <trkpt lat="45.85884" lon="4.68558">
        <ele>200</ele>
        <time>2018-01-07T10:28:15Z</time>
      </trkpt>
      <trkpt lat="45.85884" lon="4.68566">
        <ele>200</ele>
        <time>2018-01-07T10:28:16Z</time>
      </trkpt>
      <trkpt lat="45.85886" lon="4.68576">
        <ele>199</ele>
        <time>2018-01-07T10:28:17Z</time>
      </trkpt>
      <trkpt lat="45.85887" lon="4.68584">
        <ele>199</ele>
        <time>2018-01-07T10:28:18Z</time>
      </trkpt>
      <trkpt lat="45.85888" lon="4.68593">
        <ele>199</ele>
        <time>2018-01-07T10:28:19Z</time>
      </trkpt>
      <trkpt lat="45.85888" lon="4.68601">
        <ele>199</ele>
        <time>2018-01-07T10:28:20Z</time>
      </trkpt>
      <trkpt lat="45.85889" lon="4.68608">
        <ele>199</ele>
        <time>2018-01-07T10:28:21Z</time>
      </trkpt>
      <trkpt lat="45.85889" lon="4.68615">
        <ele>199</ele>
        <time>2018-01-07T10:28:22Z</time>
      </trkpt>
      <trkpt lat="45.8589" lon="4.68623">
        <ele>199</ele>
        <time>2018-01-07T10:28:23Z</time>
      </trkpt>
      <trkpt lat="45.8589" lon="4.6863">
        <ele>198</ele>
        <time>2018-01-07T10:28:24Z</time>
      </trkpt>
      <trkpt lat="45.85891" lon="4.68639">
        <ele>198</ele>
        <time>2018-01-07T10:28:25Z</time>
      </trkpt>
      <trkpt lat="45.85892" lon="4.68647">
        <ele>198</ele>
        <time>2018-01-07T10:28:26Z</time>
      </trkpt>
      <trkpt lat="45.85892" lon="4.68655">
        <ele>198</ele>
        <time>2018-01-07T10:28:27Z</time>
      </trkpt>
      <trkpt lat="45.85893" lon="4.68665">
        <ele>198</ele>
        <time>2018-01-07T10:28:28Z</time>
      </trkpt>
      <trkpt lat="45.85892" lon="4.68672">
        <ele>198</ele>
        <time>2018-01-07T10:28:29Z</time>
      </trkpt>
      <trkpt lat="45.85891" lon="4.68684">
        <ele>198</ele>
        <time>2018-01-07T10:28:31Z</time>
      </trkpt>
      <trkpt lat="45.8589" lon="4.68692">
        <ele>198</ele>
        <time>2018-01-07T10:28:32Z</time>
      </trkpt>
      <trkpt lat="45.85889" lon="4.68701">
        <ele>198</ele>
        <time>2018-01-07T10:28:33Z</time>
      </trkpt>
      <trkpt lat="45.85888" lon="4.6871">
        <ele>198</ele>
        <time>2018-01-07T10:28:34Z</time>
      </trkpt>
      <trkpt lat="45.85887" lon="4.68719">
        <ele>198</ele>
        <time>2018-01-07T10:28:35Z</time>
      </trkpt>
      <trkpt lat="45.85886" lon="4.68726">
        <ele>198</ele>
        <time>2018-01-07T10:28:36Z</time>
      </trkpt>
      <trkpt lat="45.85884" lon="4.68733">
        <ele>198</ele>
        <time>2018-01-07T10:28:37Z</time>
      </trkpt>
      <trkpt lat="45.85883" lon="4.68741">
        <ele>198</ele>
        <time>2018-01-07T10:28:38Z</time>
      </trkpt>
      <trkpt lat="45.85882" lon="4.68748">
        <ele>198</ele>
        <time>2018-01-07T10:28:39Z</time>
      </trkpt>
      <trkpt lat="45.85879" lon="4.68755">
        <ele>198</ele>
        <time>2018-01-07T10:28:40Z</time>
      </trkpt>
      <trkpt lat="45.85878" lon="4.68763">
        <ele>198</ele>
        <time>2018-01-07T10:28:41Z</time>
      </trkpt>
      <trkpt lat="45.85876" lon="4.68769">
        <ele>198</ele>
        <time>2018-01-07T10:28:42Z</time>
      </trkpt>
      <trkpt lat="45.85875" lon="4.68778">
        <ele>198</ele>
        <time>2018-01-07T10:28:43Z</time>
      </trkpt>
      <trkpt lat="45.85874" lon="4.68787">
        <ele>198</ele>
        <time>2018-01-07T10:28:44Z</time>
      </trkpt>
      <trkpt lat="45.85873" lon="4.68796">
        <ele>198</ele>
        <time>2018-01-07T10:28:45Z</time>
      </trkpt>
      <trkpt lat="45.85872" lon="4.68805">
        <ele>198</ele>
        <time>2018-01-07T10:28:46Z</time>
      </trkpt>
      <trkpt lat="45.85871" lon="4.68814">
        <ele>198</ele>
        <time>2018-01-07T10:28:47Z</time>
      </trkpt>
      <trkpt lat="45.8587" lon="4.68822">
        <ele>198</ele>
        <time>2018-01-07T10:28:48Z</time>
      </trkpt>
      <trkpt lat="45.85869" lon="4.68832">
        <ele>198</ele>
        <time>2018-01-07T10:28:49Z</time>
      </trkpt>
      <trkpt lat="45.85868" lon="4.68841">
        <ele>198</ele>
        <time>2018-01-07T10:28:50Z</time>
      </trkpt>
      <trkpt lat="45.85867" lon="4.6885">
        <ele>198</ele>
        <time>2018-01-07T10:28:51Z</time>
      </trkpt>
      <trkpt lat="45.85866" lon="4.68857">
        <ele>198</ele>
        <time>2018-01-07T10:28:52Z</time>
      </trkpt>
      <trkpt lat="45.85866" lon="4.68866">
        <ele>198</ele>
        <time>2018-01-07T10:28:53Z</time>
      </trkpt>
      <trkpt lat="45.85865" lon="4.68875">
        <ele>198</ele>
        <time>2018-01-07T10:28:54Z</time>
      </trkpt>
      <trkpt lat="45.85866" lon="4.68881">
        <ele>197</ele>
        <time>2018-01-07T10:28:55Z</time>
      </trkpt>
      <trkpt lat="45.85865" lon="4.68889">
        <ele>197</ele>
        <time>2018-01-07T10:28:56Z</time>
      </trkpt>
      <trkpt lat="45.85865" lon="4.68897">
        <ele>197</ele>
        <time>2018-01-07T10:28:57Z</time>
      </trkpt>
      <trkpt lat="45.85864" lon="4.68904">
        <ele>197</ele>
        <time>2018-01-07T10:28:58Z</time>
      </trkpt>
      <trkpt lat="45.85861" lon="4.68909">
        <ele>197</ele>
        <time>2018-01-07T10:28:59Z</time>
      </trkpt>
      <trkpt lat="45.85861" lon="4.68917">
        <ele>197</ele>
        <time>2018-01-07T10:29:00Z</time>
      </trkpt>
      <trkpt lat="45.8586" lon="4.68925">
        <ele>197</ele>
        <time>2018-01-07T10:29:01Z</time>
      </trkpt>
      <trkpt lat="45.8586" lon="4.68933">
        <ele>197</ele>
        <time>2018-01-07T10:29:02Z</time>
      </trkpt>
      <trkpt lat="45.85861" lon="4.68944">
        <ele>197</ele>
        <time>2018-01-07T10:29:03Z</time>
      </trkpt>
      <trkpt lat="45.85861" lon="4.68952">
        <ele>197</ele>
        <time>2018-01-07T10:29:04Z</time>
      </trkpt>
      <trkpt lat="45.85861" lon="4.6896">
        <ele>197</ele>
        <time>2018-01-07T10:29:05Z</time>
      </trkpt>
      <trkpt lat="45.85862" lon="4.68969">
        <ele>197</ele>
        <time>2018-01-07T10:29:06Z</time>
      </trkpt>
      <trkpt lat="45.85864" lon="4.68978">
        <ele>197</ele>
        <time>2018-01-07T10:29:07Z</time>
      </trkpt>
      <trkpt lat="45.85864" lon="4.68986">
        <ele>197</ele>
        <time>2018-01-07T10:29:08Z</time>
      </trkpt>
      <trkpt lat="45.85866" lon="4.68995">
        <ele>197</ele>
        <time>2018-01-07T10:29:09Z</time>
      </trkpt>
      <trkpt lat="45.85869" lon="4.69004">
        <ele>197</ele>
        <time>2018-01-07T10:29:10Z</time>
      </trkpt>
      <trkpt lat="45.85871" lon="4.69013">
        <ele>197</ele>
        <time>2018-01-07T10:29:11Z</time>
      </trkpt>
      <trkpt lat="45.85873" lon="4.69022">
        <ele>197</ele>
        <time>2018-01-07T10:29:12Z</time>
      </trkpt>
      <trkpt lat="45.85877" lon="4.6903">
        <ele>198</ele>
        <time>2018-01-07T10:29:13Z</time>
      </trkpt>
      <trkpt lat="45.8588" lon="4.69037">
        <ele>198</ele>
        <time>2018-01-07T10:29:14Z</time>
      </trkpt>
      <trkpt lat="45.85883" lon="4.69044">
        <ele>198</ele>
        <time>2018-01-07T10:29:15Z</time>
      </trkpt>
      <trkpt lat="45.85887" lon="4.6905">
        <ele>198</ele>
        <time>2018-01-07T10:29:16Z</time>
      </trkpt>
      <trkpt lat="45.85891" lon="4.69056">
        <ele>198</ele>
        <time>2018-01-07T10:29:17Z</time>
      </trkpt>
      <trkpt lat="45.85896" lon="4.69061">
        <ele>198</ele>
        <time>2018-01-07T10:29:18Z</time>
      </trkpt>
      <trkpt lat="45.859" lon="4.69066">
        <ele>198</ele>
        <time>2018-01-07T10:29:19Z</time>
      </trkpt>
      <trkpt lat="45.85905" lon="4.6907">
        <ele>198</ele>
        <time>2018-01-07T10:29:20Z</time>
      </trkpt>
      <trkpt lat="45.8591" lon="4.69074">
        <ele>198</ele>
        <time>2018-01-07T10:29:21Z</time>
      </trkpt>
      <trkpt lat="45.85915" lon="4.69078">
        <ele>198</ele>
        <time>2018-01-07T10:29:22Z</time>
      </trkpt>
      <trkpt lat="45.8592" lon="4.69081">
        <ele>198</ele>
        <time>2018-01-07T10:29:23Z</time>
      </trkpt>
      <trkpt lat="45.85925" lon="4.69086">
        <ele>198</ele>
        <time>2018-01-07T10:29:24Z</time>
      </trkpt>
      <trkpt lat="45.85931" lon="4.69086">
        <ele>198</ele>
        <time>2018-01-07T10:29:25Z</time>
      </trkpt>
      <trkpt lat="45.85939" lon="4.69085">
        <ele>197</ele>
        <time>2018-01-07T10:29:26Z</time>
      </trkpt>
      <trkpt lat="45.85945" lon="4.69086">
        <ele>197</ele>
        <time>2018-01-07T10:29:27Z</time>
      </trkpt>
      <trkpt lat="45.85951" lon="4.69088">
        <ele>197</ele>
        <time>2018-01-07T10:29:28Z</time>
      </trkpt>
      <trkpt lat="45.85956" lon="4.69091">
        <ele>197</ele>
        <time>2018-01-07T10:29:29Z</time>
      </trkpt>
      <trkpt lat="45.85962" lon="4.69091">
        <ele>197</ele>
        <time>2018-01-07T10:29:30Z</time>
      </trkpt>
      <trkpt lat="45.85968" lon="4.69092">
        <ele>197</ele>
        <time>2018-01-07T10:29:31Z</time>
      </trkpt>
      <trkpt lat="45.85974" lon="4.69093">
        <ele>197</ele>
        <time>2018-01-07T10:29:32Z</time>
      </trkpt>
      <trkpt lat="45.8598" lon="4.69094">
        <ele>197</ele>
        <time>2018-01-07T10:29:33Z</time>
      </trkpt>
      <trkpt lat="45.85986" lon="4.69093">
        <ele>197</ele>
        <time>2018-01-07T10:29:34Z</time>
      </trkpt>
      <trkpt lat="45.85992" lon="4.69093">
        <ele>196</ele>
        <time>2018-01-07T10:29:35Z</time>
      </trkpt>
      <trkpt lat="45.85997" lon="4.69093">
        <ele>196</ele>
        <time>2018-01-07T10:29:36Z</time>
      </trkpt>
      <trkpt lat="45.86003" lon="4.69092">
        <ele>196</ele>
        <time>2018-01-07T10:29:37Z</time>
      </trkpt>
      <trkpt lat="45.86009" lon="4.69092">
        <ele>196</ele>
        <time>2018-01-07T10:29:38Z</time>
      </trkpt>
      <trkpt lat="45.86015" lon="4.69091">
        <ele>197</ele>
        <time>2018-01-07T10:29:39Z</time>
      </trkpt>
      <trkpt lat="45.8602" lon="4.6909">
        <ele>197</ele>
        <time>2018-01-07T10:29:40Z</time>
      </trkpt>
      <trkpt lat="45.86026" lon="4.6909">
        <ele>197</ele>
        <time>2018-01-07T10:29:41Z</time>
      </trkpt>
      <trkpt lat="45.86031" lon="4.6909">
        <ele>197</ele>
        <time>2018-01-07T10:29:42Z</time>
      </trkpt>
      <trkpt lat="45.86036" lon="4.69089">
        <ele>197</ele>
        <time>2018-01-07T10:29:43Z</time>
      </trkpt>
      <trkpt lat="45.86042" lon="4.69087">
        <ele>197</ele>
        <time>2018-01-07T10:29:44Z</time>
      </trkpt>
      <trkpt lat="45.86047" lon="4.69086">
        <ele>197</ele>
        <time>2018-01-07T10:29:45Z</time>
      </trkpt>
      <trkpt lat="45.86053" lon="4.69086">
        <ele>197</ele>
        <time>2018-01-07T10:29:46Z</time>
      </trkpt>
      <trkpt lat="45.86058" lon="4.69087">
        <ele>197</ele>
        <time>2018-01-07T10:29:47Z</time>
      </trkpt>
      <trkpt lat="45.86064" lon="4.69086">
        <ele>198</ele>
        <time>2018-01-07T10:29:48Z</time>
      </trkpt>
      <trkpt lat="45.8607" lon="4.69086">
        <ele>198</ele>
        <time>2018-01-07T10:29:49Z</time>
      </trkpt>
      <trkpt lat="45.86076" lon="4.69086">
        <ele>198</ele>
        <time>2018-01-07T10:29:50Z</time>
      </trkpt>
      <trkpt lat="45.86081" lon="4.69085">
        <ele>198</ele>
        <time>2018-01-07T10:29:51Z</time>
      </trkpt>
      <trkpt lat="45.86086" lon="4.69085">
        <ele>198</ele>
        <time>2018-01-07T10:29:52Z</time>
      </trkpt>
      <trkpt lat="45.86092" lon="4.69084">
        <ele>199</ele>
        <time>2018-01-07T10:29:53Z</time>
      </trkpt>
      <trkpt lat="45.86097" lon="4.69083">
        <ele>200</ele>
        <time>2018-01-07T10:29:54Z</time>
      </trkpt>
      <trkpt lat="45.86105" lon="4.69083">
        <ele>201</ele>
        <time>2018-01-07T10:29:56Z</time>
      </trkpt>
      <trkpt lat="45.8611" lon="4.69083">
        <ele>202</ele>
        <time>2018-01-07T10:29:57Z</time>
      </trkpt>
      <trkpt lat="45.86115" lon="4.69083">
        <ele>202</ele>
        <time>2018-01-07T10:29:58Z</time>
      </trkpt>
      <trkpt lat="45.8612" lon="4.69083">
        <ele>202</ele>
        <time>2018-01-07T10:29:59Z</time>
      </trkpt>
      <trkpt lat="45.86126" lon="4.69082">
        <ele>203</ele>
        <time>2018-01-07T10:30:00Z</time>
      </trkpt>
      <trkpt lat="45.8613" lon="4.69082">
        <ele>203</ele>
        <time>2018-01-07T10:30:01Z</time>
      </trkpt>
      <trkpt lat="45.86138" lon="4.69081">
        <ele>203</ele>
        <time>2018-01-07T10:30:03Z</time>
      </trkpt>
      <trkpt lat="45.86142" lon="4.69079">
        <ele>204</ele>
        <time>2018-01-07T10:30:04Z</time>
      </trkpt>
      <trkpt lat="45.8615" lon="4.6908">
        <ele>204</ele>
        <time>2018-01-07T10:30:06Z</time>
      </trkpt>
      <trkpt lat="45.86154" lon="4.6908">
        <ele>204</ele>
        <time>2018-01-07T10:30:07Z</time>
      </trkpt>
      <trkpt lat="45.86162" lon="4.69079">
        <ele>205</ele>
        <time>2018-01-07T10:30:09Z</time>
      </trkpt>
      <trkpt lat="45.86165" lon="4.69078">
        <ele>205</ele>
        <time>2018-01-07T10:30:10Z</time>
      </trkpt>
      <trkpt lat="45.86171" lon="4.69076">
        <ele>207</ele>
        <time>2018-01-07T10:30:12Z</time>
      </trkpt>
      <trkpt lat="45.86174" lon="4.69075">
        <ele>207</ele>
        <time>2018-01-07T10:30:13Z</time>
      </trkpt>
      <trkpt lat="45.86181" lon="4.69074">
        <ele>208</ele>
        <time>2018-01-07T10:30:15Z</time>
      </trkpt>
      <trkpt lat="45.86184" lon="4.69074">
        <ele>208</ele>
        <time>2018-01-07T10:30:16Z</time>
      </trkpt>
      <trkpt lat="45.8619" lon="4.69074">
        <ele>209</ele>
        <time>2018-01-07T10:30:18Z</time>
      </trkpt>
      <trkpt lat="45.86193" lon="4.69074">
        <ele>209</ele>
        <time>2018-01-07T10:30:19Z</time>
      </trkpt>
      <trkpt lat="45.862" lon="4.69074">
        <ele>209</ele>
        <time>2018-01-07T10:30:21Z</time>
      </trkpt>
      <trkpt lat="45.86203" lon="4.69074">
        <ele>209</ele>
        <time>2018-01-07T10:30:22Z</time>
      </trkpt>
      <trkpt lat="45.86209" lon="4.69074">
        <ele>210</ele>
        <time>2018-01-07T10:30:24Z</time>
      </trkpt>
      <trkpt lat="45.86212" lon="4.69074">
        <ele>210</ele>
        <time>2018-01-07T10:30:25Z</time>
      </trkpt>
      <trkpt lat="45.86218" lon="4.69075">
        <ele>210</ele>
        <time>2018-01-07T10:30:27Z</time>
      </trkpt>
      <trkpt lat="45.86221" lon="4.69075">
        <ele>210</ele>
        <time>2018-01-07T10:30:28Z</time>
      </trkpt>
      <trkpt lat="45.86228" lon="4.69076">
        <ele>210</ele>
        <time>2018-01-07T10:30:30Z</time>
      </trkpt>
      <trkpt lat="45.86231" lon="4.69076">
        <ele>211</ele>
        <time>2018-01-07T10:30:31Z</time>
      </trkpt>
      <trkpt lat="45.86238" lon="4.69077">
        <ele>211</ele>
        <time>2018-01-07T10:30:33Z</time>
      </trkpt>
      <trkpt lat="45.86241" lon="4.69077">
        <ele>211</ele>
        <time>2018-01-07T10:30:34Z</time>
      </trkpt>
      <trkpt lat="45.8625" lon="4.69079">
        <ele>211</ele>
        <time>2018-01-07T10:30:37Z</time>
      </trkpt>
      <trkpt lat="45.86253" lon="4.6908">
        <ele>212</ele>
        <time>2018-01-07T10:30:38Z</time>
      </trkpt>
      <trkpt lat="45.86258" lon="4.69082">
        <ele>212</ele>
        <time>2018-01-07T10:30:40Z</time>
      </trkpt>
      <trkpt lat="45.86261" lon="4.69083">
        <ele>212</ele>
        <time>2018-01-07T10:30:41Z</time>
      </trkpt>
      <trkpt lat="45.8627" lon="4.69084">
        <ele>213</ele>
        <time>2018-01-07T10:30:44Z</time>
      </trkpt>
      <trkpt lat="45.86273" lon="4.69085">
        <ele>213</ele>
        <time>2018-01-07T10:30:45Z</time>
      </trkpt>
      <trkpt lat="45.86281" lon="4.69089">
        <ele>213</ele>
        <time>2018-01-07T10:30:48Z</time>
      </trkpt>
      <trkpt lat="45.86284" lon="4.69091">
        <ele>213</ele>
        <time>2018-01-07T10:30:49Z</time>
      </trkpt>
      <trkpt lat="45.86291" lon="4.69097">
        <ele>214</ele>
        <time>2018-01-07T10:30:52Z</time>
      </trkpt>
      <trkpt lat="45.86294" lon="4.69099">
        <ele>214</ele>
        <time>2018-01-07T10:30:53Z</time>
      </trkpt>
      <trkpt lat="45.86299" lon="4.69104">
        <ele>214</ele>
        <time>2018-01-07T10:30:55Z</time>
      </trkpt>
      <trkpt lat="45.86302" lon="4.69106">
        <ele>214</ele>
        <time>2018-01-07T10:30:56Z</time>
      </trkpt>
      <trkpt lat="45.86307" lon="4.69111">
        <ele>214</ele>
        <time>2018-01-07T10:30:58Z</time>
      </trkpt>
      <trkpt lat="45.86309" lon="4.69114">
        <ele>214</ele>
        <time>2018-01-07T10:30:59Z</time>
      </trkpt>
      <trkpt lat="45.86317" lon="4.69121">
        <ele>214</ele>
        <time>2018-01-07T10:31:02Z</time>
      </trkpt>
      <trkpt lat="45.86319" lon="4.69122">
        <ele>214</ele>
        <time>2018-01-07T10:31:03Z</time>
      </trkpt>
      <trkpt lat="45.86325" lon="4.69129">
        <ele>215</ele>
        <time>2018-01-07T10:31:06Z</time>
      </trkpt>
      <trkpt lat="45.86327" lon="4.69132">
        <ele>215</ele>
        <time>2018-01-07T10:31:07Z</time>
      </trkpt>
      <trkpt lat="45.86332" lon="4.6914">
        <ele>215</ele>
        <time>2018-01-07T10:31:10Z</time>
      </trkpt>
      <trkpt lat="45.86334" lon="4.69142">
        <ele>217</ele>
        <time>2018-01-07T10:31:11Z</time>
      </trkpt>
      <trkpt lat="45.8634" lon="4.69151">
        <ele>217</ele>
        <time>2018-01-07T10:31:14Z</time>
      </trkpt>
      <trkpt lat="45.86341" lon="4.69154">
        <ele>217</ele>
        <time>2018-01-07T10:31:15Z</time>
      </trkpt>
      <trkpt lat="45.86345" lon="4.69161">
        <ele>217</ele>
        <time>2018-01-07T10:31:18Z</time>
      </trkpt>
      <trkpt lat="45.86347" lon="4.69164">
        <ele>217</ele>
        <time>2018-01-07T10:31:19Z</time>
      </trkpt>
      <trkpt lat="45.86351" lon="4.69172">
        <ele>218</ele>
        <time>2018-01-07T10:31:22Z</time>
      </trkpt>
      <trkpt lat="45.86353" lon="4.69175">
        <ele>218</ele>
        <time>2018-01-07T10:31:23Z</time>
      </trkpt>
      <trkpt lat="45.86357" lon="4.69183">
        <ele>218</ele>
        <time>2018-01-07T10:31:26Z</time>
      </trkpt>
      <trkpt lat="45.86359" lon="4.69186">
        <ele>218</ele>
        <time>2018-01-07T10:31:27Z</time>
      </trkpt>
      <trkpt lat="45.86363" lon="4.69196">
        <ele>218</ele>
        <time>2018-01-07T10:31:30Z</time>
      </trkpt>
      <trkpt lat="45.86364" lon="4.69199">
        <ele>219</ele>
        <time>2018-01-07T10:31:31Z</time>
      </trkpt>
      <trkpt lat="45.86369" lon="4.69209">
        <ele>219</ele>
        <time>2018-01-07T10:31:34Z</time>
      </trkpt>
      <trkpt lat="45.86371" lon="4.69212">
        <ele>219</ele>
        <time>2018-01-07T10:31:35Z</time>
      </trkpt>
      <trkpt lat="45.86374" lon="4.69221">
        <ele>219</ele>
        <time>2018-01-07T10:31:38Z</time>
      </trkpt>
      <trkpt lat="45.86376" lon="4.69225">
        <ele>219</ele>
        <time>2018-01-07T10:31:39Z</time>
      </trkpt>
      <trkpt lat="45.8638" lon="4.69236">
        <ele>219</ele>
        <time>2018-01-07T10:31:42Z</time>
      </trkpt>
      <trkpt lat="45.86381" lon="4.6924">
        <ele>219</ele>
        <time>2018-01-07T10:31:43Z</time>
      </trkpt>
      <trkpt lat="45.86385" lon="4.69248">
        <ele>219</ele>
        <time>2018-01-07T10:31:45Z</time>
      </trkpt>
      <trkpt lat="45.86386" lon="4.69252">
        <ele>219</ele>
        <time>2018-01-07T10:31:46Z</time>
      </trkpt>
      <trkpt lat="45.86389" lon="4.69259">
        <ele>219</ele>
        <time>2018-01-07T10:31:48Z</time>
      </trkpt>
      <trkpt lat="45.86391" lon="4.69263">
        <ele>219</ele>
        <time>2018-01-07T10:31:49Z</time>
      </trkpt>
      <trkpt lat="45.86395" lon="4.69272">
        <ele>219</ele>
        <time>2018-01-07T10:31:51Z</time>
      </trkpt>
      <trkpt lat="45.86397" lon="4.69276">
        <ele>219</ele>
        <time>2018-01-07T10:31:52Z</time>
      </trkpt>
      <trkpt lat="45.864" lon="4.69283">
        <ele>219</ele>
        <time>2018-01-07T10:31:54Z</time>
      </trkpt>
      <trkpt lat="45.86402" lon="4.69287">
        <ele>219</ele>
        <time>2018-01-07T10:31:55Z</time>
      </trkpt>
      <trkpt lat="45.86407" lon="4.69298">
        <ele>219</ele>
        <time>2018-01-07T10:31:57Z</time>
      </trkpt>
      <trkpt lat="45.86409" lon="4.69304">
        <ele>219</ele>
        <time>2018-01-07T10:31:58Z</time>
      </trkpt>
      <trkpt lat="45.86412" lon="4.69311">
        <ele>219</ele>
        <time>2018-01-07T10:31:59Z</time>
      </trkpt>
      <trkpt lat="45.86415" lon="4.69317">
        <ele>219</ele>
        <time>2018-01-07T10:32:00Z</time>
      </trkpt>
      <trkpt lat="45.8642" lon="4.69327">
        <ele>219</ele>
        <time>2018-01-07T10:32:02Z</time>
      </trkpt>
      <trkpt lat="45.86421" lon="4.69332">
        <ele>219</ele>
        <time>2018-01-07T10:32:03Z</time>
      </trkpt>
      <trkpt lat="45.86426" lon="4.69342">
        <ele>219</ele>
        <time>2018-01-07T10:32:05Z</time>
      </trkpt>
      <trkpt lat="45.86428" lon="4.69347">
        <ele>219</ele>
        <time>2018-01-07T10:32:06Z</time>
      </trkpt>
      <trkpt lat="45.86433" lon="4.69356">
        <ele>219</ele>
        <time>2018-01-07T10:32:08Z</time>
      </trkpt>
      <trkpt lat="45.86436" lon="4.69362">
        <ele>219</ele>
        <time>2018-01-07T10:32:09Z</time>
      </trkpt>
      <trkpt lat="45.86438" lon="4.69368">
        <ele>219</ele>
        <time>2018-01-07T10:32:10Z</time>
      </trkpt>
      <trkpt lat="45.86442" lon="4.69373">
        <ele>219</ele>
        <time>2018-01-07T10:32:11Z</time>
      </trkpt>
      <trkpt lat="45.86445" lon="4.69379">
        <ele>219</ele>
        <time>2018-01-07T10:32:12Z</time>
      </trkpt>
      <trkpt lat="45.86448" lon="4.69386">
        <ele>219</ele>
        <time>2018-01-07T10:32:13Z</time>
      </trkpt>
      <trkpt lat="45.86452" lon="4.69392">
        <ele>219</ele>
        <time>2018-01-07T10:32:14Z</time>
      </trkpt>
      <trkpt lat="45.86454" lon="4.69397">
        <ele>219</ele>
        <time>2018-01-07T10:32:15Z</time>
      </trkpt>
      <trkpt lat="45.86457" lon="4.69403">
        <ele>219</ele>
        <time>2018-01-07T10:32:16Z</time>
      </trkpt>
      <trkpt lat="45.86461" lon="4.69407">
        <ele>219</ele>
        <time>2018-01-07T10:32:17Z</time>
      </trkpt>
      <trkpt lat="45.86466" lon="4.69417">
        <ele>219</ele>
        <time>2018-01-07T10:32:19Z</time>
      </trkpt>
      <trkpt lat="45.86469" lon="4.69421">
        <ele>218</ele>
        <time>2018-01-07T10:32:20Z</time>
      </trkpt>
      <trkpt lat="45.86475" lon="4.6943">
        <ele>218</ele>
        <time>2018-01-07T10:32:22Z</time>
      </trkpt>
      <trkpt lat="45.86478" lon="4.69435">
        <ele>218</ele>
        <time>2018-01-07T10:32:23Z</time>
      </trkpt>
      <trkpt lat="45.86482" lon="4.69439">
        <ele>218</ele>
        <time>2018-01-07T10:32:24Z</time>
      </trkpt>
      <trkpt lat="45.86485" lon="4.69445">
        <ele>218</ele>
        <time>2018-01-07T10:32:25Z</time>
      </trkpt>
      <trkpt lat="45.86488" lon="4.69449">
        <ele>218</ele>
        <time>2018-01-07T10:32:26Z</time>
      </trkpt>
      <trkpt lat="45.86492" lon="4.69454">
        <ele>218</ele>
        <time>2018-01-07T10:32:27Z</time>
      </trkpt>
      <trkpt lat="45.86497" lon="4.69463">
        <ele>218</ele>
        <time>2018-01-07T10:32:29Z</time>
      </trkpt>
      <trkpt lat="45.86501" lon="4.6947">
        <ele>219</ele>
        <time>2018-01-07T10:32:30Z</time>
      </trkpt>
      <trkpt lat="45.86504" lon="4.69474">
        <ele>219</ele>
        <time>2018-01-07T10:32:31Z</time>
      </trkpt>
      <trkpt lat="45.86507" lon="4.6948">
        <ele>219</ele>
        <time>2018-01-07T10:32:32Z</time>
      </trkpt>
      <trkpt lat="45.86511" lon="4.69485">
        <ele>219</ele>
        <time>2018-01-07T10:32:33Z</time>
      </trkpt>
      <trkpt lat="45.86514" lon="4.6949">
        <ele>219</ele>
        <time>2018-01-07T10:32:34Z</time>
      </trkpt>
      <trkpt lat="45.86518" lon="4.69495">
        <ele>219</ele>
        <time>2018-01-07T10:32:35Z</time>
      </trkpt>
      <trkpt lat="45.86521" lon="4.695">
        <ele>219</ele>
        <time>2018-01-07T10:32:36Z</time>
      </trkpt>
      <trkpt lat="45.86525" lon="4.69506">
        <ele>219</ele>
        <time>2018-01-07T10:32:37Z</time>
      </trkpt>
      <trkpt lat="45.86528" lon="4.69511">
        <ele>219</ele>
        <time>2018-01-07T10:32:38Z</time>
      </trkpt>
      <trkpt lat="45.86532" lon="4.69517">
        <ele>219</ele>
        <time>2018-01-07T10:32:39Z</time>
      </trkpt>
      <trkpt lat="45.86535" lon="4.69523">
        <ele>219</ele>
        <time>2018-01-07T10:32:40Z</time>
      </trkpt>
      <trkpt lat="45.86539" lon="4.69528">
        <ele>219</ele>
        <time>2018-01-07T10:32:41Z</time>
      </trkpt>
      <trkpt lat="45.86542" lon="4.69533">
        <ele>219</ele>
        <time>2018-01-07T10:32:42Z</time>
      </trkpt>
      <trkpt lat="45.86546" lon="4.69538">
        <ele>219</ele>
        <time>2018-01-07T10:32:43Z</time>
      </trkpt>
      <trkpt lat="45.8655" lon="4.69544">
        <ele>219</ele>
        <time>2018-01-07T10:32:44Z</time>
      </trkpt>
      <trkpt lat="45.86555" lon="4.69551">
        <ele>219</ele>
        <time>2018-01-07T10:32:45Z</time>
      </trkpt>
      <trkpt lat="45.86558" lon="4.69557">
        <ele>219</ele>
        <time>2018-01-07T10:32:46Z</time>
      </trkpt>
      <trkpt lat="45.86562" lon="4.69563">
        <ele>219</ele>
        <time>2018-01-07T10:32:47Z</time>
      </trkpt>
      <trkpt lat="45.86566" lon="4.69569">
        <ele>219</ele>
        <time>2018-01-07T10:32:48Z</time>
      </trkpt>
      <trkpt lat="45.8657" lon="4.69575">
        <ele>219</ele>
        <time>2018-01-07T10:32:49Z</time>
      </trkpt>
      <trkpt lat="45.86574" lon="4.69582">
        <ele>219</ele>
        <time>2018-01-07T10:32:50Z</time>
      </trkpt>
      <trkpt lat="45.86578" lon="4.69587">
        <ele>219</ele>
        <time>2018-01-07T10:32:51Z</time>
      </trkpt>
      <trkpt lat="45.86582" lon="4.69594">
        <ele>219</ele>
        <time>2018-01-07T10:32:52Z</time>
      </trkpt>
      <trkpt lat="45.86585" lon="4.69601">
        <ele>219</ele>
        <time>2018-01-07T10:32:53Z</time>
      </trkpt>
      <trkpt lat="45.86589" lon="4.69606">
        <ele>219</ele>
        <time>2018-01-07T10:32:54Z</time>
      </trkpt>
      <trkpt lat="45.86593" lon="4.69612">
        <ele>219</ele>
        <time>2018-01-07T10:32:55Z</time>
      </trkpt>
      <trkpt lat="45.86596" lon="4.69617">
        <ele>219</ele>
        <time>2018-01-07T10:32:56Z</time>
      </trkpt>
      <trkpt lat="45.86599" lon="4.69621">
        <ele>219</ele>
        <time>2018-01-07T10:32:57Z</time>
      </trkpt>
      <trkpt lat="45.86603" lon="4.69626">
        <ele>219</ele>
        <time>2018-01-07T10:32:58Z</time>
      </trkpt>
      <trkpt lat="45.86606" lon="4.69631">
        <ele>219</ele>
        <time>2018-01-07T10:32:59Z</time>
      </trkpt>
      <trkpt lat="45.8661" lon="4.69637">
        <ele>219</ele>
        <time>2018-01-07T10:33:00Z</time>
      </trkpt>
      <trkpt lat="45.86613" lon="4.69641">
        <ele>219</ele>
        <time>2018-01-07T10:33:01Z</time>
      </trkpt>
      <trkpt lat="45.86617" lon="4.69646">
        <ele>219</ele>
        <time>2018-01-07T10:33:02Z</time>
      </trkpt>
      <trkpt lat="45.86621" lon="4.69653">
        <ele>219</ele>
        <time>2018-01-07T10:33:03Z</time>
      </trkpt>
      <trkpt lat="45.86626" lon="4.69659">
        <ele>218</ele>
        <time>2018-01-07T10:33:04Z</time>
      </trkpt>
      <trkpt lat="45.8663" lon="4.69664">
        <ele>218</ele>
        <time>2018-01-07T10:33:05Z</time>
      </trkpt>
      <trkpt lat="45.86634" lon="4.69671">
        <ele>218</ele>
        <time>2018-01-07T10:33:06Z</time>
      </trkpt>
      <trkpt lat="45.86638" lon="4.69677">
        <ele>218</ele>
        <time>2018-01-07T10:33:07Z</time>
      </trkpt>
      <trkpt lat="45.86641" lon="4.69683">
        <ele>218</ele>
        <time>2018-01-07T10:33:08Z</time>
      </trkpt>
      <trkpt lat="45.86645" lon="4.69688">
        <ele>218</ele>
        <time>2018-01-07T10:33:09Z</time>
      </trkpt>
      <trkpt lat="45.8665" lon="4.69693">
        <ele>218</ele>
        <time>2018-01-07T10:33:10Z</time>
      </trkpt>
      <trkpt lat="45.86654" lon="4.69698">
        <ele>218</ele>
        <time>2018-01-07T10:33:11Z</time>
      </trkpt>
      <trkpt lat="45.86658" lon="4.69701">
        <ele>218</ele>
        <time>2018-01-07T10:33:12Z</time>
      </trkpt>
      <trkpt lat="45.86663" lon="4.69706">
        <ele>218</ele>
        <time>2018-01-07T10:33:13Z</time>
      </trkpt>
      <trkpt lat="45.86667" lon="4.6971">
        <ele>217</ele>
        <time>2018-01-07T10:33:14Z</time>
      </trkpt>
      <trkpt lat="45.86672" lon="4.69715">
        <ele>217</ele>
        <time>2018-01-07T10:33:15Z</time>
      </trkpt>
      <trkpt lat="45.86676" lon="4.69718">
        <ele>217</ele>
        <time>2018-01-07T10:33:16Z</time>
      </trkpt>
      <trkpt lat="45.86681" lon="4.69722">
        <ele>217</ele>
        <time>2018-01-07T10:33:17Z</time>
      </trkpt>
      <trkpt lat="45.86685" lon="4.69725">
        <ele>217</ele>
        <time>2018-01-07T10:33:18Z</time>
      </trkpt>
      <trkpt lat="45.86689" lon="4.69729">
        <ele>217</ele>
        <time>2018-01-07T10:33:19Z</time>
      </trkpt>
      <trkpt lat="45.86694" lon="4.69733">
        <ele>217</ele>
        <time>2018-01-07T10:33:20Z</time>
      </trkpt>
      <trkpt lat="45.86698" lon="4.69736">
        <ele>217</ele>
        <time>2018-01-07T10:33:21Z</time>
      </trkpt>
      <trkpt lat="45.86703" lon="4.69741">
        <ele>217</ele>
        <time>2018-01-07T10:33:22Z</time>
      </trkpt>
      <trkpt lat="45.86707" lon="4.69747">
        <ele>217</ele>
        <time>2018-01-07T10:33:23Z</time>
      </trkpt>
      <trkpt lat="45.86712" lon="4.69751">
        <ele>217</ele>
        <time>2018-01-07T10:33:24Z</time>
      </trkpt>
      <trkpt lat="45.86717" lon="4.69756">
        <ele>217</ele>
        <time>2018-01-07T10:33:25Z</time>
      </trkpt>
      <trkpt lat="45.86722" lon="4.6976">
        <ele>217</ele>
        <time>2018-01-07T10:33:26Z</time>
      </trkpt>
      <trkpt lat="45.86728" lon="4.69764">
        <ele>217</ele>
        <time>2018-01-07T10:33:27Z</time>
      </trkpt>
      <trkpt lat="45.86733" lon="4.69769">
        <ele>217</ele>
        <time>2018-01-07T10:33:28Z</time>
      </trkpt>
      <trkpt lat="45.86738" lon="4.69773">
        <ele>217</ele>
        <time>2018-01-07T10:33:29Z</time>
      </trkpt>
      <trkpt lat="45.86743" lon="4.69777">
        <ele>217</ele>
        <time>2018-01-07T10:33:30Z</time>
      </trkpt>
      <trkpt lat="45.86748" lon="4.69782">
        <ele>217</ele>
        <time>2018-01-07T10:33:31Z</time>
      </trkpt>
      <trkpt lat="45.86753" lon="4.69786">
        <ele>217</ele>
        <time>2018-01-07T10:33:32Z</time>
      </trkpt>
      <trkpt lat="45.86758" lon="4.6979">
        <ele>217</ele>
        <time>2018-01-07T10:33:33Z</time>
      </trkpt>
      <trkpt lat="45.86763" lon="4.69795">
        <ele>217</ele>
        <time>2018-01-07T10:33:34Z</time>
      </trkpt>
      <trkpt lat="45.86767" lon="4.69799">
        <ele>217</ele>
        <time>2018-01-07T10:33:35Z</time>
      </trkpt>
      <trkpt lat="45.86772" lon="4.69803">
        <ele>217</ele>
        <time>2018-01-07T10:33:36Z</time>
      </trkpt>
      <trkpt lat="45.86776" lon="4.69807">
        <ele>217</ele>
        <time>2018-01-07T10:33:37Z</time>
      </trkpt>
      <trkpt lat="45.86781" lon="4.69811">
        <ele>217</ele>
        <time>2018-01-07T10:33:38Z</time>
      </trkpt>
      <trkpt lat="45.86785" lon="4.69816">
        <ele>217</ele>
        <time>2018-01-07T10:33:39Z</time>
      </trkpt>
      <trkpt lat="45.8679" lon="4.6982">
        <ele>217</ele>
        <time>2018-01-07T10:33:40Z</time>
      </trkpt>
      <trkpt lat="45.86794" lon="4.69824">
        <ele>217</ele>
        <time>2018-01-07T10:33:41Z</time>
      </trkpt>
      <trkpt lat="45.86799" lon="4.69828">
        <ele>217</ele>
        <time>2018-01-07T10:33:42Z</time>
      </trkpt>
      <trkpt lat="45.86804" lon="4.69833">
        <ele>217</ele>
        <time>2018-01-07T10:33:43Z</time>
      </trkpt>
      <trkpt lat="45.86809" lon="4.69837">
        <ele>217</ele>
        <time>2018-01-07T10:33:44Z</time>
      </trkpt>
      <trkpt lat="45.86814" lon="4.69842">
        <ele>217</ele>
        <time>2018-01-07T10:33:45Z</time>
      </trkpt>
      <trkpt lat="45.8682" lon="4.69846">
        <ele>217</ele>
        <time>2018-01-07T10:33:46Z</time>
      </trkpt>
      <trkpt lat="45.86824" lon="4.69851">
        <ele>217</ele>
        <time>2018-01-07T10:33:47Z</time>
      </trkpt>
      <trkpt lat="45.86829" lon="4.69856">
        <ele>217</ele>
        <time>2018-01-07T10:33:48Z</time>
      </trkpt>
      <trkpt lat="45.86834" lon="4.69861">
        <ele>217</ele>
        <time>2018-01-07T10:33:49Z</time>
      </trkpt>
      <trkpt lat="45.8684" lon="4.69866">
        <ele>217</ele>
        <time>2018-01-07T10:33:50Z</time>
      </trkpt>
      <trkpt lat="45.86846" lon="4.69871">
        <ele>217</ele>
        <time>2018-01-07T10:33:51Z</time>
      </trkpt>
      <trkpt lat="45.86851" lon="4.69876">
        <ele>217</ele>
        <time>2018-01-07T10:33:52Z</time>
      </trkpt>
      <trkpt lat="45.86856" lon="4.6988">
        <ele>217</ele>
        <time>2018-01-07T10:33:53Z</time>
      </trkpt>
      <trkpt lat="45.86862" lon="4.69885">
        <ele>217</ele>
        <time>2018-01-07T10:33:54Z</time>
      </trkpt>
      <trkpt lat="45.86867" lon="4.6989">
        <ele>217</ele>
        <time>2018-01-07T10:33:55Z</time>
      </trkpt>
      <trkpt lat="45.86872" lon="4.69894">
        <ele>217</ele>
        <time>2018-01-07T10:33:56Z</time>
      </trkpt>
      <trkpt lat="45.86876" lon="4.69898">
        <ele>217</ele>
        <time>2018-01-07T10:33:57Z</time>
      </trkpt>
      <trkpt lat="45.86881" lon="4.69902">
        <ele>217</ele>
        <time>2018-01-07T10:33:58Z</time>
      </trkpt>
      <trkpt lat="45.86885" lon="4.69907">
        <ele>217</ele>
        <time>2018-01-07T10:33:59Z</time>
      </trkpt>
      <trkpt lat="45.8689" lon="4.69912">
        <ele>217</ele>
        <time>2018-01-07T10:34:00Z</time>
      </trkpt>
      <trkpt lat="45.86895" lon="4.69917">
        <ele>217</ele>
        <time>2018-01-07T10:34:01Z</time>
      </trkpt>
      <trkpt lat="45.869" lon="4.6992">
        <ele>217</ele>
        <time>2018-01-07T10:34:02Z</time>
      </trkpt>
      <trkpt lat="45.86906" lon="4.69924">
        <ele>217</ele>
        <time>2018-01-07T10:34:03Z</time>
      </trkpt>
      <trkpt lat="45.86911" lon="4.69929">
        <ele>217</ele>
        <time>2018-01-07T10:34:04Z</time>
      </trkpt>
      <trkpt lat="45.86918" lon="4.69932">
        <ele>217</ele>
        <time>2018-01-07T10:34:05Z</time>
      </trkpt>
      <trkpt lat="45.86924" lon="4.69937">
        <ele>217</ele>
        <time>2018-01-07T10:34:06Z</time>
      </trkpt>
      <trkpt lat="45.86929" lon="4.69942">
        <ele>217</ele>
        <time>2018-01-07T10:34:07Z</time>
      </trkpt>
      <trkpt lat="45.86936" lon="4.69947">
        <ele>217</ele>
        <time>2018-01-07T10:34:08Z</time>
      </trkpt>
      <trkpt lat="45.86942" lon="4.69951">
        <ele>217</ele>
        <time>2018-01-07T10:34:09Z</time>
      </trkpt>
      <trkpt lat="45.86947" lon="4.69956">
        <ele>217</ele>
        <time>2018-01-07T10:34:10Z</time>
      </trkpt>
      <trkpt lat="45.86953" lon="4.6996">
        <ele>217</ele>
        <time>2018-01-07T10:34:11Z</time>
      </trkpt>
      <trkpt lat="45.86958" lon="4.69965">
        <ele>217</ele>
        <time>2018-01-07T10:34:12Z</time>
      </trkpt>
      <trkpt lat="45.86964" lon="4.69969">
        <ele>217</ele>
        <time>2018-01-07T10:34:13Z</time>
      </trkpt>
      <trkpt lat="45.8697" lon="4.69973">
        <ele>217</ele>
        <time>2018-01-07T10:34:14Z</time>
      </trkpt>
      <trkpt lat="45.86974" lon="4.69981">
        <ele>217</ele>
        <time>2018-01-07T10:34:15Z</time>
      </trkpt>
      <trkpt lat="45.86977" lon="4.69987">
        <ele>217</ele>
        <time>2018-01-07T10:34:16Z</time>
      </trkpt>
      <trkpt lat="45.8698" lon="4.69994">
        <ele>217</ele>
        <time>2018-01-07T10:34:17Z</time>
      </trkpt>
      <trkpt lat="45.86984" lon="4.7">
        <ele>217</ele>
        <time>2018-01-07T10:34:18Z</time>
      </trkpt>
      <trkpt lat="45.86989" lon="4.70003">
        <ele>217</ele>
        <time>2018-01-07T10:34:19Z</time>
      </trkpt>
      <trkpt lat="45.86995" lon="4.70005">
        <ele>217</ele>
        <time>2018-01-07T10:34:20Z</time>
      </trkpt>
      <trkpt lat="45.87" lon="4.70005">
        <ele>217</ele>
        <time>2018-01-07T10:34:21Z</time>
      </trkpt>
      <trkpt lat="45.87005" lon="4.70005">
        <ele>217</ele>
        <time>2018-01-07T10:34:22Z</time>
      </trkpt>
      <trkpt lat="45.8701" lon="4.70005">
        <ele>217</ele>
        <time>2018-01-07T10:34:23Z</time>
      </trkpt>
      <trkpt lat="45.87016" lon="4.70007">
        <ele>217</ele>
        <time>2018-01-07T10:34:24Z</time>
      </trkpt>
      <trkpt lat="45.87021" lon="4.70009">
        <ele>217</ele>
        <time>2018-01-07T10:34:25Z</time>
      </trkpt>
      <trkpt lat="45.87025" lon="4.70014">
        <ele>217</ele>
        <time>2018-01-07T10:34:26Z</time>
      </trkpt>
      <trkpt lat="45.8703" lon="4.70018">
        <ele>217</ele>
        <time>2018-01-07T10:34:27Z</time>
      </trkpt>
      <trkpt lat="45.87033" lon="4.70023">
        <ele>217</ele>
        <time>2018-01-07T10:34:28Z</time>
      </trkpt>
      <trkpt lat="45.87038" lon="4.7003">
        <ele>217</ele>
        <time>2018-01-07T10:34:29Z</time>
      </trkpt>
      <trkpt lat="45.87042" lon="4.70036">
        <ele>217</ele>
        <time>2018-01-07T10:34:30Z</time>
      </trkpt>
      <trkpt lat="45.87046" lon="4.70041">
        <ele>217</ele>
        <time>2018-01-07T10:34:31Z</time>
      </trkpt>
      <trkpt lat="45.87051" lon="4.70048">
        <ele>217</ele>
        <time>2018-01-07T10:34:32Z</time>
      </trkpt>
      <trkpt lat="45.87053" lon="4.70056">
        <ele>217</ele>
        <time>2018-01-07T10:34:33Z</time>
      </trkpt>
      <trkpt lat="45.87056" lon="4.70062">
        <ele>217</ele>
        <time>2018-01-07T10:34:34Z</time>
      </trkpt>
      <trkpt lat="45.8706" lon="4.70069">
        <ele>217</ele>
        <time>2018-01-07T10:34:35Z</time>
      </trkpt>
      <trkpt lat="45.87063" lon="4.70076">
        <ele>217</ele>
        <time>2018-01-07T10:34:36Z</time>
      </trkpt>
      <trkpt lat="45.87066" lon="4.70082">
        <ele>217</ele>
        <time>2018-01-07T10:34:37Z</time>
      </trkpt>
      <trkpt lat="45.87069" lon="4.70088">
        <ele>217</ele>
        <time>2018-01-07T10:34:38Z</time>
      </trkpt>
      <trkpt lat="45.87072" lon="4.70094">
        <ele>217</ele>
        <time>2018-01-07T10:34:39Z</time>
      </trkpt>
      <trkpt lat="45.87074" lon="4.701">
        <ele>217</ele>
        <time>2018-01-07T10:34:40Z</time>
      </trkpt>
      <trkpt lat="45.87077" lon="4.70105">
        <ele>217</ele>
        <time>2018-01-07T10:34:41Z</time>
      </trkpt>
      <trkpt lat="45.8708" lon="4.7011">
        <ele>217</ele>
        <time>2018-01-07T10:34:42Z</time>
      </trkpt>
      <trkpt lat="45.87086" lon="4.70119">
        <ele>217</ele>
        <time>2018-01-07T10:34:44Z</time>
      </trkpt>
      <trkpt lat="45.87089" lon="4.70125">
        <ele>217</ele>
        <time>2018-01-07T10:34:45Z</time>
      </trkpt>
      <trkpt lat="45.87092" lon="4.70132">
        <ele>217</ele>
        <time>2018-01-07T10:34:46Z</time>
      </trkpt>
      <trkpt lat="45.87095" lon="4.70138">
        <ele>217</ele>
        <time>2018-01-07T10:34:47Z</time>
      </trkpt>
      <trkpt lat="45.87099" lon="4.70144">
        <ele>217</ele>
        <time>2018-01-07T10:34:48Z</time>
      </trkpt>
      <trkpt lat="45.87102" lon="4.7015">
        <ele>217</ele>
        <time>2018-01-07T10:34:49Z</time>
      </trkpt>
      <trkpt lat="45.87106" lon="4.70156">
        <ele>217</ele>
        <time>2018-01-07T10:34:50Z</time>
      </trkpt>
      <trkpt lat="45.8711" lon="4.70163">
        <ele>217</ele>
        <time>2018-01-07T10:34:51Z</time>
      </trkpt>
      <trkpt lat="45.87113" lon="4.7017">
        <ele>216</ele>
        <time>2018-01-07T10:34:52Z</time>
      </trkpt>
      <trkpt lat="45.87118" lon="4.70177">
        <ele>216</ele>
        <time>2018-01-07T10:34:53Z</time>
      </trkpt>
      <trkpt lat="45.87122" lon="4.70185">
        <ele>216</ele>
        <time>2018-01-07T10:34:54Z</time>
      </trkpt>
      <trkpt lat="45.87125" lon="4.70189">
        <ele>216</ele>
        <time>2018-01-07T10:34:55Z</time>
      </trkpt>
      <trkpt lat="45.87128" lon="4.70195">
        <ele>216</ele>
        <time>2018-01-07T10:34:56Z</time>
      </trkpt>
      <trkpt lat="45.87132" lon="4.70199">
        <ele>216</ele>
        <time>2018-01-07T10:34:57Z</time>
      </trkpt>
      <trkpt lat="45.87136" lon="4.70204">
        <ele>216</ele>
        <time>2018-01-07T10:34:58Z</time>
      </trkpt>
      <trkpt lat="45.8714" lon="4.70209">
        <ele>216</ele>
        <time>2018-01-07T10:34:59Z</time>
      </trkpt>
      <trkpt lat="45.87143" lon="4.70215">
        <ele>216</ele>
        <time>2018-01-07T10:35:00Z</time>
      </trkpt>
      <trkpt lat="45.87148" lon="4.7022">
        <ele>216</ele>
        <time>2018-01-07T10:35:01Z</time>
      </trkpt>
      <trkpt lat="45.87152" lon="4.70225">
        <ele>216</ele>
        <time>2018-01-07T10:35:02Z</time>
      </trkpt>
      <trkpt lat="45.87156" lon="4.7023">
        <ele>216</ele>
        <time>2018-01-07T10:35:03Z</time>
      </trkpt>
      <trkpt lat="45.87159" lon="4.70236">
        <ele>216</ele>
        <time>2018-01-07T10:35:04Z</time>
      </trkpt>
      <trkpt lat="45.87164" lon="4.70242">
        <ele>216</ele>
        <time>2018-01-07T10:35:05Z</time>
      </trkpt>
      <trkpt lat="45.87168" lon="4.70247">
        <ele>216</ele>
        <time>2018-01-07T10:35:06Z</time>
      </trkpt>
      <trkpt lat="45.87173" lon="4.70254">
        <ele>216</ele>
        <time>2018-01-07T10:35:07Z</time>
      </trkpt>
      <trkpt lat="45.87178" lon="4.70261">
        <ele>216</ele>
        <time>2018-01-07T10:35:08Z</time>
      </trkpt>
      <trkpt lat="45.87182" lon="4.70268">
        <ele>216</ele>
        <time>2018-01-07T10:35:09Z</time>
      </trkpt>
      <trkpt lat="45.87188" lon="4.70274">
        <ele>217</ele>
        <time>2018-01-07T10:35:10Z</time>
      </trkpt>
      <trkpt lat="45.87193" lon="4.70279">
        <ele>217</ele>
        <time>2018-01-07T10:35:11Z</time>
      </trkpt>
      <trkpt lat="45.87197" lon="4.70287">
        <ele>217</ele>
        <time>2018-01-07T10:35:12Z</time>
      </trkpt>
      <trkpt lat="45.87202" lon="4.70292">
        <ele>217</ele>
        <time>2018-01-07T10:35:13Z</time>
      </trkpt>
      <trkpt lat="45.87207" lon="4.70298">
        <ele>217</ele>
        <time>2018-01-07T10:35:14Z</time>
      </trkpt>
      <trkpt lat="45.87212" lon="4.70304">
        <ele>217</ele>
        <time>2018-01-07T10:35:15Z</time>
      </trkpt>
      <trkpt lat="45.87217" lon="4.7031">
        <ele>217</ele>
        <time>2018-01-07T10:35:16Z</time>
      </trkpt>
      <trkpt lat="45.87221" lon="4.70316">
        <ele>217</ele>
        <time>2018-01-07T10:35:17Z</time>
      </trkpt>
      <trkpt lat="45.87226" lon="4.70323">
        <ele>217</ele>
        <time>2018-01-07T10:35:18Z</time>
      </trkpt>
      <trkpt lat="45.8723" lon="4.70329">
        <ele>217</ele>
        <time>2018-01-07T10:35:19Z</time>
      </trkpt>
      <trkpt lat="45.87235" lon="4.70334">
        <ele>217</ele>
        <time>2018-01-07T10:35:20Z</time>
      </trkpt>
      <trkpt lat="45.87239" lon="4.7034">
        <ele>217</ele>
        <time>2018-01-07T10:35:21Z</time>
      </trkpt>
      <trkpt lat="45.87242" lon="4.70344">
        <ele>217</ele>
        <time>2018-01-07T10:35:22Z</time>
      </trkpt>
      <trkpt lat="45.87246" lon="4.7035">
        <ele>217</ele>
        <time>2018-01-07T10:35:23Z</time>
      </trkpt>
      <trkpt lat="45.87249" lon="4.70355">
        <ele>217</ele>
        <time>2018-01-07T10:35:24Z</time>
      </trkpt>
      <trkpt lat="45.87253" lon="4.7036">
        <ele>216</ele>
        <time>2018-01-07T10:35:25Z</time>
      </trkpt>
      <trkpt lat="45.87256" lon="4.70364">
        <ele>216</ele>
        <time>2018-01-07T10:35:26Z</time>
      </trkpt>
      <trkpt lat="45.8726" lon="4.7037">
        <ele>216</ele>
        <time>2018-01-07T10:35:27Z</time>
      </trkpt>
      <trkpt lat="45.87263" lon="4.70375">
        <ele>216</ele>
        <time>2018-01-07T10:35:28Z</time>
      </trkpt>
      <trkpt lat="45.87268" lon="4.70381">
        <ele>216</ele>
        <time>2018-01-07T10:35:29Z</time>
      </trkpt>
      <trkpt lat="45.87272" lon="4.70389">
        <ele>216</ele>
        <time>2018-01-07T10:35:30Z</time>
      </trkpt>
      <trkpt lat="45.87274" lon="4.70396">
        <ele>216</ele>
        <time>2018-01-07T10:35:31Z</time>
      </trkpt>
      <trkpt lat="45.87276" lon="4.70402">
        <ele>216</ele>
        <time>2018-01-07T10:35:32Z</time>
      </trkpt>
      <trkpt lat="45.8728" lon="4.70407">
        <ele>216</ele>
        <time>2018-01-07T10:35:33Z</time>
      </trkpt>
      <trkpt lat="45.87284" lon="4.70411">
        <ele>216</ele>
        <time>2018-01-07T10:35:34Z</time>
      </trkpt>
      <trkpt lat="45.87289" lon="4.70415">
        <ele>215</ele>
        <time>2018-01-07T10:35:35Z</time>
      </trkpt>
      <trkpt lat="45.87295" lon="4.70419">
        <ele>214</ele>
        <time>2018-01-07T10:35:36Z</time>
      </trkpt>
      <trkpt lat="45.873" lon="4.70425">
        <ele>214</ele>
        <time>2018-01-07T10:35:37Z</time>
      </trkpt>
      <trkpt lat="45.87304" lon="4.70431">
        <ele>214</ele>
        <time>2018-01-07T10:35:38Z</time>
      </trkpt>
      <trkpt lat="45.87309" lon="4.70438">
        <ele>214</ele>
        <time>2018-01-07T10:35:39Z</time>
      </trkpt>
      <trkpt lat="45.87313" lon="4.70445">
        <ele>214</ele>
        <time>2018-01-07T10:35:40Z</time>
      </trkpt>
      <trkpt lat="45.87318" lon="4.70452">
        <ele>214</ele>
        <time>2018-01-07T10:35:41Z</time>
      </trkpt>
      <trkpt lat="45.87321" lon="4.70459">
        <ele>214</ele>
        <time>2018-01-07T10:35:42Z</time>
      </trkpt>
      <trkpt lat="45.87325" lon="4.70466">
        <ele>214</ele>
        <time>2018-01-07T10:35:43Z</time>
      </trkpt>
      <trkpt lat="45.8733" lon="4.70476">
        <ele>214</ele>
        <time>2018-01-07T10:35:44Z</time>
      </trkpt>
      <trkpt lat="45.87334" lon="4.70484">
        <ele>213</ele>
        <time>2018-01-07T10:35:45Z</time>
      </trkpt>
      <trkpt lat="45.87339" lon="4.70492">
        <ele>213</ele>
        <time>2018-01-07T10:35:46Z</time>
      </trkpt>
      <trkpt lat="45.87344" lon="4.705">
        <ele>213</ele>
        <time>2018-01-07T10:35:47Z</time>
      </trkpt>
      <trkpt lat="45.87349" lon="4.70508">
        <ele>212</ele>
        <time>2018-01-07T10:35:48Z</time>
      </trkpt>
      <trkpt lat="45.87354" lon="4.70517">
        <ele>212</ele>
        <time>2018-01-07T10:35:49Z</time>
      </trkpt>
      <trkpt lat="45.8736" lon="4.70525">
        <ele>212</ele>
        <time>2018-01-07T10:35:50Z</time>
      </trkpt>
      <trkpt lat="45.87366" lon="4.70534">
        <ele>212</ele>
        <time>2018-01-07T10:35:51Z</time>
      </trkpt>
      <trkpt lat="45.87372" lon="4.70544">
        <ele>212</ele>
        <time>2018-01-07T10:35:52Z</time>
      </trkpt>
      <trkpt lat="45.87378" lon="4.70552">
        <ele>212</ele>
        <time>2018-01-07T10:35:53Z</time>
      </trkpt>
      <trkpt lat="45.87384" lon="4.70561">
        <ele>211</ele>
        <time>2018-01-07T10:35:54Z</time>
      </trkpt>
      <trkpt lat="45.8739" lon="4.7057">
        <ele>211</ele>
        <time>2018-01-07T10:35:55Z</time>
      </trkpt>
      <trkpt lat="45.87396" lon="4.70578">
        <ele>211</ele>
        <time>2018-01-07T10:35:56Z</time>
      </trkpt>
      <trkpt lat="45.87402" lon="4.70587">
        <ele>210</ele>
        <time>2018-01-07T10:35:57Z</time>
      </trkpt>
      <trkpt lat="45.87407" lon="4.70596">
        <ele>210</ele>
        <time>2018-01-07T10:35:58Z</time>
      </trkpt>
      <trkpt lat="45.87412" lon="4.70605">
        <ele>210</ele>
        <time>2018-01-07T10:35:59Z</time>
      </trkpt>
      <trkpt lat="45.87416" lon="4.70613">
        <ele>210</ele>
        <time>2018-01-07T10:36:00Z</time>
      </trkpt>
      <trkpt lat="45.87419" lon="4.70622">
        <ele>210</ele>
        <time>2018-01-07T10:36:01Z</time>
      </trkpt>
      <trkpt lat="45.87421" lon="4.70631">
        <ele>209</ele>
        <time>2018-01-07T10:36:02Z</time>
      </trkpt>
      <trkpt lat="45.87423" lon="4.7064">
        <ele>209</ele>
        <time>2018-01-07T10:36:03Z</time>
      </trkpt>
      <trkpt lat="45.87425" lon="4.70651">
        <ele>209</ele>
        <time>2018-01-07T10:36:04Z</time>
      </trkpt>
      <trkpt lat="45.87425" lon="4.70661">
        <ele>208</ele>
        <time>2018-01-07T10:36:05Z</time>
      </trkpt>
      <trkpt lat="45.87426" lon="4.70669">
        <ele>208</ele>
        <time>2018-01-07T10:36:06Z</time>
      </trkpt>
      <trkpt lat="45.87428" lon="4.70678">
        <ele>209</ele>
        <time>2018-01-07T10:36:07Z</time>
      </trkpt>
      <trkpt lat="45.8743" lon="4.70686">
        <ele>209</ele>
        <time>2018-01-07T10:36:08Z</time>
      </trkpt>
      <trkpt lat="45.87431" lon="4.70695">
        <ele>209</ele>
        <time>2018-01-07T10:36:09Z</time>
      </trkpt>
      <trkpt lat="45.87432" lon="4.70704">
        <ele>209</ele>
        <time>2018-01-07T10:36:10Z</time>
      </trkpt>
      <trkpt lat="45.87433" lon="4.70711">
        <ele>209</ele>
        <time>2018-01-07T10:36:11Z</time>
      </trkpt>
      <trkpt lat="45.87433" lon="4.70718">
        <ele>209</ele>
        <time>2018-01-07T10:36:12Z</time>
      </trkpt>
      <trkpt lat="45.87434" lon="4.70726">
        <ele>209</ele>
        <time>2018-01-07T10:36:13Z</time>
      </trkpt>
      <trkpt lat="45.87436" lon="4.70734">
        <ele>209</ele>
        <time>2018-01-07T10:36:14Z</time>
      </trkpt>
      <trkpt lat="45.87436" lon="4.70741">
        <ele>209</ele>
        <time>2018-01-07T10:36:15Z</time>
      </trkpt>
      <trkpt lat="45.87436" lon="4.70747">
        <ele>209</ele>
        <time>2018-01-07T10:36:16Z</time>
      </trkpt>
      <trkpt lat="45.87438" lon="4.70754">
        <ele>210</ele>
        <time>2018-01-07T10:36:17Z</time>
      </trkpt>
      <trkpt lat="45.8744" lon="4.70762">
        <ele>210</ele>
        <time>2018-01-07T10:36:18Z</time>
      </trkpt>
      <trkpt lat="45.87442" lon="4.70768">
        <ele>210</ele>
        <time>2018-01-07T10:36:19Z</time>
      </trkpt>
      <trkpt lat="45.87443" lon="4.70776">
        <ele>210</ele>
        <time>2018-01-07T10:36:20Z</time>
      </trkpt>
      <trkpt lat="45.87445" lon="4.70783">
        <ele>211</ele>
        <time>2018-01-07T10:36:21Z</time>
      </trkpt>
      <trkpt lat="45.87447" lon="4.7079">
        <ele>211</ele>
        <time>2018-01-07T10:36:22Z</time>
      </trkpt>
      <trkpt lat="45.87448" lon="4.70796">
        <ele>211</ele>
        <time>2018-01-07T10:36:23Z</time>
      </trkpt>
      <trkpt lat="45.8745" lon="4.70802">
        <ele>211</ele>
        <time>2018-01-07T10:36:24Z</time>
      </trkpt>
      <trkpt lat="45.87452" lon="4.70809">
        <ele>211</ele>
        <time>2018-01-07T10:36:25Z</time>
      </trkpt>
      <trkpt lat="45.87452" lon="4.70815">
        <ele>211</ele>
        <time>2018-01-07T10:36:26Z</time>
      </trkpt>
      <trkpt lat="45.87454" lon="4.70823">
        <ele>211</ele>
        <time>2018-01-07T10:36:27Z</time>
      </trkpt>
      <trkpt lat="45.87455" lon="4.70829">
        <ele>211</ele>
        <time>2018-01-07T10:36:28Z</time>
      </trkpt>
      <trkpt lat="45.87457" lon="4.70839">
        <ele>213</ele>
        <time>2018-01-07T10:36:30Z</time>
      </trkpt>
      <trkpt lat="45.87459" lon="4.70843">
        <ele>213</ele>
        <time>2018-01-07T10:36:31Z</time>
      </trkpt>
      <trkpt lat="45.87461" lon="4.70853">
        <ele>213</ele>
        <time>2018-01-07T10:36:33Z</time>
      </trkpt>
      <trkpt lat="45.87462" lon="4.7086">
        <ele>213</ele>
        <time>2018-01-07T10:36:34Z</time>
      </trkpt>
      <trkpt lat="45.87465" lon="4.70871">
        <ele>213</ele>
        <time>2018-01-07T10:36:36Z</time>
      </trkpt>
      <trkpt lat="45.87466" lon="4.7088">
        <ele>214</ele>
        <time>2018-01-07T10:36:37Z</time>
      </trkpt>
      <trkpt lat="45.87468" lon="4.70885">
        <ele>214</ele>
        <time>2018-01-07T10:36:38Z</time>
      </trkpt>
      <trkpt lat="45.87469" lon="4.70892">
        <ele>214</ele>
        <time>2018-01-07T10:36:39Z</time>
      </trkpt>
      <trkpt lat="45.87471" lon="4.709">
        <ele>214</ele>
        <time>2018-01-07T10:36:40Z</time>
      </trkpt>
      <trkpt lat="45.87473" lon="4.70908">
        <ele>214</ele>
        <time>2018-01-07T10:36:41Z</time>
      </trkpt>
      <trkpt lat="45.87474" lon="4.70914">
        <ele>214</ele>
        <time>2018-01-07T10:36:42Z</time>
      </trkpt>
      <trkpt lat="45.87476" lon="4.70921">
        <ele>215</ele>
        <time>2018-01-07T10:36:43Z</time>
      </trkpt>
      <trkpt lat="45.87479" lon="4.70932">
        <ele>215</ele>
        <time>2018-01-07T10:36:45Z</time>
      </trkpt>
      <trkpt lat="45.87482" lon="4.70937">
        <ele>215</ele>
        <time>2018-01-07T10:36:46Z</time>
      </trkpt>
      <trkpt lat="45.87485" lon="4.70948">
        <ele>215</ele>
        <time>2018-01-07T10:36:48Z</time>
      </trkpt>
      <trkpt lat="45.87487" lon="4.70954">
        <ele>215</ele>
        <time>2018-01-07T10:36:49Z</time>
      </trkpt>
      <trkpt lat="45.87489" lon="4.7096">
        <ele>215</ele>
        <time>2018-01-07T10:36:50Z</time>
      </trkpt>
      <trkpt lat="45.87491" lon="4.70965">
        <ele>215</ele>
        <time>2018-01-07T10:36:51Z</time>
      </trkpt>
      <trkpt lat="45.87497" lon="4.70975">
        <ele>215</ele>
        <time>2018-01-07T10:36:53Z</time>
      </trkpt>
      <trkpt lat="45.87498" lon="4.7098">
        <ele>215</ele>
        <time>2018-01-07T10:36:54Z</time>
      </trkpt>
      <trkpt lat="45.87503" lon="4.70991">
        <ele>214</ele>
        <time>2018-01-07T10:36:56Z</time>
      </trkpt>
      <trkpt lat="45.87506" lon="4.70997">
        <ele>214</ele>
        <time>2018-01-07T10:36:57Z</time>
      </trkpt>
      <trkpt lat="45.87509" lon="4.71002">
        <ele>214</ele>
        <time>2018-01-07T10:36:58Z</time>
      </trkpt>
      <trkpt lat="45.87513" lon="4.71007">
        <ele>215</ele>
        <time>2018-01-07T10:36:59Z</time>
      </trkpt>
      <trkpt lat="45.87516" lon="4.71013">
        <ele>215</ele>
        <time>2018-01-07T10:37:00Z</time>
      </trkpt>
      <trkpt lat="45.87519" lon="4.71018">
        <ele>215</ele>
        <time>2018-01-07T10:37:01Z</time>
      </trkpt>
      <trkpt lat="45.87522" lon="4.71023">
        <ele>215</ele>
        <time>2018-01-07T10:37:02Z</time>
      </trkpt>
      <trkpt lat="45.87525" lon="4.71029">
        <ele>215</ele>
        <time>2018-01-07T10:37:03Z</time>
      </trkpt>
      <trkpt lat="45.87528" lon="4.71034">
        <ele>215</ele>
        <time>2018-01-07T10:37:04Z</time>
      </trkpt>
      <trkpt lat="45.87532" lon="4.71041">
        <ele>215</ele>
        <time>2018-01-07T10:37:05Z</time>
      </trkpt>
      <trkpt lat="45.87536" lon="4.71047">
        <ele>215</ele>
        <time>2018-01-07T10:37:06Z</time>
      </trkpt>
      <trkpt lat="45.87541" lon="4.71054">
        <ele>215</ele>
        <time>2018-01-07T10:37:07Z</time>
      </trkpt>
      <trkpt lat="45.87544" lon="4.71059">
        <ele>216</ele>
        <time>2018-01-07T10:37:08Z</time>
      </trkpt>
      <trkpt lat="45.87548" lon="4.71063">
        <ele>216</ele>
        <time>2018-01-07T10:37:09Z</time>
      </trkpt>
      <trkpt lat="45.87555" lon="4.7107">
        <ele>216</ele>
        <time>2018-01-07T10:37:11Z</time>
      </trkpt>
      <trkpt lat="45.87557" lon="4.71073">
        <ele>216</ele>
        <time>2018-01-07T10:37:12Z</time>
      </trkpt>
      <trkpt lat="45.87565" lon="4.71079">
        <ele>216</ele>
        <time>2018-01-07T10:37:16Z</time>
      </trkpt>
      <trkpt lat="45.87566" lon="4.71078">
        <ele>216</ele>
        <time>2018-01-07T10:37:17Z</time>
      </trkpt>
      <trkpt lat="45.87574" lon="4.71084">
        <ele>217</ele>
        <time>2018-01-07T10:38:20Z</time>
      </trkpt>
      <trkpt lat="45.87576" lon="4.71085">
        <ele>217</ele>
        <time>2018-01-07T10:38:21Z</time>
      </trkpt>
      <trkpt lat="45.87582" lon="4.71086">
        <ele>217</ele>
        <time>2018-01-07T10:38:23Z</time>
      </trkpt>
      <trkpt lat="45.87585" lon="4.71085">
        <ele>217</ele>
        <time>2018-01-07T10:38:24Z</time>
      </trkpt>
      <trkpt lat="45.87593" lon="4.71082">
        <ele>217</ele>
        <time>2018-01-07T10:38:26Z</time>
      </trkpt>
      <trkpt lat="45.87598" lon="4.7108">
        <ele>217</ele>
        <time>2018-01-07T10:38:27Z</time>
      </trkpt>
      <trkpt lat="45.87606" lon="4.71076">
        <ele>217</ele>
        <time>2018-01-07T10:38:29Z</time>
      </trkpt>
      <trkpt lat="45.8761" lon="4.71075">
        <ele>217</ele>
        <time>2018-01-07T10:38:30Z</time>
      </trkpt>
      <trkpt lat="45.87617" lon="4.71073">
        <ele>217</ele>
        <time>2018-01-07T10:38:32Z</time>
      </trkpt>
      <trkpt lat="45.8762" lon="4.71073">
        <ele>217</ele>
        <time>2018-01-07T10:38:33Z</time>
      </trkpt>
      <trkpt lat="45.87626" lon="4.71071">
        <ele>217</ele>
        <time>2018-01-07T10:38:35Z</time>
      </trkpt>
      <trkpt lat="45.87629" lon="4.71069">
        <ele>218</ele>
        <time>2018-01-07T10:38:36Z</time>
      </trkpt>
      <trkpt lat="45.87636" lon="4.71067">
        <ele>218</ele>
        <time>2018-01-07T10:38:38Z</time>
      </trkpt>
      <trkpt lat="45.8764" lon="4.71066">
        <ele>218</ele>
        <time>2018-01-07T10:38:39Z</time>
      </trkpt>
      <trkpt lat="45.87645" lon="4.71064">
        <ele>218</ele>
        <time>2018-01-07T10:38:40Z</time>
      </trkpt>
      <trkpt lat="45.87649" lon="4.71064">
        <ele>218</ele>
        <time>2018-01-07T10:38:41Z</time>
      </trkpt>
      <trkpt lat="45.87654" lon="4.71063">
        <ele>218</ele>
        <time>2018-01-07T10:38:42Z</time>
      </trkpt>
      <trkpt lat="45.87658" lon="4.71062">
        <ele>218</ele>
        <time>2018-01-07T10:38:43Z</time>
      </trkpt>
      <trkpt lat="45.87663" lon="4.71062">
        <ele>218</ele>
        <time>2018-01-07T10:38:44Z</time>
      </trkpt>
      <trkpt lat="45.87668" lon="4.71062">
        <ele>220</ele>
        <time>2018-01-07T10:38:45Z</time>
      </trkpt>
      <trkpt lat="45.87673" lon="4.7106">
        <ele>220</ele>
        <time>2018-01-07T10:38:46Z</time>
      </trkpt>
      <trkpt lat="45.87679" lon="4.71058">
        <ele>220</ele>
        <time>2018-01-07T10:38:47Z</time>
      </trkpt>
      <trkpt lat="45.87684" lon="4.71057">
        <ele>220</ele>
        <time>2018-01-07T10:38:48Z</time>
      </trkpt>
      <trkpt lat="45.87689" lon="4.71057">
        <ele>220</ele>
        <time>2018-01-07T10:38:49Z</time>
      </trkpt>
      <trkpt lat="45.87694" lon="4.71055">
        <ele>220</ele>
        <time>2018-01-07T10:38:50Z</time>
      </trkpt>
      <trkpt lat="45.87699" lon="4.71053">
        <ele>220</ele>
        <time>2018-01-07T10:38:51Z</time>
      </trkpt>
      <trkpt lat="45.87703" lon="4.71051">
        <ele>220</ele>
        <time>2018-01-07T10:38:52Z</time>
      </trkpt>
      <trkpt lat="45.87707" lon="4.71049">
        <ele>220</ele>
        <time>2018-01-07T10:38:53Z</time>
      </trkpt>
      <trkpt lat="45.87713" lon="4.71048">
        <ele>220</ele>
        <time>2018-01-07T10:38:54Z</time>
      </trkpt>
      <trkpt lat="45.87717" lon="4.71047">
        <ele>220</ele>
        <time>2018-01-07T10:38:55Z</time>
      </trkpt>
      <trkpt lat="45.87721" lon="4.71044">
        <ele>220</ele>
        <time>2018-01-07T10:38:56Z</time>
      </trkpt>
      <trkpt lat="45.87726" lon="4.71042">
        <ele>220</ele>
        <time>2018-01-07T10:38:57Z</time>
      </trkpt>
      <trkpt lat="45.8773" lon="4.7104">
        <ele>220</ele>
        <time>2018-01-07T10:38:58Z</time>
      </trkpt>
      <trkpt lat="45.87735" lon="4.71038">
        <ele>220</ele>
        <time>2018-01-07T10:38:59Z</time>
      </trkpt>
      <trkpt lat="45.87741" lon="4.71036">
        <ele>220</ele>
        <time>2018-01-07T10:39:00Z</time>
      </trkpt>
      <trkpt lat="45.87745" lon="4.71034">
        <ele>220</ele>
        <time>2018-01-07T10:39:01Z</time>
      </trkpt>
      <trkpt lat="45.87754" lon="4.71031">
        <ele>222</ele>
        <time>2018-01-07T10:39:03Z</time>
      </trkpt>
      <trkpt lat="45.87759" lon="4.7103">
        <ele>222</ele>
        <time>2018-01-07T10:39:04Z</time>
      </trkpt>
      <trkpt lat="45.87764" lon="4.71026">
        <ele>222</ele>
        <time>2018-01-07T10:39:05Z</time>
      </trkpt>
      <trkpt lat="45.87769" lon="4.71026">
        <ele>222</ele>
        <time>2018-01-07T10:39:06Z</time>
      </trkpt>
      <trkpt lat="45.87773" lon="4.71025">
        <ele>222</ele>
        <time>2018-01-07T10:39:07Z</time>
      </trkpt>
      <trkpt lat="45.87777" lon="4.71022">
        <ele>222</ele>
        <time>2018-01-07T10:39:08Z</time>
      </trkpt>
      <trkpt lat="45.87782" lon="4.7102">
        <ele>222</ele>
        <time>2018-01-07T10:39:09Z</time>
      </trkpt>
      <trkpt lat="45.87786" lon="4.71019">
        <ele>223</ele>
        <time>2018-01-07T10:39:10Z</time>
      </trkpt>
      <trkpt lat="45.87791" lon="4.71018">
        <ele>223</ele>
        <time>2018-01-07T10:39:11Z</time>
      </trkpt>
      <trkpt lat="45.87796" lon="4.71017">
        <ele>223</ele>
        <time>2018-01-07T10:39:12Z</time>
      </trkpt>
      <trkpt lat="45.878" lon="4.71014">
        <ele>223</ele>
        <time>2018-01-07T10:39:13Z</time>
      </trkpt>
      <trkpt lat="45.87805" lon="4.71012">
        <ele>223</ele>
        <time>2018-01-07T10:39:14Z</time>
      </trkpt>
      <trkpt lat="45.87813" lon="4.7101">
        <ele>223</ele>
        <time>2018-01-07T10:39:16Z</time>
      </trkpt>
      <trkpt lat="45.87818" lon="4.71009">
        <ele>223</ele>
        <time>2018-01-07T10:39:17Z</time>
      </trkpt>
      <trkpt lat="45.87826" lon="4.71005">
        <ele>224</ele>
        <time>2018-01-07T10:39:19Z</time>
      </trkpt>
      <trkpt lat="45.87831" lon="4.71002">
        <ele>224</ele>
        <time>2018-01-07T10:39:20Z</time>
      </trkpt>
      <trkpt lat="45.87835" lon="4.70999">
        <ele>224</ele>
        <time>2018-01-07T10:39:21Z</time>
      </trkpt>
      <trkpt lat="45.87839" lon="4.70997">
        <ele>224</ele>
        <time>2018-01-07T10:39:22Z</time>
      </trkpt>
      <trkpt lat="45.87846" lon="4.70992">
        <ele>224</ele>
        <time>2018-01-07T10:39:24Z</time>
      </trkpt>
      <trkpt lat="45.87851" lon="4.70989">
        <ele>224</ele>
        <time>2018-01-07T10:39:25Z</time>
      </trkpt>
      <trkpt lat="45.87858" lon="4.70984">
        <ele>224</ele>
        <time>2018-01-07T10:39:27Z</time>
      </trkpt>
      <trkpt lat="45.87861" lon="4.70982">
        <ele>224</ele>
        <time>2018-01-07T10:39:28Z</time>
      </trkpt>
      <trkpt lat="45.87869" lon="4.70976">
        <ele>225</ele>
        <time>2018-01-07T10:39:30Z</time>
      </trkpt>
      <trkpt lat="45.87872" lon="4.70973">
        <ele>225</ele>
        <time>2018-01-07T10:39:31Z</time>
      </trkpt>
      <trkpt lat="45.87879" lon="4.70969">
        <ele>225</ele>
        <time>2018-01-07T10:39:33Z</time>
      </trkpt>
      <trkpt lat="45.87883" lon="4.70967">
        <ele>225</ele>
        <time>2018-01-07T10:39:34Z</time>
      </trkpt>
      <trkpt lat="45.8789" lon="4.70962">
        <ele>225</ele>
        <time>2018-01-07T10:39:36Z</time>
      </trkpt>
      <trkpt lat="45.87894" lon="4.7096">
        <ele>225</ele>
        <time>2018-01-07T10:39:37Z</time>
      </trkpt>
      <trkpt lat="45.879" lon="4.70956">
        <ele>225</ele>
        <time>2018-01-07T10:39:39Z</time>
      </trkpt>
      <trkpt lat="45.87904" lon="4.70953">
        <ele>225</ele>
        <time>2018-01-07T10:39:40Z</time>
      </trkpt>
      <trkpt lat="45.8791" lon="4.70949">
        <ele>225</ele>
        <time>2018-01-07T10:39:42Z</time>
      </trkpt>
      <trkpt lat="45.87914" lon="4.70946">
        <ele>225</ele>
        <time>2018-01-07T10:39:43Z</time>
      </trkpt>
      <trkpt lat="45.87921" lon="4.7094">
        <ele>225</ele>
        <time>2018-01-07T10:39:45Z</time>
      </trkpt>
      <trkpt lat="45.87925" lon="4.70937">
        <ele>225</ele>
        <time>2018-01-07T10:39:46Z</time>
      </trkpt>
      <trkpt lat="45.87932" lon="4.70932">
        <ele>225</ele>
        <time>2018-01-07T10:39:48Z</time>
      </trkpt>
      <trkpt lat="45.87936" lon="4.70929">
        <ele>225</ele>
        <time>2018-01-07T10:39:49Z</time>
      </trkpt>
      <trkpt lat="45.87944" lon="4.70924">
        <ele>225</ele>
        <time>2018-01-07T10:39:51Z</time>
      </trkpt>
      <trkpt lat="45.87948" lon="4.70922">
        <ele>225</ele>
        <time>2018-01-07T10:39:52Z</time>
      </trkpt>
      <trkpt lat="45.87956" lon="4.70916">
        <ele>224</ele>
        <time>2018-01-07T10:39:54Z</time>
      </trkpt>
      <trkpt lat="45.8796" lon="4.70913">
        <ele>225</ele>
        <time>2018-01-07T10:39:55Z</time>
      </trkpt>
      <trkpt lat="45.87968" lon="4.70907">
        <ele>225</ele>
        <time>2018-01-07T10:39:57Z</time>
      </trkpt>
      <trkpt lat="45.87971" lon="4.70904">
        <ele>225</ele>
        <time>2018-01-07T10:39:58Z</time>
      </trkpt>
      <trkpt lat="45.87979" lon="4.70899">
        <ele>225</ele>
        <time>2018-01-07T10:40:00Z</time>
      </trkpt>
      <trkpt lat="45.87983" lon="4.70897">
        <ele>225</ele>
        <time>2018-01-07T10:40:01Z</time>
      </trkpt>
      <trkpt lat="45.87991" lon="4.70892">
        <ele>225</ele>
        <time>2018-01-07T10:40:03Z</time>
      </trkpt>
      <trkpt lat="45.87995" lon="4.70889">
        <ele>225</ele>
        <time>2018-01-07T10:40:04Z</time>
      </trkpt>
      <trkpt lat="45.88002" lon="4.70884">
        <ele>226</ele>
        <time>2018-01-07T10:40:06Z</time>
      </trkpt>
      <trkpt lat="45.88006" lon="4.70882">
        <ele>226</ele>
        <time>2018-01-07T10:40:07Z</time>
      </trkpt>
      <trkpt lat="45.88013" lon="4.70878">
        <ele>226</ele>
        <time>2018-01-07T10:40:09Z</time>
      </trkpt>
      <trkpt lat="45.88016" lon="4.70876">
        <ele>226</ele>
        <time>2018-01-07T10:40:10Z</time>
      </trkpt>
      <trkpt lat="45.88024" lon="4.70873">
        <ele>226</ele>
        <time>2018-01-07T10:40:12Z</time>
      </trkpt>
      <trkpt lat="45.88027" lon="4.70871">
        <ele>226</ele>
        <time>2018-01-07T10:40:13Z</time>
      </trkpt>
      <trkpt lat="45.88035" lon="4.70866">
        <ele>226</ele>
        <time>2018-01-07T10:40:15Z</time>
      </trkpt>
      <trkpt lat="45.88038" lon="4.70864">
        <ele>226</ele>
        <time>2018-01-07T10:40:16Z</time>
      </trkpt>
      <trkpt lat="45.88045" lon="4.7086">
        <ele>227</ele>
        <time>2018-01-07T10:40:18Z</time>
      </trkpt>
      <trkpt lat="45.88048" lon="4.70858">
        <ele>227</ele>
        <time>2018-01-07T10:40:19Z</time>
      </trkpt>
      <trkpt lat="45.88055" lon="4.70853">
        <ele>227</ele>
        <time>2018-01-07T10:40:21Z</time>
      </trkpt>
      <trkpt lat="45.88058" lon="4.7085">
        <ele>227</ele>
        <time>2018-01-07T10:40:22Z</time>
      </trkpt>
      <trkpt lat="45.88064" lon="4.70845">
        <ele>227</ele>
        <time>2018-01-07T10:40:24Z</time>
      </trkpt>
      <trkpt lat="45.88067" lon="4.70843">
        <ele>228</ele>
        <time>2018-01-07T10:40:25Z</time>
      </trkpt>
      <trkpt lat="45.88074" lon="4.70839">
        <ele>228</ele>
        <time>2018-01-07T10:40:27Z</time>
      </trkpt>
      <trkpt lat="45.88077" lon="4.70838">
        <ele>228</ele>
        <time>2018-01-07T10:40:28Z</time>
      </trkpt>
      <trkpt lat="45.88085" lon="4.70839">
        <ele>229</ele>
        <time>2018-01-07T10:40:30Z</time>
      </trkpt>
      <trkpt lat="45.88089" lon="4.70841">
        <ele>229</ele>
        <time>2018-01-07T10:40:31Z</time>
      </trkpt>
      <trkpt lat="45.88097" lon="4.70845">
        <ele>229</ele>
        <time>2018-01-07T10:40:33Z</time>
      </trkpt>
      <trkpt lat="45.88101" lon="4.70847">
        <ele>229</ele>
        <time>2018-01-07T10:40:34Z</time>
      </trkpt>
      <trkpt lat="45.88109" lon="4.70846">
        <ele>229</ele>
        <time>2018-01-07T10:40:36Z</time>
      </trkpt>
      <trkpt lat="45.88113" lon="4.70843">
        <ele>229</ele>
        <time>2018-01-07T10:40:37Z</time>
      </trkpt>
      <trkpt lat="45.88117" lon="4.70835">
        <ele>229</ele>
        <time>2018-01-07T10:40:39Z</time>
      </trkpt>
      <trkpt lat="45.88119" lon="4.7083">
        <ele>230</ele>
        <time>2018-01-07T10:40:40Z</time>
      </trkpt>
      <trkpt lat="45.88123" lon="4.70821">
        <ele>230</ele>
        <time>2018-01-07T10:40:42Z</time>
      </trkpt>
      <trkpt lat="45.88125" lon="4.70817">
        <ele>230</ele>
        <time>2018-01-07T10:40:43Z</time>
      </trkpt>
      <trkpt lat="45.8813" lon="4.7081">
        <ele>230</ele>
        <time>2018-01-07T10:40:45Z</time>
      </trkpt>
      <trkpt lat="45.88134" lon="4.70807">
        <ele>231</ele>
        <time>2018-01-07T10:40:46Z</time>
      </trkpt>
      <trkpt lat="45.88139" lon="4.70801">
        <ele>231</ele>
        <time>2018-01-07T10:40:48Z</time>
      </trkpt>
      <trkpt lat="45.88142" lon="4.70798">
        <ele>231</ele>
        <time>2018-01-07T10:40:49Z</time>
      </trkpt>
      <trkpt lat="45.88149" lon="4.70791">
        <ele>231</ele>
        <time>2018-01-07T10:40:51Z</time>
      </trkpt>
      <trkpt lat="45.88152" lon="4.70788">
        <ele>231</ele>
        <time>2018-01-07T10:40:52Z</time>
      </trkpt>
      <trkpt lat="45.88159" lon="4.70782">
        <ele>231</ele>
        <time>2018-01-07T10:40:54Z</time>
      </trkpt>
      <trkpt lat="45.88162" lon="4.7078">
        <ele>231</ele>
        <time>2018-01-07T10:40:55Z</time>
      </trkpt>
      <trkpt lat="45.88169" lon="4.70775">
        <ele>232</ele>
        <time>2018-01-07T10:40:57Z</time>
      </trkpt>
      <trkpt lat="45.88172" lon="4.70772">
        <ele>232</ele>
        <time>2018-01-07T10:40:58Z</time>
      </trkpt>
      <trkpt lat="45.88179" lon="4.70766">
        <ele>232</ele>
        <time>2018-01-07T10:41:00Z</time>
      </trkpt>
      <trkpt lat="45.88183" lon="4.70764">
        <ele>232</ele>
        <time>2018-01-07T10:41:01Z</time>
      </trkpt>
      <trkpt lat="45.88189" lon="4.70759">
        <ele>232</ele>
        <time>2018-01-07T10:41:03Z</time>
      </trkpt>
      <trkpt lat="45.88193" lon="4.70757">
        <ele>232</ele>
        <time>2018-01-07T10:41:04Z</time>
      </trkpt>
      <trkpt lat="45.88201" lon="4.70753">
        <ele>232</ele>
        <time>2018-01-07T10:41:06Z</time>
      </trkpt>
      <trkpt lat="45.88204" lon="4.70751">
        <ele>232</ele>
        <time>2018-01-07T10:41:07Z</time>
      </trkpt>
      <trkpt lat="45.88212" lon="4.70746">
        <ele>235</ele>
        <time>2018-01-07T10:41:09Z</time>
      </trkpt>
      <trkpt lat="45.88215" lon="4.70744">
        <ele>235</ele>
        <time>2018-01-07T10:41:10Z</time>
      </trkpt>
      <trkpt lat="45.88222" lon="4.70739">
        <ele>235</ele>
        <time>2018-01-07T10:41:12Z</time>
      </trkpt>
      <trkpt lat="45.88226" lon="4.70736">
        <ele>235</ele>
        <time>2018-01-07T10:41:13Z</time>
      </trkpt>
      <trkpt lat="45.88233" lon="4.70731">
        <ele>235</ele>
        <time>2018-01-07T10:41:15Z</time>
      </trkpt>
      <trkpt lat="45.88236" lon="4.70728">
        <ele>235</ele>
        <time>2018-01-07T10:41:16Z</time>
      </trkpt>
      <trkpt lat="45.88244" lon="4.70722">
        <ele>235</ele>
        <time>2018-01-07T10:41:18Z</time>
      </trkpt>
      <trkpt lat="45.88247" lon="4.70719">
        <ele>235</ele>
        <time>2018-01-07T10:41:19Z</time>
      </trkpt>
      <trkpt lat="45.88254" lon="4.70713">
        <ele>234</ele>
        <time>2018-01-07T10:41:21Z</time>
      </trkpt>
      <trkpt lat="45.88258" lon="4.70711">
        <ele>235</ele>
        <time>2018-01-07T10:41:22Z</time>
      </trkpt>
      <trkpt lat="45.88264" lon="4.70705">
        <ele>235</ele>
        <time>2018-01-07T10:41:24Z</time>
      </trkpt>
      <trkpt lat="45.88267" lon="4.70702">
        <ele>235</ele>
        <time>2018-01-07T10:41:25Z</time>
      </trkpt>
      <trkpt lat="45.88275" lon="4.70696">
        <ele>235</ele>
        <time>2018-01-07T10:41:27Z</time>
      </trkpt>
      <trkpt lat="45.88279" lon="4.70693">
        <ele>235</ele>
        <time>2018-01-07T10:41:28Z</time>
      </trkpt>
      <trkpt lat="45.88283" lon="4.70689">
        <ele>235</ele>
        <time>2018-01-07T10:41:29Z</time>
      </trkpt>
      <trkpt lat="45.88287" lon="4.70687">
        <ele>235</ele>
        <time>2018-01-07T10:41:30Z</time>
      </trkpt>
      <trkpt lat="45.88295" lon="4.70681">
        <ele>235</ele>
        <time>2018-01-07T10:41:32Z</time>
      </trkpt>
      <trkpt lat="45.88298" lon="4.70678">
        <ele>235</ele>
        <time>2018-01-07T10:41:33Z</time>
      </trkpt>
      <trkpt lat="45.88304" lon="4.70673">
        <ele>235</ele>
        <time>2018-01-07T10:41:35Z</time>
      </trkpt>
      <trkpt lat="45.88308" lon="4.7067">
        <ele>235</ele>
        <time>2018-01-07T10:41:36Z</time>
      </trkpt>
      <trkpt lat="45.88315" lon="4.70666">
        <ele>237</ele>
        <time>2018-01-07T10:41:38Z</time>
      </trkpt>
      <trkpt lat="45.88319" lon="4.70661">
        <ele>237</ele>
        <time>2018-01-07T10:41:39Z</time>
      </trkpt>
      <trkpt lat="45.88326" lon="4.70653">
        <ele>237</ele>
        <time>2018-01-07T10:41:41Z</time>
      </trkpt>
      <trkpt lat="45.88331" lon="4.7065">
        <ele>237</ele>
        <time>2018-01-07T10:41:42Z</time>
      </trkpt>
      <trkpt lat="45.88335" lon="4.70647">
        <ele>235</ele>
        <time>2018-01-07T10:41:43Z</time>
      </trkpt>
      <trkpt lat="45.88339" lon="4.70644">
        <ele>235</ele>
        <time>2018-01-07T10:41:44Z</time>
      </trkpt>
      <trkpt lat="45.88347" lon="4.70639">
        <ele>235</ele>
        <time>2018-01-07T10:41:46Z</time>
      </trkpt>
      <trkpt lat="45.8835" lon="4.70637">
        <ele>235</ele>
        <time>2018-01-07T10:41:47Z</time>
      </trkpt>
      <trkpt lat="45.88358" lon="4.70631">
        <ele>235</ele>
        <time>2018-01-07T10:41:49Z</time>
      </trkpt>
      <trkpt lat="45.88361" lon="4.70628">
        <ele>235</ele>
        <time>2018-01-07T10:41:50Z</time>
      </trkpt>
      <trkpt lat="45.88365" lon="4.70625">
        <ele>235</ele>
        <time>2018-01-07T10:41:51Z</time>
      </trkpt>
      <trkpt lat="45.88369" lon="4.70621">
        <ele>235</ele>
        <time>2018-01-07T10:41:52Z</time>
      </trkpt>
      <trkpt lat="45.88374" lon="4.70617">
        <ele>235</ele>
        <time>2018-01-07T10:41:53Z</time>
      </trkpt>
      <trkpt lat="45.88378" lon="4.70614">
        <ele>235</ele>
        <time>2018-01-07T10:41:54Z</time>
      </trkpt>
      <trkpt lat="45.88383" lon="4.7061">
        <ele>235</ele>
        <time>2018-01-07T10:41:55Z</time>
      </trkpt>
      <trkpt lat="45.88388" lon="4.70607">
        <ele>235</ele>
        <time>2018-01-07T10:41:56Z</time>
      </trkpt>
      <trkpt lat="45.88393" lon="4.70602">
        <ele>235</ele>
        <time>2018-01-07T10:41:57Z</time>
      </trkpt>
      <trkpt lat="45.88399" lon="4.706">
        <ele>235</ele>
        <time>2018-01-07T10:41:58Z</time>
      </trkpt>
      <trkpt lat="45.88404" lon="4.70596">
        <ele>235</ele>
        <time>2018-01-07T10:41:59Z</time>
      </trkpt>
      <trkpt lat="45.8841" lon="4.70591">
        <ele>235</ele>
        <time>2018-01-07T10:42:00Z</time>
      </trkpt>
      <trkpt lat="45.88414" lon="4.70587">
        <ele>235</ele>
        <time>2018-01-07T10:42:01Z</time>
      </trkpt>
      <trkpt lat="45.88418" lon="4.70585">
        <ele>234</ele>
        <time>2018-01-07T10:42:02Z</time>
      </trkpt>
      <trkpt lat="45.88422" lon="4.70581">
        <ele>235</ele>
        <time>2018-01-07T10:42:03Z</time>
      </trkpt>
      <trkpt lat="45.88426" lon="4.70578">
        <ele>235</ele>
        <time>2018-01-07T10:42:04Z</time>
      </trkpt>
      <trkpt lat="45.8843" lon="4.70573">
        <ele>235</ele>
        <time>2018-01-07T10:42:05Z</time>
      </trkpt>
      <trkpt lat="45.88435" lon="4.7057">
        <ele>235</ele>
        <time>2018-01-07T10:42:06Z</time>
      </trkpt>
      <trkpt lat="45.88439" lon="4.70566">
        <ele>234</ele>
        <time>2018-01-07T10:42:07Z</time>
      </trkpt>
      <trkpt lat="45.88445" lon="4.70563">
        <ele>234</ele>
        <time>2018-01-07T10:42:08Z</time>
      </trkpt>
      <trkpt lat="45.8845" lon="4.70559">
        <ele>234</ele>
        <time>2018-01-07T10:42:09Z</time>
      </trkpt>
      <trkpt lat="45.88455" lon="4.70556">
        <ele>234</ele>
        <time>2018-01-07T10:42:10Z</time>
      </trkpt>
      <trkpt lat="45.88461" lon="4.70552">
        <ele>234</ele>
        <time>2018-01-07T10:42:11Z</time>
      </trkpt>
      <trkpt lat="45.88467" lon="4.70549">
        <ele>234</ele>
        <time>2018-01-07T10:42:12Z</time>
      </trkpt>
      <trkpt lat="45.88472" lon="4.70545">
        <ele>234</ele>
        <time>2018-01-07T10:42:13Z</time>
      </trkpt>
      <trkpt lat="45.88477" lon="4.7054">
        <ele>234</ele>
        <time>2018-01-07T10:42:14Z</time>
      </trkpt>
      <trkpt lat="45.88482" lon="4.70534">
        <ele>234</ele>
        <time>2018-01-07T10:42:15Z</time>
      </trkpt>
      <trkpt lat="45.8849" lon="4.70527">
        <ele>234</ele>
        <time>2018-01-07T10:42:16Z</time>
      </trkpt>
      <trkpt lat="45.88495" lon="4.70522">
        <ele>234</ele>
        <time>2018-01-07T10:42:17Z</time>
      </trkpt>
      <trkpt lat="45.885" lon="4.70518">
        <ele>233</ele>
        <time>2018-01-07T10:42:18Z</time>
      </trkpt>
      <trkpt lat="45.88505" lon="4.70514">
        <ele>231</ele>
        <time>2018-01-07T10:42:19Z</time>
      </trkpt>
      <trkpt lat="45.88511" lon="4.70507">
        <ele>231</ele>
        <time>2018-01-07T10:42:20Z</time>
      </trkpt>
      <trkpt lat="45.88516" lon="4.70504">
        <ele>231</ele>
        <time>2018-01-07T10:42:21Z</time>
      </trkpt>
      <trkpt lat="45.8852" lon="4.70499">
        <ele>232</ele>
        <time>2018-01-07T10:42:22Z</time>
      </trkpt>
      <trkpt lat="45.88525" lon="4.70497">
        <ele>232</ele>
        <time>2018-01-07T10:42:23Z</time>
      </trkpt>
      <trkpt lat="45.8853" lon="4.70493">
        <ele>232</ele>
        <time>2018-01-07T10:42:24Z</time>
      </trkpt>
      <trkpt lat="45.88538" lon="4.7049">
        <ele>232</ele>
        <time>2018-01-07T10:42:26Z</time>
      </trkpt>
      <trkpt lat="45.88543" lon="4.70486">
        <ele>232</ele>
        <time>2018-01-07T10:42:27Z</time>
      </trkpt>
      <trkpt lat="45.88549" lon="4.70482">
        <ele>232</ele>
        <time>2018-01-07T10:42:28Z</time>
      </trkpt>
      <trkpt lat="45.88554" lon="4.70475">
        <ele>231</ele>
        <time>2018-01-07T10:42:29Z</time>
      </trkpt>
      <trkpt lat="45.88559" lon="4.70471">
        <ele>231</ele>
        <time>2018-01-07T10:42:30Z</time>
      </trkpt>
      <trkpt lat="45.88564" lon="4.70467">
        <ele>231</ele>
        <time>2018-01-07T10:42:31Z</time>
      </trkpt>
      <trkpt lat="45.88569" lon="4.70462">
        <ele>231</ele>
        <time>2018-01-07T10:42:32Z</time>
      </trkpt>
      <trkpt lat="45.88575" lon="4.70457">
        <ele>232</ele>
        <time>2018-01-07T10:42:33Z</time>
      </trkpt>
      <trkpt lat="45.88581" lon="4.70453">
        <ele>232</ele>
        <time>2018-01-07T10:42:34Z</time>
      </trkpt>
      <trkpt lat="45.88587" lon="4.70449">
        <ele>228</ele>
        <time>2018-01-07T10:42:35Z</time>
      </trkpt>
      <trkpt lat="45.88592" lon="4.70444">
        <ele>229</ele>
        <time>2018-01-07T10:42:36Z</time>
      </trkpt>
      <trkpt lat="45.88597" lon="4.70439">
        <ele>229</ele>
        <time>2018-01-07T10:42:37Z</time>
      </trkpt>
      <trkpt lat="45.88602" lon="4.70435">
        <ele>229</ele>
        <time>2018-01-07T10:42:38Z</time>
      </trkpt>
      <trkpt lat="45.88607" lon="4.70432">
        <ele>229</ele>
        <time>2018-01-07T10:42:39Z</time>
      </trkpt>
      <trkpt lat="45.88612" lon="4.70428">
        <ele>228</ele>
        <time>2018-01-07T10:42:40Z</time>
      </trkpt>
      <trkpt lat="45.88617" lon="4.70424">
        <ele>228</ele>
        <time>2018-01-07T10:42:41Z</time>
      </trkpt>
      <trkpt lat="45.88622" lon="4.70421">
        <ele>228</ele>
        <time>2018-01-07T10:42:42Z</time>
      </trkpt>
      <trkpt lat="45.88626" lon="4.70416">
        <ele>231</ele>
        <time>2018-01-07T10:42:43Z</time>
      </trkpt>
      <trkpt lat="45.8863" lon="4.70414">
        <ele>230</ele>
        <time>2018-01-07T10:42:44Z</time>
      </trkpt>
      <trkpt lat="45.88635" lon="4.7041">
        <ele>230</ele>
        <time>2018-01-07T10:42:45Z</time>
      </trkpt>
      <trkpt lat="45.88639" lon="4.70407">
        <ele>230</ele>
        <time>2018-01-07T10:42:46Z</time>
      </trkpt>
      <trkpt lat="45.88644" lon="4.70401">
        <ele>230</ele>
        <time>2018-01-07T10:42:47Z</time>
      </trkpt>
      <trkpt lat="45.88649" lon="4.70396">
        <ele>230</ele>
        <time>2018-01-07T10:42:48Z</time>
      </trkpt>
      <trkpt lat="45.88654" lon="4.70392">
        <ele>230</ele>
        <time>2018-01-07T10:42:49Z</time>
      </trkpt>
      <trkpt lat="45.88659" lon="4.70389">
        <ele>230</ele>
        <time>2018-01-07T10:42:50Z</time>
      </trkpt>
      <trkpt lat="45.88664" lon="4.70386">
        <ele>230</ele>
        <time>2018-01-07T10:42:51Z</time>
      </trkpt>
      <trkpt lat="45.88669" lon="4.70381">
        <ele>228</ele>
        <time>2018-01-07T10:42:52Z</time>
      </trkpt>
      <trkpt lat="45.88675" lon="4.70377">
        <ele>228</ele>
        <time>2018-01-07T10:42:53Z</time>
      </trkpt>
      <trkpt lat="45.8868" lon="4.70373">
        <ele>229</ele>
        <time>2018-01-07T10:42:54Z</time>
      </trkpt>
      <trkpt lat="45.88685" lon="4.70368">
        <ele>229</ele>
        <time>2018-01-07T10:42:55Z</time>
      </trkpt>
      <trkpt lat="45.88691" lon="4.70364">
        <ele>229</ele>
        <time>2018-01-07T10:42:56Z</time>
      </trkpt>
      <trkpt lat="45.88697" lon="4.70361">
        <ele>229</ele>
        <time>2018-01-07T10:42:57Z</time>
      </trkpt>
      <trkpt lat="45.88701" lon="4.70356">
        <ele>229</ele>
        <time>2018-01-07T10:42:58Z</time>
      </trkpt>
      <trkpt lat="45.88706" lon="4.70352">
        <ele>229</ele>
        <time>2018-01-07T10:42:59Z</time>
      </trkpt>
      <trkpt lat="45.8871" lon="4.70349">
        <ele>229</ele>
        <time>2018-01-07T10:43:00Z</time>
      </trkpt>
      <trkpt lat="45.88714" lon="4.70345">
        <ele>229</ele>
        <time>2018-01-07T10:43:01Z</time>
      </trkpt>
      <trkpt lat="45.88719" lon="4.70343">
        <ele>229</ele>
        <time>2018-01-07T10:43:02Z</time>
      </trkpt>
      <trkpt lat="45.88724" lon="4.70339">
        <ele>229</ele>
        <time>2018-01-07T10:43:03Z</time>
      </trkpt>
      <trkpt lat="45.88729" lon="4.70336">
        <ele>229</ele>
        <time>2018-01-07T10:43:04Z</time>
      </trkpt>
      <trkpt lat="45.88734" lon="4.70331">
        <ele>232</ele>
        <time>2018-01-07T10:43:05Z</time>
      </trkpt>
      <trkpt lat="45.8874" lon="4.70328">
        <ele>232</ele>
        <time>2018-01-07T10:43:06Z</time>
      </trkpt>
      <trkpt lat="45.88745" lon="4.70324">
        <ele>231</ele>
        <time>2018-01-07T10:43:07Z</time>
      </trkpt>
      <trkpt lat="45.88749" lon="4.70321">
        <ele>232</ele>
        <time>2018-01-07T10:43:08Z</time>
      </trkpt>
      <trkpt lat="45.88753" lon="4.70316">
        <ele>232</ele>
        <time>2018-01-07T10:43:09Z</time>
      </trkpt>
      <trkpt lat="45.88758" lon="4.70312">
        <ele>232</ele>
        <time>2018-01-07T10:43:10Z</time>
      </trkpt>
      <trkpt lat="45.88763" lon="4.70308">
        <ele>232</ele>
        <time>2018-01-07T10:43:11Z</time>
      </trkpt>
      <trkpt lat="45.88768" lon="4.70305">
        <ele>233</ele>
        <time>2018-01-07T10:43:12Z</time>
      </trkpt>
      <trkpt lat="45.88772" lon="4.703">
        <ele>233</ele>
        <time>2018-01-07T10:43:13Z</time>
      </trkpt>
      <trkpt lat="45.88777" lon="4.70296">
        <ele>233</ele>
        <time>2018-01-07T10:43:14Z</time>
      </trkpt>
      <trkpt lat="45.88783" lon="4.70292">
        <ele>234</ele>
        <time>2018-01-07T10:43:15Z</time>
      </trkpt>
      <trkpt lat="45.88787" lon="4.70288">
        <ele>234</ele>
        <time>2018-01-07T10:43:16Z</time>
      </trkpt>
      <trkpt lat="45.88791" lon="4.70284">
        <ele>234</ele>
        <time>2018-01-07T10:43:17Z</time>
      </trkpt>
      <trkpt lat="45.88796" lon="4.7028">
        <ele>234</ele>
        <time>2018-01-07T10:43:18Z</time>
      </trkpt>
      <trkpt lat="45.88802" lon="4.70277">
        <ele>234</ele>
        <time>2018-01-07T10:43:19Z</time>
      </trkpt>
      <trkpt lat="45.88806" lon="4.70274">
        <ele>234</ele>
        <time>2018-01-07T10:43:20Z</time>
      </trkpt>
      <trkpt lat="45.88811" lon="4.70271">
        <ele>235</ele>
        <time>2018-01-07T10:43:21Z</time>
      </trkpt>
      <trkpt lat="45.88815" lon="4.70267">
        <ele>235</ele>
        <time>2018-01-07T10:43:22Z</time>
      </trkpt>
      <trkpt lat="45.8882" lon="4.70264">
        <ele>235</ele>
        <time>2018-01-07T10:43:23Z</time>
      </trkpt>
      <trkpt lat="45.88828" lon="4.70258">
        <ele>236</ele>
        <time>2018-01-07T10:43:25Z</time>
      </trkpt>
      <trkpt lat="45.88832" lon="4.70256">
        <ele>236</ele>
        <time>2018-01-07T10:43:26Z</time>
      </trkpt>
      <trkpt lat="45.88839" lon="4.7025">
        <ele>237</ele>
        <time>2018-01-07T10:43:28Z</time>
      </trkpt>
      <trkpt lat="45.88843" lon="4.70246">
        <ele>238</ele>
        <time>2018-01-07T10:43:29Z</time>
      </trkpt>
      <trkpt lat="45.88851" lon="4.70242">
        <ele>238</ele>
        <time>2018-01-07T10:43:31Z</time>
      </trkpt>
      <trkpt lat="45.88856" lon="4.70239">
        <ele>238</ele>
        <time>2018-01-07T10:43:32Z</time>
      </trkpt>
      <trkpt lat="45.8886" lon="4.70236">
        <ele>238</ele>
        <time>2018-01-07T10:43:33Z</time>
      </trkpt>
      <trkpt lat="45.88865" lon="4.70234">
        <ele>238</ele>
        <time>2018-01-07T10:43:34Z</time>
      </trkpt>
      <trkpt lat="45.8887" lon="4.70231">
        <ele>238</ele>
        <time>2018-01-07T10:43:35Z</time>
      </trkpt>
      <trkpt lat="45.88876" lon="4.70227">
        <ele>238</ele>
        <time>2018-01-07T10:43:36Z</time>
      </trkpt>
      <trkpt lat="45.88881" lon="4.70224">
        <ele>238</ele>
        <time>2018-01-07T10:43:37Z</time>
      </trkpt>
      <trkpt lat="45.88886" lon="4.70221">
        <ele>238</ele>
        <time>2018-01-07T10:43:38Z</time>
      </trkpt>
      <trkpt lat="45.88891" lon="4.70217">
        <ele>238</ele>
        <time>2018-01-07T10:43:39Z</time>
      </trkpt>
      <trkpt lat="45.88896" lon="4.70213">
        <ele>238</ele>
        <time>2018-01-07T10:43:40Z</time>
      </trkpt>
      <trkpt lat="45.88901" lon="4.70209">
        <ele>239</ele>
        <time>2018-01-07T10:43:41Z</time>
      </trkpt>
      <trkpt lat="45.88906" lon="4.70208">
        <ele>239</ele>
        <time>2018-01-07T10:43:42Z</time>
      </trkpt>
      <trkpt lat="45.88911" lon="4.70205">
        <ele>239</ele>
        <time>2018-01-07T10:43:43Z</time>
      </trkpt>
      <trkpt lat="45.88916" lon="4.70203">
        <ele>239</ele>
        <time>2018-01-07T10:43:44Z</time>
      </trkpt>
      <trkpt lat="45.88921" lon="4.70201">
        <ele>235</ele>
        <time>2018-01-07T10:43:45Z</time>
      </trkpt>
      <trkpt lat="45.88926" lon="4.70199">
        <ele>235</ele>
        <time>2018-01-07T10:43:46Z</time>
      </trkpt>
      <trkpt lat="45.8893" lon="4.70196">
        <ele>235</ele>
        <time>2018-01-07T10:43:47Z</time>
      </trkpt>
      <trkpt lat="45.88935" lon="4.70195">
        <ele>235</ele>
        <time>2018-01-07T10:43:48Z</time>
      </trkpt>
      <trkpt lat="45.8894" lon="4.70192">
        <ele>235</ele>
        <time>2018-01-07T10:43:49Z</time>
      </trkpt>
      <trkpt lat="45.88945" lon="4.7019">
        <ele>235</ele>
        <time>2018-01-07T10:43:50Z</time>
      </trkpt>
      <trkpt lat="45.8895" lon="4.70187">
        <ele>234</ele>
        <time>2018-01-07T10:43:51Z</time>
      </trkpt>
      <trkpt lat="45.88955" lon="4.70187">
        <ele>234</ele>
        <time>2018-01-07T10:43:52Z</time>
      </trkpt>
      <trkpt lat="45.8896" lon="4.70184">
        <ele>234</ele>
        <time>2018-01-07T10:43:53Z</time>
      </trkpt>
      <trkpt lat="45.88965" lon="4.70181">
        <ele>233</ele>
        <time>2018-01-07T10:43:54Z</time>
      </trkpt>
      <trkpt lat="45.88971" lon="4.70179">
        <ele>233</ele>
        <time>2018-01-07T10:43:55Z</time>
      </trkpt>
      <trkpt lat="45.88977" lon="4.70175">
        <ele>233</ele>
        <time>2018-01-07T10:43:56Z</time>
      </trkpt>
      <trkpt lat="45.88982" lon="4.70172">
        <ele>233</ele>
        <time>2018-01-07T10:43:57Z</time>
      </trkpt>
      <trkpt lat="45.88987" lon="4.70167">
        <ele>233</ele>
        <time>2018-01-07T10:43:58Z</time>
      </trkpt>
      <trkpt lat="45.88993" lon="4.70162">
        <ele>234</ele>
        <time>2018-01-07T10:43:59Z</time>
      </trkpt>
      <trkpt lat="45.88998" lon="4.70159">
        <ele>234</ele>
        <time>2018-01-07T10:44:00Z</time>
      </trkpt>
      <trkpt lat="45.89006" lon="4.70155">
        <ele>232</ele>
        <time>2018-01-07T10:44:02Z</time>
      </trkpt>
      <trkpt lat="45.89009" lon="4.70153">
        <ele>232</ele>
        <time>2018-01-07T10:44:03Z</time>
      </trkpt>
      <trkpt lat="45.89018" lon="4.7015">
        <ele>231</ele>
        <time>2018-01-07T10:44:05Z</time>
      </trkpt>
      <trkpt lat="45.89022" lon="4.70147">
        <ele>231</ele>
        <time>2018-01-07T10:44:06Z</time>
      </trkpt>
      <trkpt lat="45.89026" lon="4.70144">
        <ele>231</ele>
        <time>2018-01-07T10:44:07Z</time>
      </trkpt>
      <trkpt lat="45.89031" lon="4.70141">
        <ele>231</ele>
        <time>2018-01-07T10:44:08Z</time>
      </trkpt>
      <trkpt lat="45.89035" lon="4.70138">
        <ele>231</ele>
        <time>2018-01-07T10:44:09Z</time>
      </trkpt>
      <trkpt lat="45.89039" lon="4.70136">
        <ele>231</ele>
        <time>2018-01-07T10:44:10Z</time>
      </trkpt>
      <trkpt lat="45.89045" lon="4.70133">
        <ele>231</ele>
        <time>2018-01-07T10:44:11Z</time>
      </trkpt>
      <trkpt lat="45.89049" lon="4.70129">
        <ele>231</ele>
        <time>2018-01-07T10:44:12Z</time>
      </trkpt>
      <trkpt lat="45.89055" lon="4.70125">
        <ele>230</ele>
        <time>2018-01-07T10:44:13Z</time>
      </trkpt>
      <trkpt lat="45.8906" lon="4.70122">
        <ele>230</ele>
        <time>2018-01-07T10:44:14Z</time>
      </trkpt>
      <trkpt lat="45.89066" lon="4.70116">
        <ele>230</ele>
        <time>2018-01-07T10:44:15Z</time>
      </trkpt>
      <trkpt lat="45.89072" lon="4.70112">
        <ele>230</ele>
        <time>2018-01-07T10:44:16Z</time>
      </trkpt>
      <trkpt lat="45.89077" lon="4.7011">
        <ele>230</ele>
        <time>2018-01-07T10:44:17Z</time>
      </trkpt>
      <trkpt lat="45.89083" lon="4.70107">
        <ele>230</ele>
        <time>2018-01-07T10:44:18Z</time>
      </trkpt>
      <trkpt lat="45.89089" lon="4.70103">
        <ele>228</ele>
        <time>2018-01-07T10:44:19Z</time>
      </trkpt>
      <trkpt lat="45.89094" lon="4.70099">
        <ele>228</ele>
        <time>2018-01-07T10:44:20Z</time>
      </trkpt>
      <trkpt lat="45.89101" lon="4.70096">
        <ele>228</ele>
        <time>2018-01-07T10:44:21Z</time>
      </trkpt>
      <trkpt lat="45.89106" lon="4.70093">
        <ele>228</ele>
        <time>2018-01-07T10:44:22Z</time>
      </trkpt>
      <trkpt lat="45.89113" lon="4.70089">
        <ele>228</ele>
        <time>2018-01-07T10:44:23Z</time>
      </trkpt>
      <trkpt lat="45.89119" lon="4.70087">
        <ele>228</ele>
        <time>2018-01-07T10:44:24Z</time>
      </trkpt>
      <trkpt lat="45.89125" lon="4.70082">
        <ele>231</ele>
        <time>2018-01-07T10:44:25Z</time>
      </trkpt>
      <trkpt lat="45.89131" lon="4.70078">
        <ele>231</ele>
        <time>2018-01-07T10:44:26Z</time>
      </trkpt>
      <trkpt lat="45.89137" lon="4.70075">
        <ele>231</ele>
        <time>2018-01-07T10:44:27Z</time>
      </trkpt>
      <trkpt lat="45.89144" lon="4.70072">
        <ele>230</ele>
        <time>2018-01-07T10:44:28Z</time>
      </trkpt>
      <trkpt lat="45.89149" lon="4.70068">
        <ele>230</ele>
        <time>2018-01-07T10:44:29Z</time>
      </trkpt>
      <trkpt lat="45.89155" lon="4.70065">
        <ele>230</ele>
        <time>2018-01-07T10:44:30Z</time>
      </trkpt>
      <trkpt lat="45.8916" lon="4.70061">
        <ele>230</ele>
        <time>2018-01-07T10:44:31Z</time>
      </trkpt>
      <trkpt lat="45.89165" lon="4.70058">
        <ele>231</ele>
        <time>2018-01-07T10:44:32Z</time>
      </trkpt>
      <trkpt lat="45.89173" lon="4.70056">
        <ele>229</ele>
        <time>2018-01-07T10:44:33Z</time>
      </trkpt>
      <trkpt lat="45.89178" lon="4.70053">
        <ele>229</ele>
        <time>2018-01-07T10:44:34Z</time>
      </trkpt>
      <trkpt lat="45.89183" lon="4.70051">
        <ele>229</ele>
        <time>2018-01-07T10:44:35Z</time>
      </trkpt>
      <trkpt lat="45.89188" lon="4.70049">
        <ele>229</ele>
        <time>2018-01-07T10:44:36Z</time>
      </trkpt>
      <trkpt lat="45.89193" lon="4.70046">
        <ele>229</ele>
        <time>2018-01-07T10:44:37Z</time>
      </trkpt>
      <trkpt lat="45.89198" lon="4.70044">
        <ele>229</ele>
        <time>2018-01-07T10:44:38Z</time>
      </trkpt>
      <trkpt lat="45.89204" lon="4.70041">
        <ele>229</ele>
        <time>2018-01-07T10:44:39Z</time>
      </trkpt>
      <trkpt lat="45.89209" lon="4.70036">
        <ele>229</ele>
        <time>2018-01-07T10:44:40Z</time>
      </trkpt>
      <trkpt lat="45.89215" lon="4.70034">
        <ele>229</ele>
        <time>2018-01-07T10:44:41Z</time>
      </trkpt>
      <trkpt lat="45.89221" lon="4.70032">
        <ele>229</ele>
        <time>2018-01-07T10:44:42Z</time>
      </trkpt>
      <trkpt lat="45.89226" lon="4.70028">
        <ele>229</ele>
        <time>2018-01-07T10:44:43Z</time>
      </trkpt>
      <trkpt lat="45.89232" lon="4.70026">
        <ele>228</ele>
        <time>2018-01-07T10:44:44Z</time>
      </trkpt>
      <trkpt lat="45.89238" lon="4.70024">
        <ele>228</ele>
        <time>2018-01-07T10:44:45Z</time>
      </trkpt>
      <trkpt lat="45.89245" lon="4.70021">
        <ele>229</ele>
        <time>2018-01-07T10:44:46Z</time>
      </trkpt>
      <trkpt lat="45.8925" lon="4.70019">
        <ele>227</ele>
        <time>2018-01-07T10:44:47Z</time>
      </trkpt>
      <trkpt lat="45.89256" lon="4.70017">
        <ele>227</ele>
        <time>2018-01-07T10:44:48Z</time>
      </trkpt>
      <trkpt lat="45.89261" lon="4.70015">
        <ele>227</ele>
        <time>2018-01-07T10:44:49Z</time>
      </trkpt>
      <trkpt lat="45.89266" lon="4.70013">
        <ele>227</ele>
        <time>2018-01-07T10:44:50Z</time>
      </trkpt>
      <trkpt lat="45.89272" lon="4.70011">
        <ele>227</ele>
        <time>2018-01-07T10:44:51Z</time>
      </trkpt>
      <trkpt lat="45.89277" lon="4.7001">
        <ele>226</ele>
        <time>2018-01-07T10:44:52Z</time>
      </trkpt>
      <trkpt lat="45.89282" lon="4.70008">
        <ele>226</ele>
        <time>2018-01-07T10:44:53Z</time>
      </trkpt>
      <trkpt lat="45.89287" lon="4.70007">
        <ele>226</ele>
        <time>2018-01-07T10:44:54Z</time>
      </trkpt>
      <trkpt lat="45.89292" lon="4.70004">
        <ele>226</ele>
        <time>2018-01-07T10:44:55Z</time>
      </trkpt>
      <trkpt lat="45.89298" lon="4.70003">
        <ele>226</ele>
        <time>2018-01-07T10:44:56Z</time>
      </trkpt>
      <trkpt lat="45.89303" lon="4.70001">
        <ele>226</ele>
        <time>2018-01-07T10:44:57Z</time>
      </trkpt>
      <trkpt lat="45.89308" lon="4.7">
        <ele>226</ele>
        <time>2018-01-07T10:44:58Z</time>
      </trkpt>
      <trkpt lat="45.89314" lon="4.69998">
        <ele>228</ele>
        <time>2018-01-07T10:44:59Z</time>
      </trkpt>
      <trkpt lat="45.8932" lon="4.69997">
        <ele>228</ele>
        <time>2018-01-07T10:45:00Z</time>
      </trkpt>
      <trkpt lat="45.89325" lon="4.69995">
        <ele>227</ele>
        <time>2018-01-07T10:45:01Z</time>
      </trkpt>
      <trkpt lat="45.89331" lon="4.69994">
        <ele>227</ele>
        <time>2018-01-07T10:45:02Z</time>
      </trkpt>
      <trkpt lat="45.89337" lon="4.69993">
        <ele>227</ele>
        <time>2018-01-07T10:45:03Z</time>
      </trkpt>
      <trkpt lat="45.89342" lon="4.69994">
        <ele>227</ele>
        <time>2018-01-07T10:45:04Z</time>
      </trkpt>
      <trkpt lat="45.89348" lon="4.69995">
        <ele>227</ele>
        <time>2018-01-07T10:45:05Z</time>
      </trkpt>
      <trkpt lat="45.89355" lon="4.69994">
        <ele>227</ele>
        <time>2018-01-07T10:45:06Z</time>
      </trkpt>
      <trkpt lat="45.89361" lon="4.69996">
        <ele>227</ele>
        <time>2018-01-07T10:45:07Z</time>
      </trkpt>
      <trkpt lat="45.89366" lon="4.69997">
        <ele>227</ele>
        <time>2018-01-07T10:45:08Z</time>
      </trkpt>
      <trkpt lat="45.89371" lon="4.69998">
        <ele>227</ele>
        <time>2018-01-07T10:45:09Z</time>
      </trkpt>
      <trkpt lat="45.89377" lon="4.69999">
        <ele>227</ele>
        <time>2018-01-07T10:45:10Z</time>
      </trkpt>
      <trkpt lat="45.89382" lon="4.7">
        <ele>226</ele>
        <time>2018-01-07T10:45:11Z</time>
      </trkpt>
      <trkpt lat="45.89388" lon="4.70004">
        <ele>226</ele>
        <time>2018-01-07T10:45:12Z</time>
      </trkpt>
      <trkpt lat="45.89394" lon="4.70004">
        <ele>226</ele>
        <time>2018-01-07T10:45:13Z</time>
      </trkpt>
      <trkpt lat="45.894" lon="4.70006">
        <ele>226</ele>
        <time>2018-01-07T10:45:14Z</time>
      </trkpt>
      <trkpt lat="45.89406" lon="4.70006">
        <ele>226</ele>
        <time>2018-01-07T10:45:15Z</time>
      </trkpt>
      <trkpt lat="45.89413" lon="4.70007">
        <ele>226</ele>
        <time>2018-01-07T10:45:16Z</time>
      </trkpt>
      <trkpt lat="45.89419" lon="4.70009">
        <ele>226</ele>
        <time>2018-01-07T10:45:17Z</time>
      </trkpt>
      <trkpt lat="45.89425" lon="4.7001">
        <ele>226</ele>
        <time>2018-01-07T10:45:18Z</time>
      </trkpt>
      <trkpt lat="45.89433" lon="4.7001">
        <ele>226</ele>
        <time>2018-01-07T10:45:19Z</time>
      </trkpt>
      <trkpt lat="45.89439" lon="4.70011">
        <ele>225</ele>
        <time>2018-01-07T10:45:20Z</time>
      </trkpt>
      <trkpt lat="45.89446" lon="4.70011">
        <ele>225</ele>
        <time>2018-01-07T10:45:21Z</time>
      </trkpt>
      <trkpt lat="45.89453" lon="4.70011">
        <ele>225</ele>
        <time>2018-01-07T10:45:22Z</time>
      </trkpt>
      <trkpt lat="45.89459" lon="4.70012">
        <ele>225</ele>
        <time>2018-01-07T10:45:23Z</time>
      </trkpt>
      <trkpt lat="45.89466" lon="4.70012">
        <ele>225</ele>
        <time>2018-01-07T10:45:24Z</time>
      </trkpt>
      <trkpt lat="45.89473" lon="4.70013">
        <ele>225</ele>
        <time>2018-01-07T10:45:25Z</time>
      </trkpt>
      <trkpt lat="45.89479" lon="4.70015">
        <ele>225</ele>
        <time>2018-01-07T10:45:26Z</time>
      </trkpt>
      <trkpt lat="45.89486" lon="4.70018">
        <ele>224</ele>
        <time>2018-01-07T10:45:27Z</time>
      </trkpt>
      <trkpt lat="45.89493" lon="4.70019">
        <ele>224</ele>
        <time>2018-01-07T10:45:28Z</time>
      </trkpt>
      <trkpt lat="45.895" lon="4.7002">
        <ele>223</ele>
        <time>2018-01-07T10:45:29Z</time>
      </trkpt>
      <trkpt lat="45.89507" lon="4.70022">
        <ele>223</ele>
        <time>2018-01-07T10:45:30Z</time>
      </trkpt>
      <trkpt lat="45.89514" lon="4.70024">
        <ele>223</ele>
        <time>2018-01-07T10:45:31Z</time>
      </trkpt>
      <trkpt lat="45.89519" lon="4.70025">
        <ele>223</ele>
        <time>2018-01-07T10:45:32Z</time>
      </trkpt>
      <trkpt lat="45.89526" lon="4.70026">
        <ele>223</ele>
        <time>2018-01-07T10:45:33Z</time>
      </trkpt>
      <trkpt lat="45.89532" lon="4.70025">
        <ele>223</ele>
        <time>2018-01-07T10:45:34Z</time>
      </trkpt>
      <trkpt lat="45.89539" lon="4.70027">
        <ele>223</ele>
        <time>2018-01-07T10:45:35Z</time>
      </trkpt>
      <trkpt lat="45.89545" lon="4.70029">
        <ele>222</ele>
        <time>2018-01-07T10:45:36Z</time>
      </trkpt>
      <trkpt lat="45.89553" lon="4.70029">
        <ele>222</ele>
        <time>2018-01-07T10:45:37Z</time>
      </trkpt>
      <trkpt lat="45.8956" lon="4.7003">
        <ele>222</ele>
        <time>2018-01-07T10:45:38Z</time>
      </trkpt>
      <trkpt lat="45.89566" lon="4.70032">
        <ele>222</ele>
        <time>2018-01-07T10:45:39Z</time>
      </trkpt>
      <trkpt lat="45.89574" lon="4.70033">
        <ele>222</ele>
        <time>2018-01-07T10:45:40Z</time>
      </trkpt>
      <trkpt lat="45.8958" lon="4.70034">
        <ele>222</ele>
        <time>2018-01-07T10:45:41Z</time>
      </trkpt>
      <trkpt lat="45.89588" lon="4.70035">
        <ele>222</ele>
        <time>2018-01-07T10:45:42Z</time>
      </trkpt>
      <trkpt lat="45.89595" lon="4.70037">
        <ele>222</ele>
        <time>2018-01-07T10:45:43Z</time>
      </trkpt>
      <trkpt lat="45.89602" lon="4.70039">
        <ele>222</ele>
        <time>2018-01-07T10:45:44Z</time>
      </trkpt>
      <trkpt lat="45.89608" lon="4.7004">
        <ele>222</ele>
        <time>2018-01-07T10:45:45Z</time>
      </trkpt>
      <trkpt lat="45.89614" lon="4.70041">
        <ele>222</ele>
        <time>2018-01-07T10:45:46Z</time>
      </trkpt>
      <trkpt lat="45.89621" lon="4.70043">
        <ele>222</ele>
        <time>2018-01-07T10:45:47Z</time>
      </trkpt>
      <trkpt lat="45.89627" lon="4.70043">
        <ele>222</ele>
        <time>2018-01-07T10:45:48Z</time>
      </trkpt>
      <trkpt lat="45.89634" lon="4.70045">
        <ele>222</ele>
        <time>2018-01-07T10:45:49Z</time>
      </trkpt>
      <trkpt lat="45.8964" lon="4.70046">
        <ele>222</ele>
        <time>2018-01-07T10:45:50Z</time>
      </trkpt>
      <trkpt lat="45.89647" lon="4.70047">
        <ele>222</ele>
        <time>2018-01-07T10:45:51Z</time>
      </trkpt>
      <trkpt lat="45.89653" lon="4.70049">
        <ele>222</ele>
        <time>2018-01-07T10:45:52Z</time>
      </trkpt>
      <trkpt lat="45.89659" lon="4.7005">
        <ele>222</ele>
        <time>2018-01-07T10:45:53Z</time>
      </trkpt>
      <trkpt lat="45.89665" lon="4.7005">
        <ele>222</ele>
        <time>2018-01-07T10:45:54Z</time>
      </trkpt>
      <trkpt lat="45.8967" lon="4.70051">
        <ele>222</ele>
        <time>2018-01-07T10:45:55Z</time>
      </trkpt>
      <trkpt lat="45.89676" lon="4.70053">
        <ele>222</ele>
        <time>2018-01-07T10:45:56Z</time>
      </trkpt>
      <trkpt lat="45.89681" lon="4.70054">
        <ele>222</ele>
        <time>2018-01-07T10:45:57Z</time>
      </trkpt>
      <trkpt lat="45.89687" lon="4.70056">
        <ele>222</ele>
        <time>2018-01-07T10:45:58Z</time>
      </trkpt>
      <trkpt lat="45.89693" lon="4.70057">
        <ele>222</ele>
        <time>2018-01-07T10:45:59Z</time>
      </trkpt>
      <trkpt lat="45.89699" lon="4.70058">
        <ele>222</ele>
        <time>2018-01-07T10:46:00Z</time>
      </trkpt>
      <trkpt lat="45.89705" lon="4.70059">
        <ele>221</ele>
        <time>2018-01-07T10:46:01Z</time>
      </trkpt>
      <trkpt lat="45.89712" lon="4.70059">
        <ele>221</ele>
        <time>2018-01-07T10:46:02Z</time>
      </trkpt>
      <trkpt lat="45.89717" lon="4.70061">
        <ele>221</ele>
        <time>2018-01-07T10:46:03Z</time>
      </trkpt>
      <trkpt lat="45.89724" lon="4.7006">
        <ele>221</ele>
        <time>2018-01-07T10:46:04Z</time>
      </trkpt>
      <trkpt lat="45.8973" lon="4.70061">
        <ele>221</ele>
        <time>2018-01-07T10:46:05Z</time>
      </trkpt>
      <trkpt lat="45.89734" lon="4.70062">
        <ele>221</ele>
        <time>2018-01-07T10:46:06Z</time>
      </trkpt>
      <trkpt lat="45.89743" lon="4.70064">
        <ele>221</ele>
        <time>2018-01-07T10:46:08Z</time>
      </trkpt>
      <trkpt lat="45.89746" lon="4.70063">
        <ele>221</ele>
        <time>2018-01-07T10:46:09Z</time>
      </trkpt>
      <trkpt lat="45.89753" lon="4.70066">
        <ele>220</ele>
        <time>2018-01-07T10:46:13Z</time>
      </trkpt>
      <trkpt lat="45.89754" lon="4.70066">
        <ele>220</ele>
        <time>2018-01-07T10:46:14Z</time>
      </trkpt>
      <trkpt lat="45.89753" lon="4.70066">
        <ele>220</ele>
        <time>2018-01-07T10:46:40Z</time>
      </trkpt>
      <trkpt lat="45.89754" lon="4.70067">
        <ele>220</ele>
        <time>2018-01-07T10:46:41Z</time>
      </trkpt>
      <trkpt lat="45.89762" lon="4.70068">
        <ele>220</ele>
        <time>2018-01-07T10:46:45Z</time>
      </trkpt>
      <trkpt lat="45.89765" lon="4.70068">
        <ele>220</ele>
        <time>2018-01-07T10:46:46Z</time>
      </trkpt>
      <trkpt lat="45.89772" lon="4.70069">
        <ele>220</ele>
        <time>2018-01-07T10:46:48Z</time>
      </trkpt>
      <trkpt lat="45.89775" lon="4.7007">
        <ele>221</ele>
        <time>2018-01-07T10:46:49Z</time>
      </trkpt>
      <trkpt lat="45.89783" lon="4.70071">
        <ele>221</ele>
        <time>2018-01-07T10:46:51Z</time>
      </trkpt>
      <trkpt lat="45.89789" lon="4.70072">
        <ele>221</ele>
        <time>2018-01-07T10:46:52Z</time>
      </trkpt>
      <trkpt lat="45.89793" lon="4.70073">
        <ele>221</ele>
        <time>2018-01-07T10:46:53Z</time>
      </trkpt>
      <trkpt lat="45.89798" lon="4.70072">
        <ele>221</ele>
        <time>2018-01-07T10:46:54Z</time>
      </trkpt>
      <trkpt lat="45.89803" lon="4.70074">
        <ele>221</ele>
        <time>2018-01-07T10:46:55Z</time>
      </trkpt>
      <trkpt lat="45.89808" lon="4.70075">
        <ele>221</ele>
        <time>2018-01-07T10:46:56Z</time>
      </trkpt>
      <trkpt lat="45.89814" lon="4.70075">
        <ele>221</ele>
        <time>2018-01-07T10:46:57Z</time>
      </trkpt>
      <trkpt lat="45.89819" lon="4.70074">
        <ele>221</ele>
        <time>2018-01-07T10:46:58Z</time>
      </trkpt>
      <trkpt lat="45.89825" lon="4.70076">
        <ele>220</ele>
        <time>2018-01-07T10:46:59Z</time>
      </trkpt>
      <trkpt lat="45.8983" lon="4.70077">
        <ele>220</ele>
        <time>2018-01-07T10:47:00Z</time>
      </trkpt>
      <trkpt lat="45.89838" lon="4.70077">
        <ele>220</ele>
        <time>2018-01-07T10:47:02Z</time>
      </trkpt>
      <trkpt lat="45.89843" lon="4.70078">
        <ele>221</ele>
        <time>2018-01-07T10:47:03Z</time>
      </trkpt>
      <trkpt lat="45.89851" lon="4.70078">
        <ele>221</ele>
        <time>2018-01-07T10:47:05Z</time>
      </trkpt>
      <trkpt lat="45.89855" lon="4.70078">
        <ele>221</ele>
        <time>2018-01-07T10:47:06Z</time>
      </trkpt>
      <trkpt lat="45.89861" lon="4.70078">
        <ele>221</ele>
        <time>2018-01-07T10:47:07Z</time>
      </trkpt>
      <trkpt lat="45.89866" lon="4.70078">
        <ele>221</ele>
        <time>2018-01-07T10:47:08Z</time>
      </trkpt>
      <trkpt lat="45.89871" lon="4.70079">
        <ele>221</ele>
        <time>2018-01-07T10:47:09Z</time>
      </trkpt>
      <trkpt lat="45.89876" lon="4.70079">
        <ele>221</ele>
        <time>2018-01-07T10:47:10Z</time>
      </trkpt>
      <trkpt lat="45.89881" lon="4.70079">
        <ele>221</ele>
        <time>2018-01-07T10:47:11Z</time>
      </trkpt>
      <trkpt lat="45.89886" lon="4.70079">
        <ele>221</ele>
        <time>2018-01-07T10:47:12Z</time>
      </trkpt>
      <trkpt lat="45.89891" lon="4.70079">
        <ele>221</ele>
        <time>2018-01-07T10:47:13Z</time>
      </trkpt>
      <trkpt lat="45.89896" lon="4.70079">
        <ele>221</ele>
        <time>2018-01-07T10:47:14Z</time>
      </trkpt>
      <trkpt lat="45.89901" lon="4.7008">
        <ele>221</ele>
        <time>2018-01-07T10:47:15Z</time>
      </trkpt>
      <trkpt lat="45.89907" lon="4.7008">
        <ele>221</ele>
        <time>2018-01-07T10:47:16Z</time>
      </trkpt>
      <trkpt lat="45.89913" lon="4.70081">
        <ele>221</ele>
        <time>2018-01-07T10:47:17Z</time>
      </trkpt>
      <trkpt lat="45.89918" lon="4.70083">
        <ele>221</ele>
        <time>2018-01-07T10:47:18Z</time>
      </trkpt>
      <trkpt lat="45.89923" lon="4.70083">
        <ele>221</ele>
        <time>2018-01-07T10:47:19Z</time>
      </trkpt>
      <trkpt lat="45.89929" lon="4.70082">
        <ele>222</ele>
        <time>2018-01-07T10:47:20Z</time>
      </trkpt>
      <trkpt lat="45.89934" lon="4.70083">
        <ele>222</ele>
        <time>2018-01-07T10:47:21Z</time>
      </trkpt>
      <trkpt lat="45.89939" lon="4.70083">
        <ele>222</ele>
        <time>2018-01-07T10:47:22Z</time>
      </trkpt>
      <trkpt lat="45.89945" lon="4.70084">
        <ele>221</ele>
        <time>2018-01-07T10:47:23Z</time>
      </trkpt>
      <trkpt lat="45.8995" lon="4.70084">
        <ele>221</ele>
        <time>2018-01-07T10:47:24Z</time>
      </trkpt>
      <trkpt lat="45.89955" lon="4.70084">
        <ele>221</ele>
        <time>2018-01-07T10:47:25Z</time>
      </trkpt>
      <trkpt lat="45.8996" lon="4.70085">
        <ele>221</ele>
        <time>2018-01-07T10:47:26Z</time>
      </trkpt>
      <trkpt lat="45.89965" lon="4.70085">
        <ele>221</ele>
        <time>2018-01-07T10:47:27Z</time>
      </trkpt>
      <trkpt lat="45.89969" lon="4.70086">
        <ele>221</ele>
        <time>2018-01-07T10:47:28Z</time>
      </trkpt>
      <trkpt lat="45.89974" lon="4.70087">
        <ele>221</ele>
        <time>2018-01-07T10:47:29Z</time>
      </trkpt>
      <trkpt lat="45.8998" lon="4.70088">
        <ele>221</ele>
        <time>2018-01-07T10:47:30Z</time>
      </trkpt>
      <trkpt lat="45.89985" lon="4.70089">
        <ele>222</ele>
        <time>2018-01-07T10:47:31Z</time>
      </trkpt>
      <trkpt lat="45.8999" lon="4.70088">
        <ele>222</ele>
        <time>2018-01-07T10:47:32Z</time>
      </trkpt>
      <trkpt lat="45.89995" lon="4.70089">
        <ele>222</ele>
        <time>2018-01-07T10:47:33Z</time>
      </trkpt>
      <trkpt lat="45.9" lon="4.70089">
        <ele>222</ele>
        <time>2018-01-07T10:47:34Z</time>
      </trkpt>
      <trkpt lat="45.90006" lon="4.70089">
        <ele>222</ele>
        <time>2018-01-07T10:47:35Z</time>
      </trkpt>
      <trkpt lat="45.90011" lon="4.7009">
        <ele>222</ele>
        <time>2018-01-07T10:47:36Z</time>
      </trkpt>
      <trkpt lat="45.90016" lon="4.7009">
        <ele>222</ele>
        <time>2018-01-07T10:47:37Z</time>
      </trkpt>
      <trkpt lat="45.90022" lon="4.7009">
        <ele>222</ele>
        <time>2018-01-07T10:47:38Z</time>
      </trkpt>
      <trkpt lat="45.90027" lon="4.70091">
        <ele>222</ele>
        <time>2018-01-07T10:47:39Z</time>
      </trkpt>
      <trkpt lat="45.90032" lon="4.70092">
        <ele>222</ele>
        <time>2018-01-07T10:47:40Z</time>
      </trkpt>
      <trkpt lat="45.90038" lon="4.70093">
        <ele>222</ele>
        <time>2018-01-07T10:47:41Z</time>
      </trkpt>
      <trkpt lat="45.90043" lon="4.70092">
        <ele>222</ele>
        <time>2018-01-07T10:47:42Z</time>
      </trkpt>
      <trkpt lat="45.90048" lon="4.70092">
        <ele>222</ele>
        <time>2018-01-07T10:47:43Z</time>
      </trkpt>
      <trkpt lat="45.90053" lon="4.70091">
        <ele>222</ele>
        <time>2018-01-07T10:47:44Z</time>
      </trkpt>
      <trkpt lat="45.90058" lon="4.7009">
        <ele>223</ele>
        <time>2018-01-07T10:47:45Z</time>
      </trkpt>
      <trkpt lat="45.90063" lon="4.7009">
        <ele>223</ele>
        <time>2018-01-07T10:47:46Z</time>
      </trkpt>
      <trkpt lat="45.90068" lon="4.70091">
        <ele>223</ele>
        <time>2018-01-07T10:47:47Z</time>
      </trkpt>
      <trkpt lat="45.90073" lon="4.7009">
        <ele>223</ele>
        <time>2018-01-07T10:47:48Z</time>
      </trkpt>
      <trkpt lat="45.90078" lon="4.7009">
        <ele>223</ele>
        <time>2018-01-07T10:47:49Z</time>
      </trkpt>
      <trkpt lat="45.90083" lon="4.70089">
        <ele>224</ele>
        <time>2018-01-07T10:47:50Z</time>
      </trkpt>
      <trkpt lat="45.90088" lon="4.70088">
        <ele>224</ele>
        <time>2018-01-07T10:47:51Z</time>
      </trkpt>
      <trkpt lat="45.90093" lon="4.70087">
        <ele>224</ele>
        <time>2018-01-07T10:47:52Z</time>
      </trkpt>
      <trkpt lat="45.90098" lon="4.70087">
        <ele>224</ele>
        <time>2018-01-07T10:47:53Z</time>
      </trkpt>
      <trkpt lat="45.90103" lon="4.70088">
        <ele>223</ele>
        <time>2018-01-07T10:47:54Z</time>
      </trkpt>
      <trkpt lat="45.90108" lon="4.70088">
        <ele>223</ele>
        <time>2018-01-07T10:47:55Z</time>
      </trkpt>
      <trkpt lat="45.90113" lon="4.70085">
        <ele>223</ele>
        <time>2018-01-07T10:47:56Z</time>
      </trkpt>
      <trkpt lat="45.90118" lon="4.70085">
        <ele>223</ele>
        <time>2018-01-07T10:47:57Z</time>
      </trkpt>
      <trkpt lat="45.90123" lon="4.70084">
        <ele>223</ele>
        <time>2018-01-07T10:47:58Z</time>
      </trkpt>
      <trkpt lat="45.90128" lon="4.70083">
        <ele>226</ele>
        <time>2018-01-07T10:47:59Z</time>
      </trkpt>
      <trkpt lat="45.90133" lon="4.70082">
        <ele>226</ele>
        <time>2018-01-07T10:48:00Z</time>
      </trkpt>
      <trkpt lat="45.90138" lon="4.70081">
        <ele>226</ele>
        <time>2018-01-07T10:48:01Z</time>
      </trkpt>
      <trkpt lat="45.90143" lon="4.7008">
        <ele>226</ele>
        <time>2018-01-07T10:48:02Z</time>
      </trkpt>
      <trkpt lat="45.90147" lon="4.70079">
        <ele>226</ele>
        <time>2018-01-07T10:48:03Z</time>
      </trkpt>
      <trkpt lat="45.90152" lon="4.70079">
        <ele>226</ele>
        <time>2018-01-07T10:48:04Z</time>
      </trkpt>
      <trkpt lat="45.90156" lon="4.70077">
        <ele>226</ele>
        <time>2018-01-07T10:48:05Z</time>
      </trkpt>
      <trkpt lat="45.90162" lon="4.70076">
        <ele>226</ele>
        <time>2018-01-07T10:48:06Z</time>
      </trkpt>
      <trkpt lat="45.90167" lon="4.70075">
        <ele>225</ele>
        <time>2018-01-07T10:48:07Z</time>
      </trkpt>
      <trkpt lat="45.90172" lon="4.70075">
        <ele>225</ele>
        <time>2018-01-07T10:48:08Z</time>
      </trkpt>
      <trkpt lat="45.90177" lon="4.70074">
        <ele>226</ele>
        <time>2018-01-07T10:48:09Z</time>
      </trkpt>
      <trkpt lat="45.90182" lon="4.70073">
        <ele>226</ele>
        <time>2018-01-07T10:48:10Z</time>
      </trkpt>
      <trkpt lat="45.9019" lon="4.70071">
        <ele>226</ele>
        <time>2018-01-07T10:48:12Z</time>
      </trkpt>
      <trkpt lat="45.90194" lon="4.7007">
        <ele>226</ele>
        <time>2018-01-07T10:48:13Z</time>
      </trkpt>
      <trkpt lat="45.90202" lon="4.7007">
        <ele>226</ele>
        <time>2018-01-07T10:48:15Z</time>
      </trkpt>
      <trkpt lat="45.90207" lon="4.70067">
        <ele>226</ele>
        <time>2018-01-07T10:48:16Z</time>
      </trkpt>
      <trkpt lat="45.90215" lon="4.70066">
        <ele>226</ele>
        <time>2018-01-07T10:48:18Z</time>
      </trkpt>
      <trkpt lat="45.90219" lon="4.70064">
        <ele>226</ele>
        <time>2018-01-07T10:48:19Z</time>
      </trkpt>
      <trkpt lat="45.90224" lon="4.70064">
        <ele>225</ele>
        <time>2018-01-07T10:48:20Z</time>
      </trkpt>
      <trkpt lat="45.90229" lon="4.70062">
        <ele>225</ele>
        <time>2018-01-07T10:48:21Z</time>
      </trkpt>
      <trkpt lat="45.90234" lon="4.70062">
        <ele>225</ele>
        <time>2018-01-07T10:48:22Z</time>
      </trkpt>
      <trkpt lat="45.9024" lon="4.70063">
        <ele>225</ele>
        <time>2018-01-07T10:48:23Z</time>
      </trkpt>
      <trkpt lat="45.90248" lon="4.7006">
        <ele>225</ele>
        <time>2018-01-07T10:48:25Z</time>
      </trkpt>
      <trkpt lat="45.90252" lon="4.7006">
        <ele>224</ele>
        <time>2018-01-07T10:48:26Z</time>
      </trkpt>
      <trkpt lat="45.90261" lon="4.7006">
        <ele>224</ele>
        <time>2018-01-07T10:48:28Z</time>
      </trkpt>
      <trkpt lat="45.90265" lon="4.70058">
        <ele>224</ele>
        <time>2018-01-07T10:48:29Z</time>
      </trkpt>
      <trkpt lat="45.90269" lon="4.70056">
        <ele>224</ele>
        <time>2018-01-07T10:48:30Z</time>
      </trkpt>
      <trkpt lat="45.90274" lon="4.70057">
        <ele>224</ele>
        <time>2018-01-07T10:48:31Z</time>
      </trkpt>
      <trkpt lat="45.90282" lon="4.70058">
        <ele>224</ele>
        <time>2018-01-07T10:48:33Z</time>
      </trkpt>
      <trkpt lat="45.90286" lon="4.70057">
        <ele>224</ele>
        <time>2018-01-07T10:48:34Z</time>
      </trkpt>
      <trkpt lat="45.90294" lon="4.70056">
        <ele>224</ele>
        <time>2018-01-07T10:48:36Z</time>
      </trkpt>
      <trkpt lat="45.90297" lon="4.70055">
        <ele>224</ele>
        <time>2018-01-07T10:48:37Z</time>
      </trkpt>
      <trkpt lat="45.90305" lon="4.70054">
        <ele>224</ele>
        <time>2018-01-07T10:48:39Z</time>
      </trkpt>
      <trkpt lat="45.90309" lon="4.70053">
        <ele>224</ele>
        <time>2018-01-07T10:48:40Z</time>
      </trkpt>
      <trkpt lat="45.90318" lon="4.7005">
        <ele>224</ele>
        <time>2018-01-07T10:48:42Z</time>
      </trkpt>
      <trkpt lat="45.90322" lon="4.70049">
        <ele>224</ele>
        <time>2018-01-07T10:48:43Z</time>
      </trkpt>
      <trkpt lat="45.9033" lon="4.70047">
        <ele>224</ele>
        <time>2018-01-07T10:48:45Z</time>
      </trkpt>
      <trkpt lat="45.90334" lon="4.70046">
        <ele>224</ele>
        <time>2018-01-07T10:48:46Z</time>
      </trkpt>
      <trkpt lat="45.90339" lon="4.70044">
        <ele>224</ele>
        <time>2018-01-07T10:48:47Z</time>
      </trkpt>
      <trkpt lat="45.90343" lon="4.70044">
        <ele>224</ele>
        <time>2018-01-07T10:48:48Z</time>
      </trkpt>
      <trkpt lat="45.90352" lon="4.70043">
        <ele>224</ele>
        <time>2018-01-07T10:48:50Z</time>
      </trkpt>
      <trkpt lat="45.90356" lon="4.70044">
        <ele>224</ele>
        <time>2018-01-07T10:48:51Z</time>
      </trkpt>
      <trkpt lat="45.90364" lon="4.70043">
        <ele>224</ele>
        <time>2018-01-07T10:48:53Z</time>
      </trkpt>
      <trkpt lat="45.90368" lon="4.70043">
        <ele>224</ele>
        <time>2018-01-07T10:48:54Z</time>
      </trkpt>
      <trkpt lat="45.90376" lon="4.7004">
        <ele>224</ele>
        <time>2018-01-07T10:48:56Z</time>
      </trkpt>
      <trkpt lat="45.90381" lon="4.7004">
        <ele>224</ele>
        <time>2018-01-07T10:48:57Z</time>
      </trkpt>
      <trkpt lat="45.90385" lon="4.70039">
        <ele>224</ele>
        <time>2018-01-07T10:48:58Z</time>
      </trkpt>
      <trkpt lat="45.90391" lon="4.70036">
        <ele>225</ele>
        <time>2018-01-07T10:48:59Z</time>
      </trkpt>
      <trkpt lat="45.90396" lon="4.70036">
        <ele>225</ele>
        <time>2018-01-07T10:49:00Z</time>
      </trkpt>
      <trkpt lat="45.904" lon="4.70035">
        <ele>225</ele>
        <time>2018-01-07T10:49:01Z</time>
      </trkpt>
      <trkpt lat="45.90406" lon="4.70034">
        <ele>225</ele>
        <time>2018-01-07T10:49:02Z</time>
      </trkpt>
      <trkpt lat="45.9041" lon="4.70034">
        <ele>225</ele>
        <time>2018-01-07T10:49:03Z</time>
      </trkpt>
      <trkpt lat="45.90416" lon="4.70034">
        <ele>225</ele>
        <time>2018-01-07T10:49:04Z</time>
      </trkpt>
      <trkpt lat="45.90421" lon="4.70033">
        <ele>225</ele>
        <time>2018-01-07T10:49:05Z</time>
      </trkpt>
      <trkpt lat="45.90427" lon="4.70032">
        <ele>225</ele>
        <time>2018-01-07T10:49:06Z</time>
      </trkpt>
      <trkpt lat="45.90432" lon="4.70031">
        <ele>225</ele>
        <time>2018-01-07T10:49:07Z</time>
      </trkpt>
      <trkpt lat="45.90438" lon="4.70032">
        <ele>225</ele>
        <time>2018-01-07T10:49:08Z</time>
      </trkpt>
      <trkpt lat="45.90443" lon="4.70031">
        <ele>225</ele>
        <time>2018-01-07T10:49:09Z</time>
      </trkpt>
      <trkpt lat="45.90448" lon="4.70031">
        <ele>225</ele>
        <time>2018-01-07T10:49:10Z</time>
      </trkpt>
      <trkpt lat="45.90453" lon="4.70031">
        <ele>225</ele>
        <time>2018-01-07T10:49:11Z</time>
      </trkpt>
      <trkpt lat="45.90459" lon="4.70031">
        <ele>225</ele>
        <time>2018-01-07T10:49:12Z</time>
      </trkpt>
      <trkpt lat="45.90463" lon="4.70032">
        <ele>225</ele>
        <time>2018-01-07T10:49:13Z</time>
      </trkpt>
      <trkpt lat="45.90472" lon="4.70033">
        <ele>225</ele>
        <time>2018-01-07T10:49:15Z</time>
      </trkpt>
      <trkpt lat="45.90476" lon="4.70034">
        <ele>225</ele>
        <time>2018-01-07T10:49:16Z</time>
      </trkpt>
      <trkpt lat="45.90481" lon="4.70035">
        <ele>225</ele>
        <time>2018-01-07T10:49:17Z</time>
      </trkpt>
      <trkpt lat="45.90486" lon="4.70035">
        <ele>225</ele>
        <time>2018-01-07T10:49:18Z</time>
      </trkpt>
      <trkpt lat="45.90492" lon="4.70036">
        <ele>225</ele>
        <time>2018-01-07T10:49:19Z</time>
      </trkpt>
      <trkpt lat="45.90498" lon="4.70037">
        <ele>225</ele>
        <time>2018-01-07T10:49:20Z</time>
      </trkpt>
      <trkpt lat="45.90505" lon="4.70037">
        <ele>224</ele>
        <time>2018-01-07T10:49:21Z</time>
      </trkpt>
      <trkpt lat="45.90511" lon="4.70038">
        <ele>224</ele>
        <time>2018-01-07T10:49:22Z</time>
      </trkpt>
      <trkpt lat="45.90517" lon="4.7004">
        <ele>224</ele>
        <time>2018-01-07T10:49:23Z</time>
      </trkpt>
      <trkpt lat="45.90522" lon="4.70042">
        <ele>224</ele>
        <time>2018-01-07T10:49:24Z</time>
      </trkpt>
      <trkpt lat="45.90527" lon="4.70043">
        <ele>224</ele>
        <time>2018-01-07T10:49:25Z</time>
      </trkpt>
      <trkpt lat="45.90534" lon="4.70046">
        <ele>224</ele>
        <time>2018-01-07T10:49:26Z</time>
      </trkpt>
      <trkpt lat="45.90539" lon="4.70049">
        <ele>224</ele>
        <time>2018-01-07T10:49:27Z</time>
      </trkpt>
      <trkpt lat="45.90545" lon="4.70052">
        <ele>224</ele>
        <time>2018-01-07T10:49:28Z</time>
      </trkpt>
      <trkpt lat="45.90551" lon="4.70054">
        <ele>224</ele>
        <time>2018-01-07T10:49:29Z</time>
      </trkpt>
      <trkpt lat="45.90557" lon="4.70057">
        <ele>223</ele>
        <time>2018-01-07T10:49:30Z</time>
      </trkpt>
      <trkpt lat="45.90562" lon="4.70059">
        <ele>223</ele>
        <time>2018-01-07T10:49:31Z</time>
      </trkpt>
      <trkpt lat="45.90568" lon="4.70063">
        <ele>223</ele>
        <time>2018-01-07T10:49:32Z</time>
      </trkpt>
      <trkpt lat="45.90573" lon="4.70065">
        <ele>223</ele>
        <time>2018-01-07T10:49:33Z</time>
      </trkpt>
      <trkpt lat="45.90578" lon="4.70067">
        <ele>223</ele>
        <time>2018-01-07T10:49:34Z</time>
      </trkpt>
      <trkpt lat="45.90584" lon="4.70069">
        <ele>223</ele>
        <time>2018-01-07T10:49:35Z</time>
      </trkpt>
      <trkpt lat="45.90589" lon="4.70071">
        <ele>223</ele>
        <time>2018-01-07T10:49:36Z</time>
      </trkpt>
      <trkpt lat="45.90593" lon="4.70074">
        <ele>223</ele>
        <time>2018-01-07T10:49:37Z</time>
      </trkpt>
      <trkpt lat="45.90597" lon="4.70077">
        <ele>223</ele>
        <time>2018-01-07T10:49:38Z</time>
      </trkpt>
      <trkpt lat="45.90603" lon="4.70081">
        <ele>223</ele>
        <time>2018-01-07T10:49:39Z</time>
      </trkpt>
      <trkpt lat="45.90608" lon="4.70085">
        <ele>221</ele>
        <time>2018-01-07T10:49:40Z</time>
      </trkpt>
      <trkpt lat="45.90614" lon="4.70087">
        <ele>221</ele>
        <time>2018-01-07T10:49:41Z</time>
      </trkpt>
      <trkpt lat="45.90619" lon="4.70091">
        <ele>221</ele>
        <time>2018-01-07T10:49:42Z</time>
      </trkpt>
      <trkpt lat="45.90625" lon="4.70094">
        <ele>221</ele>
        <time>2018-01-07T10:49:43Z</time>
      </trkpt>
      <trkpt lat="45.90631" lon="4.70097">
        <ele>221</ele>
        <time>2018-01-07T10:49:44Z</time>
      </trkpt>
      <trkpt lat="45.90636" lon="4.701">
        <ele>221</ele>
        <time>2018-01-07T10:49:45Z</time>
      </trkpt>
      <trkpt lat="45.90642" lon="4.70104">
        <ele>221</ele>
        <time>2018-01-07T10:49:46Z</time>
      </trkpt>
      <trkpt lat="45.90647" lon="4.70107">
        <ele>221</ele>
        <time>2018-01-07T10:49:47Z</time>
      </trkpt>
      <trkpt lat="45.90653" lon="4.7011">
        <ele>221</ele>
        <time>2018-01-07T10:49:48Z</time>
      </trkpt>
      <trkpt lat="45.90659" lon="4.70113">
        <ele>221</ele>
        <time>2018-01-07T10:49:49Z</time>
      </trkpt>
      <trkpt lat="45.90664" lon="4.70115">
        <ele>221</ele>
        <time>2018-01-07T10:49:50Z</time>
      </trkpt>
      <trkpt lat="45.90669" lon="4.70119">
        <ele>221</ele>
        <time>2018-01-07T10:49:51Z</time>
      </trkpt>
      <trkpt lat="45.90675" lon="4.70122">
        <ele>221</ele>
        <time>2018-01-07T10:49:52Z</time>
      </trkpt>
      <trkpt lat="45.90679" lon="4.70125">
        <ele>221</ele>
        <time>2018-01-07T10:49:53Z</time>
      </trkpt>
      <trkpt lat="45.90684" lon="4.7013">
        <ele>221</ele>
        <time>2018-01-07T10:49:54Z</time>
      </trkpt>
      <trkpt lat="45.90688" lon="4.70137">
        <ele>221</ele>
        <time>2018-01-07T10:49:55Z</time>
      </trkpt>
      <trkpt lat="45.90692" lon="4.70141">
        <ele>221</ele>
        <time>2018-01-07T10:49:56Z</time>
      </trkpt>
      <trkpt lat="45.90699" lon="4.70142">
        <ele>221</ele>
        <time>2018-01-07T10:49:57Z</time>
      </trkpt>
      <trkpt lat="45.90705" lon="4.70142">
        <ele>221</ele>
        <time>2018-01-07T10:49:58Z</time>
      </trkpt>
      <trkpt lat="45.9071" lon="4.7014">
        <ele>221</ele>
        <time>2018-01-07T10:49:59Z</time>
      </trkpt>
      <trkpt lat="45.90715" lon="4.70139">
        <ele>221</ele>
        <time>2018-01-07T10:50:00Z</time>
      </trkpt>
      <trkpt lat="45.90721" lon="4.70139">
        <ele>220</ele>
        <time>2018-01-07T10:50:01Z</time>
      </trkpt>
      <trkpt lat="45.90726" lon="4.7014">
        <ele>220</ele>
        <time>2018-01-07T10:50:02Z</time>
      </trkpt>
      <trkpt lat="45.90732" lon="4.70139">
        <ele>220</ele>
        <time>2018-01-07T10:50:03Z</time>
      </trkpt>
      <trkpt lat="45.90738" lon="4.70139">
        <ele>220</ele>
        <time>2018-01-07T10:50:04Z</time>
      </trkpt>
      <trkpt lat="45.90744" lon="4.70139">
        <ele>220</ele>
        <time>2018-01-07T10:50:05Z</time>
      </trkpt>
      <trkpt lat="45.9075" lon="4.70138">
        <ele>219</ele>
        <time>2018-01-07T10:50:06Z</time>
      </trkpt>
      <trkpt lat="45.90757" lon="4.70139">
        <ele>219</ele>
        <time>2018-01-07T10:50:07Z</time>
      </trkpt>
      <trkpt lat="45.90763" lon="4.70139">
        <ele>219</ele>
        <time>2018-01-07T10:50:08Z</time>
      </trkpt>
      <trkpt lat="45.9077" lon="4.7014">
        <ele>219</ele>
        <time>2018-01-07T10:50:09Z</time>
      </trkpt>
      <trkpt lat="45.90777" lon="4.70139">
        <ele>219</ele>
        <time>2018-01-07T10:50:10Z</time>
      </trkpt>
      <trkpt lat="45.90783" lon="4.70139">
        <ele>219</ele>
        <time>2018-01-07T10:50:11Z</time>
      </trkpt>
      <trkpt lat="45.90788" lon="4.70139">
        <ele>219</ele>
        <time>2018-01-07T10:50:12Z</time>
      </trkpt>
      <trkpt lat="45.90794" lon="4.70139">
        <ele>219</ele>
        <time>2018-01-07T10:50:13Z</time>
      </trkpt>
      <trkpt lat="45.908" lon="4.70139">
        <ele>219</ele>
        <time>2018-01-07T10:50:14Z</time>
      </trkpt>
      <trkpt lat="45.90806" lon="4.70139">
        <ele>219</ele>
        <time>2018-01-07T10:50:15Z</time>
      </trkpt>
      <trkpt lat="45.90812" lon="4.70139">
        <ele>219</ele>
        <time>2018-01-07T10:50:16Z</time>
      </trkpt>
      <trkpt lat="45.90818" lon="4.70138">
        <ele>219</ele>
        <time>2018-01-07T10:50:17Z</time>
      </trkpt>
      <trkpt lat="45.90824" lon="4.70136">
        <ele>219</ele>
        <time>2018-01-07T10:50:18Z</time>
      </trkpt>
      <trkpt lat="45.9083" lon="4.70137">
        <ele>219</ele>
        <time>2018-01-07T10:50:19Z</time>
      </trkpt>
      <trkpt lat="45.90835" lon="4.70137">
        <ele>218</ele>
        <time>2018-01-07T10:50:20Z</time>
      </trkpt>
      <trkpt lat="45.90844" lon="4.70138">
        <ele>218</ele>
        <time>2018-01-07T10:50:22Z</time>
      </trkpt>
      <trkpt lat="45.9085" lon="4.70137">
        <ele>218</ele>
        <time>2018-01-07T10:50:23Z</time>
      </trkpt>
      <trkpt lat="45.90856" lon="4.70137">
        <ele>218</ele>
        <time>2018-01-07T10:50:24Z</time>
      </trkpt>
      <trkpt lat="45.90862" lon="4.70138">
        <ele>218</ele>
        <time>2018-01-07T10:50:25Z</time>
      </trkpt>
      <trkpt lat="45.90869" lon="4.70136">
        <ele>218</ele>
        <time>2018-01-07T10:50:26Z</time>
      </trkpt>
      <trkpt lat="45.90874" lon="4.70135">
        <ele>218</ele>
        <time>2018-01-07T10:50:27Z</time>
      </trkpt>
      <trkpt lat="45.90881" lon="4.70135">
        <ele>218</ele>
        <time>2018-01-07T10:50:28Z</time>
      </trkpt>
      <trkpt lat="45.90886" lon="4.70134">
        <ele>218</ele>
        <time>2018-01-07T10:50:29Z</time>
      </trkpt>
      <trkpt lat="45.90892" lon="4.70133">
        <ele>218</ele>
        <time>2018-01-07T10:50:30Z</time>
      </trkpt>
      <trkpt lat="45.90898" lon="4.70132">
        <ele>218</ele>
        <time>2018-01-07T10:50:31Z</time>
      </trkpt>
      <trkpt lat="45.90903" lon="4.70133">
        <ele>218</ele>
        <time>2018-01-07T10:50:32Z</time>
      </trkpt>
      <trkpt lat="45.90909" lon="4.70132">
        <ele>218</ele>
        <time>2018-01-07T10:50:33Z</time>
      </trkpt>
      <trkpt lat="45.90915" lon="4.70132">
        <ele>218</ele>
        <time>2018-01-07T10:50:34Z</time>
      </trkpt>
      <trkpt lat="45.90921" lon="4.70132">
        <ele>219</ele>
        <time>2018-01-07T10:50:35Z</time>
      </trkpt>
      <trkpt lat="45.90928" lon="4.70132">
        <ele>219</ele>
        <time>2018-01-07T10:50:36Z</time>
      </trkpt>
      <trkpt lat="45.90935" lon="4.70132">
        <ele>219</ele>
        <time>2018-01-07T10:50:37Z</time>
      </trkpt>
      <trkpt lat="45.9094" lon="4.70132">
        <ele>219</ele>
        <time>2018-01-07T10:50:38Z</time>
      </trkpt>
      <trkpt lat="45.90947" lon="4.70133">
        <ele>219</ele>
        <time>2018-01-07T10:50:39Z</time>
      </trkpt>
      <trkpt lat="45.90953" lon="4.70135">
        <ele>219</ele>
        <time>2018-01-07T10:50:40Z</time>
      </trkpt>
      <trkpt lat="45.9096" lon="4.70137">
        <ele>219</ele>
        <time>2018-01-07T10:50:41Z</time>
      </trkpt>
      <trkpt lat="45.90966" lon="4.70138">
        <ele>219</ele>
        <time>2018-01-07T10:50:42Z</time>
      </trkpt>
      <trkpt lat="45.90972" lon="4.7014">
        <ele>218</ele>
        <time>2018-01-07T10:50:43Z</time>
      </trkpt>
      <trkpt lat="45.90977" lon="4.70141">
        <ele>218</ele>
        <time>2018-01-07T10:50:44Z</time>
      </trkpt>
      <trkpt lat="45.90983" lon="4.70143">
        <ele>218</ele>
        <time>2018-01-07T10:50:45Z</time>
      </trkpt>
      <trkpt lat="45.90988" lon="4.70145">
        <ele>218</ele>
        <time>2018-01-07T10:50:46Z</time>
      </trkpt>
      <trkpt lat="45.90994" lon="4.70148">
        <ele>218</ele>
        <time>2018-01-07T10:50:47Z</time>
      </trkpt>
      <trkpt lat="45.90999" lon="4.7015">
        <ele>218</ele>
        <time>2018-01-07T10:50:48Z</time>
      </trkpt>
      <trkpt lat="45.91005" lon="4.70151">
        <ele>218</ele>
        <time>2018-01-07T10:50:49Z</time>
      </trkpt>
      <trkpt lat="45.9101" lon="4.70153">
        <ele>218</ele>
        <time>2018-01-07T10:50:50Z</time>
      </trkpt>
      <trkpt lat="45.91016" lon="4.70154">
        <ele>218</ele>
        <time>2018-01-07T10:50:51Z</time>
      </trkpt>
      <trkpt lat="45.91023" lon="4.70156">
        <ele>218</ele>
        <time>2018-01-07T10:50:52Z</time>
      </trkpt>
      <trkpt lat="45.91029" lon="4.70159">
        <ele>218</ele>
        <time>2018-01-07T10:50:53Z</time>
      </trkpt>
      <trkpt lat="45.91035" lon="4.70161">
        <ele>218</ele>
        <time>2018-01-07T10:50:54Z</time>
      </trkpt>
      <trkpt lat="45.91041" lon="4.70163">
        <ele>218</ele>
        <time>2018-01-07T10:50:55Z</time>
      </trkpt>
      <trkpt lat="45.91047" lon="4.70165">
        <ele>218</ele>
        <time>2018-01-07T10:50:56Z</time>
      </trkpt>
      <trkpt lat="45.91053" lon="4.70166">
        <ele>218</ele>
        <time>2018-01-07T10:50:57Z</time>
      </trkpt>
      <trkpt lat="45.91059" lon="4.70168">
        <ele>216</ele>
        <time>2018-01-07T10:50:58Z</time>
      </trkpt>
      <trkpt lat="45.91065" lon="4.7017">
        <ele>216</ele>
        <time>2018-01-07T10:50:59Z</time>
      </trkpt>
      <trkpt lat="45.91072" lon="4.70172">
        <ele>216</ele>
        <time>2018-01-07T10:51:00Z</time>
      </trkpt>
      <trkpt lat="45.91077" lon="4.70174">
        <ele>216</ele>
        <time>2018-01-07T10:51:01Z</time>
      </trkpt>
      <trkpt lat="45.91084" lon="4.70176">
        <ele>216</ele>
        <time>2018-01-07T10:51:02Z</time>
      </trkpt>
      <trkpt lat="45.9109" lon="4.70177">
        <ele>216</ele>
        <time>2018-01-07T10:51:03Z</time>
      </trkpt>
      <trkpt lat="45.91096" lon="4.70179">
        <ele>216</ele>
        <time>2018-01-07T10:51:04Z</time>
      </trkpt>
      <trkpt lat="45.91103" lon="4.70181">
        <ele>216</ele>
        <time>2018-01-07T10:51:05Z</time>
      </trkpt>
      <trkpt lat="45.91109" lon="4.70183">
        <ele>215</ele>
        <time>2018-01-07T10:51:06Z</time>
      </trkpt>
      <trkpt lat="45.91116" lon="4.70185">
        <ele>215</ele>
        <time>2018-01-07T10:51:07Z</time>
      </trkpt>
      <trkpt lat="45.91123" lon="4.70188">
        <ele>215</ele>
        <time>2018-01-07T10:51:08Z</time>
      </trkpt>
      <trkpt lat="45.91128" lon="4.70191">
        <ele>215</ele>
        <time>2018-01-07T10:51:09Z</time>
      </trkpt>
      <trkpt lat="45.91135" lon="4.70192">
        <ele>215</ele>
        <time>2018-01-07T10:51:10Z</time>
      </trkpt>
      <trkpt lat="45.91141" lon="4.70194">
        <ele>215</ele>
        <time>2018-01-07T10:51:11Z</time>
      </trkpt>
      <trkpt lat="45.91147" lon="4.70196">
        <ele>215</ele>
        <time>2018-01-07T10:51:12Z</time>
      </trkpt>
      <trkpt lat="45.91154" lon="4.70198">
        <ele>215</ele>
        <time>2018-01-07T10:51:13Z</time>
      </trkpt>
      <trkpt lat="45.9116" lon="4.702">
        <ele>215</ele>
        <time>2018-01-07T10:51:14Z</time>
      </trkpt>
      <trkpt lat="45.91165" lon="4.70202">
        <ele>215</ele>
        <time>2018-01-07T10:51:15Z</time>
      </trkpt>
      <trkpt lat="45.91172" lon="4.70203">
        <ele>214</ele>
        <time>2018-01-07T10:51:16Z</time>
      </trkpt>
      <trkpt lat="45.91178" lon="4.70206">
        <ele>214</ele>
        <time>2018-01-07T10:51:17Z</time>
      </trkpt>
      <trkpt lat="45.91183" lon="4.70208">
        <ele>214</ele>
        <time>2018-01-07T10:51:18Z</time>
      </trkpt>
      <trkpt lat="45.91189" lon="4.70211">
        <ele>214</ele>
        <time>2018-01-07T10:51:19Z</time>
      </trkpt>
      <trkpt lat="45.91195" lon="4.70212">
        <ele>214</ele>
        <time>2018-01-07T10:51:20Z</time>
      </trkpt>
      <trkpt lat="45.91202" lon="4.70215">
        <ele>214</ele>
        <time>2018-01-07T10:51:21Z</time>
      </trkpt>
      <trkpt lat="45.91208" lon="4.70218">
        <ele>214</ele>
        <time>2018-01-07T10:51:22Z</time>
      </trkpt>
      <trkpt lat="45.91214" lon="4.7022">
        <ele>214</ele>
        <time>2018-01-07T10:51:23Z</time>
      </trkpt>
      <trkpt lat="45.91221" lon="4.70223">
        <ele>213</ele>
        <time>2018-01-07T10:51:24Z</time>
      </trkpt>
      <trkpt lat="45.91228" lon="4.70224">
        <ele>213</ele>
        <time>2018-01-07T10:51:25Z</time>
      </trkpt>
      <trkpt lat="45.91235" lon="4.70227">
        <ele>213</ele>
        <time>2018-01-07T10:51:26Z</time>
      </trkpt>
      <trkpt lat="45.91242" lon="4.70229">
        <ele>213</ele>
        <time>2018-01-07T10:51:27Z</time>
      </trkpt>
      <trkpt lat="45.91249" lon="4.70231">
        <ele>213</ele>
        <time>2018-01-07T10:51:28Z</time>
      </trkpt>
      <trkpt lat="45.91255" lon="4.70234">
        <ele>213</ele>
        <time>2018-01-07T10:51:29Z</time>
      </trkpt>
      <trkpt lat="45.91262" lon="4.70236">
        <ele>213</ele>
        <time>2018-01-07T10:51:30Z</time>
      </trkpt>
      <trkpt lat="45.91267" lon="4.70238">
        <ele>213</ele>
        <time>2018-01-07T10:51:31Z</time>
      </trkpt>
      <trkpt lat="45.91274" lon="4.7024">
        <ele>213</ele>
        <time>2018-01-07T10:51:32Z</time>
      </trkpt>
      <trkpt lat="45.9128" lon="4.70242">
        <ele>213</ele>
        <time>2018-01-07T10:51:33Z</time>
      </trkpt>
      <trkpt lat="45.91286" lon="4.70244">
        <ele>214</ele>
        <time>2018-01-07T10:51:34Z</time>
      </trkpt>
      <trkpt lat="45.91292" lon="4.70246">
        <ele>214</ele>
        <time>2018-01-07T10:51:35Z</time>
      </trkpt>
      <trkpt lat="45.91298" lon="4.70248">
        <ele>214</ele>
        <time>2018-01-07T10:51:36Z</time>
      </trkpt>
      <trkpt lat="45.91304" lon="4.7025">
        <ele>210</ele>
        <time>2018-01-07T10:51:37Z</time>
      </trkpt>
      <trkpt lat="45.9131" lon="4.70252">
        <ele>210</ele>
        <time>2018-01-07T10:51:38Z</time>
      </trkpt>
      <trkpt lat="45.91316" lon="4.70254">
        <ele>211</ele>
        <time>2018-01-07T10:51:39Z</time>
      </trkpt>
      <trkpt lat="45.91321" lon="4.70257">
        <ele>211</ele>
        <time>2018-01-07T10:51:40Z</time>
      </trkpt>
      <trkpt lat="45.91327" lon="4.70261">
        <ele>211</ele>
        <time>2018-01-07T10:51:41Z</time>
      </trkpt>
      <trkpt lat="45.91332" lon="4.70265">
        <ele>211</ele>
        <time>2018-01-07T10:51:42Z</time>
      </trkpt>
      <trkpt lat="45.91338" lon="4.70269">
        <ele>211</ele>
        <time>2018-01-07T10:51:43Z</time>
      </trkpt>
      <trkpt lat="45.91343" lon="4.70275">
        <ele>210</ele>
        <time>2018-01-07T10:51:44Z</time>
      </trkpt>
      <trkpt lat="45.9135" lon="4.70279">
        <ele>210</ele>
        <time>2018-01-07T10:51:45Z</time>
      </trkpt>
      <trkpt lat="45.91356" lon="4.70285">
        <ele>210</ele>
        <time>2018-01-07T10:51:46Z</time>
      </trkpt>
      <trkpt lat="45.91362" lon="4.7029">
        <ele>210</ele>
        <time>2018-01-07T10:51:47Z</time>
      </trkpt>
      <trkpt lat="45.91368" lon="4.70295">
        <ele>209</ele>
        <time>2018-01-07T10:51:48Z</time>
      </trkpt>
      <trkpt lat="45.91373" lon="4.70299">
        <ele>209</ele>
        <time>2018-01-07T10:51:49Z</time>
      </trkpt>
      <trkpt lat="45.91379" lon="4.70304">
        <ele>209</ele>
        <time>2018-01-07T10:51:50Z</time>
      </trkpt>
      <trkpt lat="45.91385" lon="4.70308">
        <ele>209</ele>
        <time>2018-01-07T10:51:51Z</time>
      </trkpt>
      <trkpt lat="45.9139" lon="4.70312">
        <ele>209</ele>
        <time>2018-01-07T10:51:52Z</time>
      </trkpt>
      <trkpt lat="45.91396" lon="4.70316">
        <ele>209</ele>
        <time>2018-01-07T10:51:53Z</time>
      </trkpt>
      <trkpt lat="45.91403" lon="4.70321">
        <ele>209</ele>
        <time>2018-01-07T10:51:54Z</time>
      </trkpt>
      <trkpt lat="45.91409" lon="4.70326">
        <ele>208</ele>
        <time>2018-01-07T10:51:55Z</time>
      </trkpt>
      <trkpt lat="45.91415" lon="4.70331">
        <ele>208</ele>
        <time>2018-01-07T10:51:56Z</time>
      </trkpt>
      <trkpt lat="45.91421" lon="4.70337">
        <ele>208</ele>
        <time>2018-01-07T10:51:57Z</time>
      </trkpt>
      <trkpt lat="45.91427" lon="4.70341">
        <ele>207</ele>
        <time>2018-01-07T10:51:58Z</time>
      </trkpt>
      <trkpt lat="45.91432" lon="4.70345">
        <ele>207</ele>
        <time>2018-01-07T10:51:59Z</time>
      </trkpt>
      <trkpt lat="45.91437" lon="4.7035">
        <ele>207</ele>
        <time>2018-01-07T10:52:00Z</time>
      </trkpt>
      <trkpt lat="45.91442" lon="4.70354">
        <ele>207</ele>
        <time>2018-01-07T10:52:01Z</time>
      </trkpt>
      <trkpt lat="45.91448" lon="4.70359">
        <ele>206</ele>
        <time>2018-01-07T10:52:02Z</time>
      </trkpt>
      <trkpt lat="45.91454" lon="4.70363">
        <ele>206</ele>
        <time>2018-01-07T10:52:03Z</time>
      </trkpt>
      <trkpt lat="45.91459" lon="4.70367">
        <ele>206</ele>
        <time>2018-01-07T10:52:04Z</time>
      </trkpt>
      <trkpt lat="45.91465" lon="4.70372">
        <ele>206</ele>
        <time>2018-01-07T10:52:05Z</time>
      </trkpt>
      <trkpt lat="45.91469" lon="4.70376">
        <ele>206</ele>
        <time>2018-01-07T10:52:06Z</time>
      </trkpt>
      <trkpt lat="45.91475" lon="4.70381">
        <ele>206</ele>
        <time>2018-01-07T10:52:07Z</time>
      </trkpt>
      <trkpt lat="45.9148" lon="4.70384">
        <ele>206</ele>
        <time>2018-01-07T10:52:08Z</time>
      </trkpt>
      <trkpt lat="45.91485" lon="4.70388">
        <ele>205</ele>
        <time>2018-01-07T10:52:09Z</time>
      </trkpt>
      <trkpt lat="45.9149" lon="4.70393">
        <ele>205</ele>
        <time>2018-01-07T10:52:10Z</time>
      </trkpt>
      <trkpt lat="45.91495" lon="4.70397">
        <ele>205</ele>
        <time>2018-01-07T10:52:11Z</time>
      </trkpt>
      <trkpt lat="45.915" lon="4.704">
        <ele>205</ele>
        <time>2018-01-07T10:52:12Z</time>
      </trkpt>
      <trkpt lat="45.91506" lon="4.70405">
        <ele>205</ele>
        <time>2018-01-07T10:52:13Z</time>
      </trkpt>
      <trkpt lat="45.91511" lon="4.70409">
        <ele>205</ele>
        <time>2018-01-07T10:52:14Z</time>
      </trkpt>
      <trkpt lat="45.91517" lon="4.70413">
        <ele>205</ele>
        <time>2018-01-07T10:52:15Z</time>
      </trkpt>
      <trkpt lat="45.91523" lon="4.70419">
        <ele>203</ele>
        <time>2018-01-07T10:52:16Z</time>
      </trkpt>
      <trkpt lat="45.91529" lon="4.70423">
        <ele>203</ele>
        <time>2018-01-07T10:52:17Z</time>
      </trkpt>
      <trkpt lat="45.91535" lon="4.70427">
        <ele>203</ele>
        <time>2018-01-07T10:52:18Z</time>
      </trkpt>
      <trkpt lat="45.91542" lon="4.70433">
        <ele>203</ele>
        <time>2018-01-07T10:52:19Z</time>
      </trkpt>
      <trkpt lat="45.91548" lon="4.70438">
        <ele>203</ele>
        <time>2018-01-07T10:52:20Z</time>
      </trkpt>
      <trkpt lat="45.91554" lon="4.70442">
        <ele>203</ele>
        <time>2018-01-07T10:52:21Z</time>
      </trkpt>
      <trkpt lat="45.9156" lon="4.70447">
        <ele>203</ele>
        <time>2018-01-07T10:52:22Z</time>
      </trkpt>
      <trkpt lat="45.91566" lon="4.70452">
        <ele>203</ele>
        <time>2018-01-07T10:52:23Z</time>
      </trkpt>
      <trkpt lat="45.91572" lon="4.70457">
        <ele>203</ele>
        <time>2018-01-07T10:52:24Z</time>
      </trkpt>
      <trkpt lat="45.91578" lon="4.70462">
        <ele>203</ele>
        <time>2018-01-07T10:52:25Z</time>
      </trkpt>
      <trkpt lat="45.91584" lon="4.70468">
        <ele>203</ele>
        <time>2018-01-07T10:52:26Z</time>
      </trkpt>
      <trkpt lat="45.91589" lon="4.70473">
        <ele>202</ele>
        <time>2018-01-07T10:52:27Z</time>
      </trkpt>
      <trkpt lat="45.91594" lon="4.70478">
        <ele>202</ele>
        <time>2018-01-07T10:52:28Z</time>
      </trkpt>
      <trkpt lat="45.916" lon="4.70483">
        <ele>202</ele>
        <time>2018-01-07T10:52:29Z</time>
      </trkpt>
      <trkpt lat="45.91606" lon="4.70488">
        <ele>202</ele>
        <time>2018-01-07T10:52:30Z</time>
      </trkpt>
      <trkpt lat="45.91612" lon="4.70493">
        <ele>202</ele>
        <time>2018-01-07T10:52:31Z</time>
      </trkpt>
      <trkpt lat="45.91618" lon="4.70498">
        <ele>202</ele>
        <time>2018-01-07T10:52:32Z</time>
      </trkpt>
      <trkpt lat="45.91625" lon="4.70503">
        <ele>199</ele>
        <time>2018-01-07T10:52:33Z</time>
      </trkpt>
      <trkpt lat="45.91632" lon="4.70509">
        <ele>199</ele>
        <time>2018-01-07T10:52:34Z</time>
      </trkpt>
      <trkpt lat="45.91638" lon="4.70514">
        <ele>199</ele>
        <time>2018-01-07T10:52:35Z</time>
      </trkpt>
      <trkpt lat="45.91644" lon="4.70519">
        <ele>199</ele>
        <time>2018-01-07T10:52:36Z</time>
      </trkpt>
      <trkpt lat="45.9165" lon="4.70524">
        <ele>199</ele>
        <time>2018-01-07T10:52:37Z</time>
      </trkpt>
      <trkpt lat="45.91657" lon="4.70529">
        <ele>198</ele>
        <time>2018-01-07T10:52:38Z</time>
      </trkpt>
      <trkpt lat="45.91663" lon="4.70534">
        <ele>198</ele>
        <time>2018-01-07T10:52:39Z</time>
      </trkpt>
      <trkpt lat="45.9167" lon="4.70539">
        <ele>198</ele>
        <time>2018-01-07T10:52:40Z</time>
      </trkpt>
      <trkpt lat="45.91675" lon="4.70544">
        <ele>198</ele>
        <time>2018-01-07T10:52:41Z</time>
      </trkpt>
      <trkpt lat="45.91681" lon="4.70548">
        <ele>198</ele>
        <time>2018-01-07T10:52:42Z</time>
      </trkpt>
      <trkpt lat="45.91686" lon="4.70553">
        <ele>198</ele>
        <time>2018-01-07T10:52:43Z</time>
      </trkpt>
      <trkpt lat="45.91691" lon="4.70557">
        <ele>198</ele>
        <time>2018-01-07T10:52:44Z</time>
      </trkpt>
      <trkpt lat="45.91696" lon="4.70564">
        <ele>197</ele>
        <time>2018-01-07T10:52:45Z</time>
      </trkpt>
      <trkpt lat="45.917" lon="4.70571">
        <ele>197</ele>
        <time>2018-01-07T10:52:46Z</time>
      </trkpt>
      <trkpt lat="45.91704" lon="4.70578">
        <ele>197</ele>
        <time>2018-01-07T10:52:47Z</time>
      </trkpt>
      <trkpt lat="45.91707" lon="4.70584">
        <ele>196</ele>
        <time>2018-01-07T10:52:48Z</time>
      </trkpt>
      <trkpt lat="45.91712" lon="4.7059">
        <ele>196</ele>
        <time>2018-01-07T10:52:49Z</time>
      </trkpt>
      <trkpt lat="45.91717" lon="4.70592">
        <ele>195</ele>
        <time>2018-01-07T10:52:50Z</time>
      </trkpt>
      <trkpt lat="45.91722" lon="4.70594">
        <ele>195</ele>
        <time>2018-01-07T10:52:51Z</time>
      </trkpt>
      <trkpt lat="45.91728" lon="4.70594">
        <ele>195</ele>
        <time>2018-01-07T10:52:52Z</time>
      </trkpt>
      <trkpt lat="45.91734" lon="4.70595">
        <ele>196</ele>
        <time>2018-01-07T10:52:53Z</time>
      </trkpt>
      <trkpt lat="45.91741" lon="4.70598">
        <ele>196</ele>
        <time>2018-01-07T10:52:54Z</time>
      </trkpt>
      <trkpt lat="45.91747" lon="4.70602">
        <ele>195</ele>
        <time>2018-01-07T10:52:55Z</time>
      </trkpt>
      <trkpt lat="45.91754" lon="4.70605">
        <ele>195</ele>
        <time>2018-01-07T10:52:56Z</time>
      </trkpt>
      <trkpt lat="45.91759" lon="4.70608">
        <ele>195</ele>
        <time>2018-01-07T10:52:57Z</time>
      </trkpt>
      <trkpt lat="45.91765" lon="4.70611">
        <ele>195</ele>
        <time>2018-01-07T10:52:58Z</time>
      </trkpt>
      <trkpt lat="45.91771" lon="4.70613">
        <ele>195</ele>
        <time>2018-01-07T10:52:59Z</time>
      </trkpt>
      <trkpt lat="45.91778" lon="4.70615">
        <ele>194</ele>
        <time>2018-01-07T10:53:00Z</time>
      </trkpt>
      <trkpt lat="45.91784" lon="4.70615">
        <ele>194</ele>
        <time>2018-01-07T10:53:01Z</time>
      </trkpt>
      <trkpt lat="45.91791" lon="4.70617">
        <ele>194</ele>
        <time>2018-01-07T10:53:02Z</time>
      </trkpt>
      <trkpt lat="45.91797" lon="4.70617">
        <ele>194</ele>
        <time>2018-01-07T10:53:03Z</time>
      </trkpt>
      <trkpt lat="45.91803" lon="4.70617">
        <ele>194</ele>
        <time>2018-01-07T10:53:04Z</time>
      </trkpt>
      <trkpt lat="45.91809" lon="4.70617">
        <ele>194</ele>
        <time>2018-01-07T10:53:05Z</time>
      </trkpt>
      <trkpt lat="45.91815" lon="4.70617">
        <ele>194</ele>
        <time>2018-01-07T10:53:06Z</time>
      </trkpt>
      <trkpt lat="45.91822" lon="4.70617">
        <ele>194</ele>
        <time>2018-01-07T10:53:07Z</time>
      </trkpt>
      <trkpt lat="45.91829" lon="4.70617">
        <ele>194</ele>
        <time>2018-01-07T10:53:08Z</time>
      </trkpt>
      <trkpt lat="45.91837" lon="4.70618">
        <ele>194</ele>
        <time>2018-01-07T10:53:09Z</time>
      </trkpt>
      <trkpt lat="45.91843" lon="4.70618">
        <ele>194</ele>
        <time>2018-01-07T10:53:10Z</time>
      </trkpt>
      <trkpt lat="45.9185" lon="4.70618">
        <ele>194</ele>
        <time>2018-01-07T10:53:11Z</time>
      </trkpt>
      <trkpt lat="45.91857" lon="4.70617">
        <ele>194</ele>
        <time>2018-01-07T10:53:12Z</time>
      </trkpt>
      <trkpt lat="45.91865" lon="4.70619">
        <ele>194</ele>
        <time>2018-01-07T10:53:13Z</time>
      </trkpt>
      <trkpt lat="45.91872" lon="4.70619">
        <ele>194</ele>
        <time>2018-01-07T10:53:14Z</time>
      </trkpt>
      <trkpt lat="45.91878" lon="4.70619">
        <ele>194</ele>
        <time>2018-01-07T10:53:15Z</time>
      </trkpt>
      <trkpt lat="45.91885" lon="4.70619">
        <ele>194</ele>
        <time>2018-01-07T10:53:16Z</time>
      </trkpt>
      <trkpt lat="45.91892" lon="4.70618">
        <ele>194</ele>
        <time>2018-01-07T10:53:17Z</time>
      </trkpt>
      <trkpt lat="45.91898" lon="4.70617">
        <ele>194</ele>
        <time>2018-01-07T10:53:18Z</time>
      </trkpt>
      <trkpt lat="45.91905" lon="4.70617">
        <ele>194</ele>
        <time>2018-01-07T10:53:19Z</time>
      </trkpt>
      <trkpt lat="45.91911" lon="4.70616">
        <ele>194</ele>
        <time>2018-01-07T10:53:20Z</time>
      </trkpt>
      <trkpt lat="45.91917" lon="4.70615">
        <ele>194</ele>
        <time>2018-01-07T10:53:21Z</time>
      </trkpt>
      <trkpt lat="45.91923" lon="4.70614">
        <ele>194</ele>
        <time>2018-01-07T10:53:22Z</time>
      </trkpt>
      <trkpt lat="45.91928" lon="4.70613">
        <ele>194</ele>
        <time>2018-01-07T10:53:23Z</time>
      </trkpt>
      <trkpt lat="45.91934" lon="4.70612">
        <ele>194</ele>
        <time>2018-01-07T10:53:24Z</time>
      </trkpt>
      <trkpt lat="45.91939" lon="4.70611">
        <ele>194</ele>
        <time>2018-01-07T10:53:25Z</time>
      </trkpt>
      <trkpt lat="45.91945" lon="4.70611">
        <ele>194</ele>
        <time>2018-01-07T10:53:26Z</time>
      </trkpt>
      <trkpt lat="45.9195" lon="4.7061">
        <ele>194</ele>
        <time>2018-01-07T10:53:27Z</time>
      </trkpt>
      <trkpt lat="45.91956" lon="4.70609">
        <ele>194</ele>
        <time>2018-01-07T10:53:28Z</time>
      </trkpt>
      <trkpt lat="45.91962" lon="4.70608">
        <ele>194</ele>
        <time>2018-01-07T10:53:29Z</time>
      </trkpt>
      <trkpt lat="45.91968" lon="4.70607">
        <ele>194</ele>
        <time>2018-01-07T10:53:30Z</time>
      </trkpt>
      <trkpt lat="45.91974" lon="4.70605">
        <ele>194</ele>
        <time>2018-01-07T10:53:31Z</time>
      </trkpt>
      <trkpt lat="45.9198" lon="4.70604">
        <ele>194</ele>
        <time>2018-01-07T10:53:32Z</time>
      </trkpt>
      <trkpt lat="45.91986" lon="4.70602">
        <ele>194</ele>
        <time>2018-01-07T10:53:33Z</time>
      </trkpt>
      <trkpt lat="45.91993" lon="4.70602">
        <ele>194</ele>
        <time>2018-01-07T10:53:34Z</time>
      </trkpt>
      <trkpt lat="45.91999" lon="4.70601">
        <ele>194</ele>
        <time>2018-01-07T10:53:35Z</time>
      </trkpt>
      <trkpt lat="45.92006" lon="4.706">
        <ele>194</ele>
        <time>2018-01-07T10:53:36Z</time>
      </trkpt>
      <trkpt lat="45.92012" lon="4.70599">
        <ele>194</ele>
        <time>2018-01-07T10:53:37Z</time>
      </trkpt>
      <trkpt lat="45.92018" lon="4.70598">
        <ele>194</ele>
        <time>2018-01-07T10:53:38Z</time>
      </trkpt>
      <trkpt lat="45.92024" lon="4.70598">
        <ele>194</ele>
        <time>2018-01-07T10:53:39Z</time>
      </trkpt>
      <trkpt lat="45.92031" lon="4.70598">
        <ele>194</ele>
        <time>2018-01-07T10:53:40Z</time>
      </trkpt>
      <trkpt lat="45.92037" lon="4.70598">
        <ele>193</ele>
        <time>2018-01-07T10:53:41Z</time>
      </trkpt>
      <trkpt lat="45.92043" lon="4.70597">
        <ele>193</ele>
        <time>2018-01-07T10:53:42Z</time>
      </trkpt>
      <trkpt lat="45.9205" lon="4.70596">
        <ele>193</ele>
        <time>2018-01-07T10:53:43Z</time>
      </trkpt>
      <trkpt lat="45.92055" lon="4.70595">
        <ele>193</ele>
        <time>2018-01-07T10:53:44Z</time>
      </trkpt>
      <trkpt lat="45.92061" lon="4.70595">
        <ele>193</ele>
        <time>2018-01-07T10:53:45Z</time>
      </trkpt>
      <trkpt lat="45.92066" lon="4.70595">
        <ele>193</ele>
        <time>2018-01-07T10:53:46Z</time>
      </trkpt>
      <trkpt lat="45.92071" lon="4.70594">
        <ele>194</ele>
        <time>2018-01-07T10:53:47Z</time>
      </trkpt>
      <trkpt lat="45.92076" lon="4.70593">
        <ele>194</ele>
        <time>2018-01-07T10:53:48Z</time>
      </trkpt>
      <trkpt lat="45.92082" lon="4.70593">
        <ele>194</ele>
        <time>2018-01-07T10:53:49Z</time>
      </trkpt>
      <trkpt lat="45.92087" lon="4.70591">
        <ele>193</ele>
        <time>2018-01-07T10:53:50Z</time>
      </trkpt>
      <trkpt lat="45.92093" lon="4.7059">
        <ele>193</ele>
        <time>2018-01-07T10:53:51Z</time>
      </trkpt>
      <trkpt lat="45.921" lon="4.70588">
        <ele>192</ele>
        <time>2018-01-07T10:53:52Z</time>
      </trkpt>
      <trkpt lat="45.92105" lon="4.70588">
        <ele>192</ele>
        <time>2018-01-07T10:53:53Z</time>
      </trkpt>
      <trkpt lat="45.92111" lon="4.70588">
        <ele>192</ele>
        <time>2018-01-07T10:53:54Z</time>
      </trkpt>
      <trkpt lat="45.92117" lon="4.70589">
        <ele>191</ele>
        <time>2018-01-07T10:53:55Z</time>
      </trkpt>
      <trkpt lat="45.92122" lon="4.70588">
        <ele>191</ele>
        <time>2018-01-07T10:53:56Z</time>
      </trkpt>
      <trkpt lat="45.92128" lon="4.70586">
        <ele>191</ele>
        <time>2018-01-07T10:53:57Z</time>
      </trkpt>
      <trkpt lat="45.92133" lon="4.70585">
        <ele>191</ele>
        <time>2018-01-07T10:53:58Z</time>
      </trkpt>
      <trkpt lat="45.92138" lon="4.70584">
        <ele>191</ele>
        <time>2018-01-07T10:53:59Z</time>
      </trkpt>
      <trkpt lat="45.92143" lon="4.70585">
        <ele>191</ele>
        <time>2018-01-07T10:54:00Z</time>
      </trkpt>
      <trkpt lat="45.92148" lon="4.70585">
        <ele>191</ele>
        <time>2018-01-07T10:54:01Z</time>
      </trkpt>
      <trkpt lat="45.92153" lon="4.70586">
        <ele>190</ele>
        <time>2018-01-07T10:54:02Z</time>
      </trkpt>
      <trkpt lat="45.92158" lon="4.70586">
        <ele>190</ele>
        <time>2018-01-07T10:54:03Z</time>
      </trkpt>
      <trkpt lat="45.92163" lon="4.70587">
        <ele>190</ele>
        <time>2018-01-07T10:54:04Z</time>
      </trkpt>
      <trkpt lat="45.92168" lon="4.70587">
        <ele>190</ele>
        <time>2018-01-07T10:54:05Z</time>
      </trkpt>
      <trkpt lat="45.92173" lon="4.70589">
        <ele>191</ele>
        <time>2018-01-07T10:54:06Z</time>
      </trkpt>
      <trkpt lat="45.92178" lon="4.70591">
        <ele>191</ele>
        <time>2018-01-07T10:54:07Z</time>
      </trkpt>
      <trkpt lat="45.92183" lon="4.70592">
        <ele>191</ele>
        <time>2018-01-07T10:54:08Z</time>
      </trkpt>
      <trkpt lat="45.92189" lon="4.70592">
        <ele>191</ele>
        <time>2018-01-07T10:54:09Z</time>
      </trkpt>
      <trkpt lat="45.92194" lon="4.70591">
        <ele>192</ele>
        <time>2018-01-07T10:54:10Z</time>
      </trkpt>
      <trkpt lat="45.92199" lon="4.70593">
        <ele>192</ele>
        <time>2018-01-07T10:54:11Z</time>
      </trkpt>
      <trkpt lat="45.92204" lon="4.70593">
        <ele>192</ele>
        <time>2018-01-07T10:54:12Z</time>
      </trkpt>
      <trkpt lat="45.9221" lon="4.70595">
        <ele>193</ele>
        <time>2018-01-07T10:54:13Z</time>
      </trkpt>
      <trkpt lat="45.92215" lon="4.70597">
        <ele>193</ele>
        <time>2018-01-07T10:54:14Z</time>
      </trkpt>
      <trkpt lat="45.9222" lon="4.70598">
        <ele>193</ele>
        <time>2018-01-07T10:54:15Z</time>
      </trkpt>
      <trkpt lat="45.92226" lon="4.70598">
        <ele>193</ele>
        <time>2018-01-07T10:54:16Z</time>
      </trkpt>
      <trkpt lat="45.92232" lon="4.70599">
        <ele>194</ele>
        <time>2018-01-07T10:54:17Z</time>
      </trkpt>
      <trkpt lat="45.92237" lon="4.70601">
        <ele>194</ele>
        <time>2018-01-07T10:54:18Z</time>
      </trkpt>
      <trkpt lat="45.92242" lon="4.70602">
        <ele>194</ele>
        <time>2018-01-07T10:54:19Z</time>
      </trkpt>
      <trkpt lat="45.92246" lon="4.70603">
        <ele>194</ele>
        <time>2018-01-07T10:54:20Z</time>
      </trkpt>
      <trkpt lat="45.92251" lon="4.70604">
        <ele>196</ele>
        <time>2018-01-07T10:54:21Z</time>
      </trkpt>
      <trkpt lat="45.92255" lon="4.70606">
        <ele>196</ele>
        <time>2018-01-07T10:54:22Z</time>
      </trkpt>
      <trkpt lat="45.9226" lon="4.70607">
        <ele>196</ele>
        <time>2018-01-07T10:54:23Z</time>
      </trkpt>
      <trkpt lat="45.92265" lon="4.70607">
        <ele>196</ele>
        <time>2018-01-07T10:54:24Z</time>
      </trkpt>
      <trkpt lat="45.9227" lon="4.70608">
        <ele>196</ele>
        <time>2018-01-07T10:54:25Z</time>
      </trkpt>
      <trkpt lat="45.92275" lon="4.7061">
        <ele>196</ele>
        <time>2018-01-07T10:54:26Z</time>
      </trkpt>
      <trkpt lat="45.92281" lon="4.70613">
        <ele>196</ele>
        <time>2018-01-07T10:54:27Z</time>
      </trkpt>
      <trkpt lat="45.92286" lon="4.70615">
        <ele>196</ele>
        <time>2018-01-07T10:54:28Z</time>
      </trkpt>
      <trkpt lat="45.92291" lon="4.70616">
        <ele>196</ele>
        <time>2018-01-07T10:54:29Z</time>
      </trkpt>
      <trkpt lat="45.92297" lon="4.7062">
        <ele>196</ele>
        <time>2018-01-07T10:54:30Z</time>
      </trkpt>
      <trkpt lat="45.92301" lon="4.70624">
        <ele>196</ele>
        <time>2018-01-07T10:54:31Z</time>
      </trkpt>
      <trkpt lat="45.92306" lon="4.70627">
        <ele>196</ele>
        <time>2018-01-07T10:54:32Z</time>
      </trkpt>
      <trkpt lat="45.9231" lon="4.70629">
        <ele>196</ele>
        <time>2018-01-07T10:54:33Z</time>
      </trkpt>
      <trkpt lat="45.92315" lon="4.70632">
        <ele>196</ele>
        <time>2018-01-07T10:54:34Z</time>
      </trkpt>
      <trkpt lat="45.92319" lon="4.70635">
        <ele>196</ele>
        <time>2018-01-07T10:54:35Z</time>
      </trkpt>
      <trkpt lat="45.92327" lon="4.70639">
        <ele>196</ele>
        <time>2018-01-07T10:54:37Z</time>
      </trkpt>
      <trkpt lat="45.92332" lon="4.70642">
        <ele>196</ele>
        <time>2018-01-07T10:54:38Z</time>
      </trkpt>
      <trkpt lat="45.92338" lon="4.70644">
        <ele>197</ele>
        <time>2018-01-07T10:54:39Z</time>
      </trkpt>
      <trkpt lat="45.92343" lon="4.70647">
        <ele>196</ele>
        <time>2018-01-07T10:54:40Z</time>
      </trkpt>
      <trkpt lat="45.92349" lon="4.70651">
        <ele>196</ele>
        <time>2018-01-07T10:54:41Z</time>
      </trkpt>
      <trkpt lat="45.92354" lon="4.70654">
        <ele>196</ele>
        <time>2018-01-07T10:54:42Z</time>
      </trkpt>
      <trkpt lat="45.92359" lon="4.70657">
        <ele>196</ele>
        <time>2018-01-07T10:54:43Z</time>
      </trkpt>
      <trkpt lat="45.92364" lon="4.7066">
        <ele>196</ele>
        <time>2018-01-07T10:54:44Z</time>
      </trkpt>
      <trkpt lat="45.92369" lon="4.70663">
        <ele>196</ele>
        <time>2018-01-07T10:54:45Z</time>
      </trkpt>
      <trkpt lat="45.92374" lon="4.70667">
        <ele>196</ele>
        <time>2018-01-07T10:54:46Z</time>
      </trkpt>
      <trkpt lat="45.92379" lon="4.7067">
        <ele>194</ele>
        <time>2018-01-07T10:54:47Z</time>
      </trkpt>
      <trkpt lat="45.92384" lon="4.70673">
        <ele>194</ele>
        <time>2018-01-07T10:54:48Z</time>
      </trkpt>
      <trkpt lat="45.92389" lon="4.70676">
        <ele>194</ele>
        <time>2018-01-07T10:54:49Z</time>
      </trkpt>
      <trkpt lat="45.92394" lon="4.70679">
        <ele>194</ele>
        <time>2018-01-07T10:54:50Z</time>
      </trkpt>
      <trkpt lat="45.92399" lon="4.70683">
        <ele>194</ele>
        <time>2018-01-07T10:54:51Z</time>
      </trkpt>
      <trkpt lat="45.92404" lon="4.70686">
        <ele>194</ele>
        <time>2018-01-07T10:54:52Z</time>
      </trkpt>
      <trkpt lat="45.92409" lon="4.7069">
        <ele>194</ele>
        <time>2018-01-07T10:54:53Z</time>
      </trkpt>
      <trkpt lat="45.92414" lon="4.70693">
        <ele>194</ele>
        <time>2018-01-07T10:54:54Z</time>
      </trkpt>
      <trkpt lat="45.92419" lon="4.70696">
        <ele>195</ele>
        <time>2018-01-07T10:54:55Z</time>
      </trkpt>
      <trkpt lat="45.92424" lon="4.70699">
        <ele>195</ele>
        <time>2018-01-07T10:54:56Z</time>
      </trkpt>
      <trkpt lat="45.92429" lon="4.70702">
        <ele>194</ele>
        <time>2018-01-07T10:54:57Z</time>
      </trkpt>
      <trkpt lat="45.92434" lon="4.70703">
        <ele>194</ele>
        <time>2018-01-07T10:54:58Z</time>
      </trkpt>
      <trkpt lat="45.92439" lon="4.70706">
        <ele>194</ele>
        <time>2018-01-07T10:54:59Z</time>
      </trkpt>
      <trkpt lat="45.92443" lon="4.70708">
        <ele>194</ele>
        <time>2018-01-07T10:55:00Z</time>
      </trkpt>
      <trkpt lat="45.92451" lon="4.70711">
        <ele>194</ele>
        <time>2018-01-07T10:55:02Z</time>
      </trkpt>
      <trkpt lat="45.92456" lon="4.70713">
        <ele>194</ele>
        <time>2018-01-07T10:55:03Z</time>
      </trkpt>
      <trkpt lat="45.9246" lon="4.70716">
        <ele>194</ele>
        <time>2018-01-07T10:55:04Z</time>
      </trkpt>
      <trkpt lat="45.92465" lon="4.70719">
        <ele>194</ele>
        <time>2018-01-07T10:55:05Z</time>
      </trkpt>
      <trkpt lat="45.9247" lon="4.70723">
        <ele>194</ele>
        <time>2018-01-07T10:55:06Z</time>
      </trkpt>
      <trkpt lat="45.92474" lon="4.70726">
        <ele>194</ele>
        <time>2018-01-07T10:55:07Z</time>
      </trkpt>
      <trkpt lat="45.92479" lon="4.70729">
        <ele>194</ele>
        <time>2018-01-07T10:55:08Z</time>
      </trkpt>
      <trkpt lat="45.92483" lon="4.70732">
        <ele>194</ele>
        <time>2018-01-07T10:55:09Z</time>
      </trkpt>
      <trkpt lat="45.92488" lon="4.70736">
        <ele>194</ele>
        <time>2018-01-07T10:55:10Z</time>
      </trkpt>
      <trkpt lat="45.92492" lon="4.70739">
        <ele>194</ele>
        <time>2018-01-07T10:55:11Z</time>
      </trkpt>
      <trkpt lat="45.92496" lon="4.70742">
        <ele>194</ele>
        <time>2018-01-07T10:55:12Z</time>
      </trkpt>
      <trkpt lat="45.92501" lon="4.70743">
        <ele>195</ele>
        <time>2018-01-07T10:55:13Z</time>
      </trkpt>
      <trkpt lat="45.92505" lon="4.70746">
        <ele>195</ele>
        <time>2018-01-07T10:55:14Z</time>
      </trkpt>
      <trkpt lat="45.9251" lon="4.70749">
        <ele>195</ele>
        <time>2018-01-07T10:55:15Z</time>
      </trkpt>
      <trkpt lat="45.92515" lon="4.70751">
        <ele>195</ele>
        <time>2018-01-07T10:55:16Z</time>
      </trkpt>
      <trkpt lat="45.9252" lon="4.70754">
        <ele>195</ele>
        <time>2018-01-07T10:55:17Z</time>
      </trkpt>
      <trkpt lat="45.92525" lon="4.70756">
        <ele>195</ele>
        <time>2018-01-07T10:55:18Z</time>
      </trkpt>
      <trkpt lat="45.9253" lon="4.70759">
        <ele>195</ele>
        <time>2018-01-07T10:55:19Z</time>
      </trkpt>
      <trkpt lat="45.92535" lon="4.70762">
        <ele>195</ele>
        <time>2018-01-07T10:55:20Z</time>
      </trkpt>
      <trkpt lat="45.9254" lon="4.70766">
        <ele>195</ele>
        <time>2018-01-07T10:55:21Z</time>
      </trkpt>
      <trkpt lat="45.92544" lon="4.70769">
        <ele>195</ele>
        <time>2018-01-07T10:55:22Z</time>
      </trkpt>
      <trkpt lat="45.92549" lon="4.70771">
        <ele>195</ele>
        <time>2018-01-07T10:55:23Z</time>
      </trkpt>
      <trkpt lat="45.92553" lon="4.70775">
        <ele>196</ele>
        <time>2018-01-07T10:55:24Z</time>
      </trkpt>
      <trkpt lat="45.92557" lon="4.70778">
        <ele>196</ele>
        <time>2018-01-07T10:55:25Z</time>
      </trkpt>
      <trkpt lat="45.92561" lon="4.70781">
        <ele>196</ele>
        <time>2018-01-07T10:55:26Z</time>
      </trkpt>
      <trkpt lat="45.92565" lon="4.70785">
        <ele>196</ele>
        <time>2018-01-07T10:55:27Z</time>
      </trkpt>
      <trkpt lat="45.92569" lon="4.70788">
        <ele>196</ele>
        <time>2018-01-07T10:55:28Z</time>
      </trkpt>
      <trkpt lat="45.92574" lon="4.70791">
        <ele>196</ele>
        <time>2018-01-07T10:55:29Z</time>
      </trkpt>
      <trkpt lat="45.92581" lon="4.70796">
        <ele>196</ele>
        <time>2018-01-07T10:55:31Z</time>
      </trkpt>
      <trkpt lat="45.92586" lon="4.70802">
        <ele>198</ele>
        <time>2018-01-07T10:55:32Z</time>
      </trkpt>
      <trkpt lat="45.92593" lon="4.70808">
        <ele>198</ele>
        <time>2018-01-07T10:55:34Z</time>
      </trkpt>
      <trkpt lat="45.92596" lon="4.70812">
        <ele>198</ele>
        <time>2018-01-07T10:55:35Z</time>
      </trkpt>
      <trkpt lat="45.92604" lon="4.70818">
        <ele>198</ele>
        <time>2018-01-07T10:55:37Z</time>
      </trkpt>
      <trkpt lat="45.92608" lon="4.7082">
        <ele>198</ele>
        <time>2018-01-07T10:55:38Z</time>
      </trkpt>
      <trkpt lat="45.92615" lon="4.70827">
        <ele>199</ele>
        <time>2018-01-07T10:55:40Z</time>
      </trkpt>
      <trkpt lat="45.92618" lon="4.70831">
        <ele>199</ele>
        <time>2018-01-07T10:55:41Z</time>
      </trkpt>
      <trkpt lat="45.92625" lon="4.70838">
        <ele>198</ele>
        <time>2018-01-07T10:55:43Z</time>
      </trkpt>
      <trkpt lat="45.92629" lon="4.70842">
        <ele>198</ele>
        <time>2018-01-07T10:55:44Z</time>
      </trkpt>
      <trkpt lat="45.92633" lon="4.70845">
        <ele>198</ele>
        <time>2018-01-07T10:55:45Z</time>
      </trkpt>
      <trkpt lat="45.92636" lon="4.7085">
        <ele>198</ele>
        <time>2018-01-07T10:55:46Z</time>
      </trkpt>
      <trkpt lat="45.92643" lon="4.70856">
        <ele>198</ele>
        <time>2018-01-07T10:55:48Z</time>
      </trkpt>
      <trkpt lat="45.92646" lon="4.7086">
        <ele>198</ele>
        <time>2018-01-07T10:55:49Z</time>
      </trkpt>
      <trkpt lat="45.92649" lon="4.70863">
        <ele>198</ele>
        <time>2018-01-07T10:55:50Z</time>
      </trkpt>
      <trkpt lat="45.92653" lon="4.70867">
        <ele>198</ele>
        <time>2018-01-07T10:55:51Z</time>
      </trkpt>
      <trkpt lat="45.92657" lon="4.70871">
        <ele>198</ele>
        <time>2018-01-07T10:55:52Z</time>
      </trkpt>
      <trkpt lat="45.92661" lon="4.70875">
        <ele>198</ele>
        <time>2018-01-07T10:55:53Z</time>
      </trkpt>
      <trkpt lat="45.92665" lon="4.70878">
        <ele>197</ele>
        <time>2018-01-07T10:55:54Z</time>
      </trkpt>
      <trkpt lat="45.92669" lon="4.70882">
        <ele>198</ele>
        <time>2018-01-07T10:55:55Z</time>
      </trkpt>
      <trkpt lat="45.92673" lon="4.70886">
        <ele>198</ele>
        <time>2018-01-07T10:55:56Z</time>
      </trkpt>
      <trkpt lat="45.92678" lon="4.70889">
        <ele>198</ele>
        <time>2018-01-07T10:55:57Z</time>
      </trkpt>
      <trkpt lat="45.92682" lon="4.70892">
        <ele>198</ele>
        <time>2018-01-07T10:55:58Z</time>
      </trkpt>
      <trkpt lat="45.92686" lon="4.70894">
        <ele>197</ele>
        <time>2018-01-07T10:55:59Z</time>
      </trkpt>
      <trkpt lat="45.92689" lon="4.70898">
        <ele>197</ele>
        <time>2018-01-07T10:56:00Z</time>
      </trkpt>
      <trkpt lat="45.92694" lon="4.70902">
        <ele>197</ele>
        <time>2018-01-07T10:56:01Z</time>
      </trkpt>
      <trkpt lat="45.92697" lon="4.70906">
        <ele>197</ele>
        <time>2018-01-07T10:56:02Z</time>
      </trkpt>
      <trkpt lat="45.92702" lon="4.70908">
        <ele>197</ele>
        <time>2018-01-07T10:56:03Z</time>
      </trkpt>
      <trkpt lat="45.92709" lon="4.70912">
        <ele>197</ele>
        <time>2018-01-07T10:56:05Z</time>
      </trkpt>
      <trkpt lat="45.92714" lon="4.70915">
        <ele>197</ele>
        <time>2018-01-07T10:56:06Z</time>
      </trkpt>
      <trkpt lat="45.92719" lon="4.70917">
        <ele>195</ele>
        <time>2018-01-07T10:56:07Z</time>
      </trkpt>
      <trkpt lat="45.92724" lon="4.7092">
        <ele>195</ele>
        <time>2018-01-07T10:56:08Z</time>
      </trkpt>
      <trkpt lat="45.92729" lon="4.70921">
        <ele>195</ele>
        <time>2018-01-07T10:56:09Z</time>
      </trkpt>
      <trkpt lat="45.92733" lon="4.70924">
        <ele>195</ele>
        <time>2018-01-07T10:56:10Z</time>
      </trkpt>
      <trkpt lat="45.92739" lon="4.70924">
        <ele>195</ele>
        <time>2018-01-07T10:56:11Z</time>
      </trkpt>
      <trkpt lat="45.92744" lon="4.70926">
        <ele>195</ele>
        <time>2018-01-07T10:56:12Z</time>
      </trkpt>
      <trkpt lat="45.92749" lon="4.70927">
        <ele>195</ele>
        <time>2018-01-07T10:56:13Z</time>
      </trkpt>
      <trkpt lat="45.92754" lon="4.70927">
        <ele>196</ele>
        <time>2018-01-07T10:56:14Z</time>
      </trkpt>
      <trkpt lat="45.92759" lon="4.70927">
        <ele>196</ele>
        <time>2018-01-07T10:56:15Z</time>
      </trkpt>
      <trkpt lat="45.92764" lon="4.70927">
        <ele>196</ele>
        <time>2018-01-07T10:56:16Z</time>
      </trkpt>
      <trkpt lat="45.92769" lon="4.70927">
        <ele>196</ele>
        <time>2018-01-07T10:56:17Z</time>
      </trkpt>
      <trkpt lat="45.92774" lon="4.70929">
        <ele>196</ele>
        <time>2018-01-07T10:56:18Z</time>
      </trkpt>
      <trkpt lat="45.92779" lon="4.7093">
        <ele>196</ele>
        <time>2018-01-07T10:56:19Z</time>
      </trkpt>
      <trkpt lat="45.92784" lon="4.70932">
        <ele>196</ele>
        <time>2018-01-07T10:56:20Z</time>
      </trkpt>
      <trkpt lat="45.92789" lon="4.70934">
        <ele>196</ele>
        <time>2018-01-07T10:56:21Z</time>
      </trkpt>
      <trkpt lat="45.92794" lon="4.70934">
        <ele>196</ele>
        <time>2018-01-07T10:56:22Z</time>
      </trkpt>
      <trkpt lat="45.92799" lon="4.70937">
        <ele>196</ele>
        <time>2018-01-07T10:56:23Z</time>
      </trkpt>
      <trkpt lat="45.92802" lon="4.70941">
        <ele>196</ele>
        <time>2018-01-07T10:56:24Z</time>
      </trkpt>
      <trkpt lat="45.92806" lon="4.70945">
        <ele>196</ele>
        <time>2018-01-07T10:56:25Z</time>
      </trkpt>
      <trkpt lat="45.9281" lon="4.70949">
        <ele>196</ele>
        <time>2018-01-07T10:56:26Z</time>
      </trkpt>
      <trkpt lat="45.92815" lon="4.70949">
        <ele>196</ele>
        <time>2018-01-07T10:56:27Z</time>
      </trkpt>
      <trkpt lat="45.9282" lon="4.70948">
        <ele>197</ele>
        <time>2018-01-07T10:56:28Z</time>
      </trkpt>
      <trkpt lat="45.92825" lon="4.70945">
        <ele>197</ele>
        <time>2018-01-07T10:56:29Z</time>
      </trkpt>
      <trkpt lat="45.92829" lon="4.70943">
        <ele>197</ele>
        <time>2018-01-07T10:56:30Z</time>
      </trkpt>
      <trkpt lat="45.92834" lon="4.7094">
        <ele>198</ele>
        <time>2018-01-07T10:56:31Z</time>
      </trkpt>
      <trkpt lat="45.92838" lon="4.70941">
        <ele>198</ele>
        <time>2018-01-07T10:56:32Z</time>
      </trkpt>
      <trkpt lat="45.92844" lon="4.70943">
        <ele>198</ele>
        <time>2018-01-07T10:56:33Z</time>
      </trkpt>
      <trkpt lat="45.92849" lon="4.70945">
        <ele>198</ele>
        <time>2018-01-07T10:56:34Z</time>
      </trkpt>
      <trkpt lat="45.92854" lon="4.70945">
        <ele>198</ele>
        <time>2018-01-07T10:56:35Z</time>
      </trkpt>
      <trkpt lat="45.92858" lon="4.70946">
        <ele>198</ele>
        <time>2018-01-07T10:56:36Z</time>
      </trkpt>
      <trkpt lat="45.92863" lon="4.70947">
        <ele>198</ele>
        <time>2018-01-07T10:56:37Z</time>
      </trkpt>
      <trkpt lat="45.92868" lon="4.70949">
        <ele>198</ele>
        <time>2018-01-07T10:56:38Z</time>
      </trkpt>
      <trkpt lat="45.92874" lon="4.70949">
        <ele>198</ele>
        <time>2018-01-07T10:56:39Z</time>
      </trkpt>
      <trkpt lat="45.9288" lon="4.70951">
        <ele>198</ele>
        <time>2018-01-07T10:56:40Z</time>
      </trkpt>
      <trkpt lat="45.92885" lon="4.70952">
        <ele>198</ele>
        <time>2018-01-07T10:56:41Z</time>
      </trkpt>
      <trkpt lat="45.9289" lon="4.70954">
        <ele>198</ele>
        <time>2018-01-07T10:56:42Z</time>
      </trkpt>
      <trkpt lat="45.92894" lon="4.70956">
        <ele>198</ele>
        <time>2018-01-07T10:56:43Z</time>
      </trkpt>
      <trkpt lat="45.929" lon="4.70955">
        <ele>198</ele>
        <time>2018-01-07T10:56:44Z</time>
      </trkpt>
      <trkpt lat="45.92905" lon="4.70956">
        <ele>198</ele>
        <time>2018-01-07T10:56:45Z</time>
      </trkpt>
      <trkpt lat="45.92909" lon="4.70957">
        <ele>198</ele>
        <time>2018-01-07T10:56:46Z</time>
      </trkpt>
      <trkpt lat="45.92914" lon="4.70959">
        <ele>197</ele>
        <time>2018-01-07T10:56:47Z</time>
      </trkpt>
      <trkpt lat="45.92919" lon="4.7096">
        <ele>198</ele>
        <time>2018-01-07T10:56:48Z</time>
      </trkpt>
      <trkpt lat="45.92924" lon="4.70962">
        <ele>198</ele>
        <time>2018-01-07T10:56:49Z</time>
      </trkpt>
      <trkpt lat="45.92928" lon="4.70963">
        <ele>198</ele>
        <time>2018-01-07T10:56:50Z</time>
      </trkpt>
      <trkpt lat="45.92933" lon="4.70964">
        <ele>198</ele>
        <time>2018-01-07T10:56:51Z</time>
      </trkpt>
      <trkpt lat="45.92939" lon="4.70965">
        <ele>198</ele>
        <time>2018-01-07T10:56:52Z</time>
      </trkpt>
      <trkpt lat="45.92944" lon="4.70967">
        <ele>198</ele>
        <time>2018-01-07T10:56:53Z</time>
      </trkpt>
      <trkpt lat="45.9295" lon="4.70967">
        <ele>198</ele>
        <time>2018-01-07T10:56:54Z</time>
      </trkpt>
      <trkpt lat="45.92956" lon="4.7097">
        <ele>198</ele>
        <time>2018-01-07T10:56:55Z</time>
      </trkpt>
      <trkpt lat="45.92963" lon="4.70972">
        <ele>198</ele>
        <time>2018-01-07T10:56:56Z</time>
      </trkpt>
      <trkpt lat="45.92969" lon="4.70975">
        <ele>198</ele>
        <time>2018-01-07T10:56:57Z</time>
      </trkpt>
      <trkpt lat="45.92975" lon="4.70976">
        <ele>198</ele>
        <time>2018-01-07T10:56:58Z</time>
      </trkpt>
      <trkpt lat="45.9298" lon="4.70977">
        <ele>198</ele>
        <time>2018-01-07T10:56:59Z</time>
      </trkpt>
      <trkpt lat="45.92986" lon="4.70979">
        <ele>198</ele>
        <time>2018-01-07T10:57:00Z</time>
      </trkpt>
      <trkpt lat="45.92991" lon="4.7098">
        <ele>198</ele>
        <time>2018-01-07T10:57:01Z</time>
      </trkpt>
      <trkpt lat="45.92997" lon="4.70982">
        <ele>198</ele>
        <time>2018-01-07T10:57:02Z</time>
      </trkpt>
      <trkpt lat="45.93002" lon="4.70984">
        <ele>198</ele>
        <time>2018-01-07T10:57:03Z</time>
      </trkpt>
      <trkpt lat="45.93008" lon="4.70988">
        <ele>198</ele>
        <time>2018-01-07T10:57:04Z</time>
      </trkpt>
      <trkpt lat="45.93013" lon="4.7099">
        <ele>198</ele>
        <time>2018-01-07T10:57:05Z</time>
      </trkpt>
      <trkpt lat="45.93018" lon="4.70992">
        <ele>198</ele>
        <time>2018-01-07T10:57:06Z</time>
      </trkpt>
      <trkpt lat="45.93023" lon="4.70996">
        <ele>198</ele>
        <time>2018-01-07T10:57:07Z</time>
      </trkpt>
      <trkpt lat="45.93029" lon="4.70999">
        <ele>198</ele>
        <time>2018-01-07T10:57:08Z</time>
      </trkpt>
      <trkpt lat="45.93034" lon="4.71002">
        <ele>197</ele>
        <time>2018-01-07T10:57:09Z</time>
      </trkpt>
      <trkpt lat="45.9304" lon="4.71005">
        <ele>197</ele>
        <time>2018-01-07T10:57:10Z</time>
      </trkpt>
      <trkpt lat="45.93045" lon="4.71009">
        <ele>197</ele>
        <time>2018-01-07T10:57:11Z</time>
      </trkpt>
      <trkpt lat="45.93051" lon="4.71013">
        <ele>197</ele>
        <time>2018-01-07T10:57:12Z</time>
      </trkpt>
      <trkpt lat="45.93057" lon="4.71017">
        <ele>197</ele>
        <time>2018-01-07T10:57:13Z</time>
      </trkpt>
      <trkpt lat="45.93063" lon="4.71022">
        <ele>197</ele>
        <time>2018-01-07T10:57:14Z</time>
      </trkpt>
      <trkpt lat="45.93069" lon="4.71028">
        <ele>197</ele>
        <time>2018-01-07T10:57:15Z</time>
      </trkpt>
      <trkpt lat="45.93075" lon="4.71034">
        <ele>197</ele>
        <time>2018-01-07T10:57:16Z</time>
      </trkpt>
      <trkpt lat="45.9308" lon="4.71041">
        <ele>196</ele>
        <time>2018-01-07T10:57:17Z</time>
      </trkpt>
      <trkpt lat="45.93086" lon="4.71048">
        <ele>196</ele>
        <time>2018-01-07T10:57:18Z</time>
      </trkpt>
      <trkpt lat="45.93091" lon="4.71055">
        <ele>195</ele>
        <time>2018-01-07T10:57:19Z</time>
      </trkpt>
      <trkpt lat="45.93096" lon="4.71063">
        <ele>195</ele>
        <time>2018-01-07T10:57:20Z</time>
      </trkpt>
      <trkpt lat="45.93101" lon="4.7107">
        <ele>195</ele>
        <time>2018-01-07T10:57:21Z</time>
      </trkpt>
      <trkpt lat="45.93106" lon="4.71078">
        <ele>195</ele>
        <time>2018-01-07T10:57:22Z</time>
      </trkpt>
      <trkpt lat="45.9311" lon="4.71085">
        <ele>193</ele>
        <time>2018-01-07T10:57:23Z</time>
      </trkpt>
      <trkpt lat="45.93115" lon="4.71094">
        <ele>193</ele>
        <time>2018-01-07T10:57:24Z</time>
      </trkpt>
      <trkpt lat="45.9312" lon="4.71102">
        <ele>192</ele>
        <time>2018-01-07T10:57:25Z</time>
      </trkpt>
      <trkpt lat="45.93124" lon="4.7111">
        <ele>192</ele>
        <time>2018-01-07T10:57:26Z</time>
      </trkpt>
      <trkpt lat="45.93129" lon="4.71118">
        <ele>192</ele>
        <time>2018-01-07T10:57:27Z</time>
      </trkpt>
      <trkpt lat="45.93133" lon="4.71127">
        <ele>192</ele>
        <time>2018-01-07T10:57:28Z</time>
      </trkpt>
      <trkpt lat="45.93136" lon="4.71135">
        <ele>192</ele>
        <time>2018-01-07T10:57:29Z</time>
      </trkpt>
      <trkpt lat="45.9314" lon="4.71144">
        <ele>191</ele>
        <time>2018-01-07T10:57:30Z</time>
      </trkpt>
      <trkpt lat="45.93144" lon="4.71153">
        <ele>191</ele>
        <time>2018-01-07T10:57:31Z</time>
      </trkpt>
      <trkpt lat="45.93147" lon="4.71162">
        <ele>191</ele>
        <time>2018-01-07T10:57:32Z</time>
      </trkpt>
      <trkpt lat="45.93151" lon="4.7117">
        <ele>190</ele>
        <time>2018-01-07T10:57:33Z</time>
      </trkpt>
      <trkpt lat="45.93155" lon="4.71178">
        <ele>190</ele>
        <time>2018-01-07T10:57:34Z</time>
      </trkpt>
      <trkpt lat="45.93159" lon="4.71187">
        <ele>190</ele>
        <time>2018-01-07T10:57:35Z</time>
      </trkpt>
      <trkpt lat="45.93163" lon="4.71196">
        <ele>190</ele>
        <time>2018-01-07T10:57:36Z</time>
      </trkpt>
      <trkpt lat="45.93166" lon="4.71205">
        <ele>190</ele>
        <time>2018-01-07T10:57:37Z</time>
      </trkpt>
      <trkpt lat="45.9317" lon="4.71214">
        <ele>190</ele>
        <time>2018-01-07T10:57:38Z</time>
      </trkpt>
      <trkpt lat="45.93174" lon="4.71224">
        <ele>190</ele>
        <time>2018-01-07T10:57:39Z</time>
      </trkpt>
      <trkpt lat="45.93177" lon="4.71232">
        <ele>190</ele>
        <time>2018-01-07T10:57:40Z</time>
      </trkpt>
      <trkpt lat="45.93181" lon="4.7124">
        <ele>190</ele>
        <time>2018-01-07T10:57:41Z</time>
      </trkpt>
      <trkpt lat="45.93185" lon="4.71249">
        <ele>190</ele>
        <time>2018-01-07T10:57:42Z</time>
      </trkpt>
      <trkpt lat="45.93189" lon="4.71258">
        <ele>189</ele>
        <time>2018-01-07T10:57:43Z</time>
      </trkpt>
      <trkpt lat="45.93193" lon="4.71266">
        <ele>189</ele>
        <time>2018-01-07T10:57:44Z</time>
      </trkpt>
      <trkpt lat="45.93198" lon="4.71275">
        <ele>188</ele>
        <time>2018-01-07T10:57:45Z</time>
      </trkpt>
      <trkpt lat="45.93201" lon="4.71284">
        <ele>188</ele>
        <time>2018-01-07T10:57:46Z</time>
      </trkpt>
      <trkpt lat="45.93205" lon="4.71292">
        <ele>188</ele>
        <time>2018-01-07T10:57:47Z</time>
      </trkpt>
      <trkpt lat="45.93209" lon="4.71301">
        <ele>188</ele>
        <time>2018-01-07T10:57:48Z</time>
      </trkpt>
      <trkpt lat="45.93213" lon="4.71309">
        <ele>188</ele>
        <time>2018-01-07T10:57:49Z</time>
      </trkpt>
      <trkpt lat="45.93217" lon="4.71316">
        <ele>188</ele>
        <time>2018-01-07T10:57:50Z</time>
      </trkpt>
      <trkpt lat="45.93221" lon="4.71324">
        <ele>187</ele>
        <time>2018-01-07T10:57:51Z</time>
      </trkpt>
      <trkpt lat="45.93225" lon="4.71331">
        <ele>187</ele>
        <time>2018-01-07T10:57:52Z</time>
      </trkpt>
      <trkpt lat="45.93228" lon="4.71338">
        <ele>186</ele>
        <time>2018-01-07T10:57:53Z</time>
      </trkpt>
      <trkpt lat="45.9323" lon="4.71344">
        <ele>186</ele>
        <time>2018-01-07T10:57:54Z</time>
      </trkpt>
      <trkpt lat="45.93232" lon="4.7135">
        <ele>186</ele>
        <time>2018-01-07T10:57:55Z</time>
      </trkpt>
      <trkpt lat="45.93234" lon="4.71356">
        <ele>186</ele>
        <time>2018-01-07T10:57:56Z</time>
      </trkpt>
      <trkpt lat="45.93237" lon="4.71365">
        <ele>186</ele>
        <time>2018-01-07T10:57:58Z</time>
      </trkpt>
      <trkpt lat="45.93238" lon="4.7137">
        <ele>186</ele>
        <time>2018-01-07T10:57:59Z</time>
      </trkpt>
      <trkpt lat="45.93243" lon="4.71379">
        <ele>186</ele>
        <time>2018-01-07T10:58:01Z</time>
      </trkpt>
      <trkpt lat="45.93245" lon="4.71385">
        <ele>186</ele>
        <time>2018-01-07T10:58:02Z</time>
      </trkpt>
      <trkpt lat="45.9325" lon="4.71396">
        <ele>186</ele>
        <time>2018-01-07T10:58:04Z</time>
      </trkpt>
      <trkpt lat="45.93252" lon="4.714">
        <ele>186</ele>
        <time>2018-01-07T10:58:05Z</time>
      </trkpt>
      <trkpt lat="45.93257" lon="4.71411">
        <ele>186</ele>
        <time>2018-01-07T10:58:07Z</time>
      </trkpt>
      <trkpt lat="45.93259" lon="4.71418">
        <ele>186</ele>
        <time>2018-01-07T10:58:08Z</time>
      </trkpt>
      <trkpt lat="45.93264" lon="4.71429">
        <ele>185</ele>
        <time>2018-01-07T10:58:10Z</time>
      </trkpt>
      <trkpt lat="45.93267" lon="4.71433">
        <ele>185</ele>
        <time>2018-01-07T10:58:11Z</time>
      </trkpt>
      <trkpt lat="45.9327" lon="4.7144">
        <ele>185</ele>
        <time>2018-01-07T10:58:12Z</time>
      </trkpt>
      <trkpt lat="45.93273" lon="4.71446">
        <ele>185</ele>
        <time>2018-01-07T10:58:13Z</time>
      </trkpt>
      <trkpt lat="45.93277" lon="4.71454">
        <ele>185</ele>
        <time>2018-01-07T10:58:14Z</time>
      </trkpt>
      <trkpt lat="45.9328" lon="4.7146">
        <ele>185</ele>
        <time>2018-01-07T10:58:15Z</time>
      </trkpt>
      <trkpt lat="45.93285" lon="4.71466">
        <ele>185</ele>
        <time>2018-01-07T10:58:16Z</time>
      </trkpt>
      <trkpt lat="45.93288" lon="4.71473">
        <ele>185</ele>
        <time>2018-01-07T10:58:17Z</time>
      </trkpt>
      <trkpt lat="45.93292" lon="4.71482">
        <ele>185</ele>
        <time>2018-01-07T10:58:18Z</time>
      </trkpt>
      <trkpt lat="45.93295" lon="4.71491">
        <ele>185</ele>
        <time>2018-01-07T10:58:19Z</time>
      </trkpt>
      <trkpt lat="45.93297" lon="4.71498">
        <ele>185</ele>
        <time>2018-01-07T10:58:20Z</time>
      </trkpt>
      <trkpt lat="45.933" lon="4.71504">
        <ele>184</ele>
        <time>2018-01-07T10:58:21Z</time>
      </trkpt>
      <trkpt lat="45.93303" lon="4.71509">
        <ele>184</ele>
        <time>2018-01-07T10:58:22Z</time>
      </trkpt>
      <trkpt lat="45.93305" lon="4.71515">
        <ele>184</ele>
        <time>2018-01-07T10:58:23Z</time>
      </trkpt>
      <trkpt lat="45.93307" lon="4.71521">
        <ele>184</ele>
        <time>2018-01-07T10:58:24Z</time>
      </trkpt>
      <trkpt lat="45.93309" lon="4.71526">
        <ele>184</ele>
        <time>2018-01-07T10:58:25Z</time>
      </trkpt>
      <trkpt lat="45.93312" lon="4.71532">
        <ele>184</ele>
        <time>2018-01-07T10:58:26Z</time>
      </trkpt>
      <trkpt lat="45.93315" lon="4.71537">
        <ele>184</ele>
        <time>2018-01-07T10:58:27Z</time>
      </trkpt>
      <trkpt lat="45.93318" lon="4.71544">
        <ele>184</ele>
        <time>2018-01-07T10:58:28Z</time>
      </trkpt>
      <trkpt lat="45.93321" lon="4.7155">
        <ele>184</ele>
        <time>2018-01-07T10:58:29Z</time>
      </trkpt>
      <trkpt lat="45.93325" lon="4.71554">
        <ele>184</ele>
        <time>2018-01-07T10:58:30Z</time>
      </trkpt>
      <trkpt lat="45.93327" lon="4.71563">
        <ele>185</ele>
        <time>2018-01-07T10:58:31Z</time>
      </trkpt>
      <trkpt lat="45.9333" lon="4.7157">
        <ele>185</ele>
        <time>2018-01-07T10:58:32Z</time>
      </trkpt>
      <trkpt lat="45.93333" lon="4.71576">
        <ele>185</ele>
        <time>2018-01-07T10:58:33Z</time>
      </trkpt>
      <trkpt lat="45.93335" lon="4.71582">
        <ele>185</ele>
        <time>2018-01-07T10:58:34Z</time>
      </trkpt>
      <trkpt lat="45.93338" lon="4.71588">
        <ele>185</ele>
        <time>2018-01-07T10:58:35Z</time>
      </trkpt>
      <trkpt lat="45.9334" lon="4.71593">
        <ele>185</ele>
        <time>2018-01-07T10:58:36Z</time>
      </trkpt>
      <trkpt lat="45.93343" lon="4.71599">
        <ele>185</ele>
        <time>2018-01-07T10:58:37Z</time>
      </trkpt>
      <trkpt lat="45.93346" lon="4.71607">
        <ele>185</ele>
        <time>2018-01-07T10:58:38Z</time>
      </trkpt>
      <trkpt lat="45.93348" lon="4.71613">
        <ele>185</ele>
        <time>2018-01-07T10:58:39Z</time>
      </trkpt>
      <trkpt lat="45.93351" lon="4.71619">
        <ele>185</ele>
        <time>2018-01-07T10:58:40Z</time>
      </trkpt>
      <trkpt lat="45.93354" lon="4.71626">
        <ele>185</ele>
        <time>2018-01-07T10:58:41Z</time>
      </trkpt>
      <trkpt lat="45.93357" lon="4.71632">
        <ele>185</ele>
        <time>2018-01-07T10:58:42Z</time>
      </trkpt>
      <trkpt lat="45.9336" lon="4.71638">
        <ele>185</ele>
        <time>2018-01-07T10:58:43Z</time>
      </trkpt>
      <trkpt lat="45.93363" lon="4.71646">
        <ele>185</ele>
        <time>2018-01-07T10:58:44Z</time>
      </trkpt>
      <trkpt lat="45.93365" lon="4.71653">
        <ele>185</ele>
        <time>2018-01-07T10:58:45Z</time>
      </trkpt>
      <trkpt lat="45.93369" lon="4.71659">
        <ele>185</ele>
        <time>2018-01-07T10:58:46Z</time>
      </trkpt>
      <trkpt lat="45.93371" lon="4.71665">
        <ele>185</ele>
        <time>2018-01-07T10:58:47Z</time>
      </trkpt>
      <trkpt lat="45.93375" lon="4.71672">
        <ele>185</ele>
        <time>2018-01-07T10:58:48Z</time>
      </trkpt>
      <trkpt lat="45.93377" lon="4.7168">
        <ele>185</ele>
        <time>2018-01-07T10:58:49Z</time>
      </trkpt>
      <trkpt lat="45.93381" lon="4.71688">
        <ele>185</ele>
        <time>2018-01-07T10:58:50Z</time>
      </trkpt>
      <trkpt lat="45.93384" lon="4.71697">
        <ele>184</ele>
        <time>2018-01-07T10:58:51Z</time>
      </trkpt>
      <trkpt lat="45.93388" lon="4.71704">
        <ele>184</ele>
        <time>2018-01-07T10:58:52Z</time>
      </trkpt>
      <trkpt lat="45.93391" lon="4.71712">
        <ele>184</ele>
        <time>2018-01-07T10:58:53Z</time>
      </trkpt>
      <trkpt lat="45.93394" lon="4.7172">
        <ele>184</ele>
        <time>2018-01-07T10:58:54Z</time>
      </trkpt>
      <trkpt lat="45.93397" lon="4.71729">
        <ele>184</ele>
        <time>2018-01-07T10:58:55Z</time>
      </trkpt>
      <trkpt lat="45.93399" lon="4.71737">
        <ele>184</ele>
        <time>2018-01-07T10:58:56Z</time>
      </trkpt>
      <trkpt lat="45.93403" lon="4.71744">
        <ele>184</ele>
        <time>2018-01-07T10:58:57Z</time>
      </trkpt>
      <trkpt lat="45.93405" lon="4.71753">
        <ele>183</ele>
        <time>2018-01-07T10:58:58Z</time>
      </trkpt>
      <trkpt lat="45.93408" lon="4.71761">
        <ele>183</ele>
        <time>2018-01-07T10:58:59Z</time>
      </trkpt>
      <trkpt lat="45.93411" lon="4.71768">
        <ele>184</ele>
        <time>2018-01-07T10:59:00Z</time>
      </trkpt>
      <trkpt lat="45.93415" lon="4.71775">
        <ele>184</ele>
        <time>2018-01-07T10:59:01Z</time>
      </trkpt>
      <trkpt lat="45.93419" lon="4.71784">
        <ele>182</ele>
        <time>2018-01-07T10:59:02Z</time>
      </trkpt>
      <trkpt lat="45.93423" lon="4.71792">
        <ele>182</ele>
        <time>2018-01-07T10:59:03Z</time>
      </trkpt>
      <trkpt lat="45.93427" lon="4.718">
        <ele>182</ele>
        <time>2018-01-07T10:59:04Z</time>
      </trkpt>
      <trkpt lat="45.9343" lon="4.71808">
        <ele>182</ele>
        <time>2018-01-07T10:59:05Z</time>
      </trkpt>
      <trkpt lat="45.93433" lon="4.71816">
        <ele>182</ele>
        <time>2018-01-07T10:59:06Z</time>
      </trkpt>
      <trkpt lat="45.93437" lon="4.71823">
        <ele>182</ele>
        <time>2018-01-07T10:59:07Z</time>
      </trkpt>
      <trkpt lat="45.93441" lon="4.7183">
        <ele>182</ele>
        <time>2018-01-07T10:59:08Z</time>
      </trkpt>
      <trkpt lat="45.93445" lon="4.71838">
        <ele>181</ele>
        <time>2018-01-07T10:59:09Z</time>
      </trkpt>
      <trkpt lat="45.93449" lon="4.71845">
        <ele>181</ele>
        <time>2018-01-07T10:59:10Z</time>
      </trkpt>
      <trkpt lat="45.93455" lon="4.7185">
        <ele>181</ele>
        <time>2018-01-07T10:59:11Z</time>
      </trkpt>
      <trkpt lat="45.93461" lon="4.71853">
        <ele>180</ele>
        <time>2018-01-07T10:59:12Z</time>
      </trkpt>
      <trkpt lat="45.93468" lon="4.71855">
        <ele>180</ele>
        <time>2018-01-07T10:59:13Z</time>
      </trkpt>
      <trkpt lat="45.93475" lon="4.71855">
        <ele>180</ele>
        <time>2018-01-07T10:59:14Z</time>
      </trkpt>
      <trkpt lat="45.93482" lon="4.71854">
        <ele>180</ele>
        <time>2018-01-07T10:59:15Z</time>
      </trkpt>
      <trkpt lat="45.93489" lon="4.71853">
        <ele>180</ele>
        <time>2018-01-07T10:59:16Z</time>
      </trkpt>
      <trkpt lat="45.93496" lon="4.71851">
        <ele>180</ele>
        <time>2018-01-07T10:59:17Z</time>
      </trkpt>
      <trkpt lat="45.93503" lon="4.7185">
        <ele>179</ele>
        <time>2018-01-07T10:59:18Z</time>
      </trkpt>
      <trkpt lat="45.93509" lon="4.71849">
        <ele>179</ele>
        <time>2018-01-07T10:59:19Z</time>
      </trkpt>
      <trkpt lat="45.93516" lon="4.71848">
        <ele>179</ele>
        <time>2018-01-07T10:59:20Z</time>
      </trkpt>
      <trkpt lat="45.93522" lon="4.71847">
        <ele>179</ele>
        <time>2018-01-07T10:59:21Z</time>
      </trkpt>
      <trkpt lat="45.93529" lon="4.71845">
        <ele>179</ele>
        <time>2018-01-07T10:59:22Z</time>
      </trkpt>
      <trkpt lat="45.93535" lon="4.71844">
        <ele>179</ele>
        <time>2018-01-07T10:59:23Z</time>
      </trkpt>
      <trkpt lat="45.93542" lon="4.71842">
        <ele>179</ele>
        <time>2018-01-07T10:59:24Z</time>
      </trkpt>
      <trkpt lat="45.93548" lon="4.71841">
        <ele>179</ele>
        <time>2018-01-07T10:59:25Z</time>
      </trkpt>
      <trkpt lat="45.93555" lon="4.71839">
        <ele>179</ele>
        <time>2018-01-07T10:59:26Z</time>
      </trkpt>
      <trkpt lat="45.9356" lon="4.71838">
        <ele>179</ele>
        <time>2018-01-07T10:59:27Z</time>
      </trkpt>
      <trkpt lat="45.93566" lon="4.71836">
        <ele>179</ele>
        <time>2018-01-07T10:59:28Z</time>
      </trkpt>
      <trkpt lat="45.93572" lon="4.71836">
        <ele>180</ele>
        <time>2018-01-07T10:59:29Z</time>
      </trkpt>
      <trkpt lat="45.93578" lon="4.71832">
        <ele>180</ele>
        <time>2018-01-07T10:59:30Z</time>
      </trkpt>
      <trkpt lat="45.93584" lon="4.71831">
        <ele>180</ele>
        <time>2018-01-07T10:59:31Z</time>
      </trkpt>
      <trkpt lat="45.9359" lon="4.7183">
        <ele>180</ele>
        <time>2018-01-07T10:59:32Z</time>
      </trkpt>
      <trkpt lat="45.93595" lon="4.71828">
        <ele>180</ele>
        <time>2018-01-07T10:59:33Z</time>
      </trkpt>
      <trkpt lat="45.936" lon="4.71825">
        <ele>179</ele>
        <time>2018-01-07T10:59:34Z</time>
      </trkpt>
      <trkpt lat="45.93606" lon="4.71822">
        <ele>179</ele>
        <time>2018-01-07T10:59:35Z</time>
      </trkpt>
      <trkpt lat="45.93611" lon="4.71815">
        <ele>179</ele>
        <time>2018-01-07T10:59:36Z</time>
      </trkpt>
      <trkpt lat="45.93614" lon="4.71812">
        <ele>179</ele>
        <time>2018-01-07T10:59:37Z</time>
      </trkpt>
      <trkpt lat="45.9362" lon="4.71807">
        <ele>179</ele>
        <time>2018-01-07T10:59:38Z</time>
      </trkpt>
      <trkpt lat="45.93625" lon="4.71803">
        <ele>179</ele>
        <time>2018-01-07T10:59:39Z</time>
      </trkpt>
      <trkpt lat="45.9363" lon="4.718">
        <ele>179</ele>
        <time>2018-01-07T10:59:40Z</time>
      </trkpt>
      <trkpt lat="45.93636" lon="4.71798">
        <ele>179</ele>
        <time>2018-01-07T10:59:41Z</time>
      </trkpt>
      <trkpt lat="45.93641" lon="4.71796">
        <ele>179</ele>
        <time>2018-01-07T10:59:42Z</time>
      </trkpt>
      <trkpt lat="45.93647" lon="4.71794">
        <ele>179</ele>
        <time>2018-01-07T10:59:43Z</time>
      </trkpt>
      <trkpt lat="45.93652" lon="4.71792">
        <ele>179</ele>
        <time>2018-01-07T10:59:44Z</time>
      </trkpt>
      <trkpt lat="45.93658" lon="4.71789">
        <ele>179</ele>
        <time>2018-01-07T10:59:45Z</time>
      </trkpt>
      <trkpt lat="45.93663" lon="4.71787">
        <ele>179</ele>
        <time>2018-01-07T10:59:46Z</time>
      </trkpt>
      <trkpt lat="45.93668" lon="4.71785">
        <ele>177</ele>
        <time>2018-01-07T10:59:47Z</time>
      </trkpt>
      <trkpt lat="45.93673" lon="4.71783">
        <ele>177</ele>
        <time>2018-01-07T10:59:48Z</time>
      </trkpt>
      <trkpt lat="45.93679" lon="4.71783">
        <ele>177</ele>
        <time>2018-01-07T10:59:49Z</time>
      </trkpt>
      <trkpt lat="45.93685" lon="4.71781">
        <ele>177</ele>
        <time>2018-01-07T10:59:50Z</time>
      </trkpt>
      <trkpt lat="45.93691" lon="4.71782">
        <ele>177</ele>
        <time>2018-01-07T10:59:51Z</time>
      </trkpt>
      <trkpt lat="45.93696" lon="4.71782">
        <ele>177</ele>
        <time>2018-01-07T10:59:52Z</time>
      </trkpt>
      <trkpt lat="45.93701" lon="4.71785">
        <ele>176</ele>
        <time>2018-01-07T10:59:53Z</time>
      </trkpt>
      <trkpt lat="45.93705" lon="4.71792">
        <ele>176</ele>
        <time>2018-01-07T10:59:54Z</time>
      </trkpt>
      <trkpt lat="45.93707" lon="4.71799">
        <ele>176</ele>
        <time>2018-01-07T10:59:55Z</time>
      </trkpt>
      <trkpt lat="45.93708" lon="4.7181">
        <ele>176</ele>
        <time>2018-01-07T10:59:57Z</time>
      </trkpt>
      <trkpt lat="45.93708" lon="4.71814">
        <ele>176</ele>
        <time>2018-01-07T10:59:58Z</time>
      </trkpt>
      <trkpt lat="45.93703" lon="4.71822">
        <ele>176</ele>
        <time>2018-01-07T11:00:00Z</time>
      </trkpt>
      <trkpt lat="45.93696" lon="4.71843">
        <ele>175</ele>
        <time>2018-01-07T11:00:03Z</time>
      </trkpt>
      <trkpt lat="45.93693" lon="4.71848">
        <ele>175</ele>
        <time>2018-01-07T11:00:04Z</time>
      </trkpt>
      <trkpt lat="45.9369" lon="4.71855">
        <ele>175</ele>
        <time>2018-01-07T11:00:05Z</time>
      </trkpt>
      <trkpt lat="45.93688" lon="4.71861">
        <ele>175</ele>
        <time>2018-01-07T11:00:06Z</time>
      </trkpt>
      <trkpt lat="45.93685" lon="4.71869">
        <ele>175</ele>
        <time>2018-01-07T11:00:07Z</time>
      </trkpt>
      <trkpt lat="45.93683" lon="4.71881">
        <ele>175</ele>
        <time>2018-01-07T11:00:09Z</time>
      </trkpt>
      <trkpt lat="45.9368" lon="4.71888">
        <ele>175</ele>
        <time>2018-01-07T11:00:10Z</time>
      </trkpt>
      <trkpt lat="45.93677" lon="4.71896">
        <ele>175</ele>
        <time>2018-01-07T11:00:11Z</time>
      </trkpt>
      <trkpt lat="45.93675" lon="4.71904">
        <ele>175</ele>
        <time>2018-01-07T11:00:12Z</time>
      </trkpt>
      <trkpt lat="45.93671" lon="4.71909">
        <ele>175</ele>
        <time>2018-01-07T11:00:13Z</time>
      </trkpt>
      <trkpt lat="45.93668" lon="4.71916">
        <ele>175</ele>
        <time>2018-01-07T11:00:14Z</time>
      </trkpt>
      <trkpt lat="45.93666" lon="4.71924">
        <ele>175</ele>
        <time>2018-01-07T11:00:15Z</time>
      </trkpt>
      <trkpt lat="45.93661" lon="4.71931">
        <ele>175</ele>
        <time>2018-01-07T11:00:16Z</time>
      </trkpt>
      <trkpt lat="45.93658" lon="4.71939">
        <ele>175</ele>
        <time>2018-01-07T11:00:17Z</time>
      </trkpt>
      <trkpt lat="45.93656" lon="4.71946">
        <ele>175</ele>
        <time>2018-01-07T11:00:18Z</time>
      </trkpt>
      <trkpt lat="45.93654" lon="4.71953">
        <ele>175</ele>
        <time>2018-01-07T11:00:19Z</time>
      </trkpt>
      <trkpt lat="45.93651" lon="4.7196">
        <ele>175</ele>
        <time>2018-01-07T11:00:20Z</time>
      </trkpt>
      <trkpt lat="45.93649" lon="4.71967">
        <ele>175</ele>
        <time>2018-01-07T11:00:21Z</time>
      </trkpt>
      <trkpt lat="45.93646" lon="4.71973">
        <ele>175</ele>
        <time>2018-01-07T11:00:22Z</time>
      </trkpt>
      <trkpt lat="45.93643" lon="4.7198">
        <ele>175</ele>
        <time>2018-01-07T11:00:23Z</time>
      </trkpt>
      <trkpt lat="45.93639" lon="4.71987">
        <ele>175</ele>
        <time>2018-01-07T11:00:24Z</time>
      </trkpt>
      <trkpt lat="45.93635" lon="4.71994">
        <ele>175</ele>
        <time>2018-01-07T11:00:25Z</time>
      </trkpt>
      <trkpt lat="45.93631" lon="4.72">
        <ele>175</ele>
        <time>2018-01-07T11:00:26Z</time>
      </trkpt>
      <trkpt lat="45.93628" lon="4.72006">
        <ele>175</ele>
        <time>2018-01-07T11:00:27Z</time>
      </trkpt>
      <trkpt lat="45.93626" lon="4.72013">
        <ele>175</ele>
        <time>2018-01-07T11:00:28Z</time>
      </trkpt>
      <trkpt lat="45.93625" lon="4.72021">
        <ele>175</ele>
        <time>2018-01-07T11:00:29Z</time>
      </trkpt>
      <trkpt lat="45.93623" lon="4.72029">
        <ele>175</ele>
        <time>2018-01-07T11:00:30Z</time>
      </trkpt>
      <trkpt lat="45.9362" lon="4.72035">
        <ele>175</ele>
        <time>2018-01-07T11:00:31Z</time>
      </trkpt>
      <trkpt lat="45.93614" lon="4.72043">
        <ele>175</ele>
        <time>2018-01-07T11:00:32Z</time>
      </trkpt>
      <trkpt lat="45.93608" lon="4.72051">
        <ele>175</ele>
        <time>2018-01-07T11:00:34Z</time>
      </trkpt>
      <trkpt lat="45.93605" lon="4.72055">
        <ele>175</ele>
        <time>2018-01-07T11:00:35Z</time>
      </trkpt>
      <trkpt lat="45.93602" lon="4.72061">
        <ele>175</ele>
        <time>2018-01-07T11:00:36Z</time>
      </trkpt>
      <trkpt lat="45.93599" lon="4.72068">
        <ele>175</ele>
        <time>2018-01-07T11:00:37Z</time>
      </trkpt>
      <trkpt lat="45.93596" lon="4.72075">
        <ele>175</ele>
        <time>2018-01-07T11:00:38Z</time>
      </trkpt>
      <trkpt lat="45.93594" lon="4.72081">
        <ele>175</ele>
        <time>2018-01-07T11:00:39Z</time>
      </trkpt>
      <trkpt lat="45.93591" lon="4.72092">
        <ele>175</ele>
        <time>2018-01-07T11:00:41Z</time>
      </trkpt>
      <trkpt lat="45.9359" lon="4.72098">
        <ele>175</ele>
        <time>2018-01-07T11:00:42Z</time>
      </trkpt>
      <trkpt lat="45.93586" lon="4.72109">
        <ele>174</ele>
        <time>2018-01-07T11:00:44Z</time>
      </trkpt>
      <trkpt lat="45.93585" lon="4.72117">
        <ele>174</ele>
        <time>2018-01-07T11:00:45Z</time>
      </trkpt>
      <trkpt lat="45.93581" lon="4.72121">
        <ele>175</ele>
        <time>2018-01-07T11:00:46Z</time>
      </trkpt>
      <trkpt lat="45.9358" lon="4.7213">
        <ele>174</ele>
        <time>2018-01-07T11:00:47Z</time>
      </trkpt>
      <trkpt lat="45.93576" lon="4.72138">
        <ele>174</ele>
        <time>2018-01-07T11:00:48Z</time>
      </trkpt>
      <trkpt lat="45.93573" lon="4.72145">
        <ele>174</ele>
        <time>2018-01-07T11:00:49Z</time>
      </trkpt>
      <trkpt lat="45.93568" lon="4.72152">
        <ele>174</ele>
        <time>2018-01-07T11:00:50Z</time>
      </trkpt>
      <trkpt lat="45.93565" lon="4.72161">
        <ele>174</ele>
        <time>2018-01-07T11:00:51Z</time>
      </trkpt>
      <trkpt lat="45.93562" lon="4.72167">
        <ele>173</ele>
        <time>2018-01-07T11:00:52Z</time>
      </trkpt>
      <trkpt lat="45.93559" lon="4.72174">
        <ele>173</ele>
        <time>2018-01-07T11:00:53Z</time>
      </trkpt>
      <trkpt lat="45.93558" lon="4.72183">
        <ele>173</ele>
        <time>2018-01-07T11:00:54Z</time>
      </trkpt>
      <trkpt lat="45.93555" lon="4.7219">
        <ele>173</ele>
        <time>2018-01-07T11:00:55Z</time>
      </trkpt>
      <trkpt lat="45.93553" lon="4.72196">
        <ele>173</ele>
        <time>2018-01-07T11:00:56Z</time>
      </trkpt>
      <trkpt lat="45.9355" lon="4.72203">
        <ele>173</ele>
        <time>2018-01-07T11:00:57Z</time>
      </trkpt>
      <trkpt lat="45.93548" lon="4.7221">
        <ele>173</ele>
        <time>2018-01-07T11:00:58Z</time>
      </trkpt>
      <trkpt lat="45.93547" lon="4.72216">
        <ele>172</ele>
        <time>2018-01-07T11:00:59Z</time>
      </trkpt>
      <trkpt lat="45.93545" lon="4.72222">
        <ele>172</ele>
        <time>2018-01-07T11:01:00Z</time>
      </trkpt>
      <trkpt lat="45.93543" lon="4.72228">
        <ele>172</ele>
        <time>2018-01-07T11:01:01Z</time>
      </trkpt>
      <trkpt lat="45.93541" lon="4.72235">
        <ele>172</ele>
        <time>2018-01-07T11:01:02Z</time>
      </trkpt>
      <trkpt lat="45.93539" lon="4.7224">
        <ele>172</ele>
        <time>2018-01-07T11:01:03Z</time>
      </trkpt>
      <trkpt lat="45.93537" lon="4.72246">
        <ele>172</ele>
        <time>2018-01-07T11:01:04Z</time>
      </trkpt>
      <trkpt lat="45.93535" lon="4.72252">
        <ele>172</ele>
        <time>2018-01-07T11:01:05Z</time>
      </trkpt>
      <trkpt lat="45.93532" lon="4.72258">
        <ele>172</ele>
        <time>2018-01-07T11:01:06Z</time>
      </trkpt>
      <trkpt lat="45.93529" lon="4.72264">
        <ele>172</ele>
        <time>2018-01-07T11:01:07Z</time>
      </trkpt>
      <trkpt lat="45.93527" lon="4.7227">
        <ele>172</ele>
        <time>2018-01-07T11:01:08Z</time>
      </trkpt>
      <trkpt lat="45.93524" lon="4.72276">
        <ele>172</ele>
        <time>2018-01-07T11:01:09Z</time>
      </trkpt>
      <trkpt lat="45.93521" lon="4.72283">
        <ele>172</ele>
        <time>2018-01-07T11:01:10Z</time>
      </trkpt>
      <trkpt lat="45.93519" lon="4.7229">
        <ele>172</ele>
        <time>2018-01-07T11:01:11Z</time>
      </trkpt>
      <trkpt lat="45.93516" lon="4.72297">
        <ele>172</ele>
        <time>2018-01-07T11:01:12Z</time>
      </trkpt>
      <trkpt lat="45.93512" lon="4.72302">
        <ele>172</ele>
        <time>2018-01-07T11:01:13Z</time>
      </trkpt>
      <trkpt lat="45.93507" lon="4.72308">
        <ele>173</ele>
        <time>2018-01-07T11:01:14Z</time>
      </trkpt>
      <trkpt lat="45.93503" lon="4.72315">
        <ele>173</ele>
        <time>2018-01-07T11:01:15Z</time>
      </trkpt>
      <trkpt lat="45.935" lon="4.7232">
        <ele>173</ele>
        <time>2018-01-07T11:01:16Z</time>
      </trkpt>
      <trkpt lat="45.93496" lon="4.72325">
        <ele>173</ele>
        <time>2018-01-07T11:01:17Z</time>
      </trkpt>
      <trkpt lat="45.93491" lon="4.72332">
        <ele>173</ele>
        <time>2018-01-07T11:01:18Z</time>
      </trkpt>
      <trkpt lat="45.93487" lon="4.72338">
        <ele>173</ele>
        <time>2018-01-07T11:01:19Z</time>
      </trkpt>
      <trkpt lat="45.93482" lon="4.72344">
        <ele>173</ele>
        <time>2018-01-07T11:01:20Z</time>
      </trkpt>
      <trkpt lat="45.93478" lon="4.7235">
        <ele>173</ele>
        <time>2018-01-07T11:01:21Z</time>
      </trkpt>
      <trkpt lat="45.93474" lon="4.72355">
        <ele>173</ele>
        <time>2018-01-07T11:01:22Z</time>
      </trkpt>
      <trkpt lat="45.93469" lon="4.72361">
        <ele>173</ele>
        <time>2018-01-07T11:01:23Z</time>
      </trkpt>
      <trkpt lat="45.93465" lon="4.72367">
        <ele>173</ele>
        <time>2018-01-07T11:01:24Z</time>
      </trkpt>
      <trkpt lat="45.93461" lon="4.72372">
        <ele>173</ele>
        <time>2018-01-07T11:01:25Z</time>
      </trkpt>
      <trkpt lat="45.93456" lon="4.72378">
        <ele>173</ele>
        <time>2018-01-07T11:01:26Z</time>
      </trkpt>
      <trkpt lat="45.93451" lon="4.72383">
        <ele>173</ele>
        <time>2018-01-07T11:01:27Z</time>
      </trkpt>
      <trkpt lat="45.93446" lon="4.72387">
        <ele>173</ele>
        <time>2018-01-07T11:01:28Z</time>
      </trkpt>
      <trkpt lat="45.93442" lon="4.72391">
        <ele>173</ele>
        <time>2018-01-07T11:01:29Z</time>
      </trkpt>
      <trkpt lat="45.93436" lon="4.72395">
        <ele>173</ele>
        <time>2018-01-07T11:01:30Z</time>
      </trkpt>
      <trkpt lat="45.93431" lon="4.72398">
        <ele>174</ele>
        <time>2018-01-07T11:01:31Z</time>
      </trkpt>
      <trkpt lat="45.93427" lon="4.72401">
        <ele>174</ele>
        <time>2018-01-07T11:01:32Z</time>
      </trkpt>
      <trkpt lat="45.93422" lon="4.72403">
        <ele>174</ele>
        <time>2018-01-07T11:01:33Z</time>
      </trkpt>
      <trkpt lat="45.93417" lon="4.72406">
        <ele>174</ele>
        <time>2018-01-07T11:01:34Z</time>
      </trkpt>
      <trkpt lat="45.93412" lon="4.72409">
        <ele>174</ele>
        <time>2018-01-07T11:01:35Z</time>
      </trkpt>
      <trkpt lat="45.93408" lon="4.72409">
        <ele>174</ele>
        <time>2018-01-07T11:01:36Z</time>
      </trkpt>
      <trkpt lat="45.93402" lon="4.72406">
        <ele>174</ele>
        <time>2018-01-07T11:01:37Z</time>
      </trkpt>
      <trkpt lat="45.93397" lon="4.72405">
        <ele>174</ele>
        <time>2018-01-07T11:01:38Z</time>
      </trkpt>
      <trkpt lat="45.93391" lon="4.72404">
        <ele>174</ele>
        <time>2018-01-07T11:01:39Z</time>
      </trkpt>
      <trkpt lat="45.93386" lon="4.72408">
        <ele>174</ele>
        <time>2018-01-07T11:01:40Z</time>
      </trkpt>
      <trkpt lat="45.93382" lon="4.72411">
        <ele>174</ele>
        <time>2018-01-07T11:01:41Z</time>
      </trkpt>
      <trkpt lat="45.93382" lon="4.72419">
        <ele>173</ele>
        <time>2018-01-07T11:01:42Z</time>
      </trkpt>
      <trkpt lat="45.93383" lon="4.72427">
        <ele>173</ele>
        <time>2018-01-07T11:01:43Z</time>
      </trkpt>
      <trkpt lat="45.93386" lon="4.72434">
        <ele>173</ele>
        <time>2018-01-07T11:01:44Z</time>
      </trkpt>
      <trkpt lat="45.93388" lon="4.72441">
        <ele>173</ele>
        <time>2018-01-07T11:01:45Z</time>
      </trkpt>
      <trkpt lat="45.93391" lon="4.7245">
        <ele>173</ele>
        <time>2018-01-07T11:01:46Z</time>
      </trkpt>
      <trkpt lat="45.93391" lon="4.72457">
        <ele>173</ele>
        <time>2018-01-07T11:01:47Z</time>
      </trkpt>
      <trkpt lat="45.93386" lon="4.72467">
        <ele>173</ele>
        <time>2018-01-07T11:01:49Z</time>
      </trkpt>
      <trkpt lat="45.93382" lon="4.72472">
        <ele>173</ele>
        <time>2018-01-07T11:01:50Z</time>
      </trkpt>
      <trkpt lat="45.93378" lon="4.72476">
        <ele>173</ele>
        <time>2018-01-07T11:01:51Z</time>
      </trkpt>
      <trkpt lat="45.93373" lon="4.72483">
        <ele>173</ele>
        <time>2018-01-07T11:01:52Z</time>
      </trkpt>
      <trkpt lat="45.93368" lon="4.72487">
        <ele>173</ele>
        <time>2018-01-07T11:01:53Z</time>
      </trkpt>
      <trkpt lat="45.93364" lon="4.72492">
        <ele>173</ele>
        <time>2018-01-07T11:01:54Z</time>
      </trkpt>
      <trkpt lat="45.93359" lon="4.72499">
        <ele>173</ele>
        <time>2018-01-07T11:01:55Z</time>
      </trkpt>
      <trkpt lat="45.93354" lon="4.72504">
        <ele>172</ele>
        <time>2018-01-07T11:01:56Z</time>
      </trkpt>
      <trkpt lat="45.9335" lon="4.72509">
        <ele>172</ele>
        <time>2018-01-07T11:01:57Z</time>
      </trkpt>
      <trkpt lat="45.93346" lon="4.72516">
        <ele>172</ele>
        <time>2018-01-07T11:01:58Z</time>
      </trkpt>
      <trkpt lat="45.93341" lon="4.72523">
        <ele>172</ele>
        <time>2018-01-07T11:01:59Z</time>
      </trkpt>
      <trkpt lat="45.93335" lon="4.7253">
        <ele>172</ele>
        <time>2018-01-07T11:02:00Z</time>
      </trkpt>
      <trkpt lat="45.93331" lon="4.72535">
        <ele>172</ele>
        <time>2018-01-07T11:02:01Z</time>
      </trkpt>
      <trkpt lat="45.93325" lon="4.72541">
        <ele>172</ele>
        <time>2018-01-07T11:02:02Z</time>
      </trkpt>
      <trkpt lat="45.93321" lon="4.72546">
        <ele>172</ele>
        <time>2018-01-07T11:02:03Z</time>
      </trkpt>
      <trkpt lat="45.93315" lon="4.72551">
        <ele>172</ele>
        <time>2018-01-07T11:02:04Z</time>
      </trkpt>
      <trkpt lat="45.9331" lon="4.72557">
        <ele>172</ele>
        <time>2018-01-07T11:02:05Z</time>
      </trkpt>
      <trkpt lat="45.93306" lon="4.72563">
        <ele>171</ele>
        <time>2018-01-07T11:02:06Z</time>
      </trkpt>
      <trkpt lat="45.93302" lon="4.72568">
        <ele>171</ele>
        <time>2018-01-07T11:02:07Z</time>
      </trkpt>
      <trkpt lat="45.93297" lon="4.72573">
        <ele>171</ele>
        <time>2018-01-07T11:02:08Z</time>
      </trkpt>
      <trkpt lat="45.93292" lon="4.72579">
        <ele>171</ele>
        <time>2018-01-07T11:02:09Z</time>
      </trkpt>
      <trkpt lat="45.93288" lon="4.72584">
        <ele>170</ele>
        <time>2018-01-07T11:02:10Z</time>
      </trkpt>
      <trkpt lat="45.93284" lon="4.72589">
        <ele>170</ele>
        <time>2018-01-07T11:02:11Z</time>
      </trkpt>
      <trkpt lat="45.93279" lon="4.72596">
        <ele>170</ele>
        <time>2018-01-07T11:02:12Z</time>
      </trkpt>
      <trkpt lat="45.93274" lon="4.726">
        <ele>170</ele>
        <time>2018-01-07T11:02:13Z</time>
      </trkpt>
      <trkpt lat="45.93269" lon="4.72606">
        <ele>170</ele>
        <time>2018-01-07T11:02:14Z</time>
      </trkpt>
      <trkpt lat="45.93263" lon="4.72611">
        <ele>170</ele>
        <time>2018-01-07T11:02:15Z</time>
      </trkpt>
      <trkpt lat="45.93258" lon="4.72617">
        <ele>170</ele>
        <time>2018-01-07T11:02:16Z</time>
      </trkpt>
      <trkpt lat="45.93253" lon="4.72622">
        <ele>170</ele>
        <time>2018-01-07T11:02:17Z</time>
      </trkpt>
      <trkpt lat="45.93248" lon="4.72627">
        <ele>170</ele>
        <time>2018-01-07T11:02:18Z</time>
      </trkpt>
      <trkpt lat="45.93242" lon="4.72633">
        <ele>170</ele>
        <time>2018-01-07T11:02:19Z</time>
      </trkpt>
      <trkpt lat="45.93238" lon="4.72638">
        <ele>170</ele>
        <time>2018-01-07T11:02:20Z</time>
      </trkpt>
      <trkpt lat="45.93233" lon="4.72644">
        <ele>170</ele>
        <time>2018-01-07T11:02:21Z</time>
      </trkpt>
      <trkpt lat="45.93228" lon="4.72649">
        <ele>170</ele>
        <time>2018-01-07T11:02:22Z</time>
      </trkpt>
      <trkpt lat="45.93223" lon="4.72654">
        <ele>170</ele>
        <time>2018-01-07T11:02:23Z</time>
      </trkpt>
      <trkpt lat="45.93219" lon="4.72658">
        <ele>170</ele>
        <time>2018-01-07T11:02:24Z</time>
      </trkpt>
      <trkpt lat="45.93214" lon="4.72664">
        <ele>170</ele>
        <time>2018-01-07T11:02:25Z</time>
      </trkpt>
      <trkpt lat="45.93209" lon="4.72671">
        <ele>169</ele>
        <time>2018-01-07T11:02:26Z</time>
      </trkpt>
      <trkpt lat="45.93202" lon="4.72678">
        <ele>169</ele>
        <time>2018-01-07T11:02:27Z</time>
      </trkpt>
      <trkpt lat="45.93197" lon="4.72684">
        <ele>169</ele>
        <time>2018-01-07T11:02:28Z</time>
      </trkpt>
      <trkpt lat="45.93192" lon="4.7269">
        <ele>169</ele>
        <time>2018-01-07T11:02:29Z</time>
      </trkpt>
      <trkpt lat="45.93187" lon="4.72697">
        <ele>169</ele>
        <time>2018-01-07T11:02:30Z</time>
      </trkpt>
      <trkpt lat="45.93182" lon="4.72701">
        <ele>169</ele>
        <time>2018-01-07T11:02:31Z</time>
      </trkpt>
      <trkpt lat="45.93177" lon="4.72707">
        <ele>169</ele>
        <time>2018-01-07T11:02:32Z</time>
      </trkpt>
      <trkpt lat="45.93172" lon="4.72712">
        <ele>170</ele>
        <time>2018-01-07T11:02:33Z</time>
      </trkpt>
      <trkpt lat="45.93166" lon="4.72718">
        <ele>170</ele>
        <time>2018-01-07T11:02:34Z</time>
      </trkpt>
      <trkpt lat="45.93161" lon="4.72723">
        <ele>170</ele>
        <time>2018-01-07T11:02:35Z</time>
      </trkpt>
      <trkpt lat="45.93156" lon="4.72728">
        <ele>170</ele>
        <time>2018-01-07T11:02:36Z</time>
      </trkpt>
      <trkpt lat="45.93151" lon="4.72733">
        <ele>170</ele>
        <time>2018-01-07T11:02:37Z</time>
      </trkpt>
      <trkpt lat="45.93146" lon="4.72738">
        <ele>170</ele>
        <time>2018-01-07T11:02:38Z</time>
      </trkpt>
      <trkpt lat="45.93141" lon="4.72744">
        <ele>170</ele>
        <time>2018-01-07T11:02:39Z</time>
      </trkpt>
      <trkpt lat="45.93136" lon="4.7275">
        <ele>170</ele>
        <time>2018-01-07T11:02:40Z</time>
      </trkpt>
      <trkpt lat="45.93131" lon="4.72755">
        <ele>171</ele>
        <time>2018-01-07T11:02:41Z</time>
      </trkpt>
      <trkpt lat="45.93126" lon="4.72762">
        <ele>171</ele>
        <time>2018-01-07T11:02:42Z</time>
      </trkpt>
      <trkpt lat="45.93121" lon="4.72768">
        <ele>171</ele>
        <time>2018-01-07T11:02:43Z</time>
      </trkpt>
      <trkpt lat="45.93117" lon="4.72773">
        <ele>171</ele>
        <time>2018-01-07T11:02:44Z</time>
      </trkpt>
      <trkpt lat="45.93113" lon="4.72778">
        <ele>171</ele>
        <time>2018-01-07T11:02:45Z</time>
      </trkpt>
      <trkpt lat="45.9311" lon="4.72785">
        <ele>171</ele>
        <time>2018-01-07T11:02:46Z</time>
      </trkpt>
      <trkpt lat="45.93105" lon="4.7279">
        <ele>171</ele>
        <time>2018-01-07T11:02:47Z</time>
      </trkpt>
      <trkpt lat="45.93101" lon="4.72795">
        <ele>171</ele>
        <time>2018-01-07T11:02:48Z</time>
      </trkpt>
      <trkpt lat="45.93096" lon="4.72801">
        <ele>171</ele>
        <time>2018-01-07T11:02:49Z</time>
      </trkpt>
      <trkpt lat="45.93091" lon="4.72805">
        <ele>172</ele>
        <time>2018-01-07T11:02:50Z</time>
      </trkpt>
      <trkpt lat="45.93086" lon="4.72811">
        <ele>172</ele>
        <time>2018-01-07T11:02:51Z</time>
      </trkpt>
      <trkpt lat="45.93081" lon="4.72816">
        <ele>172</ele>
        <time>2018-01-07T11:02:52Z</time>
      </trkpt>
      <trkpt lat="45.93074" lon="4.72824">
        <ele>173</ele>
        <time>2018-01-07T11:02:54Z</time>
      </trkpt>
      <trkpt lat="45.93068" lon="4.7283">
        <ele>173</ele>
        <time>2018-01-07T11:02:55Z</time>
      </trkpt>
      <trkpt lat="45.93064" lon="4.72834">
        <ele>173</ele>
        <time>2018-01-07T11:02:56Z</time>
      </trkpt>
      <trkpt lat="45.93058" lon="4.72838">
        <ele>172</ele>
        <time>2018-01-07T11:02:57Z</time>
      </trkpt>
      <trkpt lat="45.9306" lon="4.72848">
        <ele>172</ele>
        <time>2018-01-07T11:02:58Z</time>
      </trkpt>
      <trkpt lat="45.93052" lon="4.72853">
        <ele>172</ele>
        <time>2018-01-07T11:02:59Z</time>
      </trkpt>
      <trkpt lat="45.93045" lon="4.7286">
        <ele>172</ele>
        <time>2018-01-07T11:03:00Z</time>
      </trkpt>
      <trkpt lat="45.93041" lon="4.72865">
        <ele>172</ele>
        <time>2018-01-07T11:03:01Z</time>
      </trkpt>
      <trkpt lat="45.93037" lon="4.7287">
        <ele>172</ele>
        <time>2018-01-07T11:03:02Z</time>
      </trkpt>
      <trkpt lat="45.93032" lon="4.72876">
        <ele>172</ele>
        <time>2018-01-07T11:03:03Z</time>
      </trkpt>
      <trkpt lat="45.93029" lon="4.7288">
        <ele>172</ele>
        <time>2018-01-07T11:03:04Z</time>
      </trkpt>
      <trkpt lat="45.93025" lon="4.72886">
        <ele>172</ele>
        <time>2018-01-07T11:03:05Z</time>
      </trkpt>
      <trkpt lat="45.9302" lon="4.72891">
        <ele>172</ele>
        <time>2018-01-07T11:03:06Z</time>
      </trkpt>
      <trkpt lat="45.93015" lon="4.72896">
        <ele>172</ele>
        <time>2018-01-07T11:03:07Z</time>
      </trkpt>
      <trkpt lat="45.9301" lon="4.72901">
        <ele>172</ele>
        <time>2018-01-07T11:03:08Z</time>
      </trkpt>
      <trkpt lat="45.93007" lon="4.72906">
        <ele>171</ele>
        <time>2018-01-07T11:03:09Z</time>
      </trkpt>
      <trkpt lat="45.93003" lon="4.7291">
        <ele>171</ele>
        <time>2018-01-07T11:03:10Z</time>
      </trkpt>
      <trkpt lat="45.92999" lon="4.72915">
        <ele>171</ele>
        <time>2018-01-07T11:03:11Z</time>
      </trkpt>
      <trkpt lat="45.92995" lon="4.72921">
        <ele>171</ele>
        <time>2018-01-07T11:03:12Z</time>
      </trkpt>
      <trkpt lat="45.92991" lon="4.72925">
        <ele>171</ele>
        <time>2018-01-07T11:03:13Z</time>
      </trkpt>
      <trkpt lat="45.92986" lon="4.7293">
        <ele>171</ele>
        <time>2018-01-07T11:03:14Z</time>
      </trkpt>
      <trkpt lat="45.92982" lon="4.72935">
        <ele>171</ele>
        <time>2018-01-07T11:03:15Z</time>
      </trkpt>
      <trkpt lat="45.92978" lon="4.7294">
        <ele>171</ele>
        <time>2018-01-07T11:03:16Z</time>
      </trkpt>
      <trkpt lat="45.92974" lon="4.72945">
        <ele>171</ele>
        <time>2018-01-07T11:03:17Z</time>
      </trkpt>
      <trkpt lat="45.9297" lon="4.7295">
        <ele>171</ele>
        <time>2018-01-07T11:03:18Z</time>
      </trkpt>
      <trkpt lat="45.92967" lon="4.72954">
        <ele>171</ele>
        <time>2018-01-07T11:03:19Z</time>
      </trkpt>
      <trkpt lat="45.92962" lon="4.72959">
        <ele>171</ele>
        <time>2018-01-07T11:03:20Z</time>
      </trkpt>
      <trkpt lat="45.92959" lon="4.72965">
        <ele>171</ele>
        <time>2018-01-07T11:03:21Z</time>
      </trkpt>
      <trkpt lat="45.92955" lon="4.72969">
        <ele>171</ele>
        <time>2018-01-07T11:03:22Z</time>
      </trkpt>
      <trkpt lat="45.92951" lon="4.72975">
        <ele>171</ele>
        <time>2018-01-07T11:03:23Z</time>
      </trkpt>
      <trkpt lat="45.92946" lon="4.7298">
        <ele>171</ele>
        <time>2018-01-07T11:03:24Z</time>
      </trkpt>
      <trkpt lat="45.92942" lon="4.72985">
        <ele>171</ele>
        <time>2018-01-07T11:03:25Z</time>
      </trkpt>
      <trkpt lat="45.92938" lon="4.72991">
        <ele>171</ele>
        <time>2018-01-07T11:03:26Z</time>
      </trkpt>
      <trkpt lat="45.92933" lon="4.72995">
        <ele>172</ele>
        <time>2018-01-07T11:03:27Z</time>
      </trkpt>
      <trkpt lat="45.9293" lon="4.73">
        <ele>172</ele>
        <time>2018-01-07T11:03:28Z</time>
      </trkpt>
      <trkpt lat="45.92925" lon="4.73005">
        <ele>172</ele>
        <time>2018-01-07T11:03:29Z</time>
      </trkpt>
      <trkpt lat="45.9292" lon="4.73011">
        <ele>172</ele>
        <time>2018-01-07T11:03:30Z</time>
      </trkpt>
      <trkpt lat="45.92916" lon="4.73016">
        <ele>172</ele>
        <time>2018-01-07T11:03:31Z</time>
      </trkpt>
      <trkpt lat="45.92911" lon="4.73022">
        <ele>172</ele>
        <time>2018-01-07T11:03:32Z</time>
      </trkpt>
      <trkpt lat="45.92907" lon="4.73027">
        <ele>172</ele>
        <time>2018-01-07T11:03:33Z</time>
      </trkpt>
      <trkpt lat="45.92903" lon="4.73032">
        <ele>172</ele>
        <time>2018-01-07T11:03:34Z</time>
      </trkpt>
      <trkpt lat="45.92899" lon="4.73039">
        <ele>172</ele>
        <time>2018-01-07T11:03:35Z</time>
      </trkpt>
      <trkpt lat="45.92895" lon="4.73046">
        <ele>172</ele>
        <time>2018-01-07T11:03:36Z</time>
      </trkpt>
      <trkpt lat="45.92891" lon="4.73052">
        <ele>172</ele>
        <time>2018-01-07T11:03:37Z</time>
      </trkpt>
      <trkpt lat="45.92888" lon="4.73058">
        <ele>172</ele>
        <time>2018-01-07T11:03:38Z</time>
      </trkpt>
      <trkpt lat="45.92884" lon="4.73065">
        <ele>172</ele>
        <time>2018-01-07T11:03:39Z</time>
      </trkpt>
      <trkpt lat="45.9288" lon="4.7307">
        <ele>172</ele>
        <time>2018-01-07T11:03:40Z</time>
      </trkpt>
      <trkpt lat="45.92877" lon="4.73074">
        <ele>172</ele>
        <time>2018-01-07T11:03:41Z</time>
      </trkpt>
      <trkpt lat="45.92874" lon="4.73079">
        <ele>172</ele>
        <time>2018-01-07T11:03:42Z</time>
      </trkpt>
      <trkpt lat="45.9287" lon="4.73084">
        <ele>172</ele>
        <time>2018-01-07T11:03:43Z</time>
      </trkpt>
      <trkpt lat="45.92866" lon="4.73088">
        <ele>172</ele>
        <time>2018-01-07T11:03:44Z</time>
      </trkpt>
      <trkpt lat="45.92862" lon="4.73093">
        <ele>171</ele>
        <time>2018-01-07T11:03:45Z</time>
      </trkpt>
      <trkpt lat="45.92859" lon="4.73099">
        <ele>171</ele>
        <time>2018-01-07T11:03:46Z</time>
      </trkpt>
      <trkpt lat="45.92855" lon="4.73103">
        <ele>171</ele>
        <time>2018-01-07T11:03:47Z</time>
      </trkpt>
      <trkpt lat="45.92847" lon="4.73098">
        <ele>171</ele>
        <time>2018-01-07T11:03:49Z</time>
      </trkpt>
      <trkpt lat="45.92844" lon="4.73093">
        <ele>171</ele>
        <time>2018-01-07T11:03:50Z</time>
      </trkpt>
      <trkpt lat="45.92843" lon="4.73085">
        <ele>171</ele>
        <time>2018-01-07T11:03:51Z</time>
      </trkpt>
      <trkpt lat="45.92843" lon="4.73077">
        <ele>171</ele>
        <time>2018-01-07T11:03:52Z</time>
      </trkpt>
      <trkpt lat="45.92843" lon="4.73068">
        <ele>171</ele>
        <time>2018-01-07T11:03:53Z</time>
      </trkpt>
      <trkpt lat="45.92843" lon="4.73061">
        <ele>171</ele>
        <time>2018-01-07T11:03:54Z</time>
      </trkpt>
      <trkpt lat="45.92841" lon="4.73054">
        <ele>171</ele>
        <time>2018-01-07T11:03:55Z</time>
      </trkpt>
      <trkpt lat="45.9284" lon="4.73047">
        <ele>171</ele>
        <time>2018-01-07T11:03:56Z</time>
      </trkpt>
      <trkpt lat="45.92838" lon="4.73039">
        <ele>171</ele>
        <time>2018-01-07T11:03:57Z</time>
      </trkpt>
      <trkpt lat="45.92837" lon="4.73031">
        <ele>171</ele>
        <time>2018-01-07T11:03:58Z</time>
      </trkpt>
      <trkpt lat="45.92835" lon="4.73023">
        <ele>171</ele>
        <time>2018-01-07T11:03:59Z</time>
      </trkpt>
      <trkpt lat="45.92834" lon="4.73016">
        <ele>171</ele>
        <time>2018-01-07T11:04:00Z</time>
      </trkpt>
      <trkpt lat="45.92833" lon="4.73008">
        <ele>170</ele>
        <time>2018-01-07T11:04:01Z</time>
      </trkpt>
      <trkpt lat="45.92833" lon="4.73001">
        <ele>170</ele>
        <time>2018-01-07T11:04:02Z</time>
      </trkpt>
      <trkpt lat="45.92832" lon="4.72994">
        <ele>170</ele>
        <time>2018-01-07T11:04:03Z</time>
      </trkpt>
      <trkpt lat="45.92831" lon="4.72987">
        <ele>170</ele>
        <time>2018-01-07T11:04:04Z</time>
      </trkpt>
      <trkpt lat="45.9283" lon="4.72979">
        <ele>170</ele>
        <time>2018-01-07T11:04:05Z</time>
      </trkpt>
      <trkpt lat="45.9283" lon="4.72973">
        <ele>170</ele>
        <time>2018-01-07T11:04:06Z</time>
      </trkpt>
      <trkpt lat="45.92828" lon="4.72967">
        <ele>170</ele>
        <time>2018-01-07T11:04:07Z</time>
      </trkpt>
      <trkpt lat="45.92828" lon="4.7296">
        <ele>170</ele>
        <time>2018-01-07T11:04:08Z</time>
      </trkpt>
      <trkpt lat="45.92827" lon="4.72954">
        <ele>170</ele>
        <time>2018-01-07T11:04:09Z</time>
      </trkpt>
      <trkpt lat="45.92827" lon="4.72947">
        <ele>170</ele>
        <time>2018-01-07T11:04:10Z</time>
      </trkpt>
      <trkpt lat="45.92826" lon="4.72941">
        <ele>170</ele>
        <time>2018-01-07T11:04:11Z</time>
      </trkpt>
      <trkpt lat="45.92826" lon="4.72933">
        <ele>170</ele>
        <time>2018-01-07T11:04:12Z</time>
      </trkpt>
      <trkpt lat="45.92823" lon="4.72921">
        <ele>170</ele>
        <time>2018-01-07T11:04:14Z</time>
      </trkpt>
      <trkpt lat="45.92823" lon="4.72913">
        <ele>170</ele>
        <time>2018-01-07T11:04:15Z</time>
      </trkpt>
      <trkpt lat="45.92822" lon="4.729">
        <ele>170</ele>
        <time>2018-01-07T11:04:17Z</time>
      </trkpt>
      <trkpt lat="45.92821" lon="4.72893">
        <ele>170</ele>
        <time>2018-01-07T11:04:18Z</time>
      </trkpt>
      <trkpt lat="45.9282" lon="4.72881">
        <ele>170</ele>
        <time>2018-01-07T11:04:20Z</time>
      </trkpt>
      <trkpt lat="45.92819" lon="4.72875">
        <ele>170</ele>
        <time>2018-01-07T11:04:21Z</time>
      </trkpt>
      <trkpt lat="45.92817" lon="4.72867">
        <ele>170</ele>
        <time>2018-01-07T11:04:22Z</time>
      </trkpt>
      <trkpt lat="45.92816" lon="4.72862">
        <ele>170</ele>
        <time>2018-01-07T11:04:23Z</time>
      </trkpt>
      <trkpt lat="45.92814" lon="4.72855">
        <ele>170</ele>
        <time>2018-01-07T11:04:24Z</time>
      </trkpt>
      <trkpt lat="45.92812" lon="4.72848">
        <ele>170</ele>
        <time>2018-01-07T11:04:25Z</time>
      </trkpt>
      <trkpt lat="45.9281" lon="4.72841">
        <ele>170</ele>
        <time>2018-01-07T11:04:26Z</time>
      </trkpt>
      <trkpt lat="45.92808" lon="4.72835">
        <ele>170</ele>
        <time>2018-01-07T11:04:27Z</time>
      </trkpt>
      <trkpt lat="45.92806" lon="4.72824">
        <ele>171</ele>
        <time>2018-01-07T11:04:29Z</time>
      </trkpt>
      <trkpt lat="45.92805" lon="4.72817">
        <ele>171</ele>
        <time>2018-01-07T11:04:30Z</time>
      </trkpt>
      <trkpt lat="45.92804" lon="4.72805">
        <ele>171</ele>
        <time>2018-01-07T11:04:32Z</time>
      </trkpt>
      <trkpt lat="45.92802" lon="4.72798">
        <ele>171</ele>
        <time>2018-01-07T11:04:33Z</time>
      </trkpt>
      <trkpt lat="45.92798" lon="4.72788">
        <ele>171</ele>
        <time>2018-01-07T11:04:35Z</time>
      </trkpt>
      <trkpt lat="45.92794" lon="4.72786">
        <ele>171</ele>
        <time>2018-01-07T11:04:36Z</time>
      </trkpt>
      <trkpt lat="45.92786" lon="4.72789">
        <ele>170</ele>
        <time>2018-01-07T11:04:38Z</time>
      </trkpt>
      <trkpt lat="45.92783" lon="4.72791">
        <ele>170</ele>
        <time>2018-01-07T11:04:39Z</time>
      </trkpt>
      <trkpt lat="45.9278" lon="4.72795">
        <ele>170</ele>
        <time>2018-01-07T11:04:40Z</time>
      </trkpt>
      <trkpt lat="45.92776" lon="4.72799">
        <ele>170</ele>
        <time>2018-01-07T11:04:41Z</time>
      </trkpt>
      <trkpt lat="45.92771" lon="4.72802">
        <ele>170</ele>
        <time>2018-01-07T11:04:42Z</time>
      </trkpt>
      <trkpt lat="45.92766" lon="4.72805">
        <ele>170</ele>
        <time>2018-01-07T11:04:43Z</time>
      </trkpt>
      <trkpt lat="45.92761" lon="4.7281">
        <ele>170</ele>
        <time>2018-01-07T11:04:44Z</time>
      </trkpt>
      <trkpt lat="45.92757" lon="4.72814">
        <ele>170</ele>
        <time>2018-01-07T11:04:45Z</time>
      </trkpt>
      <trkpt lat="45.92752" lon="4.72818">
        <ele>170</ele>
        <time>2018-01-07T11:04:46Z</time>
      </trkpt>
      <trkpt lat="45.92747" lon="4.72822">
        <ele>169</ele>
        <time>2018-01-07T11:04:47Z</time>
      </trkpt>
      <trkpt lat="45.92742" lon="4.72824">
        <ele>169</ele>
        <time>2018-01-07T11:04:48Z</time>
      </trkpt>
      <trkpt lat="45.92737" lon="4.72828">
        <ele>169</ele>
        <time>2018-01-07T11:04:49Z</time>
      </trkpt>
      <trkpt lat="45.92732" lon="4.72832">
        <ele>169</ele>
        <time>2018-01-07T11:04:50Z</time>
      </trkpt>
      <trkpt lat="45.92728" lon="4.72835">
        <ele>169</ele>
        <time>2018-01-07T11:04:51Z</time>
      </trkpt>
      <trkpt lat="45.92723" lon="4.72838">
        <ele>169</ele>
        <time>2018-01-07T11:04:52Z</time>
      </trkpt>
      <trkpt lat="45.92719" lon="4.7284">
        <ele>169</ele>
        <time>2018-01-07T11:04:53Z</time>
      </trkpt>
      <trkpt lat="45.92714" lon="4.72843">
        <ele>169</ele>
        <time>2018-01-07T11:04:54Z</time>
      </trkpt>
      <trkpt lat="45.9271" lon="4.72846">
        <ele>169</ele>
        <time>2018-01-07T11:04:55Z</time>
      </trkpt>
      <trkpt lat="45.92705" lon="4.72849">
        <ele>169</ele>
        <time>2018-01-07T11:04:56Z</time>
      </trkpt>
      <trkpt lat="45.92699" lon="4.72853">
        <ele>169</ele>
        <time>2018-01-07T11:04:57Z</time>
      </trkpt>
      <trkpt lat="45.92693" lon="4.72857">
        <ele>169</ele>
        <time>2018-01-07T11:04:58Z</time>
      </trkpt>
      <trkpt lat="45.92687" lon="4.72863">
        <ele>169</ele>
        <time>2018-01-07T11:04:59Z</time>
      </trkpt>
      <trkpt lat="45.92681" lon="4.72867">
        <ele>169</ele>
        <time>2018-01-07T11:05:00Z</time>
      </trkpt>
      <trkpt lat="45.92677" lon="4.72872">
        <ele>169</ele>
        <time>2018-01-07T11:05:01Z</time>
      </trkpt>
      <trkpt lat="45.92671" lon="4.72878">
        <ele>170</ele>
        <time>2018-01-07T11:05:02Z</time>
      </trkpt>
      <trkpt lat="45.92666" lon="4.72882">
        <ele>169</ele>
        <time>2018-01-07T11:05:03Z</time>
      </trkpt>
      <trkpt lat="45.92661" lon="4.72886">
        <ele>169</ele>
        <time>2018-01-07T11:05:04Z</time>
      </trkpt>
      <trkpt lat="45.92656" lon="4.72892">
        <ele>169</ele>
        <time>2018-01-07T11:05:05Z</time>
      </trkpt>
      <trkpt lat="45.9265" lon="4.72896">
        <ele>169</ele>
        <time>2018-01-07T11:05:06Z</time>
      </trkpt>
      <trkpt lat="45.92645" lon="4.72899">
        <ele>169</ele>
        <time>2018-01-07T11:05:07Z</time>
      </trkpt>
      <trkpt lat="45.9264" lon="4.72904">
        <ele>169</ele>
        <time>2018-01-07T11:05:08Z</time>
      </trkpt>
      <trkpt lat="45.92635" lon="4.7291">
        <ele>169</ele>
        <time>2018-01-07T11:05:09Z</time>
      </trkpt>
      <trkpt lat="45.9263" lon="4.72916">
        <ele>169</ele>
        <time>2018-01-07T11:05:10Z</time>
      </trkpt>
      <trkpt lat="45.92624" lon="4.72921">
        <ele>169</ele>
        <time>2018-01-07T11:05:11Z</time>
      </trkpt>
      <trkpt lat="45.92619" lon="4.72925">
        <ele>169</ele>
        <time>2018-01-07T11:05:12Z</time>
      </trkpt>
      <trkpt lat="45.92613" lon="4.72928">
        <ele>169</ele>
        <time>2018-01-07T11:05:13Z</time>
      </trkpt>
      <trkpt lat="45.92607" lon="4.72934">
        <ele>169</ele>
        <time>2018-01-07T11:05:14Z</time>
      </trkpt>
      <trkpt lat="45.92601" lon="4.72939">
        <ele>169</ele>
        <time>2018-01-07T11:05:15Z</time>
      </trkpt>
      <trkpt lat="45.92595" lon="4.72945">
        <ele>169</ele>
        <time>2018-01-07T11:05:16Z</time>
      </trkpt>
      <trkpt lat="45.92591" lon="4.72952">
        <ele>169</ele>
        <time>2018-01-07T11:05:17Z</time>
      </trkpt>
      <trkpt lat="45.92585" lon="4.72958">
        <ele>169</ele>
        <time>2018-01-07T11:05:18Z</time>
      </trkpt>
      <trkpt lat="45.92579" lon="4.72965">
        <ele>169</ele>
        <time>2018-01-07T11:05:19Z</time>
      </trkpt>
      <trkpt lat="45.92574" lon="4.72971">
        <ele>169</ele>
        <time>2018-01-07T11:05:20Z</time>
      </trkpt>
      <trkpt lat="45.92569" lon="4.72975">
        <ele>169</ele>
        <time>2018-01-07T11:05:21Z</time>
      </trkpt>
      <trkpt lat="45.92564" lon="4.7298">
        <ele>169</ele>
        <time>2018-01-07T11:05:22Z</time>
      </trkpt>
      <trkpt lat="45.9256" lon="4.72984">
        <ele>169</ele>
        <time>2018-01-07T11:05:23Z</time>
      </trkpt>
      <trkpt lat="45.92555" lon="4.72988">
        <ele>169</ele>
        <time>2018-01-07T11:05:24Z</time>
      </trkpt>
      <trkpt lat="45.92551" lon="4.72993">
        <ele>169</ele>
        <time>2018-01-07T11:05:25Z</time>
      </trkpt>
      <trkpt lat="45.92546" lon="4.72999">
        <ele>169</ele>
        <time>2018-01-07T11:05:26Z</time>
      </trkpt>
      <trkpt lat="45.92541" lon="4.73004">
        <ele>169</ele>
        <time>2018-01-07T11:05:27Z</time>
      </trkpt>
      <trkpt lat="45.92537" lon="4.73008">
        <ele>169</ele>
        <time>2018-01-07T11:05:28Z</time>
      </trkpt>
      <trkpt lat="45.92532" lon="4.73013">
        <ele>169</ele>
        <time>2018-01-07T11:05:29Z</time>
      </trkpt>
      <trkpt lat="45.92528" lon="4.73018">
        <ele>169</ele>
        <time>2018-01-07T11:05:30Z</time>
      </trkpt>
      <trkpt lat="45.92523" lon="4.73022">
        <ele>169</ele>
        <time>2018-01-07T11:05:31Z</time>
      </trkpt>
      <trkpt lat="45.92518" lon="4.73026">
        <ele>169</ele>
        <time>2018-01-07T11:05:32Z</time>
      </trkpt>
      <trkpt lat="45.92513" lon="4.7303">
        <ele>169</ele>
        <time>2018-01-07T11:05:33Z</time>
      </trkpt>
      <trkpt lat="45.92509" lon="4.73035">
        <ele>169</ele>
        <time>2018-01-07T11:05:34Z</time>
      </trkpt>
      <trkpt lat="45.92504" lon="4.7304">
        <ele>169</ele>
        <time>2018-01-07T11:05:35Z</time>
      </trkpt>
      <trkpt lat="45.92499" lon="4.73043">
        <ele>170</ele>
        <time>2018-01-07T11:05:36Z</time>
      </trkpt>
      <trkpt lat="45.92494" lon="4.73048">
        <ele>170</ele>
        <time>2018-01-07T11:05:37Z</time>
      </trkpt>
      <trkpt lat="45.92489" lon="4.73052">
        <ele>170</ele>
        <time>2018-01-07T11:05:38Z</time>
      </trkpt>
      <trkpt lat="45.92484" lon="4.73058">
        <ele>170</ele>
        <time>2018-01-07T11:05:39Z</time>
      </trkpt>
      <trkpt lat="45.92479" lon="4.73062">
        <ele>170</ele>
        <time>2018-01-07T11:05:40Z</time>
      </trkpt>
      <trkpt lat="45.92473" lon="4.73067">
        <ele>170</ele>
        <time>2018-01-07T11:05:41Z</time>
      </trkpt>
      <trkpt lat="45.92468" lon="4.7307">
        <ele>170</ele>
        <time>2018-01-07T11:05:42Z</time>
      </trkpt>
      <trkpt lat="45.92463" lon="4.73073">
        <ele>170</ele>
        <time>2018-01-07T11:05:43Z</time>
      </trkpt>
      <trkpt lat="45.92458" lon="4.73078">
        <ele>170</ele>
        <time>2018-01-07T11:05:44Z</time>
      </trkpt>
      <trkpt lat="45.92454" lon="4.73081">
        <ele>170</ele>
        <time>2018-01-07T11:05:45Z</time>
      </trkpt>
      <trkpt lat="45.92448" lon="4.73085">
        <ele>170</ele>
        <time>2018-01-07T11:05:46Z</time>
      </trkpt>
      <trkpt lat="45.92444" lon="4.7309">
        <ele>170</ele>
        <time>2018-01-07T11:05:47Z</time>
      </trkpt>
      <trkpt lat="45.92439" lon="4.73093">
        <ele>171</ele>
        <time>2018-01-07T11:05:48Z</time>
      </trkpt>
      <trkpt lat="45.92433" lon="4.73096">
        <ele>171</ele>
        <time>2018-01-07T11:05:49Z</time>
      </trkpt>
      <trkpt lat="45.92428" lon="4.73099">
        <ele>171</ele>
        <time>2018-01-07T11:05:50Z</time>
      </trkpt>
      <trkpt lat="45.92424" lon="4.73102">
        <ele>171</ele>
        <time>2018-01-07T11:05:51Z</time>
      </trkpt>
      <trkpt lat="45.92418" lon="4.73106">
        <ele>171</ele>
        <time>2018-01-07T11:05:52Z</time>
      </trkpt>
      <trkpt lat="45.92415" lon="4.7311">
        <ele>171</ele>
        <time>2018-01-07T11:05:53Z</time>
      </trkpt>
      <trkpt lat="45.92411" lon="4.73116">
        <ele>171</ele>
        <time>2018-01-07T11:05:54Z</time>
      </trkpt>
      <trkpt lat="45.92409" lon="4.73123">
        <ele>171</ele>
        <time>2018-01-07T11:05:55Z</time>
      </trkpt>
      <trkpt lat="45.92407" lon="4.73134">
        <ele>171</ele>
        <time>2018-01-07T11:05:56Z</time>
      </trkpt>
      <trkpt lat="45.92406" lon="4.73143">
        <ele>171</ele>
        <time>2018-01-07T11:05:57Z</time>
      </trkpt>
      <trkpt lat="45.92406" lon="4.7315">
        <ele>171</ele>
        <time>2018-01-07T11:05:58Z</time>
      </trkpt>
      <trkpt lat="45.92406" lon="4.73159">
        <ele>170</ele>
        <time>2018-01-07T11:05:59Z</time>
      </trkpt>
      <trkpt lat="45.92409" lon="4.73165">
        <ele>170</ele>
        <time>2018-01-07T11:06:00Z</time>
      </trkpt>
      <trkpt lat="45.92406" lon="4.73175">
        <ele>171</ele>
        <time>2018-01-07T11:06:01Z</time>
      </trkpt>
      <trkpt lat="45.92407" lon="4.73183">
        <ele>171</ele>
        <time>2018-01-07T11:06:02Z</time>
      </trkpt>
      <trkpt lat="45.92407" lon="4.7319">
        <ele>171</ele>
        <time>2018-01-07T11:06:03Z</time>
      </trkpt>
      <trkpt lat="45.92407" lon="4.73199">
        <ele>171</ele>
        <time>2018-01-07T11:06:04Z</time>
      </trkpt>
      <trkpt lat="45.92408" lon="4.73205">
        <ele>171</ele>
        <time>2018-01-07T11:06:05Z</time>
      </trkpt>
      <trkpt lat="45.92408" lon="4.73213">
        <ele>171</ele>
        <time>2018-01-07T11:06:06Z</time>
      </trkpt>
      <trkpt lat="45.92408" lon="4.73223">
        <ele>171</ele>
        <time>2018-01-07T11:06:07Z</time>
      </trkpt>
      <trkpt lat="45.92408" lon="4.73233">
        <ele>171</ele>
        <time>2018-01-07T11:06:08Z</time>
      </trkpt>
      <trkpt lat="45.92408" lon="4.73241">
        <ele>171</ele>
        <time>2018-01-07T11:06:09Z</time>
      </trkpt>
      <trkpt lat="45.92408" lon="4.73249">
        <ele>171</ele>
        <time>2018-01-07T11:06:10Z</time>
      </trkpt>
      <trkpt lat="45.92407" lon="4.73258">
        <ele>171</ele>
        <time>2018-01-07T11:06:11Z</time>
      </trkpt>
      <trkpt lat="45.92407" lon="4.73265">
        <ele>171</ele>
        <time>2018-01-07T11:06:12Z</time>
      </trkpt>
      <trkpt lat="45.92407" lon="4.73273">
        <ele>171</ele>
        <time>2018-01-07T11:06:13Z</time>
      </trkpt>
      <trkpt lat="45.92409" lon="4.73281">
        <ele>171</ele>
        <time>2018-01-07T11:06:14Z</time>
      </trkpt>
      <trkpt lat="45.92409" lon="4.73288">
        <ele>171</ele>
        <time>2018-01-07T11:06:15Z</time>
      </trkpt>
      <trkpt lat="45.92411" lon="4.73295">
        <ele>171</ele>
        <time>2018-01-07T11:06:16Z</time>
      </trkpt>
      <trkpt lat="45.92412" lon="4.73302">
        <ele>171</ele>
        <time>2018-01-07T11:06:17Z</time>
      </trkpt>
      <trkpt lat="45.92413" lon="4.73315">
        <ele>171</ele>
        <time>2018-01-07T11:06:19Z</time>
      </trkpt>
      <trkpt lat="45.92414" lon="4.73322">
        <ele>171</ele>
        <time>2018-01-07T11:06:20Z</time>
      </trkpt>
      <trkpt lat="45.92415" lon="4.73329">
        <ele>171</ele>
        <time>2018-01-07T11:06:21Z</time>
      </trkpt>
      <trkpt lat="45.92415" lon="4.73335">
        <ele>171</ele>
        <time>2018-01-07T11:06:22Z</time>
      </trkpt>
      <trkpt lat="45.92417" lon="4.73343">
        <ele>171</ele>
        <time>2018-01-07T11:06:23Z</time>
      </trkpt>
      <trkpt lat="45.92419" lon="4.7335">
        <ele>171</ele>
        <time>2018-01-07T11:06:24Z</time>
      </trkpt>
      <trkpt lat="45.92421" lon="4.73361">
        <ele>172</ele>
        <time>2018-01-07T11:06:26Z</time>
      </trkpt>
      <trkpt lat="45.92423" lon="4.73369">
        <ele>172</ele>
        <time>2018-01-07T11:06:27Z</time>
      </trkpt>
      <trkpt lat="45.92423" lon="4.73376">
        <ele>172</ele>
        <time>2018-01-07T11:06:28Z</time>
      </trkpt>
      <trkpt lat="45.92425" lon="4.73382">
        <ele>172</ele>
        <time>2018-01-07T11:06:29Z</time>
      </trkpt>
      <trkpt lat="45.92426" lon="4.73391">
        <ele>172</ele>
        <time>2018-01-07T11:06:30Z</time>
      </trkpt>
      <trkpt lat="45.92426" lon="4.73397">
        <ele>172</ele>
        <time>2018-01-07T11:06:31Z</time>
      </trkpt>
      <trkpt lat="45.92428" lon="4.73404">
        <ele>172</ele>
        <time>2018-01-07T11:06:32Z</time>
      </trkpt>
      <trkpt lat="45.9243" lon="4.73409">
        <ele>172</ele>
        <time>2018-01-07T11:06:33Z</time>
      </trkpt>
      <trkpt lat="45.92436" lon="4.73418">
        <ele>173</ele>
        <time>2018-01-07T11:06:35Z</time>
      </trkpt>
      <trkpt lat="45.9244" lon="4.73421">
        <ele>173</ele>
        <time>2018-01-07T11:06:36Z</time>
      </trkpt>
      <trkpt lat="45.92447" lon="4.73427">
        <ele>173</ele>
        <time>2018-01-07T11:06:38Z</time>
      </trkpt>
      <trkpt lat="45.92451" lon="4.7343">
        <ele>173</ele>
        <time>2018-01-07T11:06:39Z</time>
      </trkpt>
      <trkpt lat="45.92457" lon="4.73438">
        <ele>173</ele>
        <time>2018-01-07T11:06:41Z</time>
      </trkpt>
      <trkpt lat="45.92459" lon="4.73441">
        <ele>173</ele>
        <time>2018-01-07T11:06:42Z</time>
      </trkpt>
      <trkpt lat="45.92463" lon="4.73451">
        <ele>173</ele>
        <time>2018-01-07T11:06:44Z</time>
      </trkpt>
      <trkpt lat="45.92464" lon="4.73457">
        <ele>173</ele>
        <time>2018-01-07T11:06:45Z</time>
      </trkpt>
      <trkpt lat="45.92465" lon="4.73463">
        <ele>173</ele>
        <time>2018-01-07T11:06:46Z</time>
      </trkpt>
      <trkpt lat="45.92466" lon="4.7347">
        <ele>173</ele>
        <time>2018-01-07T11:06:47Z</time>
      </trkpt>
      <trkpt lat="45.92466" lon="4.73483">
        <ele>173</ele>
        <time>2018-01-07T11:06:49Z</time>
      </trkpt>
      <trkpt lat="45.92466" lon="4.73488">
        <ele>173</ele>
        <time>2018-01-07T11:06:50Z</time>
      </trkpt>
      <trkpt lat="45.92466" lon="4.735">
        <ele>174</ele>
        <time>2018-01-07T11:06:52Z</time>
      </trkpt>
      <trkpt lat="45.92466" lon="4.73507">
        <ele>174</ele>
        <time>2018-01-07T11:06:53Z</time>
      </trkpt>
      <trkpt lat="45.92467" lon="4.73519">
        <ele>174</ele>
        <time>2018-01-07T11:06:55Z</time>
      </trkpt>
      <trkpt lat="45.92467" lon="4.73525">
        <ele>174</ele>
        <time>2018-01-07T11:06:56Z</time>
      </trkpt>
      <trkpt lat="45.92466" lon="4.73535">
        <ele>174</ele>
        <time>2018-01-07T11:06:58Z</time>
      </trkpt>
      <trkpt lat="45.92465" lon="4.7354">
        <ele>174</ele>
        <time>2018-01-07T11:06:59Z</time>
      </trkpt>
      <trkpt lat="45.92465" lon="4.73551">
        <ele>173</ele>
        <time>2018-01-07T11:07:01Z</time>
      </trkpt>
      <trkpt lat="45.92465" lon="4.73557">
        <ele>173</ele>
        <time>2018-01-07T11:07:02Z</time>
      </trkpt>
      <trkpt lat="45.92464" lon="4.73563">
        <ele>173</ele>
        <time>2018-01-07T11:07:03Z</time>
      </trkpt>
      <trkpt lat="45.92464" lon="4.7357">
        <ele>173</ele>
        <time>2018-01-07T11:07:04Z</time>
      </trkpt>
      <trkpt lat="45.92464" lon="4.73576">
        <ele>173</ele>
        <time>2018-01-07T11:07:05Z</time>
      </trkpt>
      <trkpt lat="45.92464" lon="4.73583">
        <ele>173</ele>
        <time>2018-01-07T11:07:06Z</time>
      </trkpt>
      <trkpt lat="45.92464" lon="4.73591">
        <ele>174</ele>
        <time>2018-01-07T11:07:07Z</time>
      </trkpt>
      <trkpt lat="45.92465" lon="4.73598">
        <ele>174</ele>
        <time>2018-01-07T11:07:08Z</time>
      </trkpt>
      <trkpt lat="45.92464" lon="4.73604">
        <ele>174</ele>
        <time>2018-01-07T11:07:09Z</time>
      </trkpt>
      <trkpt lat="45.92464" lon="4.73611">
        <ele>174</ele>
        <time>2018-01-07T11:07:10Z</time>
      </trkpt>
      <trkpt lat="45.92464" lon="4.73618">
        <ele>174</ele>
        <time>2018-01-07T11:07:11Z</time>
      </trkpt>
      <trkpt lat="45.92465" lon="4.73625">
        <ele>174</ele>
        <time>2018-01-07T11:07:12Z</time>
      </trkpt>
      <trkpt lat="45.92466" lon="4.73637">
        <ele>174</ele>
        <time>2018-01-07T11:07:14Z</time>
      </trkpt>
      <trkpt lat="45.92464" lon="4.73644">
        <ele>174</ele>
        <time>2018-01-07T11:07:15Z</time>
      </trkpt>
      <trkpt lat="45.92464" lon="4.73655">
        <ele>174</ele>
        <time>2018-01-07T11:07:17Z</time>
      </trkpt>
      <trkpt lat="45.92463" lon="4.73661">
        <ele>174</ele>
        <time>2018-01-07T11:07:18Z</time>
      </trkpt>
      <trkpt lat="45.92463" lon="4.73674">
        <ele>174</ele>
        <time>2018-01-07T11:07:20Z</time>
      </trkpt>
      <trkpt lat="45.92463" lon="4.7368">
        <ele>174</ele>
        <time>2018-01-07T11:07:21Z</time>
      </trkpt>
      <trkpt lat="45.92463" lon="4.73692">
        <ele>174</ele>
        <time>2018-01-07T11:07:23Z</time>
      </trkpt>
      <trkpt lat="45.92464" lon="4.73699">
        <ele>174</ele>
        <time>2018-01-07T11:07:24Z</time>
      </trkpt>
      <trkpt lat="45.92462" lon="4.73711">
        <ele>174</ele>
        <time>2018-01-07T11:07:34Z</time>
      </trkpt>
      <trkpt lat="45.92462" lon="4.73712">
        <ele>174</ele>
        <time>2018-01-07T11:07:35Z</time>
      </trkpt>
      <trkpt lat="45.92462" lon="4.73713">
        <ele>174</ele>
        <time>2018-01-07T11:08:15.258Z</time>
      </trkpt>
    </trkseg>
  </trk>
</gpx>